GFSSW_prec_precacc_021.txt.gz
Total_Precipitation_Accumulation
0.05 0.06 0.07 0.08 0.08 0.09 0.08 0.06 0.05 0.03 0.00 0.01 0.04 0.11 0.13 0.12 0.08 0.05 0.02 0.00 0.00 0.00 0.00 0.00 0.00 0.00 0.00 0.00 0.00 0.00 0.00 0.00 0.00 0.00 0.00 0.00 0.00 0.00 0.00 0.00 0.00 0.00 0.00 0.00 0.00
0.05 0.05 0.05 0.08 0.08 0.07 0.06 0.05 0.04 0.04 0.02 0.00 0.01 0.06 0.13 0.17 0.07 0.03 0.00 0.00 0.00 0.00 0.00 0.00 0.00 0.00 0.00 0.00 0.00 0.00 0.00 0.00 0.00 0.00 0.00 0.00 0.00 0.00 0.00 0.00 0.00 0.00 0.00 0.00 0.00
0.05 0.05 0.05 0.08 0.10 0.07 0.07 0.06 0.04 0.05 0.05 0.01 0.00 0.01 0.08 0.20 0.16 0.03 0.00 0.01 0.05 0.07 0.00 0.00 0.00 0.00 0.00 0.00 0.00 0.00 0.00 0.00 0.00 0.00 0.00 0.00 0.00 0.00 0.00 0.00 0.00 0.00 0.00 0.00 0.00
0.08 0.06 0.06 0.08 0.09 0.09 0.08 0.08 0.09 0.08 0.08 0.02 0.00 0.00 0.04 0.22 0.10 0.03 0.00 0.01 0.08 0.23 0.00 0.00 0.00 0.00 0.00 0.00 0.00 0.00 0.00 0.00 0.00 0.00 0.00 0.00 0.00 0.00 0.00 0.00 0.00 0.00 0.00 0.00 0.00
0.11 0.11 0.09 0.08 0.09 0.11 0.09 0.07 0.09 0.16 0.13 0.06 0.01 0.01 0.03 0.12 0.05 0.01 0.01 0.03 0.12 0.26 0.02 0.00 0.00 0.00 0.00 0.00 0.00 0.00 0.00 0.00 0.00 0.00 0.00 0.00 0.00 0.00 0.00 0.00 0.00 0.00 0.00 0.00 0.00
0.11 0.10 0.10 0.11 0.10 0.10 0.09 0.07 0.09 0.13 0.14 0.11 0.04 0.02 0.01 0.05 0.01 0.00 0.00 0.01 0.05 0.22 0.10 0.01 0.00 0.00 0.00 0.00 0.00 0.00 0.00 0.00 0.00 0.00 0.00 0.00 0.00 0.00 0.00 0.00 0.00 0.00 0.00 0.00 0.00
0.13 0.13 0.12 0.12 0.12 0.10 0.09 0.07 0.13 0.17 0.15 0.14 0.06 0.01 0.00 0.00 0.00 0.00 0.00 0.00 0.01 0.17 0.19 0.05 0.01 0.01 0.02 0.01 0.00 0.00 0.00 0.00 0.00 0.00 0.00 0.00 0.00 0.00 0.00 0.00 0.00 0.00 0.00 0.00 0.00
0.14 0.17 0.14 0.15 0.14 0.12 0.10 0.09 0.14 0.20 0.25 0.21 0.12 0.02 0.00 0.00 0.00 0.00 0.00 0.00 0.00 0.06 0.26 0.18 0.03 0.01 0.01 0.01 0.00 0.00 0.00 0.00 0.00 0.00 0.00 0.00 0.00 0.00 0.00 0.00 0.00 0.00 0.00 0.00 0.00
0.17 0.16 0.17 0.20 0.19 0.20 0.23 0.24 0.25 0.20 0.31 0.35 0.14 0.02 0.00 0.00 0.00 0.00 0.00 0.00 0.03 0.05 0.21 0.10 0.09 0.01 0.00 0.01 0.01 0.00 0.00 0.00 0.00 0.00 0.00 0.00 0.00 0.00 0.00 0.00 0.00 0.00 0.00 0.00 0.00
0.14 0.17 0.19 0.24 0.24 0.27 0.42 0.52 0.52 0.43 0.46 0.49 0.13 0.03 0.00 0.00 0.00 0.00 0.00 0.00 0.03 0.06 0.12 0.07 0.13 0.05 0.01 0.01 0.00 0.00 0.00 0.00 0.00 0.00 0.00 0.00 0.00 0.00 0.00 0.00 0.00 0.00 0.00 0.00 0.00
0.16 0.18 0.23 0.28 0.30 0.47 0.70 0.97 0.84 0.76 0.68 0.41 0.09 0.00 0.00 0.00 0.00 0.00 0.00 0.00 0.01 0.04 0.02 0.03 0.06 0.04 0.00 0.00 0.00 0.00 0.00 0.00 0.00 0.00 0.00 0.00 0.00 0.00 0.00 0.00 0.00 0.00 0.00 0.00 0.00
0.16 0.23 0.27 0.25 0.30 0.65 0.78 0.89 0.57 0.46 0.50 0.20 0.05 0.00 0.00 0.00 0.00 0.00 0.00 0.00 0.00 0.01 0.00 0.00 0.01 0.00 0.00 0.00 0.00 0.00 0.00 0.00 0.00 0.00 0.00 0.00 0.00 0.00 0.00 0.00 0.00 0.00 0.00 0.00 0.00
0.20 0.23 0.31 0.31 0.45 0.81 0.54 0.52 0.56 0.43 0.48 0.28 0.08 0.01 0.00 0.00 0.00 0.00 0.00 0.00 0.00 0.00 0.00 0.00 0.00 0.00 0.00 0.00 0.00 0.00 0.00 0.00 0.00 0.00 0.00 0.00 0.00 0.00 0.00 0.00 0.00 0.00 0.00 0.00 0.00
0.27 0.21 0.31 0.54 1.01 0.65 0.59 0.36 0.71 0.64 0.52 0.31 0.13 0.01 0.00 0.00 0.00 0.00 0.00 0.00 0.00 0.00 0.00 0.00 0.00 0.00 0.00 0.00 0.00 0.00 0.00 0.00 0.00 0.00 0.00 0.01 0.01 0.00 0.00 0.00 0.00 0.00 0.00 0.00 0.00
0.31 0.29 0.37 0.88 1.05 0.69 0.68 0.89 0.98 0.89 0.67 0.18 0.07 0.00 0.01 0.00 0.00 0.00 0.00 0.00 0.00 0.00 0.00 0.01 0.00 0.00 0.00 0.00 0.00 0.00 0.00 0.00 0.01 0.02 0.03 0.00 0.03 0.00 0.00 0.00 0.00 0.00 0.00 0.00 0.00
0.43 0.57 0.82 1.01 0.90 0.59 0.62 1.26 1.45 0.93 0.49 0.20 0.07 0.04 0.04 0.02 0.01 0.00 0.01 0.02 0.01 0.01 0.01 0.00 0.00 0.00 0.00 0.00 0.00 0.00 0.02 0.01 0.02 0.05 0.09 0.00 0.01 0.00 0.00 0.00 0.00 0.00 0.00 0.00 0.00
0.74 1.13 1.20 0.98 0.75 0.54 1.03 1.39 1.42 0.62 0.12 0.04 0.02 0.04 0.02 0.01 0.03 0.01 0.02 0.04 0.05 0.09 0.10 0.06 0.01 0.00 0.00 0.00 0.00 0.01 0.07 0.17 0.17 0.17 0.05 0.00 0.00 0.00 0.00 0.00 0.00 0.00 0.00 0.00 0.00
0.91 0.98 0.92 0.76 0.62 1.11 1.09 0.85 0.85 0.28 0.03 0.01 0.01 0.02 0.02 0.01 0.03 0.02 0.03 0.04 0.03 0.10 0.14 0.06 0.02 0.00 0.00 0.00 0.00 0.00 0.03 0.10 0.08 0.03 0.01 0.00 0.00 0.00 0.00 0.00 0.00 0.00 0.00 0.00 0.00
0.75 0.99 1.13 0.97 0.81 1.29 0.96 0.60 0.62 0.19 0.00 0.01 0.03 0.03 0.03 0.01 0.01 0.03 0.04 0.01 0.00 0.01 0.05 0.04 0.01 0.00 0.00 0.00 0.03 0.12 0.17 0.05 0.16 0.12 0.22 0.02 0.00 0.00 0.00 0.00 0.00 0.00 0.00 0.00 0.00
0.71 1.33 1.05 0.90 0.93 1.09 0.80 0.38 0.31 0.03 0.00 0.00 0.02 0.01 0.01 0.00 0.02 0.02 0.01 0.00 0.00 0.00 0.00 0.00 0.02 0.00 0.00 0.01 0.01 0.04 0.05 0.16 0.43 0.23 0.12 0.01 0.00 0.00 0.00 0.00 0.00 0.00 0.00 0.00 0.00
0.74 1.23 1.09 0.78 1.05 1.04 0.69 0.52 0.20 0.00 0.00 0.00 0.00 0.00 0.00 0.00 0.00 0.00 0.00 0.00 0.00 0.00 0.00 0.01 0.04 0.01 0.02 0.01 0.00 0.02 0.13 0.12 0.16 0.12 0.08 0.04 0.00 0.00 0.00 0.00 0.00 0.00 0.00 0.00 0.01
1.01 0.99 1.02 0.91 1.18 0.84 0.46 0.34 0.11 0.01 0.01 0.00 0.00 0.00 0.00 0.00 0.00 0.00 0.00 0.00 0.00 0.00 0.00 0.00 0.08 0.06 0.01 0.00 0.00 0.00 0.00 0.03 0.19 0.06 0.12 0.10 0.04 0.01 0.03 0.01 0.00 0.01 0.01 0.01 0.01
0.89 0.94 1.09 0.56 0.44 0.32 0.25 0.04 0.01 0.03 0.02 0.00 0.00 0.00 0.00 0.00 0.00 0.00 0.00 0.00 0.00 0.00 0.00 0.01 0.13 0.13 0.09 0.12 0.10 0.12 0.02 0.08 0.16 0.35 0.24 0.14 0.03 0.01 0.02 0.01 0.00 0.00 0.00 0.01 0.00
0.82 1.21 1.62 0.89 0.18 0.06 0.13 0.06 0.02 0.03 0.01 0.01 0.02 0.02 0.01 0.00 0.00 0.00 0.00 0.00 0.00 0.00 0.01 0.11 0.17 0.11 0.10 0.29 0.41 0.32 0.07 0.09 0.35 0.50 0.09 0.05 0.02 0.01 0.03 0.03 0.04 0.03 0.01 0.01 0.01
0.52 0.32 0.43 0.54 0.15 0.03 0.04 0.04 0.01 0.01 0.01 0.03 0.04 0.04 0.02 0.01 0.00 0.00 0.00 0.00 0.00 0.02 0.13 0.33 0.25 0.11 0.12 0.22 0.58 0.38 0.14 0.10 0.37 0.17 0.22 0.08 0.04 0.04 0.04 0.04 0.05 0.04 0.03 0.03 0.03
0.61 0.17 0.01 0.01 0.02 0.01 0.01 0.01 0.01 0.01 0.03 0.04 0.01 0.01 0.03 0.03 0.01 0.00 0.00 0.00 0.01 0.03 0.13 0.31 0.38 0.33 0.34 0.25 0.35 0.27 0.07 0.11 0.12 0.04 0.04 0.01 0.04 0.05 0.05 0.02 0.08 0.06 0.02 0.00 0.00
0.69 0.22 0.02 0.02 0.01 0.00 0.00 0.00 0.00 0.02 0.02 0.00 0.01 0.02 0.03 0.01 0.01 0.01 0.01 0.01 0.01 0.06 0.26 0.41 0.47 0.64 0.48 0.18 0.19 0.26 0.08 0.06 0.09 0.07 0.03 0.04 0.05 0.07 0.25 0.45 0.38 0.10 0.04 0.02 0.02

GFSSW_prec_precacc_027.txt.gz
Total_Precipitation_Accumulation
0.05 0.07 0.08 0.08 0.09 0.09 0.08 0.07 0.06 0.07 0.09 0.11 0.28 0.22 0.13 0.12 0.09 0.08 0.03 0.00 0.00 0.00 0.00 0.00 0.00 0.00 0.00 0.00 0.00 0.00 0.00 0.00 0.00 0.00 0.00 0.00 0.00 0.00 0.00 0.00 0.00 0.00 0.00 0.00 0.00
0.08 0.07 0.07 0.09 0.09 0.08 0.06 0.05 0.04 0.05 0.06 0.08 0.12 0.29 0.15 0.18 0.08 0.04 0.00 0.00 0.00 0.00 0.00 0.00 0.00 0.00 0.00 0.00 0.00 0.00 0.00 0.00 0.00 0.00 0.00 0.00 0.00 0.00 0.00 0.00 0.00 0.00 0.00 0.00 0.00
0.09 0.08 0.08 0.11 0.12 0.10 0.08 0.06 0.05 0.05 0.07 0.09 0.12 0.24 0.19 0.22 0.18 0.03 0.00 0.01 0.05 0.07 0.00 0.00 0.00 0.00 0.00 0.00 0.00 0.00 0.00 0.00 0.00 0.00 0.00 0.00 0.00 0.00 0.00 0.00 0.00 0.00 0.00 0.00 0.00
0.12 0.12 0.09 0.10 0.13 0.12 0.10 0.09 0.09 0.08 0.09 0.10 0.15 0.17 0.21 0.25 0.10 0.03 0.00 0.01 0.09 0.23 0.00 0.00 0.00 0.00 0.00 0.00 0.00 0.00 0.00 0.00 0.00 0.00 0.00 0.00 0.00 0.00 0.00 0.00 0.00 0.00 0.00 0.00 0.00
0.19 0.16 0.13 0.11 0.13 0.13 0.10 0.07 0.09 0.16 0.13 0.08 0.20 0.31 0.25 0.14 0.06 0.01 0.02 0.05 0.15 0.28 0.03 0.00 0.00 0.00 0.00 0.00 0.00 0.00 0.00 0.00 0.00 0.00 0.00 0.00 0.00 0.00 0.00 0.00 0.00 0.00 0.00 0.00 0.00
0.16 0.15 0.12 0.12 0.14 0.12 0.09 0.07 0.09 0.13 0.14 0.16 0.22 0.56 0.31 0.07 0.01 0.00 0.03 0.13 0.13 0.24 0.10 0.01 0.00 0.00 0.00 0.00 0.00 0.00 0.00 0.00 0.00 0.00 0.00 0.00 0.00 0.00 0.00 0.00 0.00 0.00 0.00 0.00 0.00
0.19 0.18 0.13 0.14 0.17 0.13 0.09 0.08 0.13 0.17 0.15 0.19 0.41 0.39 0.32 0.03 0.00 0.00 0.06 0.14 0.14 0.20 0.20 0.05 0.01 0.01 0.02 0.01 0.00 0.00 0.00 0.00 0.00 0.00 0.00 0.00 0.00 0.00 0.00 0.00 0.00 0.00 0.00 0.00 0.00
0.19 0.20 0.16 0.18 0.17 0.14 0.11 0.10 0.14 0.20 0.26 0.27 0.45 0.42 0.15 0.02 0.00 0.00 0.04 0.11 0.12 0.16 0.28 0.21 0.04 0.01 0.01 0.01 0.00 0.00 0.00 0.00 0.00 0.00 0.00 0.00 0.00 0.00 0.00 0.00 0.00 0.00 0.00 0.00 0.00
0.20 0.19 0.22 0.23 0.21 0.23 0.24 0.25 0.25 0.20 0.32 0.45 0.50 0.31 0.04 0.00 0.00 0.00 0.00 0.07 0.11 0.22 0.39 0.13 0.16 0.04 0.00 0.01 0.01 0.00 0.00 0.00 0.00 0.00 0.00 0.00 0.00 0.00 0.00 0.00 0.00 0.00 0.00 0.00 0.00
0.17 0.20 0.22 0.26 0.27 0.28 0.43 0.52 0.52 0.43 0.47 0.64 0.67 0.40 0.09 0.00 0.00 0.01 0.01 0.03 0.10 0.29 0.34 0.22 0.33 0.15 0.03 0.01 0.00 0.00 0.00 0.00 0.00 0.00 0.00 0.00 0.00 0.00 0.00 0.00 0.00 0.00 0.00 0.00 0.00
0.19 0.20 0.24 0.30 0.31 0.49 0.72 0.97 0.85 0.76 0.74 0.61 0.43 0.14 0.03 0.00 0.00 0.02 0.01 0.05 0.17 0.20 0.15 0.17 0.20 0.16 0.06 0.01 0.00 0.00 0.00 0.00 0.00 0.00 0.00 0.00 0.00 0.00 0.00 0.00 0.00 0.00 0.00 0.00 0.00
0.18 0.25 0.28 0.26 0.31 0.65 0.78 0.89 0.57 0.47 0.62 0.37 0.19 0.05 0.00 0.00 0.00 0.01 0.01 0.05 0.13 0.08 0.04 0.08 0.18 0.10 0.06 0.02 0.00 0.00 0.00 0.00 0.00 0.00 0.00 0.00 0.00 0.00 0.00 0.00 0.00 0.00 0.00 0.00 0.00
0.21 0.25 0.34 0.36 0.47 0.83 0.54 0.53 0.56 0.44 0.63 0.48 0.31 0.07 0.00 0.00 0.00 0.00 0.00 0.01 0.11 0.05 0.02 0.02 0.03 0.06 0.05 0.03 0.00 0.00 0.00 0.00 0.00 0.00 0.00 0.00 0.00 0.00 0.00 0.00 0.00 0.00 0.00 0.00 0.00
0.36 0.32 0.43 0.70 1.07 0.71 0.65 0.39 0.71 0.65 0.74 0.67 0.48 0.08 0.00 0.00 0.00 0.00 0.00 0.00 0.03 0.03 0.01 0.01 0.00 0.03 0.02 0.01 0.00 0.00 0.00 0.00 0.00 0.00 0.00 0.01 0.01 0.00 0.00 0.00 0.00 0.00 0.00 0.00 0.00
0.42 0.51 0.60 1.13 1.24 0.88 0.80 0.90 1.00 0.92 1.05 0.57 0.37 0.11 0.01 0.00 0.00 0.02 0.01 0.00 0.00 0.01 0.00 0.01 0.00 0.00 0.00 0.00 0.00 0.00 0.00 0.00 0.01 0.02 0.03 0.00 0.03 0.00 0.00 0.00 0.00 0.00 0.00 0.00 0.00
0.53 0.67 0.92 1.07 0.99 0.80 0.67 1.26 1.45 1.08 1.05 0.67 0.22 0.08 0.05 0.02 0.01 0.01 0.01 0.02 0.01 0.02 0.02 0.00 0.00 0.00 0.00 0.00 0.00 0.00 0.02 0.01 0.02 0.05 0.09 0.00 0.01 0.00 0.00 0.00 0.00 0.00 0.00 0.00 0.00
0.80 1.19 1.26 0.99 0.77 0.55 1.03 1.39 1.45 0.85 0.50 0.25 0.10 0.06 0.02 0.02 0.04 0.03 0.03 0.04 0.06 0.09 0.13 0.07 0.01 0.00 0.00 0.00 0.00 0.01 0.07 0.17 0.17 0.17 0.05 0.00 0.00 0.00 0.00 0.00 0.00 0.00 0.00 0.00 0.00
0.95 1.01 0.94 0.77 0.62 1.11 1.10 0.86 1.04 0.59 0.21 0.07 0.02 0.03 0.02 0.02 0.04 0.03 0.03 0.04 0.03 0.10 0.14 0.06 0.02 0.00 0.00 0.00 0.00 0.00 0.03 0.10 0.08 0.03 0.01 0.00 0.00 0.00 0.00 0.00 0.00 0.00 0.00 0.00 0.00
0.75 0.99 1.14 0.99 0.82 1.30 0.98 0.69 0.87 0.42 0.07 0.03 0.05 0.03 0.04 0.01 0.02 0.05 0.04 0.01 0.00 0.01 0.05 0.04 0.01 0.00 0.00 0.00 0.03 0.12 0.17 0.05 0.16 0.12 0.22 0.02 0.00 0.00 0.00 0.00 0.00 0.00 0.00 0.00 0.00
0.71 1.33 1.06 0.93 0.93 1.11 0.86 0.60 0.47 0.05 0.00 0.00 0.05 0.01 0.01 0.01 0.02 0.02 0.01 0.00 0.00 0.00 0.00 0.00 0.02 0.00 0.00 0.01 0.01 0.04 0.05 0.16 0.43 0.23 0.12 0.01 0.00 0.00 0.00 0.00 0.00 0.00 0.00 0.00 0.00
0.74 1.23 1.09 0.78 1.06 1.05 0.80 0.77 0.32 0.01 0.00 0.00 0.00 0.00 0.00 0.00 0.00 0.00 0.00 0.00 0.00 0.00 0.00 0.01 0.04 0.01 0.02 0.01 0.00 0.02 0.13 0.12 0.16 0.12 0.08 0.04 0.00 0.00 0.00 0.00 0.00 0.00 0.00 0.00 0.01
1.01 0.99 1.02 0.91 1.18 0.86 0.55 0.44 0.14 0.02 0.01 0.00 0.00 0.00 0.00 0.00 0.00 0.00 0.00 0.00 0.00 0.00 0.00 0.00 0.08 0.06 0.01 0.00 0.00 0.00 0.00 0.03 0.19 0.06 0.12 0.10 0.04 0.01 0.03 0.01 0.00 0.01 0.01 0.01 0.01
0.89 0.94 1.09 0.56 0.44 0.32 0.26 0.04 0.01 0.03 0.02 0.00 0.00 0.00 0.00 0.00 0.00 0.00 0.00 0.00 0.00 0.00 0.00 0.01 0.13 0.13 0.09 0.12 0.10 0.12 0.02 0.08 0.16 0.35 0.25 0.14 0.03 0.01 0.02 0.01 0.00 0.00 0.00 0.01 0.01
0.82 1.21 1.62 0.89 0.18 0.06 0.13 0.06 0.02 0.03 0.01 0.01 0.02 0.02 0.01 0.00 0.00 0.00 0.00 0.00 0.00 0.00 0.01 0.11 0.17 0.11 0.10 0.29 0.41 0.32 0.07 0.09 0.35 0.52 0.09 0.05 0.02 0.01 0.03 0.03 0.04 0.03 0.01 0.01 0.01
0.52 0.32 0.43 0.54 0.15 0.03 0.04 0.04 0.01 0.01 0.01 0.03 0.04 0.04 0.02 0.01 0.00 0.00 0.00 0.00 0.00 0.02 0.13 0.33 0.25 0.11 0.12 0.22 0.58 0.38 0.14 0.10 0.37 0.18 0.23 0.08 0.04 0.04 0.04 0.05 0.05 0.04 0.03 0.03 0.03
0.61 0.17 0.01 0.01 0.02 0.01 0.01 0.01 0.01 0.01 0.03 0.04 0.01 0.01 0.03 0.03 0.01 0.00 0.00 0.00 0.01 0.03 0.13 0.31 0.38 0.33 0.34 0.25 0.35 0.27 0.07 0.11 0.12 0.04 0.04 0.02 0.04 0.05 0.05 0.03 0.08 0.06 0.02 0.01 0.00
0.70 0.22 0.02 0.02 0.01 0.00 0.00 0.00 0.00 0.02 0.02 0.00 0.01 0.02 0.03 0.01 0.01 0.01 0.01 0.01 0.01 0.06 0.26 0.41 0.47 0.64 0.48 0.18 0.19 0.26 0.08 0.06 0.09 0.07 0.03 0.04 0.05 0.07 0.25 0.45 0.39 0.10 0.04 0.02 0.02

GFSSW_prec_precacc_030.txt.gz
Total_Precipitation_Accumulation
0.08 0.10 0.12 0.11 0.12 0.11 0.09 0.08 0.06 0.07 0.09 0.11 0.28 0.34 0.28 0.16 0.10 0.09 0.03 0.00 0.00 0.00 0.00 0.00 0.00 0.00 0.00 0.00 0.00 0.00 0.00 0.00 0.00 0.00 0.00 0.00 0.00 0.00 0.00 0.00 0.00 0.00 0.00 0.00 0.00
0.08 0.09 0.09 0.12 0.11 0.10 0.10 0.08 0.06 0.05 0.06 0.08 0.12 0.36 0.39 0.29 0.09 0.04 0.00 0.00 0.00 0.00 0.01 0.00 0.00 0.00 0.00 0.00 0.00 0.00 0.00 0.00 0.00 0.00 0.00 0.00 0.00 0.00 0.00 0.00 0.00 0.00 0.00 0.00 0.00
0.10 0.10 0.10 0.13 0.15 0.15 0.14 0.09 0.06 0.05 0.07 0.09 0.12 0.25 0.48 0.49 0.21 0.03 0.00 0.01 0.05 0.07 0.01 0.00 0.00 0.00 0.00 0.00 0.00 0.00 0.00 0.00 0.00 0.00 0.00 0.00 0.00 0.00 0.00 0.00 0.00 0.00 0.00 0.00 0.00
0.14 0.15 0.12 0.12 0.15 0.16 0.12 0.10 0.10 0.08 0.09 0.10 0.15 0.17 0.32 0.65 0.18 0.04 0.00 0.01 0.09 0.23 0.01 0.01 0.00 0.00 0.00 0.00 0.00 0.00 0.00 0.00 0.00 0.00 0.00 0.00 0.00 0.00 0.00 0.00 0.00 0.00 0.00 0.00 0.00
0.21 0.18 0.15 0.13 0.16 0.16 0.11 0.08 0.10 0.16 0.13 0.08 0.20 0.31 0.35 0.38 0.09 0.03 0.03 0.05 0.15 0.30 0.03 0.01 0.00 0.00 0.00 0.00 0.00 0.00 0.00 0.00 0.00 0.00 0.00 0.00 0.00 0.00 0.00 0.00 0.00 0.00 0.00 0.00 0.00
0.18 0.17 0.14 0.15 0.16 0.14 0.10 0.07 0.10 0.13 0.15 0.16 0.22 0.57 0.35 0.15 0.02 0.00 0.04 0.15 0.13 0.25 0.11 0.01 0.01 0.00 0.00 0.00 0.00 0.00 0.00 0.00 0.00 0.00 0.00 0.00 0.00 0.00 0.00 0.00 0.00 0.00 0.00 0.00 0.00
0.21 0.19 0.14 0.15 0.19 0.15 0.10 0.09 0.14 0.18 0.16 0.19 0.41 0.41 0.38 0.06 0.01 0.00 0.07 0.21 0.18 0.21 0.20 0.05 0.01 0.01 0.02 0.01 0.00 0.00 0.00 0.00 0.00 0.00 0.00 0.00 0.00 0.00 0.00 0.00 0.00 0.00 0.00 0.00 0.00
0.21 0.22 0.17 0.19 0.18 0.16 0.11 0.11 0.15 0.21 0.27 0.27 0.46 0.47 0.22 0.07 0.02 0.00 0.09 0.22 0.30 0.29 0.31 0.21 0.04 0.02 0.01 0.01 0.00 0.00 0.00 0.00 0.00 0.00 0.00 0.00 0.00 0.00 0.00 0.00 0.00 0.00 0.00 0.00 0.00
0.23 0.22 0.24 0.23 0.22 0.25 0.25 0.25 0.25 0.20 0.33 0.46 0.51 0.41 0.12 0.09 0.05 0.02 0.06 0.19 0.26 0.35 0.45 0.16 0.17 0.05 0.00 0.01 0.01 0.00 0.00 0.00 0.00 0.00 0.00 0.00 0.00 0.00 0.00 0.00 0.00 0.00 0.00 0.00 0.00
0.20 0.22 0.22 0.26 0.28 0.29 0.43 0.52 0.52 0.43 0.47 0.65 0.68 0.48 0.17 0.02 0.05 0.04 0.07 0.13 0.21 0.45 0.43 0.25 0.35 0.16 0.03 0.01 0.00 0.00 0.00 0.00 0.00 0.00 0.00 0.00 0.00 0.00 0.00 0.00 0.00 0.00 0.00 0.00 0.00
0.21 0.21 0.25 0.30 0.31 0.49 0.72 0.97 0.85 0.76 0.74 0.61 0.44 0.18 0.06 0.02 0.01 0.06 0.05 0.13 0.34 0.67 0.23 0.18 0.23 0.17 0.06 0.01 0.00 0.00 0.00 0.00 0.00 0.00 0.00 0.00 0.00 0.00 0.00 0.00 0.00 0.00 0.00 0.00 0.00
0.21 0.27 0.32 0.30 0.37 0.67 0.78 0.89 0.57 0.47 0.62 0.39 0.24 0.16 0.04 0.02 0.01 0.06 0.03 0.12 0.21 0.30 0.19 0.11 0.20 0.10 0.06 0.02 0.00 0.00 0.00 0.00 0.00 0.00 0.00 0.00 0.00 0.00 0.00 0.00 0.00 0.00 0.00 0.00 0.00
0.28 0.35 0.42 0.41 0.54 0.83 0.55 0.53 0.56 0.44 0.63 0.56 0.41 0.23 0.04 0.03 0.01 0.03 0.04 0.05 0.17 0.11 0.10 0.14 0.13 0.14 0.08 0.04 0.01 0.00 0.00 0.00 0.00 0.00 0.00 0.00 0.00 0.00 0.00 0.00 0.00 0.00 0.00 0.00 0.00
0.42 0.41 0.57 0.78 1.10 0.71 0.68 0.39 0.71 0.65 0.75 0.81 0.70 0.25 0.04 0.02 0.01 0.01 0.05 0.06 0.14 0.17 0.07 0.12 0.08 0.10 0.11 0.07 0.01 0.00 0.00 0.00 0.00 0.00 0.00 0.01 0.01 0.00 0.00 0.00 0.00 0.00 0.00 0.00 0.00
0.45 0.54 0.65 1.17 1.25 0.88 0.82 0.90 1.00 0.92 1.09 0.70 0.50 0.17 0.03 0.00 0.00 0.03 0.04 0.03 0.06 0.10 0.05 0.02 0.04 0.06 0.09 0.07 0.01 0.00 0.00 0.00 0.01 0.02 0.03 0.00 0.03 0.00 0.00 0.00 0.00 0.00 0.00 0.00 0.00
0.56 0.69 0.93 1.07 0.99 0.80 0.67 1.26 1.46 1.09 1.17 0.74 0.28 0.10 0.05 0.02 0.01 0.02 0.03 0.03 0.04 0.05 0.04 0.00 0.00 0.00 0.02 0.02 0.00 0.00 0.02 0.01 0.02 0.05 0.09 0.00 0.01 0.00 0.00 0.00 0.00 0.00 0.00 0.00 0.00
0.81 1.20 1.26 0.99 0.77 0.55 1.03 1.39 1.46 0.90 0.59 0.31 0.16 0.07 0.03 0.03 0.04 0.03 0.03 0.04 0.07 0.11 0.16 0.07 0.01 0.00 0.00 0.00 0.00 0.01 0.07 0.17 0.17 0.17 0.05 0.00 0.00 0.00 0.00 0.00 0.00 0.00 0.00 0.00 0.00
0.95 1.01 0.94 0.77 0.62 1.11 1.10 0.86 1.10 0.65 0.29 0.11 0.03 0.03 0.02 0.02 0.04 0.03 0.03 0.04 0.03 0.10 0.14 0.07 0.02 0.00 0.00 0.00 0.00 0.00 0.03 0.10 0.08 0.03 0.01 0.00 0.00 0.00 0.00 0.00 0.00 0.00 0.00 0.00 0.00
0.75 0.99 1.14 0.99 0.82 1.30 0.98 0.70 0.93 0.53 0.14 0.06 0.05 0.04 0.05 0.01 0.02 0.05 0.04 0.01 0.00 0.01 0.05 0.04 0.01 0.00 0.00 0.00 0.03 0.12 0.17 0.05 0.16 0.12 0.22 0.02 0.00 0.00 0.00 0.00 0.00 0.00 0.00 0.00 0.00
0.71 1.33 1.06 0.93 0.93 1.11 0.86 0.61 0.48 0.06 0.00 0.00 0.05 0.02 0.01 0.01 0.02 0.03 0.01 0.00 0.00 0.00 0.00 0.00 0.02 0.00 0.00 0.01 0.01 0.04 0.05 0.16 0.43 0.23 0.12 0.01 0.00 0.00 0.00 0.00 0.00 0.00 0.00 0.00 0.00
0.74 1.23 1.09 0.78 1.06 1.05 0.80 0.77 0.32 0.01 0.00 0.00 0.00 0.00 0.00 0.00 0.00 0.00 0.00 0.00 0.00 0.00 0.00 0.01 0.04 0.01 0.02 0.01 0.00 0.02 0.13 0.12 0.16 0.12 0.08 0.04 0.00 0.00 0.00 0.00 0.00 0.00 0.00 0.00 0.01
1.01 0.99 1.02 0.91 1.18 0.86 0.55 0.44 0.14 0.02 0.01 0.00 0.00 0.00 0.00 0.00 0.00 0.00 0.00 0.00 0.00 0.00 0.00 0.00 0.08 0.06 0.01 0.00 0.00 0.00 0.00 0.03 0.19 0.06 0.12 0.10 0.04 0.01 0.03 0.01 0.00 0.01 0.01 0.01 0.01
0.89 0.94 1.09 0.56 0.44 0.32 0.26 0.04 0.01 0.03 0.02 0.00 0.00 0.00 0.00 0.00 0.00 0.00 0.00 0.00 0.00 0.00 0.00 0.01 0.13 0.13 0.09 0.12 0.10 0.12 0.02 0.08 0.16 0.35 0.25 0.14 0.03 0.01 0.02 0.01 0.00 0.00 0.00 0.01 0.01
0.82 1.21 1.62 0.89 0.18 0.06 0.13 0.06 0.02 0.03 0.01 0.01 0.02 0.02 0.01 0.00 0.00 0.00 0.00 0.00 0.00 0.00 0.01 0.11 0.17 0.11 0.10 0.29 0.41 0.32 0.07 0.09 0.35 0.52 0.09 0.05 0.02 0.01 0.03 0.03 0.04 0.03 0.01 0.01 0.01
0.52 0.32 0.43 0.54 0.15 0.03 0.04 0.04 0.01 0.01 0.01 0.03 0.04 0.04 0.02 0.01 0.00 0.00 0.00 0.00 0.00 0.02 0.13 0.33 0.25 0.11 0.12 0.22 0.58 0.38 0.14 0.10 0.37 0.18 0.23 0.08 0.04 0.04 0.04 0.05 0.05 0.04 0.03 0.03 0.03
0.61 0.17 0.01 0.01 0.02 0.01 0.01 0.01 0.01 0.01 0.03 0.04 0.01 0.01 0.03 0.03 0.01 0.00 0.00 0.00 0.01 0.03 0.13 0.31 0.38 0.33 0.34 0.25 0.35 0.27 0.07 0.11 0.12 0.04 0.04 0.02 0.04 0.05 0.05 0.03 0.08 0.06 0.02 0.01 0.00
0.70 0.22 0.03 0.02 0.01 0.00 0.00 0.00 0.00 0.02 0.02 0.00 0.01 0.02 0.03 0.01 0.01 0.01 0.01 0.01 0.01 0.06 0.26 0.41 0.47 0.64 0.48 0.18 0.19 0.26 0.08 0.06 0.09 0.07 0.03 0.04 0.05 0.07 0.25 0.45 0.39 0.10 0.04 0.02 0.02

GFSSW_prec_precacc_033.txt.gz
Total_Precipitation_Accumulation
0.09 0.11 0.13 0.13 0.14 0.16 0.14 0.12 0.11 0.10 0.09 0.11 0.28 0.34 0.31 0.30 0.25 0.11 0.04 0.00 0.00 0.00 0.00 0.00 0.00 0.00 0.00 0.00 0.00 0.00 0.00 0.00 0.00 0.00 0.00 0.00 0.00 0.00 0.00 0.00 0.00 0.00 0.00 0.00 0.00
0.10 0.10 0.12 0.14 0.13 0.12 0.13 0.12 0.10 0.07 0.07 0.08 0.12 0.36 0.40 0.45 0.25 0.06 0.00 0.00 0.00 0.00 0.01 0.00 0.00 0.00 0.00 0.00 0.00 0.00 0.00 0.00 0.00 0.00 0.00 0.00 0.00 0.00 0.00 0.00 0.00 0.00 0.00 0.00 0.00
0.11 0.12 0.12 0.16 0.17 0.20 0.16 0.14 0.12 0.09 0.08 0.09 0.12 0.25 0.48 0.56 0.36 0.05 0.00 0.01 0.05 0.07 0.02 0.00 0.00 0.00 0.00 0.00 0.00 0.00 0.00 0.00 0.00 0.00 0.00 0.00 0.00 0.00 0.00 0.00 0.00 0.00 0.00 0.00 0.00
0.15 0.16 0.14 0.15 0.17 0.18 0.13 0.11 0.10 0.09 0.10 0.10 0.15 0.17 0.32 0.73 0.30 0.08 0.02 0.01 0.09 0.23 0.03 0.02 0.00 0.00 0.00 0.00 0.00 0.00 0.00 0.00 0.00 0.00 0.00 0.00 0.00 0.00 0.00 0.00 0.00 0.00 0.00 0.00 0.00
0.22 0.22 0.18 0.14 0.18 0.17 0.11 0.08 0.10 0.17 0.14 0.09 0.20 0.31 0.36 0.51 0.22 0.08 0.05 0.07 0.15 0.30 0.04 0.02 0.00 0.00 0.00 0.00 0.00 0.00 0.00 0.00 0.00 0.00 0.00 0.00 0.00 0.00 0.00 0.00 0.00 0.00 0.00 0.00 0.00
0.22 0.21 0.18 0.16 0.17 0.15 0.10 0.08 0.11 0.14 0.16 0.16 0.23 0.58 0.37 0.21 0.07 0.06 0.06 0.17 0.14 0.26 0.12 0.03 0.01 0.00 0.00 0.00 0.00 0.00 0.00 0.00 0.00 0.00 0.00 0.00 0.00 0.00 0.00 0.00 0.00 0.00 0.00 0.00 0.00
0.26 0.24 0.17 0.17 0.21 0.16 0.11 0.10 0.15 0.20 0.17 0.22 0.45 0.43 0.40 0.08 0.02 0.07 0.08 0.27 0.20 0.22 0.20 0.06 0.01 0.01 0.02 0.01 0.00 0.00 0.00 0.00 0.00 0.00 0.00 0.00 0.00 0.00 0.00 0.00 0.00 0.00 0.00 0.00 0.00
0.25 0.27 0.24 0.24 0.21 0.17 0.11 0.11 0.15 0.22 0.28 0.29 0.47 0.50 0.23 0.07 0.02 0.04 0.10 0.31 0.37 0.33 0.31 0.22 0.04 0.02 0.01 0.01 0.00 0.00 0.00 0.00 0.00 0.00 0.00 0.00 0.00 0.00 0.00 0.00 0.00 0.00 0.00 0.00 0.00
0.27 0.26 0.29 0.27 0.24 0.26 0.25 0.25 0.25 0.20 0.34 0.51 0.53 0.43 0.14 0.09 0.05 0.02 0.06 0.28 0.36 0.48 0.56 0.25 0.20 0.06 0.00 0.01 0.01 0.00 0.00 0.00 0.00 0.00 0.00 0.00 0.00 0.00 0.00 0.00 0.00 0.00 0.00 0.00 0.00
0.25 0.28 0.26 0.28 0.28 0.29 0.43 0.52 0.52 0.43 0.48 0.66 0.69 0.50 0.18 0.02 0.06 0.04 0.11 0.25 0.31 0.59 0.57 0.36 0.38 0.17 0.03 0.01 0.00 0.00 0.00 0.00 0.00 0.00 0.00 0.00 0.00 0.00 0.00 0.00 0.00 0.00 0.00 0.00 0.00
0.27 0.28 0.30 0.32 0.34 0.51 0.72 0.97 0.85 0.76 0.76 0.61 0.45 0.21 0.09 0.03 0.05 0.08 0.14 0.27 0.54 0.85 0.26 0.20 0.24 0.17 0.06 0.01 0.00 0.00 0.00 0.00 0.00 0.00 0.00 0.00 0.00 0.00 0.00 0.00 0.00 0.00 0.00 0.00 0.00
0.26 0.33 0.36 0.32 0.44 0.71 0.78 0.89 0.57 0.47 0.62 0.39 0.25 0.21 0.09 0.04 0.05 0.11 0.27 0.45 0.62 0.81 0.28 0.13 0.22 0.10 0.06 0.02 0.00 0.00 0.00 0.00 0.00 0.00 0.00 0.00 0.00 0.00 0.00 0.00 0.00 0.00 0.00 0.00 0.00
0.30 0.38 0.43 0.41 0.57 0.83 0.55 0.53 0.56 0.44 0.63 0.57 0.42 0.28 0.06 0.05 0.03 0.09 0.44 0.57 0.52 0.47 0.27 0.15 0.14 0.15 0.08 0.05 0.01 0.00 0.00 0.00 0.00 0.00 0.00 0.00 0.00 0.00 0.00 0.00 0.00 0.00 0.00 0.00 0.00
0.43 0.42 0.59 0.79 1.11 0.71 0.68 0.39 0.71 0.65 0.77 0.85 0.89 0.38 0.08 0.03 0.05 0.05 0.28 0.26 0.31 0.40 0.30 0.21 0.09 0.16 0.13 0.08 0.01 0.00 0.00 0.00 0.00 0.00 0.00 0.01 0.01 0.00 0.00 0.00 0.00 0.00 0.00 0.00 0.00
0.46 0.55 0.68 1.18 1.25 0.88 0.82 0.90 1.00 0.93 1.16 0.96 0.78 0.28 0.07 0.01 0.05 0.06 0.09 0.06 0.09 0.25 0.16 0.12 0.12 0.16 0.17 0.10 0.02 0.00 0.00 0.00 0.01 0.02 0.03 0.00 0.03 0.00 0.00 0.00 0.00 0.00 0.00 0.00 0.00
0.56 0.69 0.93 1.07 0.99 0.80 0.67 1.26 1.46 1.09 1.30 0.86 0.38 0.14 0.06 0.03 0.04 0.05 0.11 0.09 0.10 0.13 0.12 0.05 0.03 0.08 0.14 0.11 0.04 0.01 0.02 0.01 0.02 0.05 0.09 0.00 0.01 0.00 0.00 0.00 0.00 0.00 0.00 0.00 0.00
0.81 1.20 1.26 0.99 0.77 0.55 1.03 1.39 1.46 0.92 0.63 0.37 0.18 0.07 0.03 0.03 0.05 0.04 0.10 0.11 0.09 0.21 0.26 0.10 0.01 0.00 0.04 0.07 0.02 0.01 0.07 0.17 0.17 0.17 0.05 0.00 0.00 0.00 0.00 0.00 0.00 0.00 0.00 0.00 0.00
0.95 1.01 0.94 0.77 0.62 1.11 1.10 0.86 1.12 0.69 0.32 0.14 0.03 0.03 0.02 0.03 0.05 0.03 0.03 0.04 0.03 0.10 0.15 0.07 0.03 0.00 0.00 0.00 0.00 0.00 0.03 0.10 0.08 0.03 0.01 0.00 0.00 0.00 0.00 0.00 0.00 0.00 0.00 0.00 0.00
0.75 0.99 1.14 0.99 0.82 1.30 0.98 0.70 0.94 0.56 0.16 0.06 0.05 0.04 0.05 0.01 0.02 0.05 0.04 0.01 0.00 0.01 0.05 0.04 0.01 0.00 0.00 0.00 0.03 0.12 0.17 0.05 0.16 0.12 0.22 0.02 0.00 0.00 0.00 0.00 0.00 0.00 0.00 0.00 0.00
0.71 1.33 1.06 0.93 0.93 1.11 0.86 0.61 0.48 0.06 0.00 0.00 0.05 0.02 0.01 0.01 0.02 0.03 0.01 0.00 0.00 0.00 0.00 0.00 0.02 0.00 0.00 0.01 0.01 0.04 0.05 0.16 0.43 0.23 0.12 0.01 0.00 0.00 0.00 0.00 0.00 0.00 0.00 0.00 0.00
0.74 1.23 1.09 0.78 1.06 1.05 0.80 0.77 0.32 0.01 0.00 0.00 0.00 0.00 0.00 0.00 0.00 0.00 0.00 0.00 0.00 0.00 0.00 0.01 0.04 0.01 0.02 0.01 0.00 0.02 0.13 0.12 0.16 0.12 0.08 0.04 0.00 0.00 0.00 0.00 0.00 0.00 0.00 0.00 0.01
1.01 0.99 1.02 0.91 1.18 0.86 0.55 0.44 0.14 0.02 0.01 0.00 0.00 0.00 0.00 0.00 0.00 0.00 0.00 0.00 0.00 0.00 0.00 0.00 0.08 0.06 0.01 0.00 0.00 0.00 0.00 0.03 0.19 0.06 0.12 0.10 0.04 0.01 0.03 0.01 0.00 0.01 0.01 0.01 0.01
0.89 0.94 1.09 0.56 0.44 0.32 0.26 0.04 0.01 0.03 0.02 0.00 0.00 0.00 0.00 0.00 0.00 0.00 0.00 0.00 0.00 0.00 0.00 0.01 0.13 0.13 0.09 0.12 0.10 0.12 0.02 0.08 0.16 0.35 0.25 0.14 0.03 0.01 0.02 0.01 0.00 0.00 0.00 0.01 0.01
0.82 1.21 1.62 0.89 0.18 0.06 0.13 0.06 0.02 0.03 0.01 0.01 0.02 0.02 0.01 0.00 0.00 0.00 0.00 0.00 0.00 0.00 0.01 0.11 0.17 0.11 0.10 0.29 0.41 0.32 0.07 0.09 0.35 0.52 0.09 0.05 0.02 0.01 0.03 0.03 0.04 0.03 0.01 0.01 0.01
0.52 0.32 0.43 0.54 0.15 0.03 0.04 0.04 0.01 0.01 0.01 0.03 0.04 0.04 0.02 0.01 0.00 0.00 0.00 0.00 0.00 0.02 0.13 0.33 0.25 0.11 0.12 0.22 0.58 0.38 0.14 0.10 0.37 0.18 0.23 0.08 0.04 0.04 0.04 0.05 0.05 0.04 0.03 0.03 0.03
0.61 0.17 0.01 0.01 0.02 0.01 0.01 0.01 0.01 0.01 0.03 0.04 0.01 0.01 0.03 0.03 0.01 0.00 0.00 0.00 0.01 0.03 0.13 0.31 0.38 0.33 0.34 0.25 0.35 0.27 0.07 0.11 0.12 0.04 0.04 0.02 0.04 0.05 0.05 0.03 0.08 0.06 0.02 0.01 0.00
0.70 0.22 0.03 0.02 0.01 0.00 0.00 0.00 0.00 0.02 0.02 0.00 0.01 0.02 0.03 0.01 0.01 0.01 0.01 0.01 0.01 0.06 0.26 0.41 0.47 0.64 0.48 0.18 0.19 0.26 0.08 0.06 0.09 0.07 0.03 0.04 0.05 0.07 0.25 0.45 0.39 0.10 0.04 0.02 0.02

GFSSW_prec_precacc_036.txt.gz
Total_Precipitation_Accumulation
0.09 0.11 0.14 0.14 0.16 0.18 0.16 0.16 0.15 0.19 0.12 0.11 0.28 0.34 0.31 0.31 0.33 0.20 0.06 0.00 0.00 0.00 0.01 0.00 0.01 0.01 0.00 0.00 0.00 0.00 0.00 0.00 0.00 0.00 0.00 0.00 0.00 0.00 0.00 0.00 0.00 0.00 0.00 0.00 0.00
0.10 0.11 0.13 0.16 0.15 0.14 0.15 0.15 0.17 0.14 0.12 0.11 0.12 0.36 0.41 0.45 0.27 0.14 0.03 0.00 0.00 0.00 0.02 0.00 0.01 0.01 0.00 0.00 0.00 0.00 0.00 0.00 0.00 0.00 0.00 0.00 0.00 0.00 0.00 0.00 0.00 0.00 0.00 0.00 0.00
0.13 0.14 0.16 0.17 0.19 0.23 0.19 0.16 0.17 0.16 0.13 0.13 0.14 0.25 0.48 0.56 0.39 0.07 0.01 0.01 0.05 0.07 0.02 0.00 0.02 0.01 0.00 0.00 0.00 0.00 0.00 0.00 0.00 0.00 0.00 0.00 0.00 0.00 0.00 0.00 0.00 0.00 0.00 0.00 0.00
0.18 0.21 0.18 0.18 0.20 0.22 0.19 0.13 0.12 0.11 0.10 0.10 0.15 0.17 0.33 0.74 0.34 0.11 0.04 0.02 0.09 0.24 0.04 0.03 0.01 0.01 0.00 0.00 0.00 0.00 0.00 0.00 0.00 0.00 0.00 0.00 0.00 0.00 0.00 0.00 0.00 0.00 0.00 0.00 0.00
0.27 0.28 0.23 0.19 0.21 0.20 0.14 0.09 0.10 0.17 0.14 0.10 0.20 0.32 0.36 0.51 0.24 0.13 0.13 0.07 0.17 0.31 0.05 0.03 0.01 0.01 0.00 0.00 0.00 0.00 0.00 0.00 0.00 0.00 0.00 0.00 0.00 0.00 0.00 0.00 0.00 0.00 0.00 0.00 0.00
0.27 0.26 0.21 0.21 0.23 0.16 0.11 0.12 0.12 0.14 0.16 0.18 0.25 0.58 0.37 0.21 0.07 0.09 0.11 0.18 0.15 0.27 0.14 0.05 0.01 0.00 0.00 0.00 0.00 0.00 0.00 0.00 0.00 0.00 0.00 0.00 0.00 0.00 0.00 0.00 0.00 0.00 0.00 0.00 0.00
0.31 0.29 0.21 0.20 0.24 0.21 0.14 0.12 0.16 0.21 0.19 0.23 0.47 0.44 0.40 0.08 0.02 0.10 0.12 0.28 0.21 0.22 0.22 0.09 0.01 0.01 0.02 0.01 0.00 0.00 0.00 0.00 0.00 0.00 0.00 0.00 0.00 0.00 0.00 0.00 0.00 0.00 0.00 0.00 0.00
0.31 0.33 0.31 0.30 0.27 0.25 0.14 0.11 0.16 0.22 0.29 0.31 0.49 0.53 0.24 0.07 0.02 0.12 0.11 0.36 0.38 0.35 0.34 0.29 0.04 0.02 0.01 0.01 0.00 0.00 0.00 0.00 0.00 0.00 0.00 0.00 0.00 0.00 0.00 0.00 0.00 0.00 0.00 0.00 0.00
0.31 0.33 0.37 0.31 0.26 0.27 0.25 0.25 0.25 0.21 0.36 0.54 0.54 0.44 0.14 0.11 0.06 0.13 0.09 0.35 0.40 0.55 0.66 0.38 0.24 0.07 0.00 0.01 0.01 0.00 0.00 0.00 0.00 0.00 0.00 0.00 0.00 0.00 0.00 0.00 0.00 0.00 0.00 0.00 0.00
0.28 0.32 0.32 0.30 0.28 0.29 0.43 0.52 0.52 0.43 0.48 0.66 0.69 0.51 0.18 0.04 0.09 0.15 0.13 0.36 0.38 0.66 0.74 0.56 0.47 0.20 0.04 0.01 0.00 0.00 0.00 0.00 0.00 0.00 0.00 0.00 0.00 0.00 0.00 0.00 0.00 0.00 0.00 0.00 0.00
0.28 0.30 0.32 0.33 0.35 0.52 0.72 0.97 0.85 0.77 0.76 0.61 0.45 0.23 0.13 0.07 0.08 0.13 0.20 0.46 0.66 0.94 0.33 0.29 0.28 0.19 0.07 0.01 0.00 0.00 0.00 0.00 0.00 0.00 0.00 0.00 0.00 0.00 0.00 0.00 0.00 0.00 0.00 0.00 0.00
0.27 0.34 0.37 0.32 0.47 0.72 0.78 0.89 0.57 0.47 0.62 0.39 0.27 0.25 0.11 0.08 0.06 0.14 0.42 0.90 0.73 0.93 0.33 0.17 0.23 0.11 0.07 0.03 0.00 0.00 0.00 0.00 0.00 0.00 0.00 0.00 0.00 0.00 0.00 0.00 0.00 0.00 0.00 0.00 0.00
0.31 0.39 0.44 0.41 0.57 0.83 0.55 0.53 0.56 0.44 0.64 0.59 0.49 0.40 0.14 0.10 0.05 0.13 0.81 1.02 0.62 0.61 0.31 0.16 0.15 0.15 0.08 0.05 0.01 0.00 0.00 0.00 0.00 0.00 0.00 0.00 0.00 0.00 0.00 0.00 0.00 0.00 0.00 0.00 0.00
0.43 0.43 0.59 0.79 1.11 0.71 0.68 0.39 0.71 0.65 0.79 0.89 0.94 0.47 0.11 0.10 0.14 0.20 0.63 0.69 0.64 0.63 0.42 0.27 0.10 0.16 0.13 0.08 0.01 0.00 0.00 0.00 0.00 0.00 0.00 0.01 0.01 0.00 0.00 0.00 0.00 0.00 0.00 0.00 0.00
0.46 0.55 0.68 1.18 1.25 0.88 0.82 0.90 1.00 0.93 1.20 1.06 0.90 0.31 0.08 0.06 0.21 0.37 0.38 0.35 0.25 0.48 0.33 0.19 0.15 0.23 0.19 0.11 0.02 0.00 0.00 0.00 0.01 0.02 0.03 0.00 0.03 0.00 0.00 0.00 0.00 0.00 0.00 0.00 0.00
0.56 0.69 0.93 1.07 0.99 0.81 0.67 1.26 1.46 1.10 1.40 0.95 0.44 0.17 0.08 0.08 0.08 0.14 0.16 0.15 0.19 0.33 0.23 0.19 0.07 0.24 0.21 0.13 0.04 0.01 0.02 0.01 0.02 0.05 0.09 0.00 0.01 0.00 0.00 0.00 0.00 0.00 0.00 0.00 0.00
0.81 1.20 1.26 0.99 0.77 0.55 1.03 1.39 1.47 0.94 0.69 0.40 0.20 0.08 0.04 0.05 0.08 0.05 0.15 0.14 0.15 0.36 0.42 0.27 0.06 0.15 0.16 0.17 0.07 0.01 0.07 0.17 0.17 0.17 0.05 0.00 0.00 0.00 0.00 0.00 0.00 0.00 0.00 0.00 0.00
0.95 1.01 0.94 0.77 0.62 1.11 1.10 0.86 1.13 0.72 0.33 0.15 0.03 0.03 0.03 0.03 0.06 0.05 0.08 0.05 0.03 0.11 0.17 0.10 0.06 0.04 0.09 0.10 0.07 0.01 0.03 0.10 0.08 0.03 0.01 0.00 0.00 0.00 0.00 0.00 0.00 0.00 0.00 0.00 0.00
0.75 0.99 1.14 0.99 0.82 1.30 0.98 0.70 0.95 0.57 0.16 0.06 0.05 0.04 0.05 0.01 0.02 0.05 0.04 0.01 0.00 0.01 0.05 0.04 0.01 0.00 0.00 0.01 0.05 0.13 0.17 0.05 0.16 0.12 0.22 0.02 0.00 0.00 0.00 0.00 0.00 0.00 0.00 0.00 0.00
0.71 1.33 1.06 0.93 0.93 1.11 0.86 0.62 0.48 0.06 0.00 0.00 0.05 0.02 0.01 0.01 0.02 0.03 0.01 0.00 0.00 0.00 0.00 0.00 0.02 0.00 0.00 0.01 0.01 0.04 0.05 0.16 0.43 0.23 0.12 0.01 0.00 0.00 0.00 0.00 0.00 0.00 0.00 0.00 0.00
0.74 1.23 1.09 0.78 1.06 1.05 0.80 0.77 0.32 0.01 0.00 0.00 0.00 0.00 0.00 0.00 0.00 0.00 0.00 0.00 0.00 0.00 0.00 0.01 0.04 0.01 0.02 0.01 0.00 0.02 0.13 0.12 0.16 0.12 0.08 0.04 0.00 0.00 0.00 0.00 0.00 0.00 0.00 0.00 0.01
1.01 0.99 1.02 0.91 1.18 0.86 0.55 0.44 0.14 0.02 0.01 0.00 0.00 0.00 0.00 0.00 0.00 0.00 0.00 0.00 0.00 0.00 0.00 0.00 0.08 0.06 0.01 0.00 0.00 0.00 0.00 0.03 0.19 0.06 0.12 0.10 0.04 0.01 0.03 0.01 0.00 0.01 0.01 0.01 0.01
0.89 0.94 1.09 0.56 0.44 0.32 0.26 0.04 0.01 0.03 0.02 0.00 0.00 0.00 0.00 0.00 0.00 0.00 0.00 0.00 0.00 0.00 0.00 0.01 0.13 0.13 0.09 0.12 0.10 0.12 0.02 0.08 0.16 0.35 0.25 0.14 0.03 0.01 0.02 0.01 0.00 0.00 0.00 0.01 0.01
0.82 1.21 1.62 0.89 0.18 0.06 0.13 0.06 0.02 0.03 0.01 0.01 0.02 0.02 0.01 0.00 0.00 0.00 0.00 0.00 0.00 0.00 0.01 0.11 0.17 0.11 0.10 0.29 0.41 0.32 0.07 0.09 0.35 0.52 0.09 0.05 0.02 0.01 0.03 0.03 0.04 0.03 0.01 0.01 0.01
0.52 0.32 0.43 0.54 0.15 0.03 0.04 0.04 0.01 0.01 0.01 0.03 0.04 0.04 0.02 0.01 0.00 0.00 0.00 0.00 0.00 0.02 0.13 0.33 0.25 0.11 0.12 0.22 0.58 0.38 0.14 0.10 0.37 0.18 0.23 0.08 0.04 0.04 0.04 0.05 0.05 0.04 0.03 0.03 0.03
0.61 0.17 0.01 0.01 0.02 0.01 0.01 0.01 0.01 0.01 0.03 0.04 0.01 0.01 0.03 0.03 0.01 0.00 0.00 0.00 0.01 0.03 0.13 0.31 0.38 0.33 0.34 0.25 0.35 0.27 0.07 0.11 0.12 0.04 0.04 0.02 0.04 0.05 0.05 0.03 0.08 0.06 0.02 0.01 0.00
0.70 0.22 0.03 0.02 0.01 0.00 0.00 0.00 0.00 0.02 0.02 0.00 0.01 0.02 0.03 0.01 0.01 0.01 0.01 0.01 0.01 0.06 0.26 0.41 0.47 0.64 0.48 0.18 0.19 0.26 0.08 0.06 0.09 0.07 0.03 0.04 0.05 0.07 0.25 0.45 0.39 0.10 0.04 0.02 0.02

GFSSW_prec_precacc_039.txt.gz
Total_Precipitation_Accumulation
0.09 0.12 0.15 0.16 0.17 0.19 0.18 0.18 0.19 0.27 0.19 0.17 0.30 0.34 0.31 0.31 0.34 0.23 0.06 0.01 0.00 0.00 0.01 0.00 0.01 0.02 0.00 0.00 0.00 0.00 0.01 0.00 0.00 0.00 0.00 0.00 0.00 0.00 0.00 0.00 0.00 0.00 0.00 0.00 0.00
0.11 0.14 0.16 0.17 0.16 0.15 0.17 0.19 0.22 0.18 0.17 0.15 0.17 0.37 0.41 0.45 0.27 0.14 0.05 0.03 0.00 0.00 0.02 0.00 0.01 0.03 0.00 0.00 0.00 0.00 0.00 0.00 0.00 0.00 0.00 0.00 0.00 0.00 0.00 0.00 0.00 0.00 0.00 0.00 0.00
0.16 0.16 0.18 0.19 0.21 0.24 0.22 0.23 0.25 0.22 0.17 0.20 0.22 0.28 0.48 0.56 0.39 0.07 0.01 0.01 0.06 0.07 0.02 0.00 0.03 0.03 0.00 0.00 0.00 0.00 0.00 0.00 0.00 0.00 0.00 0.00 0.00 0.00 0.00 0.00 0.00 0.00 0.00 0.00 0.00
0.19 0.23 0.21 0.21 0.22 0.25 0.24 0.22 0.17 0.14 0.11 0.13 0.17 0.18 0.33 0.74 0.34 0.13 0.04 0.04 0.14 0.25 0.04 0.03 0.02 0.03 0.00 0.00 0.00 0.00 0.00 0.00 0.00 0.00 0.00 0.00 0.00 0.00 0.00 0.00 0.00 0.00 0.00 0.00 0.00
0.30 0.31 0.26 0.21 0.23 0.22 0.16 0.13 0.12 0.18 0.15 0.10 0.21 0.32 0.36 0.51 0.24 0.20 0.14 0.11 0.29 0.33 0.06 0.03 0.01 0.02 0.00 0.00 0.00 0.00 0.00 0.00 0.00 0.00 0.00 0.00 0.00 0.00 0.00 0.00 0.00 0.00 0.00 0.00 0.00
0.34 0.32 0.26 0.23 0.26 0.20 0.15 0.22 0.18 0.16 0.16 0.18 0.25 0.59 0.37 0.21 0.07 0.11 0.15 0.19 0.21 0.31 0.14 0.05 0.01 0.00 0.01 0.00 0.00 0.00 0.00 0.00 0.00 0.00 0.00 0.00 0.00 0.00 0.00 0.00 0.00 0.00 0.00 0.00 0.00
0.36 0.35 0.27 0.23 0.28 0.25 0.21 0.18 0.21 0.23 0.19 0.25 0.48 0.45 0.41 0.08 0.04 0.13 0.16 0.28 0.27 0.27 0.22 0.10 0.01 0.02 0.02 0.01 0.00 0.00 0.00 0.00 0.00 0.00 0.00 0.00 0.00 0.00 0.00 0.00 0.00 0.00 0.00 0.00 0.00
0.33 0.38 0.35 0.37 0.33 0.26 0.16 0.12 0.20 0.25 0.29 0.33 0.51 0.55 0.24 0.07 0.02 0.12 0.17 0.36 0.42 0.39 0.35 0.31 0.04 0.03 0.01 0.01 0.00 0.00 0.00 0.00 0.00 0.00 0.00 0.00 0.00 0.00 0.00 0.00 0.00 0.00 0.00 0.00 0.00
0.33 0.36 0.40 0.36 0.27 0.27 0.25 0.25 0.25 0.21 0.36 0.55 0.55 0.47 0.15 0.11 0.06 0.14 0.13 0.37 0.46 0.58 0.70 0.46 0.28 0.08 0.01 0.01 0.02 0.00 0.00 0.00 0.00 0.00 0.00 0.00 0.00 0.00 0.00 0.00 0.00 0.00 0.00 0.00 0.00
0.30 0.34 0.32 0.32 0.28 0.29 0.43 0.52 0.52 0.43 0.49 0.69 0.72 0.54 0.19 0.04 0.11 0.17 0.16 0.44 0.44 0.71 0.83 0.70 0.59 0.25 0.04 0.01 0.00 0.00 0.00 0.00 0.00 0.00 0.00 0.00 0.00 0.00 0.00 0.00 0.00 0.00 0.00 0.00 0.00
0.29 0.31 0.33 0.33 0.35 0.52 0.72 0.97 0.87 0.79 0.78 0.62 0.45 0.25 0.20 0.13 0.18 0.18 0.22 0.64 0.72 1.00 0.36 0.38 0.38 0.21 0.07 0.01 0.00 0.00 0.00 0.00 0.00 0.00 0.00 0.00 0.00 0.00 0.00 0.00 0.00 0.00 0.00 0.00 0.00
0.27 0.35 0.37 0.32 0.47 0.72 0.78 0.89 0.58 0.48 0.62 0.40 0.28 0.27 0.13 0.17 0.22 0.21 0.50 1.49 0.79 0.95 0.35 0.24 0.30 0.11 0.07 0.03 0.00 0.00 0.00 0.00 0.00 0.00 0.00 0.00 0.00 0.00 0.00 0.00 0.00 0.00 0.00 0.00 0.00
0.31 0.39 0.44 0.41 0.57 0.83 0.55 0.53 0.56 0.44 0.68 0.63 0.58 0.43 0.19 0.25 0.24 0.27 1.03 1.65 0.67 0.63 0.33 0.19 0.16 0.15 0.09 0.05 0.01 0.00 0.00 0.00 0.00 0.00 0.00 0.00 0.00 0.00 0.00 0.00 0.00 0.00 0.00 0.00 0.00
0.43 0.43 0.59 0.79 1.11 0.71 0.68 0.39 0.71 0.66 0.89 1.01 1.08 0.53 0.22 0.25 0.25 0.26 0.73 1.07 0.77 0.68 0.49 0.37 0.12 0.17 0.14 0.09 0.01 0.00 0.00 0.00 0.00 0.00 0.00 0.01 0.01 0.00 0.00 0.00 0.00 0.00 0.00 0.00 0.00
0.46 0.55 0.68 1.18 1.25 0.88 0.82 0.90 1.00 0.93 1.29 1.17 0.98 0.35 0.15 0.09 0.23 0.40 0.47 0.54 0.37 0.55 0.46 0.31 0.19 0.24 0.19 0.11 0.02 0.00 0.00 0.00 0.01 0.02 0.03 0.00 0.03 0.00 0.00 0.00 0.00 0.00 0.00 0.00 0.00
0.57 0.69 0.93 1.07 0.99 0.81 0.67 1.26 1.46 1.11 1.47 0.97 0.47 0.19 0.09 0.10 0.19 0.35 0.36 0.31 0.42 0.41 0.31 0.22 0.11 0.28 0.22 0.13 0.05 0.01 0.02 0.01 0.02 0.05 0.09 0.00 0.01 0.00 0.00 0.00 0.00 0.00 0.00 0.00 0.00
0.81 1.20 1.26 0.99 0.77 0.55 1.03 1.39 1.47 0.95 0.70 0.42 0.23 0.09 0.05 0.07 0.17 0.14 0.22 0.28 0.38 0.61 0.62 0.38 0.14 0.25 0.17 0.17 0.07 0.01 0.07 0.18 0.18 0.17 0.05 0.00 0.00 0.00 0.00 0.00 0.00 0.00 0.00 0.00 0.00
0.95 1.01 0.94 0.77 0.62 1.11 1.10 0.86 1.13 0.73 0.34 0.15 0.04 0.04 0.03 0.04 0.07 0.07 0.13 0.09 0.10 0.15 0.26 0.23 0.22 0.22 0.23 0.12 0.07 0.01 0.03 0.11 0.08 0.03 0.01 0.00 0.00 0.00 0.00 0.00 0.00 0.00 0.00 0.00 0.00
0.75 0.99 1.14 0.99 0.82 1.30 0.98 0.70 0.95 0.57 0.16 0.06 0.05 0.04 0.05 0.01 0.03 0.06 0.05 0.02 0.01 0.01 0.08 0.06 0.04 0.05 0.11 0.08 0.09 0.15 0.18 0.05 0.16 0.12 0.22 0.02 0.00 0.00 0.00 0.00 0.00 0.00 0.00 0.00 0.00
0.71 1.33 1.06 0.93 0.93 1.11 0.86 0.62 0.48 0.06 0.00 0.00 0.05 0.02 0.01 0.01 0.02 0.03 0.01 0.00 0.00 0.00 0.00 0.00 0.03 0.00 0.01 0.04 0.07 0.06 0.06 0.16 0.43 0.23 0.12 0.01 0.00 0.00 0.00 0.00 0.00 0.00 0.00 0.00 0.00
0.74 1.23 1.09 0.78 1.06 1.05 0.80 0.78 0.32 0.01 0.00 0.00 0.00 0.00 0.00 0.00 0.00 0.00 0.00 0.00 0.00 0.00 0.00 0.01 0.04 0.01 0.02 0.02 0.01 0.03 0.14 0.13 0.16 0.12 0.08 0.04 0.00 0.00 0.00 0.00 0.00 0.00 0.00 0.00 0.01
1.01 0.99 1.02 0.91 1.18 0.86 0.55 0.44 0.14 0.02 0.01 0.00 0.00 0.00 0.00 0.00 0.00 0.00 0.00 0.00 0.00 0.00 0.00 0.00 0.08 0.06 0.01 0.00 0.00 0.00 0.00 0.03 0.19 0.06 0.12 0.10 0.04 0.01 0.03 0.01 0.00 0.01 0.01 0.01 0.01
0.89 0.94 1.09 0.56 0.44 0.32 0.26 0.04 0.01 0.03 0.02 0.00 0.00 0.00 0.00 0.00 0.00 0.00 0.00 0.00 0.00 0.00 0.00 0.01 0.13 0.13 0.09 0.12 0.10 0.12 0.02 0.08 0.16 0.35 0.25 0.14 0.03 0.01 0.02 0.01 0.00 0.00 0.00 0.01 0.01
0.82 1.21 1.62 0.89 0.18 0.06 0.13 0.06 0.02 0.03 0.01 0.01 0.02 0.02 0.01 0.00 0.00 0.00 0.00 0.00 0.00 0.00 0.01 0.11 0.17 0.11 0.10 0.29 0.41 0.32 0.07 0.09 0.35 0.52 0.09 0.05 0.02 0.01 0.03 0.03 0.04 0.03 0.01 0.01 0.01
0.52 0.32 0.43 0.54 0.15 0.03 0.04 0.04 0.01 0.01 0.01 0.03 0.04 0.04 0.02 0.01 0.00 0.00 0.00 0.00 0.00 0.02 0.13 0.33 0.25 0.11 0.12 0.22 0.58 0.38 0.14 0.10 0.37 0.18 0.23 0.08 0.04 0.04 0.04 0.05 0.05 0.04 0.03 0.03 0.03
0.61 0.17 0.01 0.01 0.02 0.01 0.01 0.01 0.01 0.01 0.03 0.04 0.01 0.01 0.03 0.03 0.01 0.00 0.00 0.00 0.01 0.03 0.13 0.31 0.38 0.33 0.34 0.25 0.35 0.27 0.07 0.11 0.12 0.04 0.04 0.02 0.04 0.05 0.05 0.03 0.08 0.06 0.02 0.01 0.00
0.70 0.22 0.03 0.02 0.01 0.00 0.00 0.00 0.00 0.02 0.02 0.00 0.01 0.02 0.03 0.01 0.01 0.01 0.01 0.01 0.01 0.06 0.26 0.41 0.47 0.64 0.48 0.18 0.19 0.26 0.08 0.06 0.09 0.07 0.03 0.04 0.05 0.07 0.25 0.45 0.39 0.10 0.04 0.02 0.02

GFSSW_prec_precacc_042.txt.gz
Total_Precipitation_Accumulation
0.10 0.14 0.17 0.17 0.18 0.19 0.19 0.18 0.20 0.30 0.22 0.19 0.37 0.40 0.31 0.31 0.34 0.24 0.07 0.01 0.00 0.01 0.01 0.00 0.01 0.02 0.00 0.00 0.00 0.02 0.14 0.15 0.01 0.00 0.00 0.00 0.00 0.00 0.00 0.00 0.00 0.00 0.00 0.00 0.00
0.12 0.15 0.17 0.18 0.17 0.16 0.18 0.19 0.23 0.21 0.20 0.17 0.21 0.46 0.43 0.45 0.27 0.14 0.05 0.03 0.01 0.01 0.02 0.00 0.01 0.03 0.00 0.00 0.00 0.01 0.03 0.08 0.03 0.00 0.00 0.00 0.00 0.00 0.00 0.00 0.00 0.00 0.00 0.00 0.00
0.17 0.18 0.20 0.22 0.24 0.27 0.25 0.25 0.27 0.27 0.20 0.22 0.29 0.42 0.57 0.56 0.39 0.07 0.01 0.01 0.08 0.10 0.03 0.00 0.03 0.03 0.00 0.00 0.00 0.00 0.00 0.00 0.00 0.03 0.01 0.00 0.00 0.00 0.00 0.00 0.00 0.00 0.00 0.00 0.00
0.23 0.28 0.26 0.25 0.26 0.27 0.27 0.25 0.20 0.18 0.16 0.15 0.25 0.28 0.39 0.75 0.35 0.15 0.04 0.05 0.17 0.29 0.06 0.04 0.02 0.04 0.00 0.00 0.00 0.00 0.00 0.00 0.02 0.02 0.00 0.00 0.00 0.00 0.00 0.00 0.00 0.00 0.00 0.00 0.00
0.35 0.36 0.32 0.25 0.29 0.24 0.18 0.16 0.17 0.23 0.19 0.12 0.23 0.38 0.38 0.51 0.24 0.24 0.19 0.15 0.39 0.42 0.07 0.04 0.01 0.02 0.01 0.00 0.00 0.00 0.00 0.00 0.00 0.00 0.00 0.00 0.00 0.00 0.00 0.00 0.00 0.00 0.00 0.00 0.00
0.36 0.35 0.31 0.27 0.30 0.24 0.17 0.26 0.20 0.19 0.17 0.18 0.26 0.59 0.38 0.22 0.07 0.12 0.22 0.27 0.36 0.40 0.14 0.05 0.01 0.01 0.01 0.00 0.00 0.00 0.00 0.00 0.00 0.00 0.00 0.00 0.00 0.00 0.00 0.00 0.00 0.00 0.00 0.00 0.00
0.37 0.38 0.30 0.25 0.36 0.33 0.23 0.20 0.29 0.30 0.20 0.25 0.48 0.45 0.41 0.08 0.04 0.17 0.18 0.32 0.43 0.38 0.23 0.10 0.01 0.02 0.03 0.02 0.00 0.00 0.00 0.00 0.00 0.00 0.00 0.00 0.00 0.00 0.00 0.00 0.00 0.00 0.00 0.00 0.00
0.34 0.40 0.37 0.39 0.36 0.28 0.16 0.12 0.20 0.25 0.29 0.33 0.51 0.55 0.24 0.07 0.02 0.13 0.21 0.37 0.44 0.45 0.35 0.31 0.04 0.03 0.02 0.02 0.00 0.00 0.00 0.00 0.00 0.00 0.00 0.00 0.00 0.00 0.00 0.00 0.00 0.00 0.00 0.00 0.00
0.34 0.37 0.40 0.36 0.27 0.27 0.25 0.25 0.25 0.21 0.36 0.55 0.55 0.47 0.15 0.11 0.06 0.14 0.15 0.38 0.47 0.69 0.73 0.47 0.31 0.09 0.01 0.03 0.04 0.01 0.00 0.00 0.00 0.00 0.00 0.00 0.00 0.00 0.00 0.00 0.00 0.00 0.00 0.00 0.00
0.30 0.34 0.32 0.32 0.28 0.29 0.43 0.52 0.52 0.44 0.49 0.69 0.73 0.55 0.20 0.04 0.11 0.17 0.18 0.46 0.50 0.91 0.94 0.77 0.67 0.29 0.05 0.03 0.02 0.00 0.00 0.00 0.00 0.00 0.00 0.00 0.00 0.00 0.00 0.00 0.00 0.00 0.00 0.00 0.00
0.29 0.31 0.33 0.33 0.35 0.52 0.72 0.98 0.91 0.83 0.79 0.64 0.47 0.27 0.23 0.15 0.21 0.24 0.31 0.72 0.86 1.22 0.39 0.45 0.43 0.23 0.07 0.01 0.00 0.00 0.00 0.00 0.00 0.00 0.00 0.00 0.00 0.00 0.00 0.00 0.00 0.00 0.00 0.00 0.00
0.28 0.35 0.37 0.32 0.47 0.72 0.79 0.90 0.59 0.50 0.63 0.40 0.28 0.27 0.13 0.19 0.32 0.38 0.68 1.74 0.92 1.02 0.36 0.28 0.31 0.11 0.07 0.03 0.00 0.00 0.00 0.00 0.00 0.00 0.00 0.00 0.00 0.00 0.00 0.00 0.00 0.00 0.00 0.00 0.00
0.31 0.39 0.44 0.41 0.57 0.83 0.56 0.54 0.56 0.44 0.76 0.65 0.58 0.44 0.23 0.33 0.42 0.59 1.19 1.79 0.71 0.64 0.33 0.21 0.16 0.15 0.10 0.06 0.01 0.00 0.00 0.00 0.00 0.00 0.00 0.00 0.00 0.00 0.00 0.00 0.00 0.00 0.00 0.00 0.00
0.43 0.43 0.59 0.79 1.11 0.71 0.68 0.40 0.72 0.66 0.96 1.03 1.09 0.57 0.31 0.41 0.55 0.42 0.79 1.24 0.81 0.70 0.50 0.39 0.14 0.18 0.14 0.09 0.01 0.00 0.00 0.00 0.00 0.00 0.00 0.01 0.01 0.00 0.00 0.00 0.00 0.00 0.00 0.00 0.00
0.46 0.55 0.68 1.18 1.25 0.88 0.82 0.90 1.00 0.94 1.43 1.29 1.06 0.55 0.35 0.29 0.46 0.49 0.55 0.68 0.39 0.59 0.49 0.33 0.20 0.27 0.21 0.11 0.02 0.00 0.00 0.00 0.01 0.02 0.03 0.00 0.03 0.00 0.00 0.00 0.00 0.00 0.00 0.00 0.00
0.57 0.69 0.93 1.07 0.99 0.81 0.67 1.26 1.46 1.11 1.50 1.00 0.53 0.35 0.27 0.17 0.22 0.39 0.42 0.40 0.45 0.45 0.33 0.25 0.14 0.34 0.25 0.15 0.05 0.01 0.02 0.01 0.02 0.05 0.09 0.00 0.01 0.00 0.00 0.00 0.00 0.00 0.00 0.00 0.00
0.81 1.20 1.26 0.99 0.77 0.55 1.03 1.40 1.47 0.96 0.71 0.42 0.25 0.11 0.06 0.09 0.22 0.19 0.25 0.36 0.48 0.73 0.75 0.53 0.22 0.30 0.19 0.18 0.07 0.01 0.07 0.18 0.18 0.18 0.05 0.00 0.00 0.00 0.00 0.00 0.00 0.00 0.00 0.00 0.00
0.95 1.01 0.94 0.77 0.62 1.11 1.10 0.86 1.13 0.74 0.34 0.16 0.05 0.04 0.03 0.04 0.08 0.09 0.16 0.18 0.21 0.19 0.33 0.41 0.38 0.31 0.30 0.13 0.08 0.01 0.04 0.12 0.08 0.03 0.01 0.00 0.00 0.00 0.00 0.00 0.00 0.00 0.00 0.00 0.00
0.75 0.99 1.14 0.99 0.82 1.30 0.98 0.71 0.95 0.57 0.17 0.06 0.05 0.04 0.05 0.01 0.03 0.10 0.11 0.11 0.08 0.06 0.15 0.13 0.08 0.10 0.20 0.09 0.09 0.15 0.18 0.05 0.16 0.12 0.22 0.02 0.00 0.00 0.00 0.00 0.00 0.00 0.00 0.00 0.00
0.71 1.33 1.06 0.93 0.93 1.11 0.86 0.62 0.48 0.06 0.00 0.00 0.05 0.02 0.01 0.01 0.02 0.03 0.02 0.02 0.00 0.00 0.01 0.01 0.04 0.04 0.07 0.11 0.10 0.06 0.06 0.17 0.44 0.23 0.12 0.01 0.00 0.00 0.00 0.00 0.00 0.00 0.00 0.00 0.00
0.74 1.23 1.09 0.78 1.06 1.05 0.80 0.78 0.32 0.01 0.00 0.00 0.00 0.00 0.00 0.00 0.00 0.00 0.00 0.00 0.00 0.00 0.00 0.01 0.04 0.03 0.05 0.08 0.05 0.04 0.15 0.13 0.16 0.12 0.08 0.04 0.00 0.00 0.00 0.00 0.00 0.00 0.00 0.00 0.01
1.01 0.99 1.02 0.91 1.18 0.87 0.55 0.44 0.14 0.02 0.01 0.00 0.00 0.00 0.00 0.00 0.00 0.00 0.00 0.00 0.00 0.00 0.00 0.00 0.08 0.06 0.02 0.00 0.00 0.01 0.01 0.05 0.19 0.06 0.12 0.10 0.04 0.01 0.03 0.01 0.00 0.01 0.01 0.01 0.01
0.89 0.94 1.09 0.56 0.44 0.32 0.26 0.04 0.01 0.03 0.02 0.00 0.00 0.00 0.00 0.00 0.00 0.00 0.00 0.00 0.00 0.00 0.00 0.01 0.13 0.13 0.09 0.12 0.10 0.12 0.02 0.09 0.17 0.35 0.25 0.14 0.03 0.01 0.02 0.01 0.00 0.00 0.00 0.01 0.01
0.82 1.21 1.62 0.89 0.18 0.06 0.13 0.06 0.02 0.03 0.01 0.01 0.02 0.02 0.01 0.00 0.00 0.00 0.00 0.00 0.00 0.00 0.01 0.11 0.17 0.11 0.10 0.29 0.41 0.32 0.07 0.09 0.35 0.52 0.09 0.05 0.02 0.01 0.03 0.03 0.04 0.03 0.01 0.01 0.01
0.52 0.32 0.43 0.54 0.15 0.03 0.04 0.04 0.01 0.01 0.01 0.03 0.04 0.04 0.02 0.01 0.00 0.00 0.00 0.00 0.00 0.02 0.13 0.33 0.25 0.11 0.12 0.22 0.58 0.38 0.14 0.10 0.37 0.18 0.23 0.08 0.04 0.04 0.04 0.05 0.05 0.04 0.03 0.03 0.03
0.61 0.18 0.01 0.01 0.02 0.01 0.01 0.01 0.01 0.01 0.03 0.04 0.01 0.01 0.03 0.03 0.01 0.00 0.00 0.00 0.01 0.03 0.13 0.31 0.38 0.33 0.34 0.25 0.35 0.27 0.07 0.11 0.12 0.04 0.04 0.02 0.04 0.05 0.05 0.03 0.08 0.06 0.02 0.01 0.00
0.70 0.22 0.03 0.02 0.01 0.00 0.00 0.00 0.00 0.02 0.02 0.00 0.01 0.02 0.03 0.01 0.01 0.01 0.01 0.01 0.01 0.06 0.26 0.41 0.47 0.64 0.48 0.18 0.19 0.26 0.08 0.06 0.09 0.07 0.03 0.04 0.05 0.07 0.25 0.45 0.39 0.10 0.04 0.02 0.02

GFSSW_prec_precacc_045.txt.gz
Total_Precipitation_Accumulation
0.11 0.15 0.19 0.20 0.21 0.21 0.20 0.20 0.22 0.32 0.23 0.19 0.37 0.45 0.37 0.31 0.34 0.24 0.07 0.01 0.02 0.01 0.01 0.00 0.01 0.02 0.01 0.04 0.03 0.10 0.29 0.22 0.02 0.01 0.00 0.00 0.00 0.00 0.00 0.00 0.00 0.00 0.00 0.00 0.00
0.13 0.18 0.22 0.23 0.21 0.20 0.20 0.22 0.26 0.21 0.20 0.17 0.22 0.49 0.59 0.55 0.28 0.14 0.05 0.03 0.03 0.06 0.02 0.00 0.01 0.03 0.01 0.04 0.05 0.08 0.15 0.12 0.03 0.00 0.01 0.00 0.00 0.00 0.00 0.00 0.00 0.00 0.00 0.00 0.00
0.19 0.21 0.24 0.26 0.28 0.33 0.31 0.28 0.29 0.27 0.20 0.22 0.29 0.46 0.69 0.72 0.41 0.07 0.01 0.01 0.09 0.16 0.04 0.00 0.03 0.05 0.01 0.01 0.03 0.03 0.00 0.00 0.01 0.05 0.03 0.02 0.00 0.00 0.00 0.00 0.00 0.00 0.00 0.00 0.00
0.24 0.29 0.29 0.26 0.31 0.33 0.31 0.29 0.23 0.20 0.18 0.16 0.25 0.30 0.52 0.93 0.40 0.15 0.04 0.05 0.19 0.40 0.11 0.04 0.03 0.05 0.01 0.00 0.00 0.00 0.00 0.00 0.04 0.06 0.09 0.04 0.00 0.00 0.00 0.00 0.00 0.00 0.00 0.00 0.00
0.36 0.37 0.34 0.26 0.31 0.27 0.21 0.18 0.19 0.27 0.22 0.15 0.26 0.42 0.46 0.62 0.27 0.24 0.20 0.15 0.42 0.62 0.11 0.05 0.01 0.02 0.01 0.00 0.00 0.00 0.00 0.00 0.01 0.00 0.03 0.04 0.01 0.00 0.00 0.00 0.00 0.00 0.00 0.00 0.00
0.37 0.36 0.31 0.28 0.30 0.28 0.21 0.27 0.20 0.22 0.17 0.18 0.26 0.62 0.40 0.24 0.08 0.14 0.28 0.30 0.40 0.53 0.17 0.06 0.01 0.01 0.01 0.00 0.00 0.00 0.00 0.00 0.00 0.00 0.00 0.00 0.00 0.00 0.00 0.00 0.00 0.00 0.00 0.00 0.00
0.38 0.39 0.31 0.25 0.36 0.34 0.23 0.20 0.29 0.31 0.20 0.25 0.48 0.45 0.42 0.09 0.05 0.19 0.23 0.39 0.56 0.55 0.27 0.10 0.01 0.03 0.03 0.03 0.00 0.00 0.00 0.00 0.00 0.00 0.00 0.00 0.00 0.00 0.00 0.00 0.00 0.00 0.00 0.00 0.00
0.35 0.41 0.37 0.39 0.36 0.28 0.16 0.12 0.20 0.25 0.29 0.33 0.51 0.55 0.25 0.07 0.02 0.13 0.21 0.39 0.62 0.71 0.43 0.33 0.04 0.04 0.03 0.03 0.00 0.00 0.00 0.00 0.00 0.00 0.00 0.00 0.00 0.00 0.00 0.00 0.00 0.00 0.00 0.00 0.00
0.35 0.37 0.40 0.36 0.27 0.27 0.25 0.25 0.25 0.21 0.36 0.55 0.55 0.47 0.15 0.11 0.06 0.14 0.15 0.39 0.64 0.96 0.86 0.50 0.33 0.09 0.02 0.04 0.06 0.02 0.00 0.00 0.00 0.00 0.00 0.00 0.00 0.00 0.00 0.00 0.00 0.00 0.00 0.00 0.00
0.30 0.34 0.33 0.32 0.28 0.29 0.43 0.52 0.52 0.45 0.49 0.69 0.73 0.55 0.20 0.04 0.11 0.17 0.20 0.47 0.67 1.12 1.16 0.86 0.72 0.30 0.06 0.04 0.03 0.01 0.00 0.00 0.00 0.00 0.00 0.00 0.00 0.00 0.00 0.00 0.00 0.00 0.00 0.00 0.00
0.30 0.31 0.33 0.33 0.35 0.52 0.72 0.98 0.93 0.85 0.79 0.64 0.47 0.27 0.23 0.15 0.21 0.26 0.39 0.76 0.94 1.48 0.67 0.54 0.44 0.23 0.07 0.01 0.00 0.00 0.00 0.00 0.00 0.00 0.00 0.00 0.00 0.00 0.00 0.00 0.00 0.00 0.00 0.00 0.00
0.28 0.35 0.37 0.32 0.47 0.72 0.79 0.90 0.59 0.50 0.63 0.40 0.28 0.27 0.13 0.19 0.34 0.43 0.84 1.83 1.00 1.39 0.52 0.33 0.31 0.11 0.07 0.03 0.00 0.00 0.00 0.00 0.00 0.00 0.00 0.00 0.00 0.00 0.00 0.00 0.00 0.00 0.00 0.00 0.00
0.32 0.39 0.44 0.41 0.57 0.83 0.56 0.55 0.56 0.44 0.77 0.66 0.59 0.45 0.25 0.37 0.45 0.63 1.35 1.95 0.82 0.89 0.40 0.21 0.17 0.15 0.10 0.06 0.01 0.00 0.00 0.00 0.00 0.00 0.00 0.00 0.00 0.00 0.00 0.00 0.00 0.00 0.00 0.00 0.00
0.43 0.43 0.59 0.79 1.11 0.71 0.68 0.40 0.72 0.66 0.98 1.04 1.10 0.58 0.37 0.52 0.88 0.63 0.93 1.39 0.97 0.82 0.53 0.40 0.15 0.18 0.15 0.09 0.01 0.00 0.00 0.00 0.00 0.00 0.00 0.01 0.01 0.00 0.00 0.00 0.00 0.00 0.00 0.00 0.00
0.46 0.56 0.68 1.18 1.25 0.88 0.82 0.90 1.00 0.94 1.47 1.33 1.12 0.59 0.45 0.64 0.74 0.57 0.61 0.75 0.45 0.62 0.50 0.33 0.22 0.27 0.21 0.12 0.02 0.00 0.00 0.00 0.01 0.02 0.03 0.00 0.03 0.00 0.00 0.00 0.00 0.00 0.00 0.00 0.00
0.57 0.70 0.93 1.07 0.99 0.81 0.67 1.26 1.46 1.11 1.53 1.09 0.75 0.54 0.45 0.30 0.28 0.42 0.43 0.42 0.46 0.46 0.33 0.25 0.14 0.37 0.27 0.16 0.05 0.01 0.02 0.01 0.02 0.05 0.09 0.00 0.01 0.00 0.00 0.00 0.00 0.00 0.00 0.00 0.00
0.81 1.20 1.27 0.99 0.77 0.55 1.03 1.40 1.47 0.96 0.71 0.45 0.27 0.12 0.08 0.11 0.24 0.20 0.27 0.39 0.49 0.75 0.76 0.54 0.22 0.31 0.22 0.22 0.08 0.01 0.07 0.19 0.18 0.18 0.05 0.00 0.00 0.00 0.00 0.00 0.00 0.00 0.00 0.00 0.00
0.95 1.01 0.94 0.77 0.62 1.11 1.10 0.86 1.13 0.74 0.34 0.16 0.05 0.04 0.04 0.05 0.09 0.10 0.19 0.20 0.22 0.19 0.33 0.47 0.43 0.33 0.34 0.14 0.09 0.02 0.04 0.12 0.08 0.03 0.01 0.00 0.00 0.00 0.00 0.00 0.00 0.00 0.00 0.00 0.00
0.75 0.99 1.14 0.99 0.82 1.30 0.98 0.71 0.95 0.57 0.17 0.07 0.05 0.04 0.05 0.02 0.04 0.16 0.20 0.13 0.09 0.07 0.16 0.17 0.18 0.14 0.23 0.10 0.10 0.18 0.20 0.05 0.16 0.12 0.22 0.02 0.00 0.00 0.00 0.00 0.00 0.00 0.00 0.00 0.00
0.71 1.33 1.06 0.93 0.93 1.11 0.86 0.62 0.48 0.06 0.00 0.00 0.05 0.02 0.01 0.01 0.02 0.04 0.08 0.05 0.02 0.01 0.01 0.01 0.08 0.08 0.11 0.17 0.13 0.06 0.06 0.17 0.44 0.23 0.12 0.01 0.00 0.00 0.00 0.00 0.00 0.00 0.00 0.00 0.00
0.74 1.23 1.09 0.78 1.06 1.05 0.80 0.78 0.32 0.01 0.00 0.00 0.00 0.00 0.00 0.00 0.00 0.00 0.00 0.00 0.00 0.00 0.00 0.01 0.05 0.04 0.10 0.19 0.09 0.04 0.16 0.13 0.16 0.12 0.08 0.04 0.00 0.00 0.00 0.00 0.00 0.00 0.00 0.00 0.01
1.01 0.99 1.02 0.91 1.18 0.87 0.55 0.44 0.14 0.02 0.01 0.00 0.00 0.00 0.00 0.00 0.00 0.00 0.00 0.00 0.00 0.00 0.00 0.00 0.08 0.07 0.02 0.00 0.00 0.01 0.01 0.05 0.19 0.06 0.12 0.10 0.04 0.01 0.03 0.01 0.00 0.01 0.01 0.01 0.01
0.89 0.94 1.09 0.56 0.44 0.32 0.26 0.04 0.01 0.03 0.02 0.00 0.00 0.00 0.00 0.00 0.00 0.00 0.00 0.00 0.00 0.00 0.00 0.01 0.13 0.14 0.09 0.12 0.10 0.13 0.02 0.09 0.17 0.35 0.25 0.14 0.03 0.01 0.02 0.01 0.00 0.00 0.00 0.01 0.01
0.82 1.21 1.62 0.89 0.18 0.06 0.13 0.06 0.02 0.03 0.01 0.01 0.02 0.02 0.01 0.00 0.00 0.00 0.00 0.00 0.00 0.00 0.01 0.11 0.17 0.11 0.10 0.29 0.41 0.32 0.07 0.09 0.35 0.52 0.09 0.05 0.02 0.01 0.03 0.03 0.04 0.03 0.01 0.01 0.01
0.52 0.32 0.43 0.54 0.15 0.03 0.04 0.04 0.01 0.01 0.01 0.03 0.04 0.04 0.02 0.01 0.00 0.00 0.00 0.00 0.00 0.02 0.13 0.33 0.25 0.11 0.12 0.22 0.58 0.38 0.14 0.10 0.37 0.18 0.24 0.08 0.04 0.04 0.04 0.05 0.05 0.04 0.03 0.03 0.03
0.61 0.18 0.01 0.01 0.02 0.01 0.01 0.01 0.01 0.01 0.03 0.04 0.01 0.01 0.03 0.03 0.01 0.00 0.00 0.00 0.01 0.03 0.13 0.31 0.38 0.33 0.34 0.25 0.35 0.27 0.07 0.11 0.12 0.04 0.04 0.02 0.04 0.05 0.05 0.03 0.08 0.06 0.02 0.01 0.00
0.70 0.22 0.03 0.02 0.01 0.00 0.00 0.00 0.00 0.02 0.02 0.00 0.01 0.02 0.03 0.01 0.01 0.01 0.01 0.01 0.01 0.06 0.26 0.41 0.47 0.64 0.48 0.18 0.19 0.26 0.08 0.06 0.09 0.07 0.03 0.04 0.05 0.07 0.25 0.45 0.39 0.10 0.04 0.02 0.02

GFSSW_prec_precacc_048.txt.gz
Total_Precipitation_Accumulation
0.12 0.16 0.21 0.23 0.22 0.24 0.24 0.27 0.26 0.33 0.25 0.19 0.37 0.45 0.37 0.32 0.36 0.27 0.07 0.01 0.03 0.03 0.01 0.00 0.01 0.02 0.01 0.05 0.07 0.12 0.34 0.24 0.05 0.03 0.01 0.00 0.00 0.00 0.00 0.00 0.00 0.00 0.00 0.00 0.00
0.14 0.18 0.22 0.24 0.22 0.22 0.28 0.33 0.28 0.23 0.21 0.17 0.22 0.49 0.62 0.62 0.30 0.14 0.05 0.03 0.05 0.19 0.03 0.00 0.01 0.03 0.01 0.06 0.10 0.13 0.24 0.13 0.03 0.00 0.01 0.01 0.00 0.00 0.00 0.00 0.00 0.00 0.00 0.00 0.00
0.20 0.22 0.25 0.27 0.30 0.35 0.40 0.34 0.29 0.27 0.20 0.22 0.29 0.46 0.72 0.77 0.47 0.07 0.01 0.01 0.09 0.27 0.10 0.00 0.03 0.06 0.02 0.03 0.06 0.07 0.04 0.00 0.01 0.05 0.14 0.07 0.00 0.00 0.00 0.00 0.00 0.00 0.00 0.00 0.03
0.25 0.30 0.30 0.27 0.32 0.33 0.36 0.33 0.26 0.20 0.18 0.16 0.25 0.30 0.53 0.94 0.46 0.15 0.04 0.05 0.19 0.49 0.20 0.04 0.03 0.07 0.01 0.00 0.01 0.00 0.00 0.00 0.05 0.09 0.22 0.09 0.01 0.00 0.00 0.00 0.00 0.00 0.00 0.00 0.00
0.37 0.38 0.34 0.27 0.32 0.28 0.23 0.18 0.19 0.27 0.22 0.19 0.26 0.42 0.46 0.64 0.29 0.24 0.20 0.15 0.42 0.72 0.19 0.05 0.01 0.03 0.01 0.00 0.00 0.00 0.00 0.00 0.05 0.04 0.06 0.10 0.09 0.01 0.00 0.00 0.00 0.00 0.00 0.00 0.00
0.37 0.36 0.32 0.28 0.31 0.28 0.21 0.27 0.20 0.22 0.17 0.19 0.27 0.63 0.42 0.28 0.10 0.18 0.28 0.30 0.44 0.62 0.22 0.06 0.01 0.01 0.01 0.00 0.00 0.00 0.00 0.02 0.03 0.01 0.01 0.03 0.07 0.06 0.01 0.00 0.00 0.00 0.00 0.00 0.00
0.38 0.39 0.31 0.25 0.36 0.34 0.23 0.20 0.29 0.31 0.20 0.25 0.48 0.46 0.44 0.13 0.08 0.20 0.28 0.42 0.63 0.70 0.30 0.10 0.01 0.04 0.03 0.03 0.00 0.00 0.00 0.01 0.00 0.00 0.00 0.00 0.01 0.03 0.00 0.00 0.00 0.00 0.00 0.00 0.00
0.35 0.41 0.37 0.39 0.36 0.28 0.16 0.12 0.20 0.25 0.29 0.33 0.51 0.55 0.25 0.07 0.02 0.13 0.22 0.43 0.68 0.82 0.56 0.39 0.05 0.05 0.03 0.03 0.00 0.00 0.00 0.00 0.00 0.00 0.00 0.00 0.00 0.00 0.00 0.00 0.00 0.00 0.00 0.00 0.00
0.35 0.37 0.40 0.36 0.27 0.27 0.25 0.25 0.25 0.21 0.36 0.55 0.55 0.47 0.15 0.11 0.06 0.14 0.15 0.40 0.69 1.06 0.98 0.62 0.36 0.10 0.02 0.05 0.07 0.02 0.00 0.00 0.00 0.00 0.00 0.00 0.00 0.00 0.00 0.00 0.00 0.00 0.00 0.00 0.00
0.31 0.34 0.33 0.32 0.28 0.29 0.43 0.52 0.52 0.45 0.49 0.69 0.73 0.55 0.20 0.04 0.11 0.17 0.20 0.48 0.78 1.29 1.54 1.01 0.78 0.31 0.06 0.04 0.04 0.01 0.00 0.00 0.00 0.00 0.00 0.00 0.00 0.00 0.00 0.00 0.00 0.00 0.00 0.00 0.00
0.30 0.32 0.33 0.33 0.35 0.52 0.72 0.98 0.93 0.85 0.79 0.64 0.47 0.27 0.23 0.15 0.21 0.26 0.39 0.82 1.24 1.78 1.11 0.63 0.46 0.23 0.07 0.01 0.00 0.00 0.00 0.00 0.00 0.00 0.00 0.00 0.00 0.00 0.00 0.00 0.00 0.00 0.00 0.00 0.00
0.29 0.35 0.37 0.32 0.47 0.72 0.79 0.90 0.59 0.50 0.63 0.40 0.28 0.27 0.13 0.19 0.34 0.45 0.86 1.96 1.39 1.64 0.82 0.50 0.31 0.11 0.07 0.03 0.00 0.00 0.00 0.00 0.00 0.00 0.00 0.00 0.00 0.00 0.00 0.00 0.00 0.00 0.00 0.00 0.00
0.32 0.39 0.44 0.41 0.57 0.83 0.56 0.55 0.56 0.44 0.77 0.66 0.59 0.45 0.26 0.39 0.47 0.66 1.42 2.10 1.15 1.08 0.59 0.30 0.17 0.15 0.10 0.06 0.01 0.00 0.00 0.00 0.00 0.00 0.00 0.00 0.00 0.00 0.00 0.00 0.00 0.00 0.00 0.00 0.00
0.44 0.43 0.59 0.79 1.11 0.71 0.68 0.40 0.72 0.66 0.98 1.05 1.11 0.61 0.44 0.55 0.89 0.66 1.10 1.55 1.19 1.02 0.70 0.45 0.15 0.18 0.15 0.09 0.01 0.00 0.00 0.00 0.00 0.00 0.00 0.01 0.01 0.00 0.00 0.00 0.00 0.00 0.00 0.00 0.00
0.46 0.56 0.69 1.18 1.25 0.88 0.82 0.90 1.00 0.94 1.50 1.35 1.14 0.61 0.49 0.66 0.80 0.66 0.70 0.84 0.50 0.84 0.58 0.35 0.22 0.28 0.22 0.12 0.02 0.00 0.00 0.00 0.01 0.02 0.03 0.00 0.03 0.00 0.00 0.00 0.00 0.00 0.00 0.00 0.00
0.57 0.70 0.93 1.07 0.99 0.81 0.67 1.26 1.46 1.11 1.57 1.25 0.87 0.64 0.65 0.39 0.35 0.43 0.49 0.48 0.51 0.49 0.33 0.25 0.14 0.38 0.28 0.16 0.05 0.01 0.02 0.01 0.02 0.05 0.09 0.00 0.01 0.00 0.00 0.00 0.00 0.00 0.00 0.00 0.00
0.81 1.20 1.27 0.99 0.77 0.55 1.03 1.40 1.47 0.96 0.71 0.47 0.31 0.17 0.11 0.13 0.24 0.20 0.30 0.42 0.53 0.76 0.76 0.54 0.22 0.31 0.22 0.22 0.08 0.01 0.07 0.19 0.19 0.18 0.05 0.00 0.00 0.00 0.00 0.00 0.00 0.00 0.00 0.00 0.00
0.95 1.01 0.94 0.77 0.62 1.11 1.10 0.86 1.13 0.74 0.35 0.17 0.06 0.05 0.04 0.05 0.09 0.11 0.21 0.21 0.22 0.19 0.33 0.48 0.44 0.33 0.35 0.15 0.09 0.02 0.04 0.12 0.08 0.03 0.01 0.00 0.00 0.00 0.00 0.00 0.00 0.00 0.00 0.00 0.00
0.75 0.99 1.14 0.99 0.82 1.30 0.98 0.71 0.95 0.57 0.17 0.07 0.06 0.05 0.06 0.02 0.05 0.19 0.24 0.13 0.09 0.07 0.16 0.17 0.18 0.14 0.23 0.10 0.10 0.18 0.20 0.05 0.16 0.12 0.22 0.02 0.00 0.00 0.00 0.00 0.00 0.00 0.00 0.00 0.00
0.71 1.33 1.06 0.93 0.93 1.11 0.86 0.62 0.48 0.06 0.00 0.00 0.05 0.02 0.01 0.01 0.03 0.05 0.12 0.06 0.02 0.01 0.01 0.01 0.08 0.10 0.12 0.18 0.14 0.07 0.07 0.19 0.44 0.23 0.12 0.01 0.00 0.00 0.00 0.00 0.00 0.00 0.00 0.00 0.00
0.74 1.23 1.09 0.78 1.06 1.06 0.80 0.78 0.32 0.01 0.00 0.00 0.00 0.00 0.00 0.00 0.00 0.00 0.00 0.00 0.00 0.00 0.00 0.01 0.05 0.07 0.13 0.23 0.12 0.04 0.17 0.14 0.16 0.12 0.08 0.04 0.00 0.00 0.00 0.00 0.00 0.00 0.00 0.00 0.01
1.01 0.99 1.02 0.91 1.18 0.87 0.55 0.44 0.14 0.02 0.01 0.00 0.00 0.00 0.00 0.00 0.00 0.00 0.00 0.00 0.00 0.00 0.00 0.00 0.08 0.08 0.03 0.01 0.01 0.04 0.01 0.06 0.20 0.06 0.12 0.10 0.04 0.01 0.03 0.01 0.00 0.01 0.01 0.01 0.01
0.89 0.94 1.09 0.56 0.44 0.32 0.26 0.04 0.01 0.03 0.02 0.00 0.00 0.00 0.00 0.00 0.00 0.00 0.00 0.00 0.00 0.00 0.00 0.01 0.13 0.14 0.10 0.12 0.10 0.16 0.04 0.09 0.17 0.36 0.25 0.14 0.03 0.01 0.02 0.01 0.00 0.00 0.00 0.01 0.01
0.82 1.21 1.62 0.89 0.18 0.06 0.13 0.06 0.02 0.03 0.01 0.01 0.02 0.02 0.01 0.00 0.00 0.00 0.00 0.00 0.00 0.00 0.01 0.11 0.17 0.11 0.10 0.29 0.41 0.32 0.07 0.09 0.35 0.53 0.10 0.05 0.02 0.01 0.03 0.03 0.04 0.03 0.01 0.01 0.01
0.52 0.32 0.43 0.54 0.15 0.03 0.04 0.04 0.01 0.01 0.01 0.03 0.04 0.04 0.02 0.01 0.00 0.00 0.00 0.00 0.00 0.02 0.13 0.33 0.25 0.11 0.12 0.22 0.58 0.38 0.14 0.10 0.37 0.18 0.24 0.08 0.04 0.04 0.04 0.05 0.05 0.04 0.03 0.03 0.03
0.61 0.18 0.01 0.01 0.02 0.01 0.01 0.01 0.02 0.01 0.03 0.04 0.01 0.01 0.03 0.03 0.01 0.00 0.00 0.00 0.01 0.03 0.13 0.31 0.38 0.33 0.34 0.25 0.35 0.27 0.07 0.11 0.12 0.04 0.04 0.02 0.04 0.05 0.05 0.03 0.08 0.06 0.02 0.01 0.00
0.70 0.22 0.03 0.02 0.01 0.00 0.00 0.00 0.00 0.02 0.02 0.00 0.01 0.02 0.03 0.01 0.01 0.01 0.01 0.01 0.01 0.06 0.26 0.41 0.47 0.64 0.48 0.18 0.19 0.26 0.08 0.06 0.09 0.07 0.03 0.04 0.05 0.07 0.25 0.45 0.39 0.10 0.04 0.02 0.02

GFSSW_prec_precacc_051.txt.gz
Total_Precipitation_Accumulation
0.13 0.16 0.21 0.23 0.23 0.25 0.25 0.30 0.36 0.39 0.35 0.28 0.39 0.45 0.38 0.32 0.37 0.32 0.09 0.01 0.03 0.04 0.06 0.00 0.01 0.02 0.01 0.07 0.11 0.16 0.36 0.24 0.05 0.03 0.02 0.00 0.00 0.00 0.00 0.00 0.00 0.00 0.00 0.00 0.00
0.15 0.19 0.23 0.25 0.23 0.23 0.29 0.37 0.37 0.34 0.29 0.18 0.22 0.49 0.63 0.63 0.30 0.15 0.05 0.03 0.05 0.22 0.06 0.00 0.01 0.03 0.03 0.07 0.15 0.25 0.33 0.14 0.03 0.00 0.01 0.01 0.00 0.00 0.00 0.00 0.01 0.02 0.00 0.00 0.00
0.20 0.23 0.25 0.28 0.31 0.35 0.43 0.39 0.38 0.32 0.21 0.22 0.29 0.46 0.74 0.79 0.49 0.07 0.01 0.01 0.09 0.30 0.16 0.01 0.03 0.06 0.03 0.04 0.08 0.12 0.09 0.00 0.01 0.05 0.18 0.08 0.00 0.00 0.00 0.00 0.00 0.03 0.03 0.01 0.04
0.26 0.31 0.30 0.28 0.32 0.35 0.36 0.34 0.27 0.20 0.18 0.16 0.25 0.30 0.54 0.94 0.47 0.15 0.04 0.05 0.19 0.51 0.31 0.05 0.03 0.07 0.01 0.01 0.01 0.00 0.00 0.00 0.05 0.11 0.26 0.10 0.02 0.00 0.00 0.00 0.00 0.01 0.06 0.05 0.02
0.37 0.38 0.34 0.27 0.32 0.29 0.23 0.18 0.19 0.27 0.22 0.21 0.26 0.42 0.47 0.64 0.29 0.25 0.20 0.16 0.43 0.74 0.32 0.06 0.01 0.03 0.01 0.00 0.01 0.00 0.00 0.01 0.06 0.05 0.07 0.12 0.17 0.03 0.00 0.00 0.00 0.00 0.03 0.03 0.01
0.38 0.36 0.32 0.28 0.31 0.29 0.21 0.27 0.20 0.22 0.17 0.19 0.28 0.64 0.43 0.29 0.10 0.18 0.29 0.30 0.44 0.64 0.36 0.09 0.01 0.01 0.02 0.00 0.01 0.00 0.01 0.06 0.05 0.02 0.02 0.08 0.12 0.13 0.01 0.00 0.00 0.01 0.03 0.01 0.00
0.39 0.39 0.31 0.25 0.36 0.34 0.23 0.20 0.29 0.31 0.20 0.25 0.49 0.48 0.45 0.16 0.09 0.21 0.30 0.44 0.64 0.73 0.42 0.14 0.01 0.05 0.03 0.03 0.01 0.01 0.02 0.04 0.03 0.01 0.01 0.02 0.10 0.17 0.01 0.00 0.00 0.01 0.02 0.01 0.00
0.36 0.41 0.37 0.39 0.36 0.28 0.16 0.12 0.20 0.25 0.29 0.33 0.51 0.55 0.25 0.08 0.06 0.16 0.24 0.50 0.71 0.87 0.70 0.45 0.07 0.08 0.04 0.03 0.01 0.00 0.03 0.01 0.00 0.00 0.00 0.04 0.03 0.00 0.04 0.01 0.00 0.00 0.00 0.00 0.00
0.36 0.38 0.41 0.36 0.27 0.27 0.25 0.25 0.25 0.21 0.36 0.55 0.55 0.47 0.15 0.11 0.09 0.15 0.15 0.42 0.74 1.11 1.10 0.78 0.44 0.12 0.03 0.06 0.07 0.02 0.01 0.00 0.00 0.00 0.00 0.00 0.00 0.00 0.01 0.01 0.00 0.00 0.00 0.00 0.00
0.31 0.34 0.33 0.32 0.28 0.29 0.43 0.52 0.52 0.45 0.49 0.69 0.73 0.55 0.20 0.04 0.11 0.17 0.20 0.52 0.92 1.46 1.77 1.20 0.85 0.33 0.07 0.05 0.04 0.01 0.00 0.00 0.00 0.00 0.00 0.00 0.00 0.00 0.00 0.00 0.00 0.00 0.00 0.00 0.00
0.30 0.32 0.33 0.33 0.35 0.52 0.72 0.98 0.93 0.85 0.79 0.64 0.47 0.27 0.23 0.15 0.21 0.26 0.39 0.88 1.45 2.07 1.63 0.85 0.52 0.24 0.07 0.01 0.00 0.00 0.00 0.00 0.00 0.00 0.00 0.00 0.00 0.00 0.00 0.00 0.00 0.00 0.00 0.00 0.00
0.29 0.36 0.37 0.32 0.47 0.72 0.79 0.90 0.59 0.50 0.63 0.40 0.28 0.27 0.13 0.19 0.34 0.45 0.86 2.03 1.64 1.94 1.19 0.68 0.33 0.11 0.07 0.03 0.00 0.00 0.00 0.00 0.00 0.00 0.00 0.00 0.00 0.00 0.00 0.00 0.00 0.00 0.00 0.00 0.00
0.33 0.40 0.44 0.41 0.57 0.83 0.56 0.55 0.56 0.44 0.77 0.66 0.59 0.45 0.26 0.40 0.48 0.67 1.43 2.14 1.37 1.30 0.83 0.41 0.17 0.16 0.10 0.06 0.01 0.00 0.00 0.00 0.00 0.00 0.00 0.00 0.00 0.00 0.00 0.00 0.00 0.00 0.00 0.00 0.00
0.44 0.44 0.59 0.79 1.11 0.71 0.68 0.40 0.72 0.66 0.98 1.05 1.11 0.62 0.46 0.57 0.89 0.66 1.11 1.63 1.38 1.16 0.90 0.58 0.15 0.19 0.16 0.09 0.01 0.00 0.00 0.00 0.00 0.00 0.00 0.01 0.01 0.00 0.00 0.00 0.00 0.00 0.00 0.00 0.00
0.47 0.56 0.69 1.19 1.25 0.88 0.82 0.90 1.00 0.94 1.50 1.36 1.15 0.62 0.50 0.69 0.83 0.79 0.87 0.98 0.62 0.97 0.78 0.48 0.22 0.28 0.22 0.12 0.02 0.00 0.00 0.00 0.01 0.02 0.03 0.00 0.03 0.00 0.00 0.00 0.00 0.00 0.00 0.00 0.00
0.57 0.70 0.94 1.08 0.99 0.81 0.67 1.26 1.46 1.11 1.58 1.27 0.90 0.71 0.70 0.43 0.38 0.48 0.66 0.62 0.66 0.67 0.39 0.27 0.15 0.38 0.28 0.16 0.05 0.01 0.02 0.01 0.02 0.05 0.09 0.00 0.01 0.00 0.00 0.00 0.00 0.00 0.00 0.00 0.00
0.81 1.20 1.27 0.99 0.77 0.55 1.03 1.40 1.47 0.96 0.71 0.47 0.35 0.20 0.13 0.14 0.25 0.24 0.37 0.51 0.77 0.87 0.80 0.54 0.22 0.31 0.22 0.22 0.08 0.01 0.07 0.19 0.19 0.18 0.05 0.00 0.00 0.00 0.00 0.00 0.00 0.00 0.00 0.00 0.00
0.95 1.01 0.94 0.77 0.62 1.11 1.10 0.86 1.13 0.74 0.35 0.18 0.06 0.06 0.05 0.06 0.10 0.12 0.23 0.24 0.24 0.19 0.34 0.48 0.45 0.34 0.35 0.15 0.09 0.02 0.04 0.12 0.09 0.03 0.01 0.00 0.00 0.00 0.00 0.00 0.00 0.00 0.00 0.00 0.00
0.75 0.99 1.14 0.99 0.82 1.30 0.98 0.71 0.95 0.57 0.17 0.07 0.06 0.05 0.07 0.03 0.05 0.19 0.25 0.14 0.09 0.07 0.16 0.17 0.18 0.15 0.23 0.10 0.10 0.18 0.20 0.05 0.16 0.12 0.22 0.02 0.00 0.00 0.00 0.00 0.00 0.00 0.00 0.00 0.00
0.71 1.33 1.06 0.93 0.93 1.11 0.86 0.62 0.48 0.06 0.00 0.00 0.05 0.02 0.02 0.02 0.05 0.06 0.12 0.06 0.02 0.01 0.01 0.01 0.08 0.11 0.12 0.18 0.15 0.07 0.07 0.19 0.44 0.23 0.12 0.01 0.00 0.00 0.00 0.00 0.00 0.00 0.00 0.00 0.00
0.74 1.23 1.09 0.78 1.06 1.06 0.80 0.78 0.32 0.01 0.00 0.00 0.00 0.00 0.00 0.00 0.01 0.01 0.00 0.00 0.00 0.00 0.00 0.01 0.05 0.09 0.14 0.24 0.13 0.04 0.17 0.14 0.16 0.12 0.08 0.04 0.00 0.00 0.00 0.00 0.00 0.00 0.00 0.00 0.01
1.01 0.99 1.02 0.91 1.19 0.87 0.55 0.44 0.14 0.02 0.01 0.00 0.00 0.00 0.00 0.00 0.00 0.00 0.00 0.00 0.00 0.00 0.00 0.00 0.08 0.08 0.04 0.01 0.01 0.04 0.01 0.06 0.21 0.06 0.12 0.10 0.04 0.01 0.03 0.01 0.00 0.01 0.01 0.01 0.01
0.89 0.94 1.09 0.56 0.44 0.32 0.26 0.04 0.01 0.03 0.02 0.00 0.00 0.00 0.00 0.00 0.00 0.00 0.00 0.00 0.00 0.00 0.00 0.01 0.13 0.15 0.12 0.13 0.10 0.16 0.05 0.09 0.17 0.36 0.25 0.14 0.03 0.01 0.02 0.01 0.00 0.00 0.00 0.01 0.01
0.82 1.21 1.62 0.89 0.18 0.06 0.13 0.06 0.02 0.03 0.01 0.01 0.02 0.02 0.01 0.00 0.00 0.00 0.00 0.00 0.00 0.00 0.01 0.11 0.17 0.11 0.11 0.29 0.41 0.32 0.07 0.09 0.36 0.56 0.10 0.05 0.02 0.01 0.03 0.03 0.04 0.03 0.01 0.01 0.01
0.52 0.32 0.43 0.54 0.15 0.03 0.04 0.04 0.01 0.01 0.01 0.03 0.04 0.04 0.02 0.01 0.00 0.00 0.00 0.00 0.00 0.02 0.13 0.33 0.25 0.11 0.12 0.22 0.58 0.38 0.14 0.10 0.38 0.18 0.25 0.09 0.04 0.04 0.04 0.05 0.05 0.04 0.03 0.03 0.03
0.61 0.18 0.01 0.01 0.02 0.01 0.01 0.01 0.02 0.02 0.03 0.04 0.01 0.01 0.03 0.03 0.01 0.00 0.00 0.00 0.01 0.03 0.13 0.31 0.38 0.33 0.34 0.25 0.35 0.27 0.07 0.11 0.12 0.04 0.04 0.02 0.04 0.05 0.05 0.03 0.08 0.06 0.02 0.01 0.00
0.70 0.22 0.03 0.02 0.01 0.00 0.00 0.00 0.00 0.02 0.03 0.00 0.01 0.02 0.03 0.01 0.01 0.01 0.01 0.01 0.01 0.06 0.26 0.41 0.47 0.64 0.48 0.18 0.19 0.26 0.08 0.06 0.09 0.07 0.03 0.04 0.05 0.07 0.25 0.45 0.39 0.10 0.04 0.02 0.02

GFSSW_prec_precacc_054.txt.gz
Total_Precipitation_Accumulation
0.13 0.17 0.21 0.23 0.24 0.26 0.26 0.31 0.37 0.42 0.44 0.38 0.46 0.48 0.40 0.33 0.37 0.34 0.12 0.02 0.03 0.06 0.17 0.03 0.01 0.02 0.02 0.11 0.15 0.18 0.39 0.26 0.05 0.04 0.03 0.00 0.00 0.00 0.00 0.00 0.00 0.00 0.00 0.00 0.00
0.15 0.19 0.23 0.25 0.24 0.23 0.30 0.37 0.38 0.36 0.33 0.23 0.24 0.50 0.65 0.64 0.31 0.15 0.05 0.04 0.07 0.22 0.09 0.03 0.01 0.03 0.04 0.11 0.23 0.31 0.41 0.15 0.03 0.00 0.01 0.01 0.00 0.00 0.00 0.00 0.01 0.04 0.05 0.04 0.02
0.20 0.23 0.25 0.28 0.31 0.36 0.43 0.39 0.38 0.33 0.21 0.22 0.29 0.46 0.74 0.81 0.49 0.07 0.01 0.02 0.13 0.30 0.19 0.04 0.03 0.06 0.04 0.06 0.13 0.15 0.17 0.02 0.01 0.05 0.18 0.11 0.00 0.00 0.00 0.00 0.00 0.03 0.08 0.09 0.11
0.26 0.31 0.30 0.28 0.32 0.35 0.36 0.34 0.27 0.20 0.18 0.16 0.25 0.30 0.55 0.95 0.47 0.16 0.06 0.06 0.27 0.54 0.35 0.09 0.03 0.07 0.02 0.01 0.02 0.01 0.00 0.01 0.05 0.11 0.27 0.12 0.02 0.00 0.00 0.00 0.00 0.01 0.07 0.13 0.12
0.38 0.39 0.35 0.27 0.32 0.29 0.23 0.18 0.19 0.27 0.22 0.21 0.26 0.42 0.47 0.65 0.29 0.26 0.20 0.17 0.48 0.78 0.35 0.10 0.01 0.03 0.01 0.00 0.02 0.01 0.00 0.01 0.07 0.06 0.07 0.12 0.19 0.04 0.00 0.00 0.00 0.00 0.03 0.04 0.08
0.39 0.37 0.32 0.28 0.31 0.29 0.21 0.27 0.20 0.22 0.17 0.19 0.28 0.64 0.43 0.29 0.10 0.19 0.29 0.30 0.44 0.65 0.37 0.13 0.01 0.01 0.02 0.00 0.02 0.00 0.04 0.09 0.06 0.02 0.03 0.09 0.13 0.16 0.02 0.00 0.00 0.01 0.04 0.02 0.05
0.40 0.41 0.32 0.26 0.37 0.34 0.23 0.20 0.29 0.31 0.20 0.25 0.49 0.49 0.45 0.16 0.09 0.21 0.30 0.44 0.64 0.73 0.42 0.16 0.02 0.05 0.04 0.04 0.02 0.01 0.05 0.11 0.09 0.03 0.02 0.03 0.14 0.19 0.02 0.00 0.00 0.01 0.03 0.03 0.00
0.36 0.42 0.38 0.40 0.36 0.28 0.16 0.12 0.20 0.25 0.29 0.33 0.51 0.55 0.25 0.08 0.06 0.16 0.24 0.54 0.75 0.87 0.72 0.50 0.10 0.11 0.05 0.04 0.03 0.04 0.06 0.04 0.05 0.04 0.03 0.06 0.06 0.00 0.06 0.06 0.00 0.00 0.00 0.00 0.00
0.36 0.39 0.41 0.37 0.28 0.27 0.25 0.25 0.25 0.21 0.36 0.55 0.55 0.47 0.15 0.12 0.12 0.16 0.15 0.46 0.86 1.13 1.17 0.96 0.52 0.15 0.05 0.07 0.08 0.03 0.01 0.00 0.00 0.01 0.00 0.00 0.00 0.00 0.04 0.07 0.00 0.00 0.00 0.00 0.00
0.32 0.35 0.33 0.32 0.29 0.29 0.43 0.52 0.52 0.45 0.49 0.69 0.73 0.55 0.20 0.04 0.12 0.18 0.20 0.54 1.02 1.51 1.89 1.54 0.98 0.36 0.08 0.06 0.04 0.01 0.00 0.00 0.00 0.00 0.00 0.00 0.00 0.00 0.00 0.00 0.00 0.00 0.00 0.00 0.00
0.31 0.33 0.33 0.33 0.36 0.52 0.72 0.98 0.93 0.85 0.79 0.64 0.47 0.27 0.23 0.15 0.22 0.26 0.39 0.91 1.51 2.13 1.84 1.29 0.69 0.27 0.07 0.01 0.00 0.00 0.00 0.00 0.00 0.00 0.00 0.00 0.00 0.00 0.00 0.00 0.00 0.00 0.00 0.00 0.00
0.30 0.37 0.38 0.32 0.47 0.73 0.79 0.90 0.59 0.50 0.63 0.40 0.28 0.27 0.13 0.19 0.35 0.45 0.86 2.07 1.67 1.99 1.46 0.84 0.38 0.11 0.07 0.03 0.00 0.00 0.00 0.00 0.00 0.00 0.00 0.00 0.00 0.00 0.00 0.00 0.00 0.00 0.00 0.00 0.00
0.33 0.41 0.45 0.41 0.57 0.83 0.56 0.55 0.56 0.44 0.77 0.66 0.59 0.45 0.26 0.40 0.49 0.68 1.44 2.19 1.42 1.35 1.13 0.48 0.18 0.16 0.10 0.06 0.01 0.00 0.00 0.00 0.00 0.00 0.00 0.00 0.00 0.00 0.00 0.00 0.00 0.00 0.00 0.00 0.00
0.45 0.44 0.60 0.80 1.11 0.71 0.68 0.40 0.72 0.66 0.98 1.06 1.13 0.62 0.48 0.58 0.90 0.68 1.12 1.65 1.51 1.28 1.14 0.67 0.15 0.19 0.16 0.10 0.01 0.00 0.00 0.00 0.00 0.00 0.00 0.01 0.01 0.00 0.00 0.00 0.00 0.00 0.00 0.00 0.00
0.47 0.56 0.69 1.19 1.25 0.88 0.82 0.90 1.00 0.94 1.51 1.36 1.16 0.62 0.51 0.70 0.84 0.80 0.88 1.00 0.75 1.13 1.05 0.62 0.23 0.28 0.22 0.12 0.02 0.00 0.00 0.00 0.01 0.02 0.03 0.00 0.03 0.00 0.00 0.00 0.00 0.00 0.00 0.00 0.00
0.57 0.70 0.94 1.08 0.99 0.81 0.67 1.26 1.46 1.11 1.59 1.29 0.91 0.71 0.73 0.47 0.42 0.52 0.72 0.68 0.76 0.82 0.53 0.29 0.15 0.39 0.28 0.17 0.06 0.01 0.02 0.01 0.02 0.05 0.09 0.00 0.01 0.00 0.00 0.00 0.00 0.00 0.00 0.00 0.00
0.81 1.20 1.27 0.99 0.77 0.55 1.03 1.40 1.47 0.96 0.71 0.48 0.35 0.20 0.14 0.15 0.27 0.31 0.49 0.59 0.88 1.06 0.96 0.62 0.26 0.31 0.23 0.23 0.09 0.01 0.07 0.20 0.20 0.19 0.05 0.00 0.00 0.00 0.00 0.00 0.00 0.00 0.00 0.00 0.00
0.95 1.01 0.94 0.77 0.62 1.11 1.10 0.86 1.13 0.74 0.35 0.18 0.07 0.07 0.06 0.06 0.11 0.16 0.29 0.30 0.27 0.24 0.37 0.55 0.53 0.34 0.35 0.15 0.09 0.02 0.04 0.12 0.09 0.03 0.01 0.00 0.00 0.00 0.00 0.00 0.00 0.00 0.00 0.00 0.00
0.75 0.99 1.14 0.99 0.82 1.30 0.98 0.71 0.95 0.57 0.17 0.07 0.07 0.06 0.08 0.03 0.05 0.20 0.27 0.17 0.10 0.07 0.16 0.18 0.20 0.16 0.23 0.10 0.10 0.19 0.20 0.05 0.16 0.12 0.22 0.02 0.00 0.00 0.00 0.00 0.00 0.00 0.00 0.00 0.00
0.71 1.33 1.06 0.93 0.93 1.11 0.86 0.62 0.48 0.06 0.00 0.00 0.05 0.02 0.04 0.02 0.05 0.06 0.12 0.06 0.02 0.01 0.01 0.01 0.09 0.11 0.12 0.18 0.15 0.07 0.07 0.19 0.44 0.23 0.12 0.01 0.00 0.00 0.00 0.00 0.00 0.00 0.00 0.00 0.00
0.74 1.23 1.09 0.78 1.06 1.06 0.80 0.78 0.32 0.01 0.00 0.00 0.00 0.00 0.01 0.02 0.01 0.01 0.00 0.00 0.00 0.00 0.00 0.01 0.05 0.09 0.14 0.24 0.13 0.04 0.17 0.14 0.16 0.12 0.08 0.04 0.00 0.00 0.00 0.00 0.00 0.00 0.00 0.00 0.01
1.01 0.99 1.02 0.91 1.19 0.87 0.55 0.44 0.14 0.02 0.01 0.00 0.00 0.00 0.00 0.00 0.00 0.00 0.00 0.00 0.00 0.00 0.00 0.00 0.08 0.09 0.04 0.01 0.01 0.04 0.01 0.06 0.21 0.07 0.12 0.10 0.04 0.01 0.03 0.01 0.00 0.01 0.01 0.01 0.01
0.89 0.94 1.09 0.56 0.44 0.32 0.26 0.04 0.01 0.03 0.02 0.00 0.00 0.00 0.00 0.00 0.00 0.00 0.00 0.00 0.00 0.00 0.00 0.01 0.13 0.15 0.12 0.14 0.11 0.16 0.05 0.09 0.18 0.37 0.25 0.14 0.03 0.01 0.02 0.01 0.00 0.00 0.00 0.01 0.01
0.82 1.21 1.62 0.89 0.18 0.06 0.13 0.06 0.02 0.03 0.01 0.01 0.02 0.02 0.01 0.00 0.00 0.00 0.00 0.00 0.00 0.00 0.02 0.11 0.17 0.11 0.11 0.29 0.41 0.32 0.07 0.09 0.37 0.59 0.11 0.05 0.02 0.01 0.03 0.03 0.04 0.03 0.01 0.01 0.01
0.52 0.32 0.43 0.54 0.15 0.03 0.04 0.04 0.01 0.01 0.01 0.03 0.04 0.04 0.02 0.01 0.00 0.00 0.00 0.00 0.00 0.02 0.13 0.33 0.25 0.11 0.12 0.22 0.58 0.38 0.14 0.10 0.38 0.19 0.25 0.09 0.04 0.04 0.04 0.05 0.05 0.04 0.03 0.03 0.03
0.61 0.18 0.01 0.01 0.02 0.01 0.01 0.01 0.02 0.02 0.03 0.04 0.01 0.01 0.03 0.03 0.01 0.00 0.00 0.00 0.01 0.03 0.13 0.31 0.38 0.33 0.34 0.25 0.35 0.27 0.07 0.11 0.12 0.04 0.04 0.02 0.04 0.05 0.05 0.03 0.08 0.06 0.02 0.01 0.00
0.70 0.22 0.03 0.02 0.01 0.00 0.00 0.00 0.00 0.02 0.03 0.00 0.01 0.02 0.03 0.01 0.01 0.01 0.01 0.01 0.01 0.06 0.26 0.41 0.47 0.64 0.48 0.18 0.19 0.26 0.08 0.06 0.09 0.07 0.03 0.04 0.05 0.07 0.25 0.45 0.39 0.10 0.04 0.02 0.02

GFSSW_prec_precacc_057.txt.gz
Total_Precipitation_Accumulation
0.13 0.17 0.22 0.23 0.24 0.26 0.26 0.31 0.37 0.42 0.45 0.39 0.48 0.53 0.45 0.36 0.41 0.35 0.12 0.03 0.04 0.08 0.22 0.08 0.02 0.02 0.07 0.16 0.20 0.22 0.44 0.27 0.05 0.04 0.03 0.00 0.00 0.00 0.00 0.00 0.00 0.00 0.00 0.01 0.02
0.15 0.19 0.23 0.25 0.24 0.24 0.30 0.37 0.38 0.36 0.34 0.26 0.30 0.53 0.67 0.66 0.33 0.15 0.05 0.05 0.12 0.27 0.10 0.05 0.02 0.03 0.06 0.16 0.31 0.40 0.49 0.17 0.03 0.00 0.01 0.01 0.00 0.00 0.00 0.00 0.01 0.04 0.05 0.04 0.06
0.22 0.23 0.26 0.28 0.31 0.36 0.43 0.39 0.38 0.33 0.21 0.22 0.29 0.46 0.76 0.82 0.49 0.07 0.02 0.02 0.26 0.44 0.22 0.06 0.05 0.06 0.04 0.08 0.18 0.25 0.25 0.02 0.01 0.05 0.18 0.11 0.00 0.00 0.00 0.00 0.00 0.03 0.08 0.09 0.13
0.27 0.32 0.31 0.28 0.33 0.35 0.37 0.34 0.27 0.20 0.18 0.16 0.25 0.30 0.55 0.95 0.47 0.17 0.07 0.09 0.38 0.76 0.41 0.14 0.06 0.08 0.02 0.01 0.03 0.05 0.03 0.03 0.05 0.11 0.27 0.13 0.02 0.00 0.00 0.00 0.00 0.01 0.07 0.13 0.13
0.39 0.40 0.36 0.28 0.32 0.29 0.23 0.18 0.19 0.27 0.22 0.21 0.26 0.42 0.47 0.65 0.29 0.26 0.20 0.17 0.52 1.01 0.41 0.15 0.03 0.03 0.01 0.00 0.02 0.01 0.01 0.03 0.09 0.07 0.07 0.12 0.19 0.04 0.00 0.00 0.00 0.00 0.03 0.04 0.08
0.40 0.38 0.33 0.29 0.31 0.29 0.21 0.27 0.21 0.22 0.17 0.19 0.28 0.64 0.43 0.29 0.10 0.19 0.29 0.30 0.44 0.73 0.39 0.18 0.03 0.02 0.02 0.01 0.02 0.01 0.04 0.11 0.08 0.03 0.03 0.10 0.13 0.16 0.02 0.00 0.00 0.01 0.04 0.02 0.05
0.40 0.41 0.33 0.27 0.38 0.35 0.24 0.20 0.29 0.31 0.20 0.25 0.49 0.49 0.45 0.16 0.09 0.21 0.30 0.44 0.64 0.75 0.43 0.22 0.05 0.06 0.04 0.05 0.02 0.02 0.06 0.15 0.13 0.05 0.04 0.04 0.16 0.19 0.02 0.00 0.00 0.01 0.03 0.03 0.00
0.37 0.43 0.39 0.40 0.37 0.28 0.16 0.13 0.21 0.25 0.29 0.33 0.51 0.55 0.25 0.08 0.06 0.16 0.24 0.54 0.75 0.88 0.72 0.59 0.18 0.14 0.06 0.04 0.03 0.04 0.07 0.05 0.06 0.07 0.05 0.08 0.06 0.00 0.06 0.08 0.00 0.00 0.00 0.00 0.00
0.37 0.40 0.42 0.37 0.28 0.27 0.26 0.25 0.25 0.21 0.36 0.55 0.55 0.47 0.15 0.12 0.12 0.16 0.15 0.47 0.90 1.15 1.17 1.11 0.84 0.19 0.08 0.07 0.08 0.03 0.01 0.00 0.00 0.02 0.01 0.00 0.00 0.00 0.04 0.08 0.00 0.00 0.00 0.00 0.00
0.32 0.36 0.34 0.33 0.29 0.29 0.43 0.52 0.52 0.45 0.49 0.69 0.73 0.55 0.20 0.04 0.13 0.18 0.20 0.56 1.11 1.57 1.91 1.75 1.46 0.41 0.10 0.06 0.04 0.01 0.00 0.00 0.00 0.00 0.00 0.00 0.00 0.00 0.00 0.00 0.00 0.00 0.00 0.00 0.00
0.32 0.34 0.34 0.34 0.36 0.53 0.72 0.98 0.93 0.85 0.79 0.64 0.47 0.27 0.23 0.15 0.23 0.27 0.39 0.99 1.63 2.19 1.87 1.62 1.05 0.32 0.07 0.01 0.00 0.00 0.00 0.00 0.00 0.00 0.01 0.00 0.00 0.00 0.00 0.00 0.00 0.00 0.00 0.00 0.00
0.31 0.38 0.39 0.32 0.47 0.73 0.79 0.90 0.59 0.50 0.63 0.40 0.28 0.27 0.13 0.19 0.35 0.46 0.87 2.24 1.74 2.02 1.59 1.24 0.52 0.12 0.07 0.03 0.00 0.00 0.00 0.00 0.00 0.00 0.01 0.00 0.00 0.00 0.00 0.00 0.00 0.00 0.00 0.00 0.00
0.35 0.42 0.45 0.42 0.57 0.83 0.56 0.55 0.56 0.44 0.77 0.67 0.59 0.45 0.26 0.41 0.51 0.69 1.45 2.28 1.44 1.38 1.32 0.63 0.23 0.16 0.10 0.06 0.01 0.00 0.00 0.00 0.00 0.00 0.00 0.00 0.00 0.00 0.00 0.00 0.00 0.00 0.00 0.00 0.00
0.46 0.45 0.60 0.80 1.11 0.71 0.68 0.40 0.72 0.66 0.98 1.09 1.17 0.64 0.51 0.61 0.92 0.70 1.13 1.67 1.51 1.31 1.26 0.71 0.16 0.19 0.16 0.11 0.01 0.00 0.00 0.00 0.00 0.00 0.00 0.01 0.01 0.00 0.00 0.00 0.00 0.00 0.00 0.00 0.00
0.48 0.57 0.70 1.19 1.25 0.88 0.82 0.90 1.00 0.94 1.51 1.36 1.18 0.63 0.52 0.71 0.84 0.81 0.88 1.00 0.75 1.14 1.09 0.65 0.23 0.28 0.22 0.13 0.03 0.00 0.00 0.00 0.01 0.02 0.03 0.00 0.03 0.00 0.00 0.00 0.00 0.00 0.00 0.00 0.00
0.58 0.71 0.94 1.08 0.99 0.81 0.67 1.26 1.46 1.11 1.59 1.31 0.92 0.78 0.80 0.54 0.45 0.52 0.72 0.68 0.76 0.83 0.58 0.33 0.15 0.40 0.29 0.18 0.06 0.01 0.02 0.01 0.02 0.05 0.09 0.00 0.01 0.00 0.00 0.00 0.00 0.00 0.00 0.00 0.00
0.81 1.20 1.27 0.99 0.77 0.55 1.03 1.40 1.47 0.96 0.71 0.49 0.36 0.22 0.18 0.18 0.29 0.33 0.52 0.60 0.92 1.15 1.15 0.76 0.32 0.32 0.23 0.24 0.09 0.01 0.07 0.20 0.20 0.19 0.05 0.00 0.00 0.00 0.00 0.00 0.00 0.00 0.00 0.00 0.00
0.95 1.01 0.94 0.77 0.62 1.11 1.10 0.86 1.13 0.74 0.36 0.19 0.08 0.07 0.08 0.09 0.16 0.20 0.39 0.33 0.31 0.33 0.54 0.68 0.65 0.35 0.35 0.15 0.10 0.02 0.04 0.12 0.09 0.03 0.01 0.00 0.00 0.00 0.00 0.00 0.00 0.00 0.00 0.00 0.00
0.75 0.99 1.14 0.99 0.82 1.30 0.98 0.71 0.95 0.57 0.17 0.08 0.07 0.06 0.08 0.04 0.07 0.24 0.31 0.18 0.11 0.16 0.22 0.20 0.26 0.17 0.23 0.10 0.10 0.19 0.20 0.05 0.16 0.12 0.22 0.02 0.00 0.00 0.00 0.00 0.00 0.00 0.00 0.00 0.00
0.71 1.33 1.06 0.93 0.93 1.11 0.87 0.62 0.48 0.06 0.00 0.00 0.06 0.04 0.05 0.03 0.05 0.08 0.17 0.07 0.03 0.04 0.01 0.01 0.12 0.11 0.12 0.18 0.15 0.07 0.07 0.19 0.44 0.23 0.12 0.01 0.00 0.00 0.00 0.00 0.00 0.00 0.00 0.00 0.00
0.74 1.23 1.09 0.78 1.06 1.06 0.80 0.78 0.32 0.01 0.00 0.00 0.00 0.00 0.04 0.05 0.01 0.01 0.01 0.01 0.00 0.00 0.00 0.01 0.05 0.10 0.14 0.24 0.13 0.04 0.17 0.14 0.16 0.12 0.08 0.04 0.00 0.00 0.00 0.00 0.00 0.00 0.00 0.00 0.01
1.01 0.99 1.02 0.91 1.19 0.87 0.55 0.44 0.14 0.02 0.01 0.00 0.00 0.00 0.00 0.00 0.01 0.00 0.00 0.00 0.00 0.00 0.00 0.00 0.08 0.09 0.04 0.01 0.01 0.04 0.01 0.06 0.21 0.07 0.12 0.10 0.04 0.01 0.03 0.01 0.00 0.01 0.01 0.01 0.01
0.89 0.94 1.09 0.57 0.44 0.32 0.26 0.04 0.01 0.03 0.02 0.00 0.00 0.00 0.00 0.00 0.00 0.00 0.00 0.00 0.00 0.00 0.00 0.01 0.13 0.16 0.13 0.15 0.11 0.16 0.05 0.09 0.18 0.37 0.25 0.14 0.03 0.01 0.02 0.01 0.00 0.00 0.00 0.01 0.01
0.82 1.21 1.62 0.89 0.18 0.06 0.13 0.06 0.02 0.03 0.01 0.01 0.02 0.02 0.01 0.00 0.00 0.00 0.00 0.00 0.00 0.00 0.02 0.11 0.17 0.11 0.11 0.30 0.41 0.32 0.07 0.09 0.37 0.59 0.11 0.05 0.02 0.01 0.03 0.03 0.04 0.03 0.01 0.01 0.01
0.52 0.32 0.43 0.54 0.15 0.03 0.04 0.04 0.01 0.01 0.01 0.03 0.04 0.04 0.02 0.01 0.00 0.00 0.00 0.00 0.00 0.02 0.13 0.33 0.25 0.11 0.12 0.22 0.58 0.38 0.14 0.10 0.38 0.19 0.25 0.09 0.04 0.04 0.04 0.05 0.05 0.04 0.03 0.03 0.03
0.61 0.18 0.01 0.01 0.02 0.01 0.01 0.01 0.02 0.02 0.03 0.04 0.01 0.01 0.03 0.03 0.01 0.00 0.00 0.00 0.01 0.03 0.13 0.31 0.38 0.33 0.34 0.25 0.35 0.27 0.07 0.11 0.12 0.04 0.04 0.02 0.04 0.05 0.05 0.03 0.08 0.06 0.02 0.01 0.00
0.70 0.22 0.03 0.02 0.01 0.00 0.00 0.00 0.01 0.02 0.03 0.00 0.01 0.02 0.03 0.01 0.01 0.01 0.01 0.01 0.01 0.06 0.26 0.41 0.47 0.64 0.48 0.18 0.19 0.26 0.08 0.06 0.09 0.07 0.03 0.04 0.05 0.07 0.25 0.45 0.39 0.10 0.04 0.02 0.02

GFSSW_prec_precacc_060.txt.gz
Total_Precipitation_Accumulation
0.14 0.17 0.22 0.24 0.24 0.26 0.27 0.31 0.37 0.42 0.45 0.39 0.48 0.55 0.47 0.41 0.47 0.40 0.13 0.03 0.05 0.12 0.25 0.10 0.03 0.02 0.10 0.24 0.27 0.26 0.46 0.27 0.05 0.04 0.03 0.00 0.00 0.00 0.00 0.00 0.00 0.00 0.00 0.01 0.03
0.16 0.21 0.23 0.26 0.24 0.24 0.30 0.37 0.38 0.36 0.34 0.26 0.30 0.53 0.68 0.70 0.34 0.15 0.05 0.05 0.13 0.35 0.16 0.07 0.03 0.04 0.09 0.22 0.40 0.46 0.53 0.18 0.03 0.00 0.01 0.01 0.00 0.00 0.00 0.00 0.01 0.04 0.05 0.04 0.07
0.22 0.25 0.27 0.28 0.31 0.36 0.43 0.39 0.38 0.33 0.21 0.22 0.29 0.46 0.76 0.82 0.49 0.07 0.05 0.04 0.27 0.53 0.30 0.09 0.10 0.10 0.06 0.13 0.30 0.30 0.26 0.03 0.01 0.05 0.18 0.11 0.00 0.00 0.00 0.00 0.00 0.03 0.08 0.09 0.14
0.28 0.33 0.31 0.29 0.33 0.35 0.37 0.34 0.27 0.20 0.18 0.16 0.25 0.30 0.55 0.95 0.47 0.17 0.07 0.10 0.41 0.84 0.56 0.20 0.11 0.12 0.03 0.05 0.09 0.10 0.05 0.03 0.05 0.11 0.27 0.13 0.02 0.00 0.00 0.00 0.00 0.01 0.07 0.13 0.14
0.40 0.40 0.36 0.28 0.33 0.29 0.23 0.18 0.20 0.28 0.22 0.21 0.26 0.42 0.47 0.65 0.29 0.26 0.20 0.17 0.54 1.14 0.54 0.24 0.08 0.06 0.01 0.01 0.06 0.06 0.06 0.05 0.10 0.08 0.07 0.12 0.19 0.04 0.00 0.00 0.00 0.00 0.03 0.04 0.08
0.41 0.38 0.34 0.30 0.32 0.29 0.22 0.28 0.21 0.22 0.17 0.19 0.28 0.64 0.43 0.29 0.10 0.19 0.29 0.30 0.45 0.90 0.52 0.37 0.10 0.03 0.02 0.01 0.04 0.02 0.09 0.16 0.11 0.08 0.05 0.10 0.13 0.16 0.02 0.00 0.00 0.01 0.04 0.02 0.05
0.41 0.42 0.33 0.27 0.38 0.35 0.24 0.21 0.29 0.31 0.20 0.25 0.49 0.49 0.45 0.16 0.09 0.21 0.30 0.44 0.64 0.83 0.51 0.42 0.13 0.07 0.04 0.06 0.03 0.03 0.10 0.21 0.22 0.09 0.09 0.07 0.17 0.19 0.02 0.00 0.00 0.01 0.03 0.03 0.00
0.38 0.43 0.39 0.41 0.37 0.28 0.17 0.13 0.21 0.25 0.29 0.33 0.51 0.55 0.25 0.08 0.06 0.16 0.24 0.54 0.75 0.90 0.77 0.79 0.30 0.16 0.06 0.05 0.05 0.07 0.10 0.07 0.11 0.12 0.09 0.12 0.06 0.00 0.06 0.08 0.00 0.00 0.00 0.00 0.00
0.39 0.41 0.43 0.38 0.28 0.27 0.26 0.26 0.25 0.21 0.36 0.55 0.55 0.47 0.15 0.12 0.12 0.16 0.15 0.47 0.91 1.16 1.20 1.25 1.06 0.25 0.09 0.08 0.09 0.05 0.02 0.00 0.02 0.05 0.02 0.00 0.00 0.00 0.04 0.08 0.00 0.00 0.00 0.00 0.00
0.34 0.37 0.35 0.34 0.30 0.30 0.43 0.52 0.52 0.45 0.49 0.69 0.73 0.55 0.20 0.04 0.13 0.18 0.20 0.58 1.16 1.63 1.96 1.91 1.98 0.50 0.12 0.07 0.04 0.01 0.00 0.00 0.00 0.00 0.01 0.00 0.00 0.00 0.00 0.00 0.00 0.00 0.00 0.00 0.00
0.33 0.35 0.36 0.35 0.37 0.53 0.72 0.98 0.93 0.85 0.79 0.64 0.47 0.27 0.23 0.15 0.24 0.28 0.41 1.01 1.72 2.29 1.92 1.77 1.43 0.50 0.08 0.01 0.00 0.00 0.00 0.00 0.00 0.01 0.01 0.01 0.00 0.00 0.00 0.00 0.00 0.00 0.00 0.00 0.00
0.32 0.40 0.40 0.33 0.48 0.74 0.79 0.90 0.59 0.50 0.63 0.40 0.28 0.27 0.13 0.19 0.37 0.47 0.90 2.26 1.81 2.11 1.61 1.29 0.61 0.25 0.09 0.03 0.00 0.00 0.00 0.00 0.00 0.00 0.02 0.00 0.00 0.00 0.00 0.00 0.00 0.00 0.00 0.00 0.00
0.36 0.43 0.46 0.42 0.57 0.83 0.56 0.55 0.56 0.44 0.77 0.67 0.60 0.45 0.26 0.42 0.54 0.70 1.49 2.32 1.50 1.42 1.32 0.69 0.28 0.23 0.13 0.07 0.02 0.00 0.00 0.00 0.00 0.00 0.01 0.00 0.00 0.00 0.00 0.00 0.00 0.00 0.00 0.00 0.00
0.47 0.46 0.61 0.80 1.11 0.71 0.68 0.40 0.72 0.66 0.98 1.09 1.18 0.66 0.53 0.64 0.94 0.73 1.22 1.75 1.54 1.32 1.29 0.80 0.24 0.24 0.19 0.11 0.01 0.00 0.00 0.00 0.00 0.00 0.00 0.01 0.01 0.00 0.00 0.00 0.00 0.00 0.00 0.00 0.00
0.48 0.58 0.71 1.19 1.25 0.88 0.82 0.90 1.00 0.94 1.51 1.36 1.19 0.64 0.53 0.72 0.86 0.84 0.97 1.03 0.75 1.14 1.16 0.74 0.31 0.31 0.24 0.14 0.03 0.00 0.00 0.00 0.01 0.02 0.03 0.00 0.03 0.00 0.00 0.00 0.00 0.00 0.00 0.00 0.00
0.58 0.71 0.94 1.08 0.99 0.81 0.67 1.26 1.46 1.11 1.59 1.31 0.94 0.78 0.82 0.54 0.47 0.53 0.77 0.68 0.76 0.83 0.67 0.40 0.19 0.41 0.29 0.19 0.06 0.01 0.02 0.01 0.02 0.05 0.09 0.00 0.01 0.00 0.00 0.00 0.00 0.00 0.00 0.00 0.00
0.82 1.21 1.27 0.99 0.77 0.55 1.03 1.40 1.47 0.96 0.71 0.49 0.36 0.27 0.25 0.20 0.32 0.35 0.52 0.60 0.93 1.16 1.20 0.82 0.34 0.32 0.23 0.25 0.09 0.02 0.08 0.20 0.20 0.19 0.05 0.00 0.00 0.00 0.00 0.00 0.00 0.00 0.00 0.00 0.00
0.95 1.01 0.94 0.77 0.62 1.11 1.10 0.86 1.14 0.75 0.36 0.19 0.08 0.09 0.14 0.14 0.20 0.21 0.39 0.33 0.31 0.33 0.56 0.80 0.74 0.37 0.35 0.15 0.10 0.02 0.04 0.12 0.09 0.03 0.01 0.00 0.00 0.00 0.00 0.00 0.00 0.00 0.00 0.00 0.00
0.75 0.99 1.14 0.99 0.82 1.30 0.99 0.71 0.95 0.57 0.17 0.08 0.08 0.07 0.12 0.08 0.11 0.27 0.33 0.18 0.12 0.16 0.27 0.29 0.32 0.19 0.23 0.10 0.10 0.19 0.20 0.05 0.16 0.12 0.22 0.02 0.00 0.00 0.00 0.00 0.00 0.00 0.00 0.00 0.00
0.71 1.33 1.06 0.93 0.93 1.11 0.87 0.62 0.48 0.06 0.00 0.00 0.06 0.05 0.06 0.05 0.14 0.12 0.19 0.08 0.04 0.07 0.02 0.01 0.18 0.13 0.12 0.19 0.15 0.07 0.07 0.19 0.44 0.23 0.12 0.01 0.00 0.00 0.00 0.00 0.00 0.00 0.00 0.00 0.00
0.74 1.23 1.09 0.78 1.06 1.06 0.80 0.78 0.32 0.01 0.00 0.00 0.00 0.01 0.05 0.06 0.02 0.01 0.02 0.01 0.03 0.06 0.01 0.01 0.06 0.11 0.15 0.26 0.14 0.04 0.17 0.14 0.16 0.12 0.08 0.04 0.00 0.00 0.00 0.00 0.00 0.00 0.00 0.00 0.01
1.01 0.99 1.02 0.91 1.19 0.87 0.55 0.44 0.14 0.02 0.01 0.00 0.00 0.00 0.00 0.00 0.01 0.00 0.00 0.00 0.01 0.01 0.01 0.00 0.08 0.10 0.06 0.01 0.01 0.04 0.01 0.06 0.21 0.07 0.12 0.10 0.04 0.01 0.03 0.01 0.00 0.01 0.01 0.01 0.01
0.89 0.94 1.09 0.57 0.45 0.32 0.26 0.04 0.01 0.03 0.02 0.00 0.00 0.00 0.00 0.00 0.00 0.00 0.00 0.00 0.00 0.00 0.00 0.01 0.13 0.16 0.15 0.16 0.11 0.16 0.05 0.09 0.18 0.37 0.25 0.14 0.03 0.01 0.02 0.01 0.00 0.00 0.00 0.01 0.01
0.82 1.21 1.62 0.89 0.18 0.06 0.13 0.06 0.02 0.03 0.01 0.01 0.02 0.02 0.01 0.00 0.00 0.00 0.00 0.00 0.00 0.00 0.02 0.11 0.17 0.11 0.11 0.30 0.41 0.32 0.07 0.09 0.37 0.59 0.11 0.05 0.02 0.01 0.03 0.03 0.04 0.03 0.01 0.01 0.01
0.52 0.32 0.43 0.54 0.15 0.03 0.04 0.04 0.01 0.01 0.01 0.03 0.04 0.04 0.02 0.01 0.00 0.00 0.00 0.00 0.00 0.02 0.13 0.33 0.25 0.11 0.12 0.22 0.58 0.38 0.14 0.10 0.38 0.19 0.25 0.09 0.04 0.04 0.04 0.05 0.05 0.04 0.03 0.03 0.03
0.61 0.18 0.01 0.01 0.02 0.01 0.01 0.01 0.02 0.02 0.03 0.04 0.01 0.01 0.03 0.03 0.01 0.00 0.00 0.00 0.01 0.03 0.13 0.31 0.38 0.33 0.34 0.25 0.35 0.27 0.07 0.11 0.12 0.04 0.04 0.02 0.04 0.05 0.05 0.03 0.08 0.06 0.02 0.01 0.00
0.70 0.22 0.03 0.02 0.01 0.00 0.00 0.00 0.01 0.02 0.03 0.00 0.01 0.02 0.03 0.01 0.01 0.01 0.01 0.01 0.01 0.06 0.26 0.41 0.47 0.64 0.48 0.18 0.19 0.26 0.08 0.06 0.09 0.07 0.03 0.04 0.05 0.07 0.25 0.45 0.39 0.10 0.04 0.02 0.02

GFSSW_prec_precacc_063.txt.gz
Total_Precipitation_Accumulation
0.15 0.19 0.23 0.24 0.25 0.26 0.27 0.31 0.37 0.42 0.45 0.39 0.48 0.55 0.47 0.42 0.47 0.41 0.14 0.04 0.07 0.17 0.31 0.11 0.04 0.03 0.11 0.29 0.34 0.29 0.51 0.29 0.05 0.04 0.03 0.00 0.00 0.00 0.00 0.00 0.00 0.00 0.00 0.01 0.03
0.16 0.21 0.25 0.26 0.25 0.24 0.31 0.37 0.38 0.36 0.34 0.26 0.30 0.53 0.68 0.70 0.34 0.15 0.05 0.05 0.13 0.38 0.21 0.11 0.03 0.06 0.10 0.27 0.51 0.57 0.61 0.21 0.03 0.00 0.01 0.01 0.00 0.00 0.00 0.00 0.01 0.04 0.05 0.04 0.08
0.22 0.25 0.27 0.29 0.32 0.36 0.43 0.39 0.38 0.33 0.21 0.22 0.29 0.46 0.76 0.82 0.50 0.08 0.10 0.10 0.29 0.57 0.35 0.15 0.15 0.16 0.07 0.20 0.41 0.39 0.29 0.03 0.02 0.06 0.18 0.11 0.00 0.00 0.00 0.00 0.00 0.03 0.08 0.09 0.16
0.28 0.33 0.31 0.29 0.34 0.36 0.37 0.34 0.28 0.20 0.18 0.16 0.25 0.30 0.55 0.95 0.48 0.17 0.08 0.12 0.41 0.89 0.67 0.24 0.17 0.18 0.04 0.08 0.19 0.21 0.06 0.03 0.07 0.12 0.27 0.13 0.02 0.00 0.00 0.00 0.00 0.01 0.07 0.13 0.14
0.41 0.42 0.36 0.28 0.34 0.30 0.24 0.19 0.20 0.28 0.22 0.21 0.26 0.42 0.47 0.65 0.29 0.26 0.20 0.17 0.54 1.20 0.65 0.32 0.16 0.12 0.02 0.01 0.12 0.20 0.10 0.06 0.12 0.09 0.07 0.12 0.19 0.04 0.00 0.00 0.00 0.00 0.03 0.04 0.08
0.42 0.39 0.34 0.30 0.32 0.30 0.22 0.29 0.21 0.22 0.17 0.19 0.28 0.64 0.43 0.29 0.10 0.19 0.29 0.30 0.46 0.93 0.60 0.48 0.17 0.10 0.02 0.01 0.07 0.06 0.25 0.19 0.13 0.10 0.05 0.10 0.13 0.16 0.02 0.00 0.00 0.01 0.04 0.02 0.05
0.42 0.43 0.33 0.27 0.38 0.36 0.25 0.22 0.31 0.31 0.20 0.25 0.49 0.49 0.45 0.16 0.09 0.21 0.30 0.44 0.65 0.86 0.57 0.55 0.24 0.17 0.05 0.06 0.03 0.05 0.28 0.37 0.26 0.14 0.09 0.08 0.19 0.21 0.02 0.00 0.00 0.01 0.03 0.03 0.00
0.40 0.45 0.40 0.41 0.38 0.29 0.17 0.14 0.22 0.25 0.29 0.33 0.51 0.56 0.25 0.08 0.06 0.16 0.24 0.54 0.75 0.92 0.81 0.96 0.59 0.36 0.08 0.05 0.06 0.11 0.18 0.43 0.17 0.16 0.10 0.14 0.08 0.00 0.06 0.09 0.00 0.00 0.00 0.00 0.00
0.41 0.41 0.43 0.38 0.29 0.28 0.26 0.26 0.26 0.21 0.36 0.55 0.55 0.47 0.15 0.12 0.12 0.16 0.15 0.47 0.92 1.19 1.28 1.55 1.42 0.47 0.12 0.09 0.11 0.07 0.03 0.11 0.10 0.07 0.05 0.01 0.00 0.01 0.05 0.09 0.00 0.00 0.00 0.00 0.00
0.35 0.38 0.36 0.35 0.30 0.30 0.43 0.52 0.52 0.45 0.49 0.69 0.73 0.55 0.20 0.04 0.13 0.18 0.21 0.61 1.20 1.71 2.11 2.26 2.45 0.66 0.15 0.08 0.05 0.01 0.00 0.01 0.03 0.02 0.05 0.04 0.01 0.00 0.00 0.00 0.00 0.00 0.00 0.00 0.00
0.33 0.36 0.36 0.35 0.37 0.53 0.73 0.98 0.93 0.85 0.79 0.64 0.47 0.27 0.23 0.15 0.25 0.29 0.42 1.06 1.81 2.38 2.07 1.96 1.89 0.56 0.08 0.01 0.00 0.00 0.00 0.00 0.00 0.02 0.03 0.05 0.02 0.01 0.00 0.00 0.00 0.00 0.00 0.00 0.00
0.33 0.40 0.41 0.33 0.48 0.74 0.79 0.90 0.59 0.50 0.63 0.40 0.28 0.27 0.13 0.20 0.39 0.47 0.94 2.31 1.94 2.27 1.68 1.39 0.86 0.27 0.10 0.03 0.00 0.00 0.00 0.01 0.00 0.02 0.03 0.02 0.01 0.00 0.00 0.00 0.00 0.00 0.00 0.00 0.00
0.36 0.44 0.46 0.43 0.58 0.84 0.56 0.55 0.56 0.44 0.77 0.67 0.60 0.45 0.26 0.46 0.59 0.71 1.55 2.36 1.64 1.56 1.35 0.72 0.38 0.27 0.14 0.07 0.02 0.00 0.00 0.00 0.00 0.01 0.02 0.00 0.00 0.00 0.00 0.00 0.00 0.00 0.00 0.00 0.00
0.48 0.46 0.62 0.81 1.11 0.71 0.68 0.40 0.72 0.66 0.98 1.09 1.19 0.67 0.55 0.69 0.98 0.82 1.26 1.80 1.73 1.36 1.30 0.81 0.27 0.29 0.20 0.12 0.01 0.00 0.00 0.00 0.00 0.00 0.00 0.01 0.01 0.00 0.00 0.00 0.00 0.00 0.00 0.00 0.00
0.48 0.58 0.71 1.20 1.25 0.88 0.82 0.90 1.00 0.94 1.53 1.37 1.20 0.65 0.55 0.74 0.93 0.92 0.99 1.05 0.77 1.14 1.16 0.75 0.33 0.41 0.26 0.15 0.03 0.00 0.00 0.00 0.01 0.02 0.03 0.00 0.03 0.00 0.00 0.00 0.00 0.00 0.00 0.00 0.00
0.58 0.72 0.95 1.08 0.99 0.81 0.67 1.26 1.46 1.11 1.60 1.32 0.94 0.79 0.83 0.55 0.49 0.55 0.79 0.69 0.76 0.86 0.80 0.45 0.25 0.53 0.32 0.19 0.06 0.01 0.02 0.01 0.02 0.05 0.09 0.00 0.01 0.00 0.00 0.00 0.00 0.00 0.00 0.00 0.00
0.82 1.21 1.27 0.99 0.77 0.55 1.03 1.40 1.47 0.97 0.71 0.49 0.40 0.31 0.27 0.21 0.33 0.38 0.54 0.60 0.93 1.23 1.40 0.97 0.47 0.43 0.25 0.25 0.09 0.02 0.08 0.20 0.21 0.19 0.05 0.00 0.00 0.00 0.00 0.00 0.00 0.00 0.00 0.00 0.00
0.95 1.01 0.94 0.77 0.62 1.11 1.10 0.87 1.14 0.75 0.36 0.19 0.09 0.18 0.16 0.17 0.22 0.21 0.40 0.34 0.31 0.34 0.66 0.92 0.82 0.38 0.35 0.15 0.10 0.02 0.04 0.12 0.09 0.03 0.01 0.00 0.00 0.00 0.00 0.00 0.00 0.00 0.00 0.00 0.00
0.75 0.99 1.14 0.99 0.82 1.30 0.99 0.71 0.96 0.57 0.18 0.08 0.09 0.13 0.35 0.17 0.12 0.29 0.34 0.19 0.12 0.17 0.30 0.33 0.34 0.19 0.24 0.10 0.10 0.20 0.20 0.05 0.16 0.12 0.22 0.02 0.00 0.00 0.00 0.00 0.00 0.00 0.00 0.00 0.00
0.71 1.33 1.06 0.93 0.93 1.12 0.88 0.62 0.48 0.06 0.00 0.01 0.07 0.05 0.11 0.14 0.17 0.15 0.21 0.08 0.04 0.07 0.03 0.02 0.21 0.14 0.12 0.19 0.15 0.07 0.08 0.19 0.44 0.23 0.12 0.01 0.00 0.00 0.00 0.00 0.00 0.00 0.00 0.00 0.00
0.74 1.23 1.09 0.78 1.06 1.07 0.81 0.78 0.32 0.01 0.00 0.00 0.00 0.02 0.07 0.16 0.05 0.02 0.03 0.02 0.03 0.06 0.01 0.01 0.07 0.13 0.17 0.28 0.15 0.04 0.17 0.14 0.17 0.12 0.08 0.04 0.00 0.00 0.00 0.00 0.00 0.00 0.00 0.00 0.01
1.01 0.99 1.02 0.91 1.20 0.87 0.56 0.44 0.14 0.02 0.01 0.00 0.00 0.00 0.01 0.01 0.01 0.00 0.00 0.01 0.01 0.01 0.01 0.00 0.09 0.12 0.08 0.01 0.01 0.05 0.02 0.06 0.21 0.07 0.12 0.10 0.04 0.01 0.03 0.01 0.00 0.01 0.01 0.01 0.01
0.89 0.94 1.09 0.57 0.45 0.32 0.26 0.04 0.01 0.03 0.02 0.00 0.00 0.00 0.00 0.00 0.00 0.00 0.00 0.00 0.00 0.00 0.01 0.01 0.14 0.17 0.17 0.17 0.11 0.16 0.05 0.09 0.18 0.37 0.26 0.14 0.03 0.01 0.02 0.01 0.00 0.00 0.00 0.01 0.01
0.82 1.21 1.62 0.90 0.18 0.06 0.13 0.06 0.02 0.03 0.01 0.01 0.02 0.02 0.01 0.00 0.00 0.00 0.00 0.00 0.00 0.00 0.02 0.11 0.17 0.11 0.12 0.30 0.41 0.32 0.07 0.09 0.37 0.60 0.11 0.05 0.02 0.01 0.03 0.03 0.04 0.03 0.01 0.01 0.01
0.52 0.32 0.43 0.54 0.15 0.03 0.04 0.05 0.02 0.01 0.01 0.03 0.04 0.04 0.02 0.01 0.00 0.00 0.00 0.00 0.00 0.02 0.13 0.33 0.25 0.11 0.12 0.22 0.58 0.38 0.14 0.10 0.38 0.19 0.25 0.09 0.04 0.04 0.04 0.05 0.05 0.04 0.03 0.03 0.03
0.61 0.18 0.01 0.01 0.02 0.01 0.01 0.02 0.02 0.02 0.03 0.04 0.01 0.01 0.03 0.03 0.01 0.00 0.00 0.00 0.01 0.03 0.13 0.31 0.38 0.33 0.34 0.25 0.35 0.27 0.07 0.11 0.12 0.04 0.04 0.02 0.04 0.05 0.05 0.03 0.08 0.06 0.02 0.01 0.00
0.70 0.22 0.03 0.02 0.01 0.00 0.00 0.00 0.01 0.02 0.03 0.00 0.01 0.02 0.03 0.01 0.01 0.01 0.01 0.01 0.01 0.06 0.26 0.41 0.47 0.64 0.48 0.18 0.19 0.26 0.08 0.06 0.09 0.07 0.03 0.04 0.05 0.07 0.25 0.45 0.39 0.10 0.04 0.02 0.02

GFSSW_prec_precacc_066.txt.gz
Total_Precipitation_Accumulation
0.15 0.19 0.24 0.25 0.25 0.27 0.27 0.31 0.37 0.42 0.45 0.39 0.48 0.55 0.47 0.42 0.47 0.41 0.14 0.04 0.08 0.21 0.38 0.12 0.05 0.06 0.13 0.31 0.45 0.38 0.63 0.31 0.05 0.04 0.03 0.00 0.00 0.00 0.00 0.00 0.00 0.00 0.03 0.03 0.06
0.17 0.22 0.25 0.27 0.26 0.25 0.31 0.38 0.38 0.36 0.34 0.26 0.30 0.53 0.68 0.70 0.34 0.15 0.05 0.05 0.15 0.40 0.28 0.16 0.06 0.09 0.14 0.29 0.62 0.79 0.70 0.25 0.03 0.01 0.02 0.01 0.00 0.00 0.00 0.00 0.01 0.04 0.05 0.04 0.10
0.23 0.26 0.28 0.30 0.32 0.38 0.45 0.39 0.38 0.33 0.21 0.22 0.29 0.46 0.76 0.82 0.50 0.09 0.12 0.16 0.41 0.62 0.39 0.17 0.19 0.22 0.12 0.24 0.49 0.53 0.34 0.04 0.03 0.09 0.19 0.11 0.00 0.00 0.00 0.00 0.00 0.03 0.08 0.09 0.18
0.29 0.34 0.32 0.30 0.34 0.37 0.39 0.35 0.28 0.21 0.18 0.16 0.25 0.30 0.55 0.95 0.48 0.19 0.08 0.17 0.47 1.00 0.74 0.28 0.21 0.24 0.09 0.11 0.25 0.28 0.06 0.04 0.10 0.14 0.27 0.13 0.02 0.00 0.00 0.01 0.00 0.01 0.07 0.13 0.15
0.41 0.43 0.37 0.29 0.34 0.31 0.24 0.20 0.21 0.28 0.22 0.21 0.26 0.42 0.47 0.65 0.29 0.26 0.20 0.17 0.55 1.27 0.73 0.41 0.21 0.20 0.04 0.02 0.17 0.25 0.13 0.07 0.17 0.15 0.10 0.13 0.20 0.04 0.00 0.00 0.00 0.00 0.03 0.04 0.08
0.42 0.40 0.35 0.30 0.33 0.30 0.23 0.29 0.23 0.24 0.18 0.19 0.28 0.64 0.43 0.29 0.10 0.19 0.29 0.30 0.46 0.99 0.68 0.60 0.21 0.19 0.05 0.02 0.10 0.08 0.31 0.25 0.23 0.18 0.11 0.10 0.13 0.16 0.02 0.00 0.00 0.01 0.04 0.02 0.05
0.43 0.44 0.34 0.28 0.39 0.36 0.25 0.22 0.32 0.33 0.21 0.26 0.49 0.49 0.45 0.16 0.09 0.21 0.30 0.44 0.65 0.87 0.62 0.65 0.28 0.42 0.19 0.06 0.03 0.09 0.37 0.51 0.38 0.31 0.13 0.08 0.19 0.21 0.02 0.00 0.00 0.01 0.03 0.03 0.00
0.40 0.46 0.40 0.42 0.39 0.29 0.17 0.14 0.23 0.28 0.31 0.33 0.51 0.56 0.25 0.08 0.06 0.16 0.24 0.54 0.75 0.92 0.83 1.09 0.71 0.55 0.22 0.06 0.06 0.16 0.29 0.63 0.37 0.37 0.29 0.16 0.08 0.00 0.06 0.09 0.00 0.00 0.00 0.00 0.00
0.41 0.42 0.43 0.39 0.30 0.28 0.27 0.26 0.26 0.22 0.37 0.55 0.55 0.47 0.15 0.12 0.12 0.16 0.15 0.47 0.92 1.20 1.30 1.75 1.54 0.60 0.19 0.12 0.14 0.13 0.14 0.24 0.37 0.35 0.30 0.07 0.01 0.01 0.05 0.09 0.00 0.00 0.00 0.00 0.00
0.35 0.38 0.36 0.35 0.31 0.30 0.44 0.53 0.52 0.45 0.49 0.69 0.73 0.55 0.20 0.04 0.13 0.18 0.21 0.62 1.22 1.74 2.18 2.50 2.53 0.87 0.26 0.11 0.06 0.02 0.02 0.07 0.19 0.23 0.29 0.11 0.02 0.00 0.00 0.00 0.00 0.00 0.00 0.00 0.00
0.33 0.36 0.37 0.36 0.38 0.54 0.73 0.98 0.93 0.85 0.79 0.64 0.47 0.27 0.23 0.15 0.26 0.33 0.45 1.10 1.88 2.46 2.17 2.09 2.00 0.82 0.18 0.01 0.00 0.00 0.00 0.03 0.04 0.06 0.14 0.08 0.03 0.01 0.00 0.00 0.00 0.00 0.00 0.00 0.00
0.33 0.41 0.42 0.34 0.49 0.74 0.80 0.90 0.59 0.50 0.63 0.40 0.28 0.27 0.13 0.24 0.42 0.48 0.95 2.35 2.01 2.40 1.78 1.46 1.04 0.43 0.16 0.03 0.00 0.00 0.00 0.01 0.04 0.06 0.09 0.02 0.01 0.00 0.00 0.00 0.00 0.00 0.00 0.00 0.00
0.36 0.44 0.46 0.43 0.58 0.84 0.56 0.55 0.56 0.44 0.77 0.67 0.60 0.45 0.27 0.51 0.66 0.72 1.56 2.38 1.68 1.70 1.41 0.77 0.56 0.42 0.22 0.11 0.02 0.00 0.00 0.00 0.04 0.06 0.08 0.02 0.00 0.00 0.00 0.00 0.00 0.00 0.00 0.00 0.00
0.48 0.46 0.62 0.82 1.11 0.71 0.68 0.40 0.72 0.66 0.99 1.10 1.19 0.67 0.57 0.78 1.07 0.85 1.29 1.84 1.85 1.58 1.36 0.84 0.45 0.35 0.23 0.14 0.01 0.00 0.00 0.00 0.01 0.01 0.01 0.01 0.01 0.00 0.00 0.00 0.00 0.00 0.00 0.00 0.00
0.48 0.59 0.72 1.20 1.25 0.88 0.82 0.90 1.00 0.95 1.54 1.37 1.21 0.65 0.56 0.76 0.96 0.93 0.99 1.18 0.96 1.26 1.17 0.78 0.42 0.43 0.27 0.15 0.03 0.01 0.00 0.00 0.01 0.02 0.03 0.00 0.03 0.00 0.00 0.00 0.00 0.00 0.00 0.00 0.00
0.58 0.72 0.95 1.08 0.99 0.81 0.67 1.26 1.46 1.12 1.60 1.32 0.94 0.79 0.83 0.55 0.50 0.56 0.81 0.77 0.78 0.86 0.80 0.46 0.28 0.57 0.34 0.20 0.06 0.01 0.02 0.01 0.02 0.05 0.09 0.00 0.01 0.00 0.00 0.00 0.00 0.00 0.00 0.00 0.00
0.82 1.21 1.27 0.99 0.78 0.55 1.03 1.40 1.48 0.97 0.72 0.49 0.40 0.31 0.27 0.21 0.34 0.39 0.55 0.61 0.94 1.23 1.40 0.99 0.54 0.47 0.26 0.26 0.10 0.02 0.08 0.21 0.21 0.19 0.05 0.00 0.00 0.00 0.00 0.00 0.00 0.00 0.00 0.00 0.00
0.95 1.01 0.94 0.77 0.62 1.11 1.10 0.87 1.14 0.75 0.36 0.20 0.10 0.22 0.17 0.18 0.22 0.21 0.40 0.34 0.32 0.34 0.73 0.98 0.98 0.50 0.36 0.16 0.10 0.03 0.04 0.12 0.09 0.03 0.01 0.00 0.00 0.00 0.00 0.00 0.00 0.00 0.00 0.00 0.00
0.75 0.99 1.14 0.99 0.82 1.31 1.00 0.72 0.96 0.58 0.18 0.08 0.12 0.30 0.41 0.17 0.12 0.29 0.34 0.19 0.12 0.18 0.36 0.35 0.43 0.26 0.24 0.11 0.11 0.21 0.21 0.06 0.16 0.12 0.22 0.02 0.00 0.00 0.00 0.00 0.00 0.00 0.00 0.00 0.00
0.71 1.33 1.06 0.93 0.93 1.12 0.89 0.62 0.49 0.06 0.00 0.01 0.07 0.07 0.16 0.16 0.18 0.15 0.21 0.09 0.04 0.07 0.04 0.02 0.21 0.15 0.13 0.19 0.15 0.08 0.08 0.19 0.44 0.23 0.12 0.01 0.00 0.00 0.00 0.00 0.00 0.00 0.00 0.00 0.00
0.74 1.24 1.10 0.78 1.06 1.08 0.82 0.78 0.33 0.01 0.00 0.00 0.00 0.02 0.11 0.20 0.06 0.03 0.03 0.02 0.03 0.06 0.01 0.01 0.08 0.14 0.18 0.29 0.15 0.04 0.17 0.14 0.17 0.12 0.09 0.04 0.00 0.00 0.00 0.00 0.00 0.00 0.00 0.00 0.01
1.01 1.00 1.02 0.91 1.20 0.88 0.56 0.44 0.14 0.02 0.01 0.00 0.00 0.00 0.01 0.01 0.01 0.00 0.01 0.01 0.02 0.01 0.01 0.00 0.09 0.13 0.09 0.01 0.02 0.06 0.02 0.06 0.21 0.07 0.12 0.10 0.04 0.01 0.03 0.01 0.00 0.01 0.01 0.01 0.01
0.89 0.95 1.09 0.57 0.45 0.33 0.26 0.04 0.01 0.03 0.02 0.00 0.00 0.00 0.00 0.00 0.00 0.00 0.00 0.00 0.00 0.00 0.01 0.01 0.15 0.19 0.20 0.18 0.11 0.17 0.05 0.09 0.18 0.37 0.26 0.14 0.03 0.01 0.02 0.01 0.00 0.00 0.00 0.01 0.01
0.82 1.21 1.62 0.90 0.18 0.06 0.13 0.06 0.03 0.03 0.01 0.01 0.02 0.02 0.01 0.00 0.00 0.00 0.00 0.00 0.00 0.00 0.02 0.11 0.17 0.12 0.13 0.31 0.41 0.32 0.07 0.09 0.38 0.60 0.11 0.05 0.02 0.01 0.03 0.03 0.04 0.03 0.01 0.01 0.01
0.52 0.32 0.43 0.54 0.15 0.03 0.04 0.05 0.02 0.01 0.01 0.03 0.04 0.04 0.02 0.01 0.01 0.00 0.00 0.00 0.00 0.02 0.13 0.33 0.25 0.11 0.12 0.22 0.58 0.38 0.14 0.10 0.38 0.19 0.26 0.09 0.04 0.04 0.04 0.05 0.05 0.04 0.03 0.03 0.03
0.61 0.18 0.01 0.01 0.02 0.01 0.01 0.02 0.03 0.02 0.03 0.04 0.01 0.01 0.03 0.03 0.01 0.00 0.00 0.00 0.01 0.03 0.13 0.31 0.38 0.33 0.34 0.25 0.35 0.27 0.07 0.11 0.12 0.04 0.05 0.02 0.04 0.05 0.05 0.03 0.08 0.06 0.02 0.01 0.00
0.70 0.22 0.03 0.02 0.01 0.00 0.00 0.01 0.01 0.02 0.03 0.00 0.01 0.02 0.03 0.01 0.01 0.01 0.01 0.01 0.01 0.07 0.26 0.41 0.47 0.64 0.48 0.18 0.19 0.26 0.08 0.06 0.09 0.07 0.03 0.04 0.05 0.07 0.25 0.45 0.39 0.10 0.04 0.02 0.02

GFSSW_prec_precacc_069.txt.gz
Total_Precipitation_Accumulation
0.15 0.19 0.24 0.25 0.26 0.28 0.28 0.31 0.37 0.42 0.45 0.39 0.48 0.55 0.47 0.42 0.47 0.41 0.14 0.04 0.08 0.21 0.40 0.13 0.06 0.07 0.14 0.31 0.49 0.48 0.73 0.31 0.05 0.04 0.04 0.00 0.00 0.00 0.00 0.00 0.00 0.00 0.05 0.03 0.07
0.17 0.22 0.26 0.27 0.26 0.25 0.31 0.39 0.38 0.37 0.34 0.26 0.30 0.53 0.68 0.70 0.34 0.15 0.05 0.05 0.18 0.44 0.33 0.19 0.09 0.11 0.16 0.29 0.68 0.90 0.76 0.26 0.03 0.05 0.07 0.02 0.00 0.00 0.00 0.00 0.01 0.04 0.05 0.04 0.10
0.23 0.26 0.29 0.31 0.33 0.38 0.45 0.41 0.39 0.34 0.21 0.22 0.29 0.46 0.76 0.82 0.50 0.09 0.12 0.16 0.46 0.74 0.46 0.21 0.25 0.27 0.14 0.26 0.55 0.61 0.36 0.04 0.03 0.15 0.21 0.11 0.00 0.00 0.00 0.00 0.00 0.03 0.08 0.09 0.18
0.29 0.35 0.33 0.31 0.35 0.37 0.39 0.36 0.29 0.22 0.18 0.16 0.25 0.30 0.55 0.95 0.48 0.19 0.08 0.17 0.47 1.02 0.81 0.33 0.26 0.29 0.13 0.13 0.27 0.35 0.08 0.05 0.12 0.16 0.29 0.13 0.02 0.01 0.02 0.01 0.00 0.01 0.07 0.14 0.16
0.42 0.44 0.38 0.30 0.35 0.31 0.24 0.20 0.22 0.30 0.24 0.21 0.26 0.42 0.47 0.65 0.29 0.26 0.20 0.17 0.55 1.29 0.83 0.47 0.27 0.28 0.08 0.02 0.18 0.28 0.15 0.11 0.20 0.19 0.12 0.14 0.21 0.04 0.00 0.00 0.00 0.00 0.03 0.05 0.09
0.43 0.41 0.36 0.31 0.33 0.30 0.23 0.30 0.23 0.25 0.21 0.20 0.29 0.64 0.43 0.29 0.10 0.19 0.29 0.30 0.46 1.02 0.86 0.75 0.26 0.26 0.08 0.04 0.12 0.09 0.34 0.32 0.33 0.24 0.30 0.18 0.16 0.16 0.02 0.00 0.00 0.01 0.04 0.02 0.05
0.43 0.45 0.35 0.29 0.40 0.36 0.25 0.22 0.32 0.33 0.23 0.28 0.50 0.49 0.45 0.16 0.09 0.21 0.30 0.44 0.65 0.88 0.70 0.74 0.32 0.52 0.25 0.07 0.03 0.12 0.45 0.62 0.50 0.41 0.26 0.33 0.25 0.21 0.02 0.00 0.00 0.01 0.03 0.03 0.00
0.41 0.46 0.41 0.42 0.39 0.30 0.17 0.14 0.23 0.28 0.32 0.35 0.51 0.56 0.25 0.08 0.06 0.16 0.24 0.54 0.75 0.93 0.86 1.12 0.76 0.63 0.35 0.07 0.07 0.19 0.39 0.73 0.45 0.51 0.46 0.35 0.22 0.02 0.07 0.09 0.00 0.00 0.00 0.00 0.00
0.42 0.42 0.44 0.39 0.30 0.29 0.27 0.26 0.26 0.22 0.37 0.55 0.55 0.48 0.15 0.12 0.12 0.16 0.15 0.47 0.92 1.23 1.34 1.80 1.66 0.71 0.37 0.15 0.17 0.18 0.20 0.31 0.43 0.40 0.47 0.31 0.11 0.02 0.05 0.09 0.00 0.00 0.00 0.00 0.00
0.35 0.38 0.36 0.36 0.31 0.31 0.44 0.53 0.52 0.45 0.49 0.69 0.73 0.56 0.20 0.04 0.13 0.18 0.21 0.63 1.25 1.79 2.22 2.57 2.63 0.92 0.50 0.18 0.14 0.03 0.05 0.12 0.22 0.25 0.34 0.36 0.15 0.01 0.00 0.00 0.00 0.00 0.00 0.00 0.00
0.34 0.36 0.37 0.36 0.38 0.54 0.73 0.98 0.93 0.85 0.79 0.64 0.47 0.27 0.23 0.16 0.26 0.34 0.46 1.14 1.93 2.49 2.18 2.17 2.04 0.84 0.30 0.04 0.00 0.00 0.00 0.05 0.05 0.07 0.26 0.28 0.13 0.02 0.00 0.00 0.00 0.00 0.00 0.00 0.00
0.33 0.41 0.42 0.34 0.49 0.75 0.80 0.90 0.59 0.50 0.63 0.40 0.28 0.27 0.13 0.26 0.43 0.49 1.01 2.38 2.03 2.41 1.80 1.53 1.05 0.44 0.20 0.04 0.01 0.01 0.01 0.02 0.07 0.08 0.14 0.23 0.18 0.02 0.00 0.00 0.00 0.00 0.00 0.00 0.00
0.36 0.44 0.46 0.43 0.58 0.84 0.56 0.55 0.56 0.44 0.77 0.67 0.60 0.45 0.27 0.52 0.67 0.75 1.58 2.41 1.70 1.72 1.49 0.85 0.57 0.44 0.29 0.13 0.03 0.01 0.00 0.01 0.06 0.10 0.16 0.11 0.14 0.04 0.00 0.00 0.00 0.00 0.00 0.00 0.00
0.48 0.46 0.62 0.82 1.11 0.71 0.68 0.40 0.72 0.66 0.99 1.10 1.19 0.67 0.57 0.81 1.10 0.85 1.30 1.86 1.85 1.62 1.56 0.91 0.48 0.46 0.28 0.15 0.02 0.00 0.00 0.00 0.02 0.11 0.08 0.10 0.08 0.00 0.00 0.00 0.00 0.00 0.00 0.00 0.00
0.48 0.59 0.72 1.21 1.25 0.88 0.82 0.90 1.00 0.95 1.55 1.37 1.21 0.65 0.56 0.77 0.96 0.94 1.02 1.41 1.16 1.31 1.24 0.80 0.56 0.59 0.31 0.16 0.03 0.02 0.01 0.01 0.02 0.08 0.04 0.00 0.03 0.00 0.00 0.00 0.00 0.00 0.00 0.00 0.00
0.58 0.72 0.95 1.08 0.99 0.81 0.67 1.26 1.46 1.12 1.60 1.32 0.94 0.79 0.83 0.57 0.50 0.56 0.88 0.92 0.93 0.88 0.81 0.54 0.47 0.67 0.39 0.22 0.06 0.02 0.03 0.04 0.04 0.06 0.09 0.00 0.01 0.00 0.00 0.00 0.00 0.00 0.00 0.00 0.00
0.82 1.21 1.27 0.99 0.78 0.55 1.03 1.40 1.48 0.97 0.72 0.50 0.40 0.31 0.27 0.23 0.35 0.40 0.58 0.63 0.94 1.24 1.42 1.07 0.57 0.47 0.26 0.27 0.10 0.03 0.08 0.21 0.21 0.19 0.05 0.00 0.00 0.00 0.00 0.00 0.00 0.00 0.00 0.00 0.00
0.95 1.01 0.94 0.77 0.62 1.11 1.10 0.87 1.14 0.75 0.37 0.20 0.10 0.22 0.17 0.18 0.23 0.22 0.40 0.34 0.32 0.34 0.74 1.02 1.01 0.51 0.37 0.16 0.10 0.04 0.04 0.12 0.09 0.03 0.01 0.00 0.00 0.00 0.00 0.00 0.00 0.00 0.00 0.00 0.00
0.75 0.99 1.14 0.99 0.82 1.31 1.00 0.72 0.96 0.58 0.18 0.10 0.18 0.31 0.41 0.17 0.13 0.29 0.34 0.19 0.12 0.18 0.38 0.38 0.46 0.29 0.24 0.11 0.11 0.23 0.21 0.06 0.16 0.12 0.22 0.02 0.00 0.00 0.00 0.00 0.00 0.00 0.00 0.00 0.00
0.71 1.33 1.06 0.93 0.93 1.12 0.89 0.62 0.49 0.06 0.00 0.01 0.08 0.08 0.16 0.16 0.18 0.15 0.21 0.09 0.04 0.07 0.04 0.02 0.29 0.19 0.13 0.19 0.15 0.08 0.08 0.19 0.44 0.23 0.12 0.01 0.00 0.00 0.00 0.00 0.00 0.00 0.00 0.00 0.00
0.74 1.24 1.10 0.78 1.06 1.08 0.82 0.78 0.33 0.02 0.00 0.00 0.01 0.02 0.11 0.20 0.06 0.03 0.03 0.02 0.03 0.06 0.01 0.01 0.09 0.14 0.18 0.29 0.15 0.05 0.17 0.14 0.17 0.12 0.09 0.04 0.00 0.00 0.00 0.00 0.00 0.00 0.00 0.00 0.01
1.01 1.00 1.02 0.91 1.20 0.88 0.56 0.44 0.14 0.02 0.01 0.00 0.00 0.01 0.01 0.02 0.01 0.01 0.01 0.01 0.02 0.01 0.01 0.00 0.09 0.13 0.09 0.01 0.02 0.06 0.02 0.06 0.21 0.07 0.12 0.10 0.04 0.01 0.03 0.01 0.00 0.01 0.01 0.01 0.01
0.89 0.95 1.09 0.57 0.45 0.33 0.26 0.04 0.01 0.03 0.02 0.00 0.00 0.00 0.00 0.01 0.01 0.01 0.00 0.00 0.00 0.00 0.01 0.01 0.15 0.19 0.21 0.18 0.11 0.17 0.05 0.09 0.18 0.37 0.26 0.14 0.03 0.01 0.02 0.01 0.00 0.00 0.00 0.01 0.01
0.82 1.21 1.63 0.90 0.18 0.06 0.13 0.06 0.03 0.03 0.01 0.01 0.02 0.02 0.01 0.00 0.00 0.00 0.00 0.00 0.00 0.00 0.02 0.11 0.17 0.12 0.13 0.31 0.41 0.32 0.07 0.09 0.38 0.60 0.11 0.05 0.02 0.01 0.03 0.03 0.04 0.03 0.01 0.01 0.01
0.52 0.32 0.43 0.54 0.15 0.03 0.04 0.05 0.02 0.01 0.01 0.03 0.04 0.04 0.02 0.02 0.01 0.00 0.00 0.00 0.00 0.02 0.13 0.33 0.25 0.11 0.12 0.22 0.58 0.38 0.14 0.10 0.39 0.19 0.26 0.09 0.04 0.04 0.04 0.05 0.05 0.04 0.03 0.03 0.03
0.61 0.18 0.01 0.01 0.02 0.01 0.01 0.02 0.03 0.02 0.03 0.04 0.01 0.01 0.03 0.03 0.01 0.00 0.00 0.00 0.01 0.03 0.13 0.31 0.38 0.33 0.34 0.25 0.35 0.27 0.07 0.11 0.12 0.04 0.05 0.02 0.04 0.05 0.05 0.03 0.08 0.06 0.02 0.01 0.00
0.70 0.22 0.03 0.02 0.01 0.00 0.00 0.01 0.01 0.02 0.03 0.00 0.01 0.02 0.03 0.01 0.01 0.01 0.01 0.01 0.01 0.07 0.26 0.41 0.47 0.64 0.48 0.18 0.19 0.26 0.08 0.06 0.09 0.07 0.03 0.04 0.05 0.07 0.25 0.45 0.39 0.10 0.04 0.02 0.02

GFSSW_prec_precacc_072.txt.gz
Total_Precipitation_Accumulation
0.15 0.20 0.25 0.26 0.26 0.28 0.28 0.32 0.38 0.42 0.45 0.39 0.48 0.55 0.47 0.42 0.47 0.41 0.14 0.04 0.08 0.21 0.41 0.13 0.06 0.08 0.16 0.32 0.52 0.60 0.81 0.31 0.05 0.04 0.04 0.00 0.00 0.00 0.00 0.00 0.00 0.01 0.05 0.03 0.07
0.17 0.22 0.26 0.29 0.26 0.26 0.31 0.39 0.40 0.37 0.34 0.26 0.30 0.53 0.68 0.70 0.34 0.15 0.05 0.05 0.18 0.44 0.36 0.21 0.10 0.14 0.18 0.31 0.71 0.99 0.84 0.26 0.03 0.06 0.07 0.02 0.00 0.00 0.00 0.00 0.01 0.04 0.05 0.04 0.10
0.23 0.26 0.29 0.32 0.34 0.38 0.46 0.41 0.39 0.34 0.21 0.22 0.29 0.46 0.76 0.82 0.50 0.09 0.12 0.16 0.46 0.75 0.47 0.23 0.29 0.34 0.16 0.29 0.59 0.72 0.43 0.05 0.03 0.17 0.23 0.13 0.01 0.00 0.00 0.00 0.00 0.03 0.08 0.09 0.18
0.29 0.35 0.34 0.32 0.36 0.37 0.39 0.36 0.29 0.22 0.20 0.17 0.25 0.30 0.55 0.95 0.48 0.19 0.08 0.17 0.47 1.03 0.82 0.36 0.31 0.36 0.18 0.15 0.28 0.40 0.11 0.07 0.13 0.17 0.30 0.17 0.04 0.01 0.02 0.01 0.00 0.01 0.07 0.17 0.17
0.42 0.45 0.38 0.31 0.35 0.31 0.25 0.20 0.23 0.30 0.25 0.24 0.27 0.42 0.47 0.65 0.29 0.26 0.20 0.17 0.55 1.29 0.84 0.51 0.32 0.34 0.16 0.04 0.21 0.29 0.19 0.16 0.21 0.20 0.14 0.16 0.24 0.06 0.01 0.00 0.00 0.00 0.03 0.12 0.14
0.43 0.41 0.37 0.31 0.33 0.31 0.23 0.30 0.24 0.26 0.21 0.23 0.30 0.64 0.43 0.29 0.10 0.19 0.29 0.30 0.46 1.02 0.86 0.85 0.37 0.40 0.16 0.09 0.15 0.09 0.35 0.40 0.43 0.27 0.34 0.26 0.19 0.18 0.03 0.00 0.00 0.01 0.04 0.04 0.08
0.43 0.45 0.35 0.29 0.40 0.37 0.26 0.23 0.33 0.33 0.23 0.29 0.52 0.49 0.45 0.16 0.09 0.21 0.30 0.44 0.65 0.88 0.71 0.87 0.42 0.75 0.35 0.11 0.04 0.14 0.48 0.69 0.61 0.47 0.35 0.43 0.35 0.23 0.03 0.00 0.00 0.01 0.03 0.03 0.09
0.41 0.46 0.41 0.43 0.39 0.30 0.18 0.15 0.23 0.28 0.32 0.36 0.53 0.56 0.25 0.08 0.06 0.16 0.24 0.54 0.75 0.93 0.90 1.21 0.82 0.75 0.47 0.08 0.08 0.22 0.42 0.82 0.54 0.64 0.52 0.56 0.36 0.04 0.08 0.09 0.00 0.00 0.00 0.00 0.00
0.42 0.43 0.44 0.39 0.30 0.29 0.27 0.26 0.26 0.22 0.37 0.56 0.56 0.48 0.15 0.12 0.12 0.16 0.15 0.47 0.92 1.25 1.40 1.84 1.72 0.81 0.50 0.16 0.20 0.22 0.22 0.43 0.55 0.57 0.70 0.52 0.27 0.06 0.06 0.10 0.00 0.00 0.00 0.00 0.00
0.37 0.40 0.36 0.36 0.31 0.31 0.44 0.53 0.52 0.45 0.49 0.69 0.73 0.56 0.20 0.04 0.13 0.18 0.21 0.65 1.32 1.83 2.26 2.58 2.73 1.02 0.63 0.20 0.17 0.05 0.06 0.16 0.41 0.33 0.58 0.45 0.36 0.16 0.01 0.00 0.00 0.00 0.00 0.00 0.00
0.36 0.37 0.37 0.36 0.38 0.54 0.73 0.98 0.93 0.85 0.79 0.64 0.47 0.27 0.23 0.16 0.26 0.34 0.47 1.18 1.99 2.51 2.19 2.17 2.10 0.90 0.38 0.06 0.00 0.00 0.00 0.06 0.14 0.11 0.38 0.40 0.22 0.14 0.02 0.00 0.00 0.00 0.00 0.00 0.00
0.35 0.41 0.42 0.34 0.49 0.75 0.80 0.90 0.59 0.50 0.63 0.40 0.28 0.27 0.13 0.26 0.43 0.49 1.03 2.41 2.04 2.41 1.81 1.54 1.06 0.44 0.22 0.08 0.02 0.01 0.02 0.06 0.12 0.14 0.20 0.31 0.23 0.10 0.07 0.00 0.00 0.00 0.00 0.00 0.00
0.38 0.44 0.46 0.43 0.58 0.84 0.56 0.55 0.56 0.44 0.77 0.67 0.60 0.45 0.27 0.54 0.70 0.76 1.61 2.46 1.71 1.73 1.51 0.87 0.58 0.45 0.31 0.19 0.06 0.02 0.01 0.03 0.16 0.12 0.18 0.11 0.16 0.06 0.01 0.00 0.00 0.00 0.00 0.00 0.00
0.49 0.46 0.62 0.82 1.11 0.71 0.68 0.40 0.72 0.66 0.99 1.10 1.19 0.67 0.57 0.82 1.11 0.85 1.31 1.88 1.86 1.64 1.66 1.01 0.51 0.47 0.31 0.23 0.04 0.01 0.01 0.01 0.10 0.18 0.15 0.11 0.11 0.00 0.00 0.00 0.00 0.00 0.00 0.00 0.00
0.50 0.59 0.72 1.21 1.25 0.88 0.82 0.90 1.00 0.95 1.55 1.37 1.21 0.65 0.57 0.78 0.97 0.95 1.05 1.49 1.25 1.47 1.35 0.91 0.59 0.60 0.34 0.20 0.04 0.02 0.01 0.02 0.03 0.21 0.13 0.04 0.04 0.00 0.00 0.00 0.00 0.00 0.00 0.00 0.00
0.59 0.72 0.95 1.08 0.99 0.81 0.67 1.26 1.46 1.12 1.60 1.32 0.94 0.79 0.83 0.58 0.50 0.57 0.99 1.08 1.01 0.94 0.83 0.60 0.54 0.72 0.42 0.23 0.07 0.02 0.05 0.10 0.06 0.09 0.18 0.02 0.01 0.00 0.00 0.00 0.00 0.00 0.00 0.00 0.00
0.82 1.21 1.27 0.99 0.78 0.55 1.03 1.40 1.48 0.97 0.72 0.50 0.40 0.31 0.28 0.23 0.35 0.40 0.58 0.63 0.95 1.26 1.48 1.25 0.73 0.57 0.30 0.27 0.11 0.04 0.09 0.30 0.34 0.25 0.06 0.00 0.00 0.00 0.00 0.00 0.00 0.00 0.00 0.00 0.00
0.95 1.01 0.94 0.77 0.62 1.11 1.10 0.87 1.14 0.75 0.37 0.20 0.10 0.23 0.18 0.18 0.23 0.22 0.40 0.34 0.32 0.35 0.82 1.16 1.17 0.67 0.39 0.16 0.12 0.05 0.04 0.13 0.12 0.06 0.01 0.00 0.00 0.00 0.00 0.00 0.00 0.00 0.00 0.00 0.00
0.75 0.99 1.14 0.99 0.82 1.31 1.00 0.72 0.96 0.58 0.18 0.11 0.20 0.31 0.41 0.17 0.13 0.29 0.34 0.19 0.12 0.18 0.39 0.38 0.49 0.29 0.25 0.11 0.12 0.23 0.21 0.06 0.16 0.12 0.22 0.02 0.00 0.00 0.00 0.00 0.00 0.00 0.00 0.00 0.00
0.72 1.33 1.06 0.93 0.93 1.12 0.89 0.62 0.49 0.06 0.00 0.02 0.10 0.09 0.16 0.16 0.18 0.15 0.21 0.09 0.04 0.07 0.04 0.02 0.29 0.19 0.13 0.19 0.15 0.08 0.08 0.19 0.44 0.23 0.12 0.01 0.00 0.00 0.00 0.00 0.00 0.00 0.00 0.00 0.00
0.75 1.24 1.10 0.78 1.06 1.08 0.82 0.78 0.33 0.02 0.00 0.00 0.01 0.02 0.11 0.20 0.06 0.03 0.03 0.02 0.03 0.06 0.01 0.01 0.09 0.14 0.18 0.29 0.15 0.05 0.17 0.14 0.17 0.12 0.09 0.04 0.00 0.00 0.00 0.00 0.00 0.00 0.00 0.00 0.01
1.01 1.00 1.02 0.91 1.20 0.88 0.57 0.44 0.14 0.02 0.01 0.00 0.00 0.01 0.01 0.02 0.01 0.01 0.01 0.01 0.02 0.01 0.01 0.00 0.09 0.13 0.09 0.01 0.02 0.06 0.02 0.06 0.21 0.07 0.12 0.10 0.04 0.01 0.03 0.01 0.00 0.01 0.01 0.01 0.01
0.89 0.96 1.10 0.57 0.46 0.33 0.26 0.04 0.02 0.03 0.02 0.00 0.00 0.00 0.01 0.01 0.01 0.01 0.00 0.00 0.00 0.00 0.01 0.01 0.15 0.19 0.21 0.18 0.11 0.17 0.05 0.09 0.18 0.37 0.26 0.14 0.03 0.01 0.02 0.01 0.00 0.00 0.00 0.01 0.01
0.83 1.21 1.65 0.92 0.18 0.06 0.13 0.06 0.03 0.03 0.01 0.01 0.02 0.02 0.01 0.01 0.00 0.00 0.00 0.00 0.00 0.00 0.02 0.11 0.17 0.12 0.13 0.31 0.41 0.32 0.07 0.09 0.38 0.60 0.11 0.05 0.02 0.01 0.03 0.03 0.04 0.03 0.01 0.01 0.01
0.53 0.32 0.44 0.55 0.15 0.03 0.04 0.05 0.02 0.01 0.01 0.03 0.04 0.04 0.02 0.02 0.01 0.00 0.00 0.00 0.00 0.02 0.13 0.33 0.25 0.11 0.12 0.22 0.58 0.38 0.14 0.10 0.39 0.19 0.26 0.09 0.04 0.04 0.04 0.05 0.05 0.04 0.03 0.03 0.03
0.62 0.18 0.01 0.01 0.02 0.01 0.01 0.02 0.03 0.02 0.03 0.04 0.01 0.01 0.03 0.03 0.01 0.00 0.00 0.00 0.01 0.03 0.13 0.31 0.38 0.33 0.34 0.25 0.35 0.27 0.07 0.11 0.12 0.04 0.05 0.02 0.04 0.05 0.05 0.03 0.08 0.06 0.02 0.01 0.00
0.70 0.22 0.03 0.02 0.01 0.00 0.00 0.01 0.01 0.02 0.03 0.00 0.01 0.02 0.03 0.01 0.01 0.01 0.01 0.01 0.01 0.07 0.26 0.41 0.47 0.64 0.48 0.18 0.19 0.26 0.08 0.06 0.09 0.07 0.03 0.04 0.05 0.07 0.25 0.45 0.39 0.10 0.04 0.02 0.02

GFSSW_prec_precacc_075.txt.gz
Total_Precipitation_Accumulation
0.15 0.20 0.25 0.27 0.27 0.28 0.28 0.32 0.38 0.44 0.46 0.39 0.49 0.55 0.47 0.42 0.47 0.41 0.14 0.04 0.08 0.21 0.41 0.13 0.06 0.08 0.16 0.32 0.53 0.64 0.88 0.43 0.10 0.04 0.04 0.00 0.00 0.00 0.00 0.00 0.01 0.01 0.05 0.03 0.07
0.17 0.22 0.27 0.29 0.27 0.26 0.32 0.39 0.40 0.38 0.35 0.27 0.30 0.53 0.68 0.70 0.34 0.15 0.05 0.05 0.18 0.44 0.36 0.21 0.10 0.14 0.19 0.32 0.73 1.04 0.90 0.29 0.07 0.07 0.07 0.02 0.00 0.00 0.00 0.00 0.03 0.07 0.07 0.04 0.10
0.23 0.26 0.30 0.32 0.34 0.39 0.46 0.42 0.40 0.34 0.22 0.24 0.31 0.46 0.76 0.82 0.50 0.09 0.12 0.16 0.46 0.75 0.47 0.23 0.29 0.34 0.17 0.32 0.62 0.76 0.45 0.05 0.04 0.17 0.24 0.13 0.01 0.00 0.00 0.01 0.01 0.06 0.09 0.09 0.18
0.30 0.36 0.35 0.33 0.36 0.37 0.39 0.37 0.29 0.22 0.20 0.19 0.28 0.31 0.55 0.95 0.48 0.19 0.08 0.17 0.47 1.03 0.82 0.36 0.31 0.37 0.20 0.16 0.30 0.44 0.12 0.10 0.14 0.17 0.31 0.18 0.07 0.02 0.02 0.01 0.00 0.02 0.08 0.17 0.17
0.46 0.46 0.39 0.31 0.35 0.31 0.25 0.21 0.23 0.31 0.25 0.24 0.30 0.43 0.47 0.65 0.29 0.26 0.20 0.17 0.55 1.29 0.84 0.51 0.32 0.35 0.20 0.06 0.23 0.31 0.19 0.19 0.26 0.24 0.16 0.17 0.29 0.10 0.03 0.00 0.00 0.01 0.04 0.14 0.14
0.51 0.45 0.38 0.32 0.33 0.31 0.23 0.31 0.25 0.26 0.21 0.23 0.33 0.65 0.43 0.29 0.10 0.19 0.29 0.30 0.46 1.02 0.86 0.85 0.38 0.41 0.18 0.12 0.16 0.10 0.35 0.42 0.52 0.39 0.42 0.29 0.25 0.24 0.05 0.01 0.05 0.05 0.13 0.11 0.10
0.54 0.51 0.37 0.30 0.40 0.37 0.26 0.24 0.33 0.34 0.23 0.29 0.56 0.50 0.45 0.16 0.09 0.21 0.30 0.44 0.65 0.88 0.71 0.87 0.43 0.83 0.40 0.17 0.06 0.17 0.51 0.71 0.66 0.55 0.47 0.48 0.42 0.26 0.07 0.05 0.05 0.05 0.13 0.16 0.17
0.54 0.52 0.45 0.44 0.39 0.30 0.18 0.15 0.23 0.28 0.32 0.36 0.56 0.56 0.25 0.08 0.06 0.16 0.24 0.54 0.75 0.93 0.92 1.22 0.84 0.88 0.59 0.17 0.15 0.25 0.47 0.84 0.57 0.72 0.62 0.63 0.43 0.10 0.11 0.13 0.05 0.01 0.02 0.05 0.09
0.51 0.49 0.50 0.40 0.30 0.29 0.27 0.26 0.26 0.22 0.37 0.57 0.57 0.48 0.15 0.12 0.12 0.16 0.15 0.47 0.92 1.26 1.43 1.87 1.78 0.95 0.69 0.30 0.30 0.29 0.26 0.43 0.60 0.64 0.79 0.58 0.35 0.27 0.11 0.11 0.03 0.02 0.01 0.00 0.05
0.45 0.45 0.39 0.36 0.31 0.31 0.44 0.53 0.52 0.45 0.49 0.70 0.73 0.56 0.20 0.04 0.13 0.18 0.21 0.65 1.34 1.86 2.30 2.61 2.78 1.20 0.85 0.31 0.24 0.06 0.07 0.17 0.47 0.42 0.81 0.51 0.38 0.34 0.18 0.01 0.01 0.00 0.01 0.00 0.00
0.45 0.41 0.41 0.38 0.38 0.54 0.73 0.98 0.93 0.85 0.79 0.64 0.47 0.27 0.23 0.16 0.26 0.34 0.47 1.19 2.04 2.53 2.20 2.19 2.13 0.97 0.53 0.14 0.03 0.01 0.01 0.06 0.19 0.19 0.50 0.55 0.22 0.30 0.21 0.03 0.00 0.01 0.00 0.00 0.00
0.43 0.49 0.47 0.35 0.49 0.75 0.80 0.90 0.59 0.50 0.63 0.40 0.28 0.27 0.13 0.26 0.44 0.49 1.03 2.41 2.05 2.42 1.82 1.55 1.08 0.45 0.28 0.15 0.07 0.03 0.03 0.08 0.15 0.37 0.33 0.51 0.30 0.14 0.31 0.05 0.00 0.00 0.00 0.00 0.00
0.50 0.54 0.49 0.43 0.58 0.84 0.56 0.55 0.56 0.44 0.77 0.67 0.60 0.45 0.27 0.54 0.71 0.76 1.61 2.46 1.71 1.73 1.52 0.89 0.58 0.45 0.32 0.20 0.09 0.03 0.01 0.04 0.18 0.30 0.32 0.32 0.29 0.10 0.11 0.11 0.00 0.00 0.00 0.00 0.00
0.61 0.55 0.65 0.82 1.11 0.71 0.68 0.40 0.72 0.66 0.99 1.10 1.19 0.67 0.57 0.83 1.11 0.85 1.31 1.89 1.89 1.65 1.67 1.09 0.56 0.48 0.32 0.23 0.04 0.01 0.01 0.02 0.13 0.28 0.22 0.19 0.18 0.01 0.00 0.05 0.02 0.00 0.00 0.00 0.00
0.59 0.65 0.74 1.21 1.25 0.88 0.82 0.90 1.00 0.95 1.55 1.37 1.21 0.65 0.57 0.79 0.98 0.97 1.08 1.53 1.30 1.50 1.43 1.05 0.62 0.61 0.35 0.22 0.05 0.02 0.02 0.02 0.07 0.35 0.21 0.06 0.04 0.00 0.00 0.00 0.01 0.00 0.00 0.00 0.00
0.76 0.79 0.97 1.09 0.99 0.81 0.67 1.26 1.46 1.12 1.60 1.32 0.94 0.79 0.83 0.58 0.51 0.61 1.07 1.16 1.13 1.03 1.01 0.68 0.55 0.73 0.44 0.30 0.09 0.04 0.10 0.15 0.09 0.20 0.33 0.08 0.01 0.00 0.00 0.00 0.00 0.00 0.00 0.00 0.00
1.00 1.27 1.31 0.99 0.78 0.55 1.03 1.40 1.48 0.97 0.72 0.50 0.40 0.31 0.28 0.23 0.36 0.40 0.59 0.64 0.97 1.35 1.63 1.28 0.75 0.60 0.40 0.34 0.12 0.05 0.11 0.47 0.45 0.36 0.12 0.01 0.00 0.00 0.00 0.00 0.00 0.00 0.00 0.00 0.00
1.08 1.08 0.96 0.77 0.62 1.11 1.10 0.87 1.14 0.75 0.37 0.20 0.10 0.23 0.18 0.18 0.23 0.22 0.41 0.36 0.34 0.40 0.88 1.21 1.32 0.71 0.41 0.17 0.12 0.05 0.05 0.16 0.17 0.08 0.01 0.00 0.00 0.00 0.00 0.00 0.00 0.00 0.00 0.00 0.00
0.87 1.08 1.17 0.99 0.82 1.31 1.00 0.72 0.96 0.58 0.18 0.11 0.20 0.31 0.41 0.17 0.13 0.29 0.34 0.20 0.13 0.19 0.44 0.62 0.70 0.30 0.25 0.11 0.12 0.23 0.21 0.06 0.16 0.12 0.22 0.02 0.00 0.00 0.00 0.00 0.00 0.00 0.00 0.00 0.00
0.80 1.37 1.07 0.93 0.93 1.12 0.89 0.62 0.49 0.06 0.00 0.02 0.11 0.09 0.16 0.16 0.18 0.15 0.21 0.09 0.04 0.08 0.05 0.04 0.31 0.19 0.13 0.19 0.15 0.08 0.08 0.19 0.44 0.24 0.12 0.01 0.00 0.00 0.00 0.00 0.00 0.00 0.00 0.00 0.00
0.86 1.32 1.11 0.78 1.06 1.09 0.82 0.78 0.33 0.02 0.00 0.00 0.01 0.02 0.11 0.20 0.06 0.03 0.03 0.02 0.03 0.06 0.01 0.01 0.09 0.14 0.18 0.29 0.15 0.05 0.17 0.14 0.17 0.12 0.09 0.04 0.00 0.00 0.00 0.00 0.00 0.00 0.00 0.00 0.01
1.17 1.12 1.04 0.91 1.20 0.89 0.57 0.44 0.14 0.02 0.01 0.00 0.00 0.01 0.01 0.02 0.01 0.01 0.01 0.01 0.02 0.01 0.01 0.00 0.09 0.13 0.09 0.01 0.02 0.06 0.02 0.06 0.21 0.07 0.12 0.10 0.04 0.01 0.03 0.01 0.00 0.01 0.01 0.01 0.01
1.11 1.12 1.14 0.57 0.46 0.33 0.26 0.04 0.02 0.04 0.02 0.00 0.00 0.00 0.01 0.01 0.01 0.01 0.00 0.00 0.00 0.00 0.01 0.01 0.15 0.19 0.21 0.18 0.11 0.17 0.05 0.09 0.18 0.37 0.26 0.14 0.03 0.01 0.02 0.01 0.00 0.00 0.00 0.01 0.01
1.01 1.34 1.71 0.93 0.18 0.06 0.13 0.06 0.03 0.03 0.01 0.01 0.02 0.02 0.01 0.01 0.00 0.00 0.00 0.00 0.00 0.00 0.02 0.11 0.17 0.12 0.13 0.31 0.41 0.32 0.07 0.09 0.38 0.60 0.11 0.05 0.02 0.01 0.03 0.03 0.04 0.03 0.01 0.01 0.01
0.64 0.35 0.44 0.55 0.15 0.03 0.04 0.05 0.02 0.01 0.01 0.03 0.04 0.04 0.02 0.02 0.01 0.00 0.00 0.00 0.00 0.02 0.13 0.33 0.25 0.11 0.12 0.22 0.58 0.38 0.14 0.10 0.39 0.19 0.26 0.09 0.04 0.04 0.04 0.05 0.05 0.04 0.03 0.03 0.03
0.76 0.19 0.01 0.01 0.02 0.01 0.01 0.02 0.03 0.02 0.03 0.04 0.01 0.01 0.03 0.03 0.01 0.00 0.00 0.00 0.01 0.03 0.13 0.31 0.38 0.33 0.34 0.25 0.35 0.27 0.07 0.11 0.12 0.04 0.05 0.02 0.04 0.05 0.05 0.03 0.08 0.06 0.02 0.01 0.00
0.82 0.25 0.03 0.02 0.01 0.00 0.00 0.01 0.01 0.02 0.03 0.00 0.01 0.02 0.03 0.01 0.01 0.01 0.01 0.01 0.01 0.07 0.26 0.41 0.47 0.64 0.48 0.18 0.19 0.26 0.08 0.06 0.09 0.07 0.03 0.04 0.05 0.07 0.25 0.45 0.39 0.10 0.04 0.02 0.02

GFSSW_prec_precacc_078.txt.gz
Total_Precipitation_Accumulation
0.16 0.20 0.25 0.27 0.27 0.28 0.29 0.32 0.38 0.44 0.47 0.40 0.49 0.55 0.47 0.42 0.47 0.41 0.14 0.04 0.08 0.21 0.41 0.13 0.06 0.08 0.16 0.33 0.55 0.67 0.91 0.44 0.10 0.04 0.04 0.00 0.00 0.00 0.00 0.00 0.01 0.01 0.05 0.03 0.07
0.20 0.24 0.27 0.30 0.28 0.27 0.32 0.40 0.41 0.38 0.35 0.27 0.31 0.54 0.68 0.70 0.34 0.15 0.05 0.05 0.18 0.44 0.36 0.21 0.10 0.14 0.19 0.32 0.74 1.06 0.90 0.30 0.07 0.07 0.07 0.02 0.00 0.00 0.00 0.01 0.05 0.08 0.08 0.04 0.10
0.26 0.29 0.32 0.33 0.36 0.39 0.47 0.43 0.41 0.35 0.22 0.24 0.33 0.50 0.77 0.82 0.50 0.09 0.12 0.16 0.46 0.75 0.47 0.23 0.29 0.34 0.17 0.32 0.62 0.77 0.46 0.05 0.04 0.17 0.25 0.15 0.01 0.01 0.01 0.04 0.01 0.06 0.10 0.09 0.18
0.34 0.44 0.40 0.34 0.37 0.38 0.40 0.37 0.30 0.23 0.20 0.19 0.29 0.35 0.55 0.95 0.48 0.19 0.08 0.17 0.47 1.03 0.82 0.36 0.31 0.37 0.20 0.16 0.30 0.45 0.12 0.10 0.15 0.19 0.31 0.21 0.11 0.07 0.04 0.02 0.00 0.02 0.08 0.17 0.17
0.57 0.59 0.47 0.35 0.37 0.32 0.26 0.21 0.23 0.31 0.26 0.24 0.31 0.46 0.47 0.65 0.29 0.26 0.20 0.17 0.55 1.29 0.84 0.51 0.32 0.35 0.20 0.06 0.23 0.31 0.19 0.19 0.27 0.27 0.20 0.22 0.35 0.13 0.05 0.01 0.01 0.06 0.09 0.14 0.14
0.60 0.58 0.48 0.38 0.39 0.33 0.24 0.31 0.26 0.27 0.22 0.23 0.34 0.68 0.43 0.29 0.10 0.19 0.29 0.30 0.46 1.02 0.86 0.85 0.38 0.41 0.19 0.12 0.17 0.10 0.35 0.43 0.54 0.43 0.50 0.38 0.32 0.28 0.08 0.06 0.15 0.18 0.19 0.14 0.12
0.59 0.63 0.49 0.38 0.44 0.38 0.26 0.24 0.34 0.34 0.24 0.29 0.56 0.52 0.46 0.16 0.09 0.21 0.30 0.44 0.65 0.88 0.71 0.87 0.43 0.83 0.42 0.17 0.06 0.18 0.53 0.72 0.68 0.60 0.55 0.60 0.50 0.34 0.13 0.10 0.13 0.19 0.26 0.31 0.22
0.59 0.61 0.51 0.50 0.42 0.31 0.18 0.15 0.24 0.28 0.32 0.36 0.57 0.57 0.25 0.08 0.06 0.16 0.24 0.54 0.75 0.93 0.92 1.22 0.84 0.88 0.61 0.20 0.17 0.27 0.52 0.89 0.57 0.75 0.71 0.81 0.57 0.16 0.17 0.20 0.15 0.14 0.20 0.26 0.26
0.53 0.54 0.54 0.45 0.33 0.30 0.28 0.27 0.26 0.22 0.37 0.57 0.57 0.49 0.15 0.12 0.12 0.16 0.15 0.47 0.92 1.26 1.47 1.90 1.80 1.01 0.77 0.40 0.48 0.36 0.34 0.50 0.61 0.65 0.91 0.82 0.52 0.31 0.13 0.15 0.10 0.12 0.10 0.12 0.28
0.48 0.53 0.49 0.43 0.35 0.33 0.45 0.53 0.52 0.45 0.50 0.70 0.73 0.56 0.20 0.04 0.13 0.18 0.21 0.65 1.35 1.88 2.34 2.66 2.82 1.29 0.92 0.45 0.56 0.12 0.09 0.21 0.47 0.45 0.87 0.67 0.55 0.38 0.22 0.04 0.04 0.04 0.03 0.03 0.05
0.49 0.52 0.50 0.46 0.44 0.56 0.73 0.98 0.93 0.85 0.79 0.64 0.47 0.27 0.23 0.16 0.26 0.34 0.47 1.19 2.04 2.55 2.21 2.20 2.14 0.99 0.56 0.17 0.23 0.12 0.01 0.07 0.20 0.25 0.52 0.64 0.32 0.35 0.27 0.11 0.02 0.02 0.01 0.00 0.02
0.47 0.59 0.58 0.43 0.52 0.77 0.80 0.90 0.59 0.50 0.63 0.40 0.28 0.27 0.13 0.26 0.44 0.49 1.03 2.41 2.05 2.42 1.82 1.56 1.09 0.45 0.31 0.28 0.24 0.09 0.04 0.11 0.17 0.42 0.40 0.58 0.45 0.19 0.32 0.14 0.05 0.01 0.01 0.01 0.00
0.55 0.64 0.64 0.53 0.62 0.87 0.57 0.55 0.56 0.44 0.77 0.67 0.60 0.45 0.27 0.54 0.71 0.76 1.61 2.46 1.71 1.73 1.52 0.90 0.59 0.45 0.35 0.36 0.24 0.05 0.03 0.07 0.18 0.31 0.39 0.46 0.53 0.18 0.14 0.16 0.07 0.01 0.01 0.00 0.00
0.67 0.69 0.81 0.89 1.13 0.71 0.68 0.40 0.72 0.66 0.99 1.10 1.19 0.67 0.57 0.83 1.12 0.85 1.31 1.89 1.90 1.66 1.68 1.11 0.57 0.48 0.34 0.35 0.11 0.02 0.05 0.10 0.14 0.31 0.31 0.28 0.32 0.08 0.04 0.11 0.11 0.03 0.00 0.00 0.00
0.62 0.75 0.88 1.25 1.26 0.90 0.83 0.90 1.00 0.95 1.55 1.37 1.21 0.65 0.57 0.79 0.98 0.98 1.08 1.54 1.30 1.52 1.53 1.13 0.64 0.62 0.35 0.23 0.05 0.03 0.07 0.08 0.08 0.35 0.27 0.14 0.14 0.01 0.00 0.01 0.03 0.02 0.00 0.00 0.00
0.90 1.03 1.12 1.14 1.03 0.83 0.67 1.26 1.46 1.12 1.60 1.32 0.94 0.79 0.83 0.58 0.51 0.62 1.08 1.23 1.19 1.19 1.20 0.83 0.59 0.75 0.44 0.30 0.11 0.07 0.13 0.18 0.10 0.24 0.39 0.16 0.03 0.00 0.00 0.00 0.00 0.01 0.01 0.01 0.01
1.21 1.57 1.44 1.06 0.83 0.57 1.03 1.40 1.48 0.97 0.72 0.50 0.40 0.31 0.28 0.23 0.36 0.40 0.60 0.70 1.11 1.49 1.73 1.32 0.79 0.64 0.42 0.39 0.15 0.11 0.11 0.49 0.51 0.48 0.15 0.07 0.01 0.00 0.00 0.00 0.00 0.00 0.00 0.00 0.00
1.28 1.32 1.09 0.82 0.65 1.13 1.11 0.87 1.14 0.75 0.37 0.20 0.10 0.23 0.18 0.18 0.23 0.22 0.42 0.42 0.50 0.45 0.89 1.25 1.39 0.79 0.55 0.24 0.16 0.09 0.07 0.21 0.22 0.11 0.02 0.00 0.00 0.00 0.00 0.00 0.00 0.00 0.00 0.00 0.00
1.09 1.26 1.30 1.03 0.84 1.31 1.00 0.72 0.96 0.58 0.18 0.11 0.20 0.31 0.41 0.17 0.13 0.29 0.35 0.20 0.14 0.19 0.46 0.67 0.81 0.37 0.29 0.11 0.13 0.24 0.22 0.06 0.16 0.12 0.22 0.02 0.00 0.00 0.00 0.00 0.00 0.00 0.00 0.00 0.00
0.96 1.49 1.23 1.02 0.95 1.12 0.89 0.62 0.49 0.06 0.00 0.02 0.11 0.09 0.16 0.16 0.18 0.15 0.21 0.09 0.05 0.12 0.09 0.05 0.33 0.19 0.13 0.19 0.15 0.08 0.08 0.19 0.44 0.24 0.12 0.01 0.00 0.00 0.00 0.00 0.00 0.00 0.00 0.00 0.00
1.08 1.56 1.28 0.87 1.08 1.09 0.83 0.78 0.33 0.02 0.00 0.00 0.01 0.02 0.11 0.20 0.06 0.03 0.03 0.02 0.03 0.06 0.01 0.01 0.10 0.15 0.18 0.29 0.15 0.05 0.17 0.14 0.17 0.12 0.09 0.04 0.00 0.00 0.00 0.00 0.00 0.00 0.00 0.00 0.01
1.47 1.32 1.19 0.95 1.22 0.89 0.57 0.44 0.14 0.02 0.01 0.00 0.00 0.01 0.01 0.02 0.01 0.01 0.01 0.01 0.02 0.01 0.01 0.00 0.09 0.13 0.09 0.01 0.02 0.06 0.02 0.06 0.21 0.07 0.12 0.10 0.04 0.01 0.03 0.01 0.00 0.01 0.01 0.01 0.01
1.34 1.35 1.35 0.64 0.48 0.33 0.26 0.04 0.02 0.04 0.02 0.00 0.00 0.00 0.01 0.01 0.01 0.01 0.00 0.00 0.00 0.00 0.01 0.01 0.15 0.19 0.21 0.18 0.11 0.17 0.05 0.09 0.18 0.37 0.26 0.14 0.03 0.01 0.02 0.01 0.00 0.00 0.00 0.01 0.01
1.16 1.51 1.92 1.05 0.20 0.06 0.13 0.06 0.03 0.03 0.01 0.01 0.02 0.02 0.01 0.01 0.00 0.00 0.00 0.00 0.00 0.00 0.02 0.11 0.17 0.12 0.13 0.31 0.41 0.32 0.07 0.09 0.38 0.60 0.11 0.05 0.02 0.01 0.03 0.03 0.04 0.03 0.01 0.01 0.01
0.71 0.43 0.52 0.61 0.16 0.03 0.04 0.05 0.02 0.01 0.01 0.03 0.04 0.04 0.02 0.02 0.01 0.00 0.00 0.00 0.00 0.02 0.13 0.33 0.25 0.11 0.12 0.22 0.58 0.38 0.14 0.10 0.39 0.19 0.26 0.09 0.04 0.04 0.04 0.05 0.05 0.04 0.03 0.03 0.03
0.79 0.26 0.07 0.01 0.02 0.01 0.01 0.02 0.03 0.02 0.03 0.04 0.01 0.01 0.03 0.03 0.01 0.00 0.00 0.00 0.01 0.03 0.13 0.31 0.38 0.33 0.34 0.25 0.35 0.27 0.07 0.11 0.12 0.04 0.05 0.02 0.04 0.05 0.05 0.03 0.08 0.06 0.02 0.01 0.00
0.85 0.29 0.03 0.02 0.01 0.00 0.00 0.01 0.01 0.02 0.03 0.00 0.01 0.02 0.03 0.01 0.01 0.01 0.01 0.01 0.01 0.07 0.26 0.41 0.47 0.64 0.48 0.18 0.19 0.26 0.08 0.06 0.09 0.07 0.03 0.04 0.05 0.07 0.25 0.45 0.39 0.10 0.04 0.02 0.02

GFSSW_prec_precacc_081.txt.gz
Total_Precipitation_Accumulation
0.18 0.21 0.26 0.27 0.28 0.29 0.29 0.33 0.39 0.44 0.47 0.40 0.50 0.56 0.47 0.42 0.47 0.41 0.14 0.04 0.08 0.21 0.41 0.13 0.06 0.08 0.16 0.33 0.56 0.69 0.92 0.44 0.10 0.04 0.04 0.00 0.00 0.02 0.00 0.00 0.01 0.01 0.05 0.03 0.07
0.23 0.26 0.28 0.31 0.29 0.29 0.33 0.40 0.41 0.39 0.36 0.27 0.31 0.55 0.70 0.70 0.34 0.15 0.05 0.05 0.18 0.44 0.36 0.21 0.10 0.14 0.19 0.32 0.75 1.09 0.91 0.30 0.07 0.07 0.07 0.02 0.00 0.01 0.01 0.02 0.06 0.14 0.11 0.05 0.10
0.31 0.34 0.36 0.37 0.40 0.42 0.49 0.43 0.41 0.36 0.22 0.24 0.33 0.52 0.79 0.82 0.50 0.09 0.12 0.16 0.46 0.75 0.47 0.23 0.29 0.34 0.17 0.32 0.62 0.78 0.46 0.05 0.04 0.17 0.25 0.15 0.02 0.02 0.02 0.04 0.01 0.07 0.11 0.11 0.18
0.38 0.48 0.47 0.43 0.43 0.43 0.44 0.38 0.30 0.23 0.20 0.20 0.29 0.36 0.57 0.95 0.48 0.19 0.08 0.17 0.47 1.03 0.82 0.36 0.31 0.37 0.20 0.16 0.30 0.45 0.12 0.10 0.15 0.19 0.31 0.21 0.12 0.11 0.08 0.02 0.01 0.05 0.16 0.20 0.17
0.58 0.62 0.53 0.43 0.44 0.39 0.31 0.22 0.23 0.32 0.27 0.25 0.31 0.47 0.47 0.65 0.29 0.26 0.20 0.17 0.55 1.29 0.84 0.51 0.32 0.35 0.20 0.06 0.23 0.31 0.19 0.19 0.27 0.27 0.20 0.22 0.36 0.14 0.05 0.03 0.03 0.10 0.21 0.16 0.17
0.61 0.59 0.52 0.44 0.46 0.40 0.26 0.31 0.26 0.28 0.23 0.23 0.34 0.69 0.43 0.29 0.10 0.19 0.29 0.30 0.46 1.02 0.86 0.85 0.38 0.41 0.19 0.12 0.17 0.10 0.35 0.43 0.54 0.43 0.50 0.39 0.32 0.29 0.08 0.07 0.17 0.26 0.31 0.21 0.15
0.60 0.63 0.50 0.42 0.49 0.42 0.29 0.24 0.34 0.35 0.24 0.29 0.56 0.53 0.46 0.16 0.09 0.21 0.30 0.44 0.65 0.88 0.71 0.87 0.43 0.84 0.42 0.18 0.06 0.18 0.53 0.72 0.68 0.60 0.55 0.63 0.52 0.36 0.15 0.12 0.19 0.28 0.42 0.52 0.26
0.59 0.61 0.53 0.54 0.46 0.36 0.21 0.17 0.24 0.29 0.32 0.36 0.57 0.58 0.26 0.08 0.06 0.16 0.24 0.54 0.75 0.93 0.92 1.22 0.85 0.90 0.62 0.20 0.17 0.28 0.53 0.89 0.57 0.75 0.71 0.89 0.58 0.16 0.23 0.23 0.20 0.21 0.33 0.56 0.43
0.54 0.54 0.58 0.54 0.42 0.35 0.30 0.28 0.27 0.22 0.37 0.58 0.58 0.49 0.15 0.12 0.12 0.16 0.15 0.47 0.92 1.26 1.48 1.94 1.84 1.04 0.79 0.43 0.52 0.40 0.36 0.50 0.62 0.65 0.93 0.88 0.55 0.34 0.19 0.20 0.14 0.18 0.16 0.25 0.59
0.48 0.53 0.52 0.51 0.43 0.38 0.47 0.54 0.53 0.46 0.50 0.70 0.74 0.56 0.20 0.04 0.13 0.18 0.21 0.65 1.35 1.88 2.35 2.71 2.86 1.33 0.97 0.64 0.70 0.18 0.12 0.24 0.49 0.46 0.87 0.75 0.64 0.53 0.27 0.11 0.12 0.10 0.09 0.08 0.11
0.49 0.53 0.52 0.53 0.49 0.60 0.75 0.99 0.94 0.85 0.80 0.64 0.47 0.27 0.23 0.16 0.26 0.34 0.47 1.19 2.04 2.55 2.21 2.21 2.19 1.03 0.57 0.21 0.26 0.17 0.06 0.12 0.23 0.27 0.55 0.66 0.38 0.47 0.48 0.22 0.15 0.14 0.05 0.03 0.03
0.47 0.59 0.61 0.53 0.60 0.80 0.82 0.93 0.63 0.52 0.64 0.40 0.28 0.27 0.13 0.26 0.44 0.49 1.03 2.41 2.05 2.42 1.82 1.56 1.09 0.45 0.34 0.34 0.29 0.20 0.09 0.21 0.28 0.51 0.46 0.62 0.48 0.28 0.46 0.25 0.20 0.10 0.04 0.03 0.01
0.55 0.65 0.73 0.77 0.70 0.90 0.61 0.60 0.59 0.45 0.77 0.67 0.60 0.45 0.27 0.54 0.71 0.76 1.61 2.46 1.71 1.73 1.52 0.90 0.59 0.45 0.36 0.40 0.45 0.19 0.04 0.14 0.27 0.35 0.44 0.49 0.54 0.21 0.19 0.18 0.11 0.03 0.02 0.02 0.00
0.67 0.69 0.87 1.08 1.18 0.72 0.70 0.40 0.72 0.66 0.99 1.10 1.19 0.67 0.57 0.83 1.12 0.85 1.31 1.89 1.90 1.66 1.68 1.11 0.57 0.48 0.35 0.53 0.31 0.06 0.07 0.17 0.22 0.33 0.36 0.29 0.34 0.11 0.07 0.12 0.11 0.03 0.00 0.01 0.02
0.63 0.75 0.91 1.40 1.29 0.91 0.84 0.91 1.01 0.95 1.56 1.37 1.21 0.65 0.57 0.79 0.98 0.98 1.09 1.54 1.30 1.57 1.59 1.15 0.64 0.62 0.41 0.43 0.09 0.07 0.13 0.15 0.15 0.36 0.27 0.15 0.18 0.04 0.04 0.02 0.03 0.02 0.01 0.01 0.01
0.91 1.05 1.27 1.21 1.06 0.86 0.71 1.28 1.46 1.13 1.61 1.32 0.94 0.79 0.83 0.58 0.51 0.62 1.08 1.26 1.29 1.31 1.30 0.86 0.60 0.76 0.47 0.31 0.13 0.10 0.17 0.21 0.12 0.25 0.40 0.17 0.04 0.00 0.01 0.00 0.00 0.01 0.01 0.01 0.02
1.21 1.61 1.77 1.30 0.88 0.64 1.09 1.42 1.50 0.98 0.72 0.50 0.40 0.31 0.28 0.23 0.36 0.40 0.62 0.81 1.22 1.55 1.76 1.35 0.83 0.65 0.42 0.40 0.18 0.14 0.12 0.50 0.54 0.49 0.15 0.08 0.03 0.00 0.00 0.00 0.00 0.00 0.00 0.00 0.01
1.36 1.37 1.22 0.96 0.74 1.22 1.20 0.94 1.18 0.75 0.37 0.20 0.10 0.23 0.18 0.18 0.23 0.22 0.43 0.55 0.54 0.45 0.91 1.30 1.42 0.79 0.55 0.25 0.17 0.10 0.07 0.21 0.23 0.12 0.02 0.01 0.02 0.00 0.00 0.00 0.00 0.00 0.00 0.00 0.00
1.33 1.32 1.39 1.13 0.94 1.41 1.09 0.77 0.97 0.58 0.18 0.11 0.20 0.31 0.41 0.17 0.13 0.29 0.35 0.21 0.15 0.19 0.48 0.76 0.92 0.42 0.30 0.14 0.22 0.26 0.24 0.06 0.16 0.12 0.22 0.02 0.00 0.00 0.00 0.00 0.00 0.00 0.00 0.00 0.00
1.25 1.59 1.32 1.13 1.05 1.19 0.94 0.64 0.49 0.06 0.00 0.02 0.11 0.09 0.16 0.16 0.18 0.15 0.21 0.14 0.14 0.13 0.10 0.09 0.43 0.21 0.13 0.21 0.17 0.09 0.08 0.19 0.44 0.24 0.13 0.01 0.00 0.00 0.00 0.00 0.00 0.00 0.00 0.00 0.00
1.38 1.71 1.50 1.05 1.23 1.22 0.91 0.78 0.33 0.02 0.00 0.00 0.01 0.02 0.11 0.20 0.06 0.03 0.03 0.02 0.03 0.06 0.01 0.01 0.10 0.17 0.18 0.29 0.15 0.05 0.17 0.14 0.17 0.12 0.09 0.04 0.00 0.00 0.00 0.00 0.00 0.00 0.00 0.00 0.01
1.70 1.43 1.38 1.09 1.39 1.02 0.59 0.44 0.14 0.02 0.01 0.00 0.00 0.01 0.01 0.02 0.01 0.01 0.01 0.01 0.02 0.01 0.01 0.00 0.09 0.14 0.09 0.01 0.02 0.06 0.02 0.06 0.21 0.07 0.12 0.10 0.04 0.01 0.03 0.01 0.00 0.01 0.01 0.01 0.01
1.49 1.55 1.61 0.74 0.58 0.39 0.26 0.04 0.02 0.04 0.02 0.00 0.00 0.00 0.01 0.01 0.01 0.01 0.00 0.00 0.00 0.00 0.01 0.01 0.15 0.19 0.21 0.18 0.11 0.17 0.05 0.09 0.18 0.37 0.26 0.14 0.03 0.01 0.02 0.01 0.00 0.00 0.00 0.01 0.01
1.24 1.67 2.13 1.15 0.28 0.07 0.13 0.07 0.04 0.03 0.01 0.01 0.02 0.02 0.01 0.01 0.00 0.00 0.00 0.00 0.00 0.00 0.02 0.11 0.17 0.12 0.13 0.31 0.41 0.32 0.07 0.09 0.38 0.60 0.11 0.05 0.02 0.01 0.03 0.03 0.04 0.03 0.01 0.01 0.01
0.74 0.46 0.56 0.67 0.21 0.03 0.04 0.05 0.03 0.01 0.01 0.03 0.04 0.04 0.02 0.02 0.01 0.00 0.00 0.00 0.00 0.02 0.13 0.33 0.25 0.11 0.12 0.22 0.58 0.38 0.14 0.10 0.39 0.19 0.26 0.09 0.04 0.04 0.04 0.05 0.05 0.04 0.03 0.03 0.03
0.81 0.29 0.09 0.03 0.02 0.01 0.01 0.03 0.03 0.02 0.03 0.04 0.01 0.01 0.03 0.03 0.01 0.00 0.00 0.00 0.01 0.03 0.13 0.31 0.38 0.33 0.34 0.25 0.35 0.27 0.07 0.11 0.12 0.04 0.05 0.02 0.04 0.05 0.05 0.03 0.08 0.06 0.02 0.01 0.00
0.86 0.29 0.04 0.02 0.01 0.00 0.00 0.01 0.02 0.02 0.03 0.00 0.01 0.02 0.03 0.01 0.01 0.01 0.01 0.01 0.01 0.07 0.26 0.41 0.47 0.64 0.48 0.18 0.19 0.26 0.08 0.06 0.09 0.07 0.03 0.04 0.05 0.07 0.25 0.45 0.39 0.10 0.04 0.02 0.02

GFSSW_prec_precacc_084.txt.gz
Total_Precipitation_Accumulation
0.21 0.26 0.29 0.28 0.28 0.30 0.30 0.33 0.39 0.44 0.47 0.40 0.50 0.56 0.48 0.42 0.47 0.41 0.14 0.04 0.08 0.21 0.41 0.13 0.06 0.08 0.16 0.34 0.56 0.70 0.92 0.44 0.10 0.04 0.04 0.00 0.00 0.02 0.01 0.00 0.01 0.01 0.05 0.03 0.07
0.24 0.29 0.34 0.36 0.32 0.32 0.35 0.41 0.42 0.39 0.36 0.28 0.31 0.55 0.71 0.70 0.34 0.15 0.05 0.05 0.18 0.44 0.36 0.21 0.10 0.14 0.19 0.32 0.76 1.09 0.91 0.30 0.07 0.07 0.07 0.02 0.00 0.01 0.01 0.02 0.06 0.14 0.12 0.06 0.10
0.33 0.36 0.40 0.41 0.45 0.46 0.51 0.45 0.41 0.36 0.22 0.24 0.33 0.52 0.80 0.82 0.50 0.09 0.12 0.16 0.46 0.75 0.47 0.23 0.29 0.34 0.17 0.32 0.62 0.78 0.46 0.05 0.04 0.17 0.25 0.15 0.02 0.02 0.02 0.05 0.01 0.07 0.12 0.12 0.23
0.40 0.49 0.48 0.45 0.47 0.47 0.46 0.40 0.31 0.23 0.20 0.20 0.29 0.36 0.57 0.95 0.48 0.19 0.08 0.17 0.47 1.03 0.82 0.36 0.31 0.37 0.20 0.16 0.30 0.45 0.12 0.10 0.15 0.19 0.31 0.21 0.12 0.11 0.09 0.02 0.01 0.05 0.16 0.24 0.21
0.59 0.62 0.53 0.44 0.46 0.43 0.36 0.26 0.25 0.32 0.27 0.25 0.31 0.47 0.47 0.65 0.29 0.26 0.20 0.17 0.55 1.29 0.84 0.51 0.32 0.35 0.20 0.06 0.23 0.31 0.19 0.19 0.27 0.27 0.20 0.22 0.36 0.14 0.05 0.03 0.04 0.11 0.24 0.22 0.28
0.62 0.59 0.52 0.44 0.48 0.43 0.30 0.33 0.26 0.28 0.23 0.23 0.34 0.69 0.43 0.29 0.10 0.19 0.29 0.30 0.46 1.02 0.86 0.85 0.38 0.41 0.19 0.12 0.17 0.10 0.35 0.43 0.54 0.43 0.50 0.39 0.32 0.30 0.08 0.07 0.18 0.26 0.32 0.23 0.21
0.61 0.64 0.50 0.43 0.51 0.46 0.33 0.26 0.35 0.35 0.24 0.29 0.56 0.53 0.46 0.16 0.09 0.21 0.30 0.44 0.65 0.88 0.71 0.87 0.43 0.84 0.42 0.18 0.06 0.18 0.53 0.72 0.68 0.60 0.55 0.63 0.52 0.36 0.15 0.13 0.20 0.29 0.42 0.54 0.32
0.60 0.62 0.53 0.55 0.54 0.48 0.25 0.18 0.25 0.29 0.32 0.36 0.57 0.58 0.26 0.08 0.06 0.16 0.24 0.54 0.75 0.93 0.92 1.22 0.87 0.92 0.62 0.20 0.17 0.29 0.53 0.89 0.57 0.75 0.71 0.89 0.58 0.16 0.23 0.23 0.21 0.22 0.33 0.58 0.50
0.55 0.55 0.58 0.54 0.48 0.49 0.38 0.29 0.27 0.22 0.37 0.58 0.58 0.49 0.15 0.12 0.12 0.16 0.15 0.47 0.92 1.26 1.48 1.95 1.88 1.07 0.83 0.45 0.53 0.40 0.36 0.50 0.62 0.65 0.93 0.89 0.55 0.34 0.20 0.20 0.14 0.19 0.17 0.26 0.67
0.49 0.54 0.53 0.51 0.48 0.47 0.50 0.56 0.55 0.47 0.51 0.70 0.74 0.56 0.20 0.04 0.13 0.18 0.21 0.65 1.35 1.88 2.36 2.72 2.89 1.35 0.98 0.67 0.74 0.19 0.13 0.24 0.49 0.46 0.87 0.75 0.65 0.56 0.29 0.12 0.13 0.11 0.10 0.09 0.20
0.50 0.53 0.52 0.54 0.57 0.63 0.77 1.04 0.97 0.86 0.81 0.65 0.48 0.27 0.23 0.16 0.26 0.34 0.47 1.19 2.04 2.55 2.21 2.22 2.20 1.06 0.57 0.21 0.27 0.21 0.14 0.18 0.24 0.28 0.56 0.66 0.38 0.51 0.51 0.24 0.16 0.14 0.05 0.04 0.06
0.47 0.59 0.61 0.65 0.92 0.84 0.82 0.94 0.65 0.54 0.66 0.40 0.28 0.27 0.13 0.26 0.44 0.49 1.03 2.41 2.05 2.42 1.82 1.57 1.10 0.45 0.34 0.40 0.36 0.25 0.14 0.25 0.33 0.55 0.49 0.63 0.50 0.33 0.51 0.33 0.26 0.24 0.10 0.03 0.01
0.55 0.65 0.73 0.83 1.05 0.99 0.62 0.63 0.61 0.45 0.77 0.67 0.60 0.45 0.27 0.54 0.71 0.76 1.61 2.47 1.71 1.73 1.52 0.90 0.59 0.45 0.36 0.44 0.56 0.28 0.14 0.19 0.47 0.41 0.48 0.55 0.57 0.23 0.20 0.23 0.20 0.22 0.29 0.06 0.03
0.68 0.69 0.87 1.11 1.31 0.75 0.71 0.42 0.72 0.66 0.99 1.10 1.19 0.67 0.57 0.83 1.12 0.85 1.31 1.89 1.90 1.66 1.68 1.11 0.57 0.48 0.36 0.62 0.43 0.11 0.10 0.25 0.42 0.41 0.42 0.32 0.37 0.13 0.07 0.12 0.14 0.11 0.26 0.24 0.06
0.65 0.77 0.93 1.44 1.35 0.91 0.84 0.92 1.02 0.95 1.56 1.37 1.21 0.65 0.57 0.79 0.98 0.98 1.09 1.54 1.32 1.59 1.61 1.15 0.65 0.64 0.51 0.59 0.13 0.08 0.14 0.23 0.31 0.44 0.32 0.17 0.21 0.06 0.04 0.02 0.03 0.05 0.08 0.27 0.15
0.97 1.13 1.33 1.26 1.07 0.86 0.72 1.30 1.47 1.13 1.61 1.32 0.94 0.79 0.83 0.58 0.51 0.63 1.10 1.33 1.40 1.38 1.33 0.86 0.60 0.77 0.48 0.31 0.15 0.12 0.19 0.26 0.16 0.29 0.42 0.18 0.05 0.01 0.01 0.00 0.00 0.02 0.02 0.07 0.07
1.28 1.70 1.83 1.45 1.03 0.65 1.15 1.45 1.52 0.99 0.72 0.50 0.40 0.31 0.28 0.23 0.36 0.40 0.65 0.89 1.25 1.56 1.77 1.36 0.83 0.66 0.42 0.42 0.21 0.18 0.15 0.54 0.58 0.52 0.17 0.08 0.03 0.00 0.00 0.00 0.00 0.00 0.00 0.01 0.02
1.49 1.43 1.23 1.01 0.91 1.30 1.26 0.99 1.24 0.76 0.37 0.20 0.10 0.23 0.18 0.18 0.23 0.22 0.44 0.58 0.54 0.46 0.92 1.34 1.43 0.79 0.55 0.26 0.19 0.10 0.08 0.22 0.25 0.14 0.05 0.01 0.03 0.00 0.00 0.00 0.00 0.00 0.00 0.00 0.01
1.68 1.46 1.41 1.14 1.01 1.49 1.14 0.82 0.98 0.59 0.18 0.11 0.20 0.31 0.41 0.17 0.13 0.29 0.36 0.22 0.15 0.20 0.50 0.76 0.92 0.42 0.30 0.15 0.23 0.30 0.25 0.06 0.16 0.12 0.23 0.03 0.00 0.00 0.00 0.00 0.00 0.00 0.00 0.00 0.00
1.40 1.63 1.34 1.14 1.09 1.27 1.00 0.67 0.50 0.06 0.00 0.02 0.11 0.09 0.16 0.16 0.18 0.15 0.24 0.22 0.18 0.23 0.21 0.14 0.46 0.22 0.16 0.28 0.22 0.11 0.09 0.19 0.44 0.24 0.13 0.01 0.00 0.00 0.00 0.00 0.00 0.00 0.00 0.00 0.00
1.41 1.77 1.66 1.11 1.34 1.33 0.97 0.79 0.33 0.02 0.00 0.00 0.01 0.02 0.11 0.20 0.06 0.03 0.05 0.04 0.04 0.07 0.01 0.01 0.11 0.18 0.18 0.30 0.16 0.05 0.17 0.14 0.17 0.12 0.09 0.04 0.00 0.00 0.00 0.00 0.00 0.00 0.00 0.00 0.01
1.74 1.55 1.64 1.23 1.52 1.12 0.66 0.45 0.15 0.02 0.01 0.00 0.00 0.01 0.01 0.02 0.01 0.01 0.01 0.01 0.02 0.01 0.01 0.00 0.09 0.14 0.09 0.01 0.02 0.06 0.02 0.06 0.21 0.07 0.12 0.10 0.04 0.01 0.03 0.01 0.00 0.01 0.01 0.01 0.01
1.52 1.72 1.88 0.90 0.73 0.51 0.28 0.05 0.03 0.04 0.02 0.00 0.00 0.00 0.01 0.01 0.01 0.01 0.00 0.00 0.00 0.00 0.01 0.01 0.15 0.19 0.21 0.18 0.11 0.17 0.05 0.09 0.18 0.37 0.26 0.14 0.03 0.01 0.02 0.01 0.00 0.00 0.00 0.01 0.01
1.24 1.74 2.28 1.27 0.34 0.08 0.13 0.07 0.05 0.03 0.01 0.01 0.02 0.02 0.01 0.01 0.00 0.00 0.00 0.00 0.00 0.00 0.02 0.11 0.17 0.12 0.13 0.31 0.41 0.32 0.07 0.09 0.38 0.60 0.11 0.05 0.02 0.01 0.03 0.03 0.04 0.03 0.01 0.01 0.01
0.74 0.47 0.57 0.69 0.22 0.03 0.04 0.06 0.04 0.01 0.01 0.03 0.04 0.04 0.02 0.02 0.01 0.00 0.00 0.00 0.00 0.02 0.13 0.33 0.25 0.11 0.12 0.22 0.58 0.38 0.14 0.10 0.39 0.19 0.26 0.09 0.04 0.04 0.04 0.05 0.05 0.04 0.03 0.03 0.03
0.81 0.29 0.09 0.03 0.02 0.01 0.01 0.03 0.04 0.02 0.03 0.04 0.01 0.01 0.03 0.03 0.01 0.00 0.00 0.00 0.01 0.03 0.13 0.31 0.38 0.33 0.34 0.25 0.35 0.27 0.07 0.11 0.12 0.04 0.05 0.02 0.04 0.05 0.05 0.03 0.08 0.06 0.02 0.01 0.00
0.86 0.29 0.04 0.02 0.01 0.00 0.00 0.01 0.02 0.02 0.03 0.00 0.01 0.02 0.03 0.01 0.01 0.01 0.01 0.01 0.01 0.07 0.26 0.41 0.47 0.64 0.48 0.18 0.19 0.26 0.08 0.06 0.09 0.07 0.03 0.04 0.05 0.07 0.25 0.45 0.39 0.10 0.04 0.02 0.02

GFSSW_prec_precacc_087.txt.gz
Total_Precipitation_Accumulation
0.21 0.27 0.31 0.33 0.34 0.35 0.33 0.33 0.39 0.44 0.47 0.40 0.50 0.56 0.48 0.42 0.47 0.41 0.14 0.04 0.08 0.21 0.41 0.13 0.06 0.08 0.16 0.34 0.56 0.70 0.92 0.44 0.10 0.04 0.04 0.00 0.00 0.02 0.01 0.00 0.01 0.01 0.05 0.03 0.08
0.25 0.30 0.35 0.38 0.36 0.37 0.41 0.45 0.43 0.39 0.36 0.28 0.31 0.55 0.71 0.70 0.34 0.15 0.05 0.05 0.18 0.44 0.36 0.21 0.10 0.14 0.19 0.32 0.76 1.09 0.91 0.30 0.07 0.07 0.07 0.02 0.00 0.01 0.01 0.02 0.06 0.14 0.12 0.06 0.15
0.34 0.37 0.40 0.42 0.46 0.49 0.55 0.49 0.44 0.36 0.22 0.24 0.33 0.52 0.80 0.82 0.50 0.09 0.12 0.16 0.46 0.75 0.47 0.23 0.29 0.34 0.17 0.32 0.62 0.78 0.46 0.05 0.04 0.17 0.25 0.15 0.02 0.02 0.02 0.05 0.01 0.07 0.12 0.12 0.29
0.40 0.49 0.48 0.45 0.47 0.48 0.50 0.48 0.33 0.23 0.20 0.20 0.29 0.36 0.57 0.95 0.48 0.19 0.08 0.18 0.49 1.03 0.82 0.36 0.31 0.37 0.20 0.16 0.30 0.45 0.12 0.10 0.15 0.19 0.31 0.21 0.12 0.11 0.09 0.02 0.01 0.05 0.16 0.24 0.23
0.60 0.63 0.54 0.44 0.46 0.43 0.40 0.36 0.31 0.32 0.27 0.25 0.31 0.47 0.47 0.65 0.29 0.26 0.20 0.17 0.55 1.29 0.84 0.51 0.32 0.35 0.20 0.06 0.23 0.31 0.19 0.19 0.27 0.27 0.20 0.22 0.36 0.14 0.05 0.03 0.04 0.11 0.24 0.22 0.28
0.63 0.60 0.53 0.45 0.48 0.45 0.32 0.39 0.29 0.28 0.23 0.23 0.34 0.69 0.43 0.29 0.10 0.19 0.29 0.30 0.46 1.02 0.86 0.85 0.38 0.41 0.19 0.12 0.17 0.10 0.35 0.43 0.54 0.43 0.50 0.39 0.32 0.30 0.08 0.07 0.18 0.26 0.32 0.23 0.21
0.62 0.65 0.51 0.43 0.52 0.50 0.44 0.35 0.38 0.36 0.24 0.29 0.56 0.53 0.46 0.16 0.09 0.21 0.30 0.44 0.65 0.88 0.71 0.87 0.43 0.84 0.42 0.18 0.06 0.18 0.53 0.72 0.68 0.60 0.55 0.63 0.52 0.36 0.15 0.13 0.20 0.29 0.42 0.54 0.32
0.61 0.62 0.54 0.55 0.54 0.51 0.36 0.25 0.27 0.31 0.35 0.36 0.57 0.58 0.26 0.08 0.06 0.16 0.24 0.54 0.75 0.93 0.92 1.22 0.87 0.92 0.63 0.21 0.18 0.29 0.53 0.89 0.57 0.75 0.71 0.89 0.58 0.16 0.23 0.23 0.21 0.22 0.33 0.58 0.50
0.55 0.55 0.58 0.55 0.48 0.53 0.55 0.42 0.29 0.23 0.38 0.58 0.59 0.49 0.15 0.12 0.12 0.16 0.15 0.47 0.92 1.26 1.48 1.95 1.89 1.08 0.85 0.47 0.55 0.41 0.36 0.50 0.62 0.65 0.93 0.89 0.55 0.34 0.20 0.20 0.14 0.19 0.17 0.26 0.67
0.49 0.54 0.53 0.51 0.49 0.55 0.58 0.61 0.62 0.48 0.53 0.71 0.74 0.56 0.20 0.04 0.13 0.18 0.21 0.65 1.35 1.88 2.36 2.72 2.90 1.36 0.99 0.69 0.75 0.20 0.15 0.25 0.49 0.46 0.88 0.76 0.65 0.56 0.29 0.12 0.13 0.11 0.10 0.09 0.20
0.50 0.53 0.52 0.55 0.71 0.74 0.82 1.05 1.01 0.89 0.82 0.66 0.48 0.27 0.23 0.16 0.26 0.34 0.47 1.19 2.04 2.55 2.21 2.22 2.21 1.06 0.58 0.22 0.27 0.22 0.15 0.19 0.25 0.28 0.59 0.67 0.38 0.51 0.53 0.27 0.19 0.16 0.06 0.04 0.06
0.47 0.59 0.61 0.66 1.10 1.14 0.88 0.99 0.66 0.56 0.67 0.41 0.28 0.27 0.13 0.26 0.44 0.49 1.03 2.41 2.05 2.42 1.83 1.58 1.11 0.45 0.34 0.40 0.37 0.27 0.20 0.27 0.34 0.58 0.54 0.65 0.50 0.33 0.55 0.38 0.28 0.26 0.12 0.06 0.02
0.55 0.65 0.73 0.83 1.11 1.22 0.71 0.66 0.63 0.45 0.77 0.67 0.60 0.45 0.27 0.54 0.71 0.76 1.61 2.47 1.71 1.73 1.52 0.91 0.59 0.45 0.36 0.44 0.60 0.33 0.24 0.22 0.49 0.47 0.52 0.60 0.59 0.25 0.22 0.24 0.23 0.22 0.30 0.08 0.03
0.68 0.69 0.87 1.11 1.42 0.84 0.98 0.43 0.75 0.66 0.99 1.10 1.19 0.67 0.57 0.83 1.12 0.85 1.31 1.89 1.90 1.66 1.68 1.11 0.57 0.48 0.36 0.63 0.52 0.27 0.21 0.28 0.44 0.48 0.48 0.36 0.40 0.14 0.08 0.15 0.16 0.11 0.26 0.24 0.07
0.69 0.78 0.93 1.45 1.39 1.02 0.95 0.94 1.03 0.96 1.58 1.38 1.21 0.65 0.57 0.79 0.98 0.99 1.09 1.55 1.32 1.60 1.62 1.15 0.65 0.65 0.54 0.62 0.19 0.20 0.21 0.27 0.35 0.49 0.40 0.23 0.32 0.10 0.08 0.05 0.04 0.05 0.08 0.30 0.26
1.04 1.21 1.35 1.27 1.08 0.87 0.72 1.30 1.48 1.17 1.63 1.33 0.95 0.79 0.84 0.58 0.51 0.63 1.11 1.36 1.42 1.39 1.34 0.86 0.60 0.77 0.48 0.32 0.17 0.23 0.34 0.47 0.33 0.37 0.51 0.22 0.14 0.06 0.05 0.02 0.00 0.02 0.03 0.17 0.44
1.37 1.79 1.85 1.47 1.04 0.66 1.16 1.47 1.57 1.03 0.73 0.51 0.40 0.31 0.28 0.23 0.36 0.41 0.70 0.93 1.26 1.57 1.77 1.36 0.83 0.66 0.43 0.52 0.26 0.22 0.24 0.63 0.67 0.63 0.22 0.09 0.13 0.03 0.00 0.00 0.00 0.00 0.00 0.05 0.28
1.57 1.48 1.24 1.01 0.92 1.33 1.30 1.08 1.30 0.78 0.38 0.20 0.10 0.23 0.18 0.19 0.23 0.23 0.47 0.60 0.55 0.46 0.93 1.34 1.43 0.79 0.55 0.28 0.21 0.13 0.11 0.30 0.33 0.17 0.08 0.05 0.09 0.02 0.00 0.00 0.00 0.00 0.01 0.01 0.19
1.82 1.51 1.42 1.14 1.02 1.56 1.21 0.94 1.07 0.60 0.19 0.11 0.20 0.31 0.41 0.17 0.13 0.30 0.37 0.23 0.16 0.21 0.54 0.77 0.92 0.42 0.30 0.15 0.24 0.32 0.28 0.07 0.19 0.13 0.25 0.06 0.02 0.01 0.01 0.00 0.00 0.01 0.00 0.00 0.11
1.47 1.66 1.36 1.15 1.12 1.37 1.14 0.78 0.52 0.06 0.00 0.02 0.11 0.09 0.16 0.16 0.18 0.16 0.25 0.24 0.23 0.26 0.21 0.15 0.47 0.27 0.24 0.33 0.26 0.14 0.10 0.19 0.45 0.25 0.14 0.01 0.00 0.01 0.01 0.02 0.01 0.01 0.00 0.00 0.00
1.42 1.80 1.73 1.13 1.41 1.45 1.09 0.85 0.33 0.02 0.00 0.00 0.01 0.02 0.11 0.20 0.06 0.03 0.05 0.07 0.08 0.08 0.01 0.01 0.14 0.20 0.22 0.34 0.17 0.05 0.17 0.14 0.17 0.12 0.09 0.04 0.00 0.00 0.00 0.01 0.01 0.00 0.01 0.02 0.03
1.74 1.68 1.80 1.26 1.57 1.18 0.71 0.46 0.15 0.03 0.01 0.00 0.00 0.01 0.01 0.02 0.01 0.01 0.01 0.01 0.02 0.01 0.01 0.00 0.11 0.14 0.09 0.01 0.02 0.06 0.02 0.06 0.21 0.07 0.12 0.10 0.04 0.01 0.03 0.01 0.00 0.01 0.03 0.02 0.02
1.53 1.81 1.96 0.94 0.75 0.56 0.30 0.06 0.08 0.05 0.02 0.00 0.00 0.00 0.01 0.01 0.01 0.01 0.00 0.00 0.00 0.00 0.01 0.01 0.15 0.20 0.21 0.18 0.11 0.17 0.05 0.09 0.18 0.37 0.26 0.14 0.03 0.01 0.02 0.01 0.00 0.00 0.00 0.01 0.01
1.25 1.75 2.30 1.29 0.36 0.09 0.14 0.11 0.06 0.03 0.01 0.01 0.02 0.02 0.01 0.01 0.00 0.00 0.00 0.00 0.00 0.00 0.02 0.11 0.17 0.12 0.13 0.31 0.41 0.32 0.07 0.09 0.38 0.60 0.11 0.05 0.02 0.01 0.03 0.03 0.04 0.03 0.01 0.01 0.01
0.74 0.47 0.57 0.70 0.22 0.03 0.04 0.07 0.04 0.01 0.01 0.03 0.04 0.04 0.02 0.02 0.01 0.00 0.00 0.00 0.00 0.02 0.13 0.33 0.25 0.11 0.12 0.22 0.58 0.38 0.14 0.10 0.39 0.19 0.26 0.09 0.04 0.04 0.04 0.05 0.05 0.04 0.03 0.03 0.03
0.81 0.29 0.09 0.03 0.02 0.01 0.01 0.04 0.04 0.02 0.03 0.04 0.01 0.01 0.03 0.03 0.01 0.00 0.00 0.00 0.01 0.03 0.13 0.31 0.38 0.33 0.34 0.25 0.35 0.27 0.07 0.11 0.12 0.04 0.05 0.02 0.04 0.05 0.05 0.03 0.08 0.06 0.02 0.01 0.00
0.86 0.29 0.04 0.02 0.01 0.00 0.00 0.02 0.02 0.02 0.03 0.00 0.01 0.02 0.03 0.01 0.01 0.01 0.01 0.01 0.01 0.07 0.26 0.41 0.47 0.64 0.48 0.18 0.19 0.26 0.08 0.06 0.09 0.07 0.03 0.04 0.05 0.07 0.25 0.45 0.39 0.10 0.04 0.02 0.02

GFSSW_prec_precacc_090.txt.gz
Total_Precipitation_Accumulation
0.22 0.28 0.33 0.34 0.36 0.39 0.42 0.49 0.47 0.45 0.47 0.40 0.50 0.56 0.48 0.42 0.47 0.41 0.14 0.04 0.08 0.21 0.41 0.13 0.06 0.08 0.16 0.34 0.56 0.70 0.92 0.44 0.10 0.04 0.04 0.00 0.00 0.02 0.01 0.00 0.01 0.01 0.05 0.03 0.08
0.27 0.31 0.36 0.39 0.36 0.38 0.42 0.51 0.54 0.44 0.37 0.28 0.31 0.55 0.71 0.70 0.34 0.15 0.05 0.05 0.18 0.44 0.36 0.21 0.10 0.14 0.19 0.32 0.76 1.09 0.91 0.30 0.07 0.07 0.07 0.02 0.00 0.01 0.01 0.02 0.06 0.14 0.12 0.06 0.16
0.35 0.38 0.41 0.42 0.46 0.49 0.56 0.51 0.50 0.42 0.24 0.24 0.33 0.52 0.80 0.82 0.50 0.09 0.12 0.16 0.46 0.75 0.47 0.23 0.29 0.34 0.17 0.32 0.62 0.78 0.46 0.05 0.04 0.17 0.25 0.15 0.02 0.02 0.02 0.05 0.01 0.07 0.12 0.12 0.29
0.41 0.51 0.49 0.45 0.47 0.48 0.51 0.49 0.45 0.38 0.23 0.20 0.29 0.36 0.57 0.95 0.48 0.19 0.08 0.18 0.49 1.03 0.82 0.36 0.31 0.37 0.20 0.16 0.30 0.45 0.12 0.10 0.15 0.19 0.31 0.21 0.12 0.11 0.09 0.02 0.01 0.05 0.16 0.24 0.23
0.61 0.64 0.56 0.45 0.46 0.44 0.40 0.36 0.37 0.42 0.30 0.26 0.31 0.47 0.47 0.65 0.29 0.26 0.20 0.17 0.55 1.29 0.84 0.51 0.32 0.35 0.20 0.06 0.23 0.31 0.19 0.19 0.27 0.27 0.20 0.22 0.36 0.14 0.05 0.03 0.04 0.11 0.24 0.22 0.28
0.64 0.62 0.54 0.46 0.49 0.45 0.34 0.40 0.34 0.38 0.26 0.24 0.34 0.69 0.43 0.29 0.10 0.19 0.29 0.30 0.46 1.02 0.86 0.85 0.38 0.41 0.19 0.12 0.17 0.10 0.35 0.43 0.54 0.43 0.50 0.39 0.32 0.30 0.08 0.07 0.18 0.26 0.32 0.23 0.21
0.62 0.65 0.52 0.44 0.52 0.50 0.45 0.38 0.46 0.43 0.25 0.30 0.56 0.53 0.46 0.16 0.09 0.21 0.30 0.44 0.65 0.88 0.71 0.87 0.43 0.84 0.42 0.18 0.06 0.18 0.53 0.72 0.68 0.60 0.55 0.63 0.52 0.36 0.15 0.13 0.20 0.29 0.42 0.54 0.32
0.61 0.62 0.54 0.55 0.55 0.51 0.36 0.36 0.37 0.33 0.37 0.39 0.58 0.58 0.26 0.08 0.06 0.16 0.24 0.54 0.75 0.93 0.92 1.22 0.87 0.92 0.63 0.21 0.18 0.29 0.53 0.89 0.57 0.75 0.71 0.89 0.58 0.16 0.23 0.23 0.21 0.22 0.33 0.58 0.50
0.55 0.55 0.58 0.55 0.49 0.53 0.57 0.54 0.41 0.26 0.41 0.61 0.59 0.49 0.15 0.12 0.12 0.16 0.15 0.47 0.92 1.26 1.48 1.95 1.89 1.08 0.85 0.47 0.55 0.41 0.37 0.50 0.62 0.65 0.93 0.89 0.55 0.34 0.20 0.20 0.14 0.19 0.17 0.26 0.67
0.49 0.54 0.53 0.51 0.50 0.64 0.65 0.63 0.75 0.55 0.53 0.71 0.74 0.57 0.20 0.04 0.13 0.18 0.21 0.65 1.35 1.88 2.36 2.73 2.90 1.36 0.99 0.69 0.76 0.20 0.15 0.25 0.49 0.46 0.88 0.76 0.65 0.56 0.29 0.13 0.13 0.11 0.10 0.09 0.20
0.50 0.53 0.52 0.55 0.72 0.94 0.96 1.10 1.05 1.03 0.85 0.66 0.48 0.27 0.23 0.16 0.26 0.34 0.47 1.19 2.04 2.56 2.22 2.22 2.21 1.07 0.58 0.22 0.27 0.22 0.15 0.19 0.25 0.28 0.61 0.68 0.39 0.51 0.53 0.27 0.19 0.16 0.06 0.04 0.07
0.48 0.59 0.61 0.66 1.10 1.28 1.00 1.22 0.68 0.58 0.71 0.41 0.28 0.27 0.13 0.26 0.44 0.49 1.03 2.41 2.05 2.42 1.83 1.58 1.11 0.45 0.34 0.40 0.37 0.28 0.21 0.27 0.34 0.58 0.55 0.65 0.50 0.33 0.55 0.38 0.29 0.27 0.13 0.07 0.04
0.57 0.65 0.74 0.83 1.13 1.30 0.78 0.92 0.71 0.45 0.77 0.67 0.61 0.45 0.27 0.54 0.71 0.76 1.61 2.47 1.71 1.73 1.52 0.91 0.59 0.45 0.36 0.44 0.60 0.33 0.26 0.23 0.52 0.48 0.53 0.62 0.60 0.25 0.22 0.24 0.25 0.26 0.34 0.10 0.05
0.69 0.69 0.88 1.11 1.45 0.96 1.26 0.60 0.78 0.67 1.01 1.11 1.20 0.67 0.57 0.83 1.12 0.85 1.31 1.89 1.91 1.66 1.68 1.11 0.57 0.48 0.37 0.63 0.57 0.33 0.23 0.31 0.45 0.53 0.50 0.37 0.42 0.14 0.09 0.16 0.21 0.14 0.26 0.25 0.08
0.69 0.78 0.93 1.45 1.40 1.11 1.25 1.05 1.05 1.00 1.60 1.39 1.21 0.65 0.57 0.79 0.99 1.00 1.09 1.55 1.33 1.61 1.64 1.16 0.65 0.65 0.54 0.62 0.26 0.31 0.26 0.28 0.36 0.50 0.48 0.27 0.39 0.10 0.09 0.07 0.07 0.06 0.08 0.30 0.26
1.07 1.22 1.35 1.27 1.09 0.92 0.79 1.32 1.49 1.19 1.68 1.34 0.95 0.80 0.84 0.59 0.52 0.64 1.11 1.36 1.43 1.40 1.34 0.86 0.60 0.77 0.48 0.32 0.21 0.53 0.46 0.48 0.34 0.44 0.66 0.39 0.28 0.13 0.10 0.08 0.06 0.03 0.03 0.17 0.44
1.46 1.80 1.85 1.48 1.05 0.71 1.16 1.47 1.58 1.11 0.76 0.52 0.41 0.31 0.28 0.24 0.37 0.42 0.71 0.94 1.27 1.58 1.78 1.36 0.83 0.66 0.43 0.53 0.27 0.42 0.55 0.75 0.78 0.80 0.30 0.17 0.41 0.14 0.00 0.00 0.00 0.01 0.01 0.06 0.28
1.60 1.49 1.25 1.03 0.93 1.36 1.30 1.09 1.40 0.85 0.40 0.21 0.11 0.23 0.18 0.19 0.24 0.24 0.48 0.61 0.55 0.47 0.94 1.35 1.43 0.79 0.56 0.28 0.22 0.14 0.17 0.44 0.45 0.21 0.11 0.22 0.34 0.19 0.02 0.00 0.00 0.01 0.01 0.01 0.20
1.84 1.52 1.42 1.14 1.03 1.56 1.22 1.02 1.14 0.66 0.20 0.11 0.21 0.31 0.41 0.17 0.13 0.30 0.38 0.24 0.17 0.21 0.55 0.77 0.92 0.42 0.30 0.15 0.25 0.35 0.34 0.11 0.27 0.20 0.42 0.29 0.28 0.22 0.18 0.02 0.09 0.05 0.01 0.01 0.14
1.48 1.67 1.37 1.15 1.13 1.39 1.21 0.88 0.56 0.09 0.00 0.02 0.11 0.09 0.16 0.16 0.18 0.17 0.26 0.24 0.23 0.26 0.21 0.15 0.48 0.27 0.24 0.33 0.26 0.20 0.13 0.20 0.47 0.33 0.19 0.08 0.05 0.18 0.14 0.07 0.21 0.08 0.01 0.03 0.02
1.42 1.81 1.78 1.15 1.42 1.51 1.26 0.93 0.34 0.02 0.01 0.01 0.01 0.02 0.11 0.20 0.06 0.04 0.06 0.07 0.08 0.08 0.01 0.01 0.20 0.24 0.23 0.35 0.17 0.05 0.17 0.14 0.17 0.12 0.11 0.05 0.06 0.08 0.07 0.10 0.08 0.05 0.03 0.04 0.04
1.74 1.69 1.83 1.27 1.58 1.23 0.76 0.46 0.16 0.04 0.01 0.00 0.00 0.01 0.01 0.02 0.01 0.01 0.01 0.02 0.02 0.01 0.01 0.00 0.13 0.16 0.09 0.01 0.02 0.06 0.02 0.06 0.22 0.07 0.12 0.10 0.06 0.03 0.06 0.02 0.04 0.09 0.10 0.09 0.13
1.53 1.83 1.97 0.94 0.76 0.57 0.30 0.08 0.09 0.06 0.03 0.00 0.00 0.00 0.01 0.01 0.01 0.01 0.00 0.00 0.00 0.00 0.01 0.01 0.15 0.21 0.22 0.19 0.11 0.17 0.05 0.09 0.18 0.37 0.26 0.14 0.03 0.01 0.03 0.01 0.01 0.04 0.04 0.05 0.07
1.25 1.75 2.30 1.30 0.36 0.09 0.14 0.12 0.06 0.03 0.01 0.01 0.02 0.02 0.01 0.01 0.00 0.00 0.00 0.00 0.00 0.00 0.02 0.11 0.17 0.12 0.13 0.31 0.41 0.32 0.07 0.09 0.38 0.60 0.11 0.05 0.02 0.01 0.03 0.03 0.04 0.03 0.01 0.01 0.01
0.74 0.47 0.57 0.70 0.23 0.03 0.04 0.07 0.04 0.01 0.01 0.03 0.04 0.04 0.02 0.02 0.01 0.00 0.00 0.00 0.00 0.02 0.13 0.33 0.25 0.11 0.12 0.22 0.58 0.38 0.14 0.10 0.39 0.19 0.26 0.09 0.04 0.04 0.04 0.05 0.05 0.04 0.03 0.03 0.03
0.81 0.29 0.09 0.03 0.02 0.01 0.01 0.04 0.04 0.02 0.03 0.04 0.01 0.01 0.03 0.03 0.01 0.00 0.00 0.00 0.01 0.03 0.13 0.31 0.38 0.33 0.34 0.25 0.35 0.27 0.07 0.11 0.12 0.04 0.05 0.02 0.04 0.05 0.05 0.03 0.08 0.06 0.02 0.01 0.00
0.86 0.29 0.04 0.02 0.01 0.00 0.00 0.02 0.02 0.02 0.03 0.00 0.01 0.02 0.03 0.01 0.01 0.01 0.01 0.01 0.01 0.07 0.26 0.41 0.47 0.64 0.48 0.18 0.19 0.26 0.08 0.06 0.09 0.07 0.03 0.04 0.05 0.07 0.25 0.45 0.39 0.10 0.04 0.02 0.02

GFSSW_prec_precacc_093.txt.gz
Total_Precipitation_Accumulation
0.22 0.29 0.34 0.35 0.36 0.40 0.43 0.51 0.68 0.68 0.49 0.40 0.50 0.56 0.48 0.42 0.47 0.41 0.14 0.04 0.08 0.21 0.41 0.13 0.06 0.08 0.16 0.34 0.56 0.70 0.92 0.44 0.10 0.04 0.04 0.00 0.00 0.02 0.01 0.00 0.01 0.01 0.05 0.03 0.09
0.27 0.32 0.36 0.40 0.37 0.38 0.42 0.51 0.56 0.64 0.54 0.31 0.31 0.55 0.71 0.70 0.34 0.15 0.05 0.05 0.18 0.44 0.36 0.21 0.10 0.14 0.19 0.32 0.76 1.09 0.91 0.30 0.07 0.07 0.07 0.02 0.00 0.01 0.01 0.02 0.06 0.14 0.12 0.06 0.16
0.35 0.38 0.42 0.43 0.47 0.49 0.56 0.51 0.51 0.49 0.40 0.26 0.33 0.52 0.80 0.82 0.50 0.09 0.12 0.16 0.46 0.75 0.47 0.23 0.29 0.34 0.17 0.32 0.62 0.78 0.46 0.05 0.04 0.17 0.25 0.15 0.02 0.02 0.02 0.05 0.01 0.07 0.12 0.12 0.30
0.42 0.51 0.49 0.46 0.48 0.49 0.51 0.50 0.45 0.45 0.47 0.30 0.30 0.36 0.57 0.95 0.48 0.19 0.08 0.18 0.49 1.03 0.82 0.36 0.31 0.37 0.20 0.16 0.30 0.45 0.12 0.10 0.15 0.19 0.31 0.21 0.12 0.11 0.09 0.02 0.01 0.05 0.16 0.24 0.23
0.61 0.65 0.56 0.46 0.47 0.44 0.41 0.37 0.37 0.43 0.36 0.32 0.33 0.47 0.47 0.65 0.29 0.26 0.20 0.17 0.55 1.29 0.84 0.51 0.32 0.35 0.20 0.06 0.23 0.31 0.19 0.19 0.27 0.27 0.20 0.22 0.36 0.14 0.05 0.03 0.04 0.11 0.24 0.22 0.28
0.65 0.62 0.55 0.46 0.49 0.45 0.34 0.41 0.35 0.42 0.36 0.28 0.36 0.69 0.43 0.29 0.10 0.19 0.29 0.30 0.46 1.02 0.86 0.85 0.38 0.41 0.19 0.12 0.17 0.10 0.35 0.43 0.54 0.43 0.50 0.39 0.32 0.30 0.08 0.07 0.18 0.26 0.32 0.23 0.21
0.64 0.66 0.52 0.44 0.52 0.50 0.45 0.38 0.46 0.48 0.40 0.39 0.61 0.53 0.46 0.16 0.09 0.21 0.30 0.44 0.65 0.88 0.71 0.87 0.43 0.84 0.42 0.18 0.06 0.18 0.53 0.72 0.68 0.60 0.55 0.63 0.52 0.36 0.15 0.13 0.20 0.29 0.42 0.54 0.32
0.64 0.64 0.55 0.55 0.55 0.51 0.36 0.36 0.38 0.37 0.43 0.43 0.60 0.58 0.26 0.08 0.06 0.16 0.24 0.54 0.75 0.93 0.92 1.22 0.87 0.92 0.63 0.21 0.18 0.29 0.53 0.89 0.57 0.75 0.71 0.89 0.58 0.16 0.23 0.23 0.21 0.22 0.33 0.58 0.50
0.57 0.56 0.59 0.55 0.49 0.54 0.58 0.58 0.54 0.31 0.46 0.63 0.61 0.52 0.15 0.12 0.12 0.16 0.15 0.47 0.92 1.26 1.48 1.95 1.89 1.08 0.85 0.47 0.55 0.41 0.37 0.50 0.62 0.65 0.93 0.89 0.55 0.34 0.20 0.20 0.14 0.19 0.17 0.26 0.67
0.51 0.55 0.53 0.51 0.50 0.70 0.85 0.69 0.96 0.77 0.57 0.74 0.76 0.58 0.20 0.04 0.13 0.18 0.21 0.65 1.35 1.88 2.36 2.73 2.90 1.36 0.99 0.69 0.76 0.20 0.15 0.25 0.49 0.46 0.88 0.76 0.65 0.56 0.29 0.13 0.13 0.11 0.10 0.09 0.20
0.53 0.53 0.52 0.55 0.72 1.10 1.31 1.15 1.08 1.32 1.01 0.67 0.49 0.27 0.23 0.16 0.26 0.34 0.47 1.19 2.04 2.56 2.22 2.22 2.21 1.07 0.58 0.22 0.27 0.22 0.15 0.19 0.25 0.28 0.61 0.68 0.39 0.51 0.53 0.27 0.19 0.16 0.06 0.04 0.07
0.49 0.60 0.61 0.66 1.10 1.38 1.19 1.42 0.71 0.74 0.98 0.49 0.28 0.27 0.13 0.26 0.44 0.49 1.03 2.41 2.05 2.42 1.83 1.58 1.11 0.45 0.34 0.40 0.37 0.28 0.21 0.28 0.35 0.58 0.56 0.66 0.50 0.33 0.55 0.38 0.29 0.27 0.14 0.07 0.05
0.57 0.65 0.74 0.83 1.13 1.33 0.87 1.10 0.79 0.48 0.94 0.78 0.61 0.45 0.27 0.54 0.71 0.76 1.61 2.47 1.71 1.73 1.52 0.91 0.59 0.45 0.36 0.44 0.60 0.33 0.28 0.24 0.54 0.49 0.55 0.62 0.60 0.25 0.22 0.24 0.25 0.27 0.38 0.16 0.09
0.69 0.70 0.88 1.11 1.45 1.00 1.37 0.75 0.93 0.67 1.02 1.15 1.20 0.68 0.57 0.83 1.12 0.85 1.31 1.89 1.91 1.66 1.68 1.11 0.57 0.48 0.37 0.63 0.58 0.35 0.24 0.33 0.49 0.58 0.52 0.38 0.43 0.14 0.09 0.16 0.21 0.14 0.33 0.32 0.15
0.69 0.78 0.93 1.45 1.40 1.12 1.32 1.16 1.10 1.00 1.62 1.41 1.21 0.65 0.57 0.79 0.99 1.00 1.09 1.55 1.33 1.61 1.64 1.16 0.65 0.65 0.54 0.62 0.26 0.31 0.27 0.31 0.38 0.51 0.48 0.27 0.41 0.10 0.09 0.08 0.07 0.06 0.11 0.36 0.33
1.10 1.23 1.35 1.27 1.09 0.94 0.88 1.37 1.50 1.20 1.72 1.37 0.96 0.80 0.84 0.59 0.52 0.64 1.11 1.36 1.43 1.40 1.34 0.86 0.60 0.77 0.48 0.32 0.22 0.66 0.62 0.55 0.35 0.45 0.73 0.41 0.29 0.13 0.10 0.08 0.07 0.07 0.08 0.21 0.47
1.54 1.82 1.85 1.48 1.06 0.72 1.17 1.49 1.59 1.13 0.79 0.53 0.42 0.32 0.28 0.24 0.37 0.42 0.71 0.95 1.27 1.58 1.78 1.36 0.83 0.66 0.43 0.53 0.27 0.47 0.67 0.92 0.86 0.87 0.41 0.24 0.52 0.25 0.00 0.00 0.02 0.10 0.03 0.08 0.29
1.61 1.49 1.25 1.03 0.93 1.36 1.30 1.10 1.45 0.94 0.42 0.21 0.11 0.23 0.18 0.19 0.24 0.24 0.48 0.61 0.55 0.47 0.95 1.35 1.43 0.79 0.56 0.28 0.22 0.14 0.26 0.62 0.60 0.38 0.27 0.42 0.58 0.28 0.03 0.01 0.03 0.09 0.03 0.02 0.20
1.84 1.52 1.42 1.14 1.03 1.56 1.22 1.03 1.21 0.70 0.21 0.11 0.21 0.32 0.42 0.17 0.13 0.30 0.38 0.24 0.17 0.21 0.55 0.78 0.92 0.42 0.30 0.15 0.25 0.36 0.37 0.17 0.39 0.33 0.58 0.44 0.46 0.49 0.27 0.03 0.11 0.09 0.01 0.01 0.15
1.48 1.67 1.38 1.16 1.13 1.39 1.21 0.92 0.63 0.10 0.00 0.02 0.11 0.09 0.16 0.16 0.18 0.17 0.27 0.24 0.23 0.26 0.21 0.16 0.48 0.27 0.24 0.33 0.26 0.20 0.13 0.20 0.49 0.42 0.31 0.16 0.11 0.43 0.38 0.38 0.37 0.19 0.05 0.05 0.10
1.42 1.82 1.79 1.15 1.42 1.51 1.27 0.95 0.34 0.03 0.01 0.01 0.01 0.02 0.11 0.20 0.06 0.04 0.06 0.07 0.08 0.08 0.01 0.02 0.29 0.25 0.23 0.35 0.17 0.05 0.17 0.14 0.17 0.12 0.13 0.05 0.14 0.28 0.31 0.38 0.28 0.14 0.13 0.10 0.08
1.74 1.70 1.84 1.27 1.58 1.23 0.76 0.46 0.16 0.04 0.01 0.00 0.00 0.01 0.01 0.02 0.01 0.01 0.01 0.02 0.02 0.01 0.01 0.00 0.13 0.16 0.09 0.01 0.02 0.06 0.02 0.06 0.22 0.07 0.12 0.11 0.12 0.16 0.16 0.14 0.16 0.17 0.20 0.17 0.20
1.53 1.84 1.97 0.94 0.76 0.57 0.30 0.08 0.09 0.06 0.03 0.00 0.00 0.00 0.01 0.01 0.01 0.01 0.00 0.00 0.00 0.00 0.01 0.01 0.15 0.21 0.22 0.19 0.11 0.17 0.05 0.09 0.18 0.37 0.26 0.14 0.04 0.02 0.07 0.06 0.10 0.15 0.14 0.16 0.18
1.25 1.75 2.30 1.30 0.36 0.09 0.14 0.12 0.06 0.03 0.01 0.01 0.02 0.02 0.01 0.01 0.00 0.00 0.00 0.00 0.00 0.00 0.02 0.11 0.17 0.12 0.13 0.31 0.41 0.32 0.07 0.09 0.38 0.60 0.11 0.05 0.02 0.01 0.03 0.03 0.04 0.03 0.02 0.01 0.01
0.74 0.47 0.57 0.70 0.23 0.03 0.04 0.07 0.04 0.01 0.01 0.03 0.04 0.04 0.02 0.02 0.01 0.00 0.00 0.00 0.00 0.02 0.13 0.33 0.25 0.11 0.12 0.22 0.58 0.38 0.14 0.10 0.39 0.19 0.26 0.09 0.04 0.04 0.04 0.05 0.05 0.04 0.03 0.03 0.03
0.81 0.29 0.09 0.03 0.02 0.01 0.01 0.04 0.04 0.02 0.03 0.04 0.01 0.01 0.03 0.03 0.01 0.00 0.00 0.00 0.01 0.03 0.13 0.31 0.38 0.33 0.34 0.25 0.35 0.27 0.07 0.11 0.12 0.04 0.05 0.02 0.04 0.05 0.05 0.03 0.08 0.06 0.02 0.01 0.00
0.86 0.29 0.04 0.02 0.01 0.00 0.00 0.02 0.02 0.02 0.03 0.00 0.01 0.02 0.03 0.01 0.01 0.01 0.01 0.01 0.01 0.07 0.26 0.41 0.47 0.64 0.48 0.18 0.19 0.26 0.08 0.06 0.09 0.07 0.03 0.04 0.05 0.07 0.25 0.45 0.39 0.10 0.04 0.02 0.02

GFSSW_prec_precacc_096.txt.gz
Total_Precipitation_Accumulation
0.23 0.30 0.35 0.35 0.37 0.40 0.43 0.51 0.68 0.74 0.61 0.42 0.50 0.56 0.48 0.42 0.47 0.41 0.14 0.04 0.08 0.21 0.41 0.13 0.06 0.08 0.16 0.34 0.56 0.70 0.92 0.44 0.10 0.04 0.04 0.00 0.00 0.02 0.01 0.00 0.01 0.01 0.05 0.04 0.11
0.28 0.32 0.37 0.41 0.38 0.38 0.42 0.51 0.56 0.64 0.65 0.40 0.33 0.55 0.71 0.70 0.34 0.15 0.05 0.05 0.18 0.44 0.36 0.21 0.10 0.14 0.19 0.32 0.76 1.09 0.91 0.30 0.07 0.07 0.07 0.02 0.00 0.01 0.01 0.02 0.06 0.14 0.12 0.06 0.19
0.36 0.39 0.42 0.44 0.48 0.49 0.56 0.51 0.51 0.50 0.47 0.46 0.36 0.52 0.80 0.82 0.50 0.09 0.12 0.16 0.46 0.75 0.47 0.23 0.29 0.34 0.17 0.32 0.62 0.78 0.46 0.05 0.04 0.17 0.25 0.15 0.02 0.02 0.02 0.05 0.01 0.07 0.12 0.12 0.30
0.44 0.52 0.50 0.47 0.49 0.49 0.51 0.50 0.45 0.45 0.49 0.44 0.39 0.37 0.57 0.95 0.48 0.19 0.08 0.18 0.49 1.03 0.82 0.36 0.31 0.37 0.20 0.16 0.30 0.45 0.12 0.10 0.15 0.19 0.31 0.21 0.12 0.11 0.09 0.02 0.01 0.05 0.16 0.24 0.23
0.63 0.68 0.58 0.46 0.47 0.44 0.41 0.37 0.37 0.43 0.39 0.39 0.46 0.49 0.47 0.65 0.29 0.26 0.20 0.17 0.55 1.29 0.84 0.51 0.32 0.35 0.20 0.06 0.23 0.31 0.19 0.19 0.27 0.27 0.20 0.22 0.36 0.14 0.05 0.03 0.04 0.11 0.24 0.22 0.28
0.66 0.65 0.57 0.47 0.49 0.45 0.34 0.41 0.35 0.42 0.38 0.38 0.39 0.74 0.43 0.29 0.10 0.19 0.29 0.30 0.46 1.02 0.86 0.85 0.38 0.41 0.19 0.12 0.17 0.10 0.35 0.43 0.54 0.43 0.50 0.39 0.32 0.30 0.08 0.07 0.18 0.26 0.32 0.23 0.21
0.67 0.70 0.54 0.44 0.53 0.50 0.45 0.39 0.47 0.48 0.45 0.51 0.65 0.54 0.46 0.16 0.09 0.21 0.30 0.44 0.65 0.88 0.71 0.87 0.43 0.84 0.42 0.18 0.06 0.18 0.53 0.72 0.68 0.60 0.55 0.63 0.52 0.36 0.15 0.13 0.20 0.29 0.42 0.54 0.32
0.74 0.67 0.55 0.56 0.55 0.51 0.36 0.36 0.38 0.37 0.48 0.53 0.65 0.61 0.26 0.08 0.06 0.16 0.24 0.54 0.75 0.93 0.92 1.22 0.87 0.92 0.63 0.21 0.18 0.29 0.53 0.89 0.57 0.75 0.71 0.89 0.58 0.16 0.23 0.23 0.21 0.22 0.33 0.58 0.50
0.63 0.64 0.61 0.55 0.49 0.54 0.59 0.59 0.54 0.35 0.57 0.69 0.66 0.55 0.15 0.12 0.12 0.16 0.15 0.47 0.92 1.26 1.48 1.95 1.89 1.08 0.85 0.47 0.55 0.41 0.37 0.50 0.62 0.65 0.93 0.89 0.55 0.34 0.20 0.20 0.14 0.19 0.17 0.26 0.67
0.53 0.58 0.55 0.51 0.50 0.73 1.04 0.90 1.15 0.92 0.67 0.78 0.78 0.64 0.22 0.04 0.13 0.18 0.21 0.65 1.35 1.88 2.36 2.73 2.90 1.36 0.99 0.69 0.76 0.20 0.15 0.25 0.49 0.46 0.88 0.76 0.65 0.56 0.29 0.13 0.13 0.11 0.10 0.09 0.20
0.54 0.54 0.53 0.55 0.73 1.19 1.60 1.46 1.19 1.41 1.10 0.71 0.54 0.27 0.24 0.16 0.26 0.34 0.47 1.19 2.04 2.56 2.22 2.22 2.21 1.07 0.58 0.22 0.27 0.22 0.15 0.19 0.25 0.28 0.61 0.68 0.39 0.51 0.53 0.27 0.19 0.16 0.06 0.04 0.07
0.49 0.61 0.61 0.66 1.11 1.56 1.35 1.79 0.94 1.02 1.21 0.52 0.31 0.27 0.13 0.26 0.44 0.49 1.03 2.41 2.05 2.42 1.83 1.58 1.11 0.45 0.34 0.40 0.37 0.28 0.21 0.28 0.35 0.58 0.57 0.66 0.50 0.33 0.55 0.38 0.29 0.27 0.14 0.07 0.05
0.58 0.66 0.74 0.83 1.15 1.63 0.96 1.38 1.00 0.78 1.11 0.89 0.62 0.45 0.27 0.54 0.71 0.76 1.61 2.47 1.71 1.73 1.52 0.91 0.59 0.45 0.36 0.44 0.60 0.33 0.28 0.24 0.54 0.50 0.56 0.63 0.61 0.25 0.22 0.24 0.25 0.27 0.38 0.16 0.10
0.69 0.70 0.88 1.11 1.46 1.05 1.43 0.93 1.07 0.80 1.12 1.28 1.22 0.68 0.57 0.83 1.12 0.85 1.31 1.90 1.91 1.66 1.68 1.11 0.57 0.48 0.37 0.63 0.58 0.35 0.24 0.33 0.51 0.66 0.53 0.38 0.44 0.14 0.09 0.16 0.21 0.14 0.33 0.33 0.18
0.69 0.78 0.93 1.45 1.41 1.12 1.34 1.26 1.15 1.02 1.66 1.50 1.22 0.65 0.57 0.80 0.99 1.01 1.09 1.55 1.33 1.61 1.64 1.16 0.65 0.65 0.54 0.62 0.26 0.31 0.27 0.33 0.43 0.57 0.50 0.27 0.42 0.10 0.09 0.08 0.07 0.06 0.11 0.37 0.36
1.10 1.23 1.35 1.27 1.09 0.94 0.88 1.39 1.51 1.20 1.74 1.39 0.96 0.80 0.84 0.60 0.53 0.64 1.11 1.36 1.43 1.40 1.34 0.86 0.60 0.77 0.48 0.32 0.22 0.66 0.62 0.58 0.38 0.48 0.74 0.41 0.29 0.13 0.10 0.10 0.08 0.07 0.10 0.25 0.51
1.54 1.82 1.85 1.48 1.06 0.72 1.17 1.49 1.59 1.14 0.81 0.54 0.42 0.32 0.28 0.24 0.37 0.42 0.71 0.95 1.27 1.58 1.78 1.36 0.83 0.66 0.43 0.53 0.27 0.47 0.69 0.97 0.89 0.92 0.43 0.28 0.53 0.25 0.00 0.03 0.05 0.12 0.04 0.14 0.35
1.61 1.49 1.25 1.03 0.93 1.36 1.30 1.10 1.46 0.96 0.43 0.21 0.11 0.23 0.19 0.19 0.24 0.24 0.49 0.61 0.55 0.47 0.95 1.35 1.43 0.79 0.56 0.28 0.22 0.14 0.35 0.77 0.69 0.49 0.34 0.51 0.69 0.33 0.04 0.02 0.07 0.14 0.04 0.03 0.23
1.84 1.52 1.42 1.14 1.03 1.56 1.22 1.04 1.22 0.71 0.21 0.11 0.21 0.32 0.42 0.18 0.14 0.31 0.38 0.24 0.17 0.21 0.55 0.78 0.92 0.42 0.30 0.15 0.25 0.36 0.40 0.22 0.45 0.43 0.63 0.49 0.53 0.53 0.27 0.04 0.13 0.14 0.04 0.05 0.16
1.48 1.67 1.38 1.16 1.13 1.39 1.21 0.93 0.63 0.10 0.00 0.02 0.11 0.09 0.16 0.16 0.18 0.18 0.27 0.24 0.23 0.26 0.21 0.16 0.48 0.27 0.24 0.33 0.26 0.20 0.13 0.20 0.50 0.45 0.40 0.23 0.16 0.53 0.48 0.48 0.41 0.23 0.08 0.08 0.15
1.42 1.82 1.79 1.15 1.42 1.51 1.27 0.95 0.34 0.03 0.01 0.01 0.01 0.02 0.11 0.20 0.06 0.04 0.06 0.07 0.08 0.08 0.01 0.02 0.29 0.25 0.23 0.35 0.17 0.05 0.17 0.14 0.17 0.12 0.14 0.07 0.26 0.50 0.49 0.57 0.47 0.33 0.35 0.30 0.36
1.74 1.70 1.84 1.27 1.58 1.23 0.76 0.46 0.16 0.04 0.01 0.00 0.00 0.01 0.01 0.02 0.01 0.01 0.01 0.02 0.02 0.01 0.01 0.00 0.13 0.16 0.09 0.01 0.02 0.06 0.02 0.06 0.22 0.07 0.12 0.11 0.19 0.33 0.37 0.39 0.42 0.34 0.40 0.39 0.41
1.53 1.84 1.97 0.94 0.76 0.57 0.30 0.08 0.09 0.06 0.03 0.00 0.00 0.00 0.01 0.01 0.01 0.01 0.00 0.00 0.00 0.00 0.01 0.01 0.15 0.21 0.22 0.19 0.11 0.17 0.05 0.09 0.18 0.37 0.26 0.14 0.04 0.04 0.10 0.13 0.21 0.23 0.21 0.26 0.30
1.25 1.75 2.30 1.30 0.36 0.09 0.14 0.12 0.06 0.03 0.01 0.01 0.02 0.02 0.01 0.01 0.00 0.00 0.00 0.00 0.00 0.00 0.02 0.11 0.17 0.12 0.13 0.31 0.41 0.32 0.07 0.09 0.38 0.60 0.11 0.05 0.02 0.01 0.03 0.03 0.05 0.05 0.05 0.04 0.02
0.74 0.47 0.57 0.70 0.23 0.03 0.04 0.07 0.04 0.01 0.01 0.03 0.04 0.04 0.02 0.02 0.01 0.00 0.00 0.00 0.00 0.02 0.13 0.33 0.25 0.11 0.12 0.22 0.58 0.38 0.14 0.10 0.39 0.19 0.26 0.09 0.04 0.04 0.04 0.05 0.05 0.04 0.03 0.03 0.03
0.81 0.29 0.09 0.03 0.02 0.01 0.01 0.04 0.04 0.02 0.03 0.04 0.01 0.01 0.03 0.03 0.01 0.00 0.00 0.00 0.01 0.03 0.13 0.31 0.38 0.33 0.34 0.25 0.35 0.27 0.07 0.11 0.12 0.04 0.05 0.02 0.04 0.05 0.05 0.03 0.08 0.06 0.02 0.01 0.00
0.86 0.29 0.04 0.02 0.01 0.00 0.00 0.02 0.02 0.02 0.03 0.00 0.01 0.02 0.03 0.01 0.01 0.01 0.01 0.01 0.01 0.07 0.26 0.41 0.47 0.64 0.48 0.18 0.19 0.26 0.08 0.06 0.09 0.07 0.03 0.04 0.05 0.07 0.25 0.45 0.39 0.10 0.04 0.02 0.02

GFSSW_prec_precacc_099.txt.gz
Total_Precipitation_Accumulation
0.23 0.30 0.35 0.36 0.38 0.41 0.43 0.51 0.69 0.75 0.65 0.53 0.52 0.56 0.48 0.42 0.47 0.41 0.14 0.04 0.08 0.21 0.41 0.13 0.06 0.08 0.16 0.34 0.56 0.70 0.92 0.44 0.10 0.04 0.04 0.00 0.00 0.02 0.01 0.00 0.01 0.01 0.05 0.04 0.11
0.29 0.33 0.37 0.42 0.41 0.40 0.43 0.51 0.56 0.64 0.66 0.56 0.50 0.59 0.71 0.70 0.34 0.15 0.05 0.05 0.18 0.44 0.36 0.21 0.10 0.14 0.19 0.32 0.76 1.09 0.91 0.30 0.07 0.07 0.07 0.02 0.00 0.01 0.01 0.02 0.06 0.14 0.12 0.06 0.19
0.40 0.43 0.43 0.45 0.50 0.52 0.57 0.51 0.51 0.50 0.47 0.50 0.58 0.57 0.80 0.82 0.50 0.09 0.12 0.16 0.46 0.75 0.47 0.23 0.29 0.34 0.17 0.32 0.62 0.78 0.46 0.05 0.04 0.17 0.25 0.15 0.02 0.02 0.02 0.05 0.01 0.07 0.12 0.12 0.30
0.47 0.55 0.53 0.47 0.49 0.50 0.52 0.50 0.45 0.45 0.49 0.47 0.56 0.46 0.57 0.95 0.48 0.19 0.08 0.18 0.49 1.03 0.82 0.36 0.31 0.37 0.20 0.16 0.30 0.45 0.12 0.10 0.15 0.19 0.31 0.21 0.12 0.11 0.09 0.02 0.01 0.05 0.16 0.24 0.23
0.67 0.73 0.66 0.48 0.47 0.44 0.41 0.37 0.37 0.43 0.39 0.52 0.66 0.58 0.47 0.65 0.29 0.26 0.20 0.17 0.55 1.29 0.84 0.51 0.32 0.35 0.20 0.06 0.23 0.31 0.19 0.19 0.27 0.27 0.20 0.22 0.36 0.14 0.05 0.03 0.04 0.11 0.24 0.22 0.28
0.71 0.71 0.62 0.51 0.50 0.45 0.34 0.41 0.35 0.42 0.38 0.46 0.61 0.84 0.45 0.29 0.10 0.19 0.29 0.30 0.46 1.02 0.86 0.85 0.38 0.41 0.19 0.12 0.17 0.10 0.35 0.43 0.54 0.43 0.50 0.39 0.32 0.30 0.08 0.07 0.18 0.26 0.32 0.23 0.21
0.68 0.71 0.56 0.45 0.53 0.50 0.46 0.40 0.48 0.49 0.46 0.60 0.79 0.57 0.48 0.16 0.09 0.21 0.30 0.44 0.65 0.88 0.71 0.87 0.43 0.84 0.42 0.18 0.06 0.18 0.53 0.72 0.68 0.60 0.55 0.63 0.52 0.36 0.15 0.13 0.20 0.29 0.42 0.54 0.32
0.74 0.68 0.55 0.57 0.55 0.51 0.36 0.37 0.39 0.37 0.49 0.76 0.81 0.62 0.27 0.08 0.06 0.16 0.24 0.54 0.75 0.93 0.92 1.22 0.87 0.92 0.63 0.21 0.18 0.29 0.53 0.89 0.57 0.75 0.71 0.89 0.58 0.16 0.23 0.23 0.21 0.22 0.33 0.58 0.50
0.63 0.69 0.64 0.56 0.49 0.54 0.59 0.59 0.55 0.35 0.63 0.96 0.85 0.62 0.16 0.12 0.12 0.16 0.15 0.47 0.92 1.26 1.48 1.95 1.89 1.08 0.85 0.47 0.55 0.41 0.37 0.50 0.62 0.65 0.93 0.89 0.55 0.34 0.20 0.20 0.14 0.19 0.17 0.26 0.67
0.54 0.59 0.56 0.51 0.50 0.75 1.11 0.95 1.18 1.06 0.83 0.91 0.83 0.69 0.24 0.04 0.13 0.18 0.21 0.65 1.35 1.88 2.36 2.73 2.90 1.36 0.99 0.69 0.76 0.20 0.15 0.25 0.49 0.46 0.88 0.76 0.65 0.56 0.29 0.13 0.13 0.11 0.10 0.09 0.20
0.54 0.55 0.53 0.55 0.73 1.24 1.74 1.58 1.28 1.53 1.16 0.78 0.57 0.32 0.24 0.16 0.26 0.34 0.47 1.19 2.04 2.56 2.22 2.22 2.21 1.07 0.58 0.22 0.27 0.22 0.15 0.19 0.25 0.28 0.61 0.68 0.39 0.51 0.53 0.27 0.19 0.16 0.06 0.04 0.07
0.49 0.62 0.61 0.66 1.12 1.65 1.60 1.92 1.12 1.13 1.38 0.62 0.32 0.29 0.14 0.26 0.44 0.49 1.03 2.41 2.05 2.42 1.83 1.58 1.11 0.45 0.34 0.40 0.37 0.28 0.21 0.28 0.35 0.58 0.57 0.66 0.50 0.33 0.55 0.38 0.29 0.27 0.14 0.07 0.05
0.58 0.66 0.74 0.84 1.16 1.76 1.24 1.65 1.12 0.80 1.26 1.03 0.65 0.45 0.28 0.54 0.71 0.76 1.61 2.47 1.71 1.73 1.52 0.91 0.59 0.45 0.36 0.44 0.60 0.33 0.28 0.24 0.54 0.50 0.56 0.63 0.61 0.25 0.22 0.24 0.25 0.27 0.38 0.16 0.10
0.69 0.70 0.88 1.12 1.49 1.12 1.64 1.12 1.20 0.88 1.18 1.43 1.24 0.68 0.57 0.83 1.12 0.85 1.31 1.90 1.91 1.66 1.68 1.11 0.57 0.48 0.37 0.63 0.58 0.35 0.24 0.33 0.51 0.68 0.55 0.38 0.44 0.14 0.09 0.16 0.21 0.14 0.33 0.33 0.18
0.69 0.78 0.93 1.45 1.41 1.14 1.45 1.41 1.26 1.05 1.69 1.59 1.24 0.65 0.57 0.80 0.99 1.01 1.09 1.56 1.33 1.61 1.64 1.16 0.65 0.65 0.54 0.62 0.26 0.31 0.27 0.33 0.44 0.58 0.52 0.27 0.42 0.10 0.09 0.08 0.08 0.07 0.11 0.38 0.40
1.10 1.23 1.35 1.27 1.09 0.95 0.95 1.43 1.52 1.21 1.77 1.41 0.96 0.80 0.84 0.60 0.53 0.65 1.11 1.36 1.43 1.40 1.34 0.86 0.60 0.77 0.48 0.32 0.22 0.66 0.62 0.58 0.38 0.49 0.74 0.42 0.29 0.13 0.10 0.10 0.12 0.10 0.12 0.30 0.58
1.54 1.82 1.85 1.48 1.06 0.72 1.17 1.49 1.59 1.15 0.83 0.54 0.42 0.32 0.28 0.25 0.37 0.42 0.71 0.95 1.27 1.58 1.78 1.36 0.83 0.66 0.43 0.53 0.27 0.47 0.70 0.97 0.89 0.93 0.43 0.29 0.53 0.25 0.01 0.05 0.11 0.16 0.05 0.15 0.40
1.61 1.49 1.25 1.03 0.93 1.36 1.30 1.10 1.47 0.98 0.43 0.21 0.11 0.23 0.19 0.20 0.25 0.24 0.49 0.61 0.55 0.47 0.95 1.35 1.43 0.79 0.56 0.28 0.22 0.14 0.38 0.82 0.72 0.50 0.35 0.51 0.70 0.33 0.04 0.03 0.10 0.19 0.06 0.04 0.26
1.84 1.52 1.42 1.14 1.03 1.56 1.22 1.04 1.23 0.71 0.21 0.11 0.21 0.32 0.42 0.18 0.14 0.31 0.38 0.24 0.17 0.21 0.55 0.78 0.92 0.42 0.30 0.15 0.25 0.36 0.41 0.24 0.49 0.44 0.68 0.51 0.54 0.54 0.27 0.04 0.14 0.19 0.07 0.06 0.17
1.48 1.67 1.38 1.16 1.13 1.39 1.21 0.93 0.63 0.10 0.00 0.02 0.11 0.09 0.16 0.16 0.18 0.18 0.27 0.24 0.23 0.26 0.21 0.16 0.49 0.27 0.24 0.33 0.26 0.20 0.13 0.21 0.53 0.49 0.45 0.28 0.19 0.57 0.49 0.49 0.43 0.28 0.13 0.11 0.17
1.42 1.82 1.79 1.15 1.42 1.51 1.27 0.95 0.34 0.03 0.01 0.01 0.01 0.02 0.11 0.20 0.06 0.04 0.06 0.07 0.08 0.08 0.01 0.02 0.30 0.25 0.23 0.35 0.17 0.05 0.17 0.14 0.17 0.12 0.16 0.09 0.33 0.60 0.55 0.64 0.54 0.41 0.46 0.43 0.50
1.74 1.70 1.84 1.27 1.58 1.23 0.76 0.46 0.16 0.04 0.01 0.00 0.00 0.01 0.01 0.02 0.01 0.01 0.01 0.02 0.02 0.01 0.01 0.00 0.13 0.16 0.09 0.01 0.02 0.06 0.02 0.06 0.22 0.07 0.12 0.12 0.24 0.38 0.43 0.49 0.56 0.52 0.62 0.66 0.73
1.53 1.84 1.97 0.94 0.76 0.57 0.30 0.08 0.09 0.06 0.03 0.00 0.00 0.00 0.01 0.01 0.01 0.01 0.00 0.00 0.00 0.00 0.01 0.01 0.15 0.21 0.22 0.19 0.11 0.17 0.05 0.09 0.18 0.37 0.26 0.14 0.05 0.04 0.12 0.19 0.30 0.36 0.38 0.44 0.45
1.25 1.75 2.30 1.30 0.36 0.09 0.14 0.12 0.06 0.03 0.01 0.01 0.02 0.02 0.01 0.01 0.00 0.00 0.00 0.00 0.00 0.00 0.02 0.11 0.17 0.12 0.13 0.31 0.41 0.32 0.07 0.09 0.38 0.60 0.11 0.05 0.02 0.01 0.03 0.03 0.06 0.07 0.07 0.06 0.02
0.74 0.47 0.57 0.70 0.23 0.03 0.04 0.07 0.04 0.01 0.01 0.03 0.04 0.04 0.02 0.02 0.01 0.00 0.00 0.00 0.00 0.02 0.13 0.33 0.25 0.11 0.12 0.22 0.58 0.38 0.14 0.10 0.39 0.19 0.26 0.09 0.04 0.04 0.04 0.05 0.05 0.04 0.03 0.03 0.03
0.81 0.29 0.09 0.03 0.02 0.01 0.01 0.04 0.04 0.02 0.03 0.04 0.01 0.01 0.03 0.03 0.01 0.00 0.00 0.00 0.01 0.03 0.13 0.31 0.38 0.33 0.34 0.25 0.35 0.27 0.07 0.11 0.12 0.04 0.05 0.02 0.04 0.05 0.05 0.03 0.08 0.06 0.02 0.01 0.00
0.86 0.29 0.04 0.02 0.01 0.00 0.00 0.02 0.02 0.02 0.03 0.00 0.01 0.02 0.03 0.01 0.01 0.01 0.01 0.01 0.01 0.07 0.26 0.41 0.47 0.64 0.48 0.18 0.19 0.26 0.08 0.06 0.09 0.07 0.03 0.04 0.05 0.07 0.25 0.45 0.39 0.10 0.04 0.02 0.02

GFSSW_prec_precacc_102.txt.gz
Total_Precipitation_Accumulation
0.25 0.31 0.35 0.36 0.38 0.42 0.44 0.51 0.69 0.75 0.73 0.79 0.63 0.56 0.48 0.42 0.47 0.41 0.14 0.04 0.08 0.21 0.41 0.13 0.06 0.08 0.16 0.34 0.56 0.70 0.92 0.44 0.10 0.04 0.04 0.00 0.00 0.02 0.01 0.00 0.01 0.01 0.05 0.04 0.11
0.33 0.37 0.39 0.42 0.41 0.40 0.43 0.51 0.56 0.64 0.67 0.69 1.03 0.66 0.71 0.70 0.34 0.15 0.05 0.05 0.18 0.44 0.36 0.21 0.10 0.14 0.19 0.32 0.76 1.09 0.91 0.30 0.07 0.07 0.07 0.02 0.00 0.01 0.01 0.02 0.06 0.14 0.12 0.06 0.19
0.41 0.47 0.48 0.46 0.50 0.52 0.57 0.51 0.51 0.50 0.47 0.52 0.89 0.89 0.84 0.82 0.50 0.09 0.12 0.16 0.46 0.75 0.47 0.23 0.29 0.34 0.17 0.32 0.62 0.78 0.46 0.05 0.04 0.17 0.25 0.15 0.02 0.02 0.02 0.05 0.01 0.07 0.12 0.12 0.30
0.48 0.65 0.66 0.54 0.50 0.50 0.52 0.50 0.45 0.45 0.49 0.47 0.73 0.83 0.61 0.95 0.48 0.19 0.08 0.18 0.49 1.03 0.82 0.36 0.31 0.37 0.20 0.16 0.30 0.45 0.12 0.10 0.15 0.19 0.31 0.21 0.12 0.11 0.09 0.02 0.01 0.05 0.16 0.24 0.23
0.69 0.80 0.76 0.56 0.52 0.45 0.41 0.37 0.37 0.43 0.39 0.53 0.86 0.69 0.58 0.65 0.29 0.26 0.20 0.17 0.55 1.29 0.84 0.51 0.32 0.35 0.20 0.06 0.23 0.31 0.19 0.19 0.27 0.27 0.20 0.22 0.36 0.14 0.05 0.03 0.04 0.11 0.24 0.22 0.28
0.73 0.76 0.69 0.59 0.56 0.47 0.34 0.41 0.35 0.42 0.38 0.47 0.94 0.88 0.52 0.34 0.10 0.19 0.29 0.30 0.46 1.02 0.86 0.85 0.38 0.41 0.19 0.12 0.17 0.10 0.35 0.43 0.54 0.43 0.50 0.39 0.32 0.30 0.08 0.07 0.18 0.26 0.32 0.23 0.21
0.69 0.74 0.63 0.51 0.56 0.51 0.46 0.40 0.48 0.50 0.46 0.63 1.12 0.75 0.64 0.23 0.09 0.21 0.30 0.44 0.65 0.88 0.71 0.87 0.43 0.84 0.42 0.18 0.06 0.18 0.53 0.72 0.68 0.60 0.55 0.63 0.52 0.36 0.15 0.13 0.20 0.29 0.42 0.54 0.32
0.74 0.68 0.57 0.59 0.55 0.51 0.36 0.37 0.39 0.37 0.49 0.85 1.02 0.90 0.37 0.15 0.06 0.16 0.24 0.54 0.75 0.93 0.92 1.22 0.87 0.92 0.63 0.21 0.18 0.29 0.53 0.89 0.57 0.75 0.71 0.89 0.58 0.16 0.23 0.23 0.21 0.22 0.33 0.58 0.50
0.63 0.70 0.72 0.59 0.49 0.54 0.59 0.59 0.55 0.35 0.64 1.23 0.99 0.78 0.22 0.14 0.12 0.16 0.15 0.47 0.92 1.26 1.48 1.95 1.89 1.08 0.85 0.47 0.55 0.41 0.37 0.50 0.62 0.65 0.93 0.89 0.55 0.34 0.20 0.20 0.14 0.19 0.17 0.26 0.67
0.54 0.59 0.59 0.51 0.50 0.75 1.13 1.00 1.19 1.09 0.97 1.23 0.95 0.87 0.25 0.04 0.13 0.18 0.21 0.65 1.35 1.88 2.36 2.73 2.90 1.36 0.99 0.69 0.76 0.20 0.15 0.25 0.49 0.46 0.88 0.76 0.65 0.56 0.29 0.13 0.13 0.11 0.10 0.09 0.20
0.55 0.55 0.54 0.55 0.73 1.25 1.78 1.62 1.30 1.70 1.33 1.04 0.70 0.43 0.24 0.16 0.26 0.34 0.47 1.19 2.04 2.56 2.22 2.22 2.21 1.07 0.58 0.22 0.27 0.22 0.15 0.19 0.25 0.28 0.61 0.68 0.39 0.51 0.53 0.27 0.19 0.16 0.06 0.04 0.07
0.49 0.62 0.62 0.67 1.12 1.66 1.62 1.93 1.17 1.33 1.61 0.72 0.35 0.31 0.14 0.26 0.44 0.49 1.03 2.41 2.05 2.42 1.83 1.58 1.11 0.45 0.34 0.40 0.37 0.28 0.21 0.28 0.35 0.58 0.57 0.66 0.50 0.33 0.55 0.38 0.29 0.27 0.14 0.07 0.05
0.58 0.66 0.74 0.84 1.16 1.83 1.32 1.70 1.21 0.82 1.37 1.24 0.71 0.49 0.28 0.54 0.71 0.76 1.61 2.47 1.71 1.73 1.52 0.91 0.59 0.45 0.36 0.44 0.60 0.33 0.28 0.24 0.54 0.50 0.56 0.63 0.61 0.25 0.22 0.24 0.25 0.27 0.38 0.16 0.10
0.69 0.70 0.88 1.12 1.50 1.21 1.85 1.22 1.27 0.90 1.20 1.56 1.27 0.68 0.57 0.83 1.12 0.85 1.31 1.90 1.91 1.66 1.68 1.11 0.57 0.48 0.37 0.63 0.58 0.35 0.24 0.33 0.51 0.69 0.56 0.39 0.45 0.14 0.09 0.16 0.21 0.14 0.33 0.33 0.18
0.69 0.78 0.93 1.45 1.42 1.26 1.62 1.47 1.27 1.06 1.71 1.66 1.26 0.65 0.57 0.80 0.99 1.01 1.09 1.56 1.33 1.61 1.64 1.16 0.65 0.65 0.54 0.62 0.26 0.31 0.27 0.33 0.44 0.59 0.53 0.27 0.42 0.10 0.09 0.08 0.08 0.08 0.11 0.39 0.43
1.10 1.23 1.35 1.27 1.09 0.99 0.99 1.45 1.52 1.21 1.79 1.42 0.96 0.80 0.84 0.60 0.53 0.65 1.11 1.36 1.43 1.40 1.34 0.86 0.60 0.77 0.48 0.32 0.22 0.66 0.62 0.58 0.38 0.49 0.74 0.42 0.29 0.13 0.10 0.11 0.16 0.24 0.13 0.31 0.63
1.54 1.82 1.85 1.48 1.06 0.72 1.17 1.49 1.59 1.16 0.84 0.54 0.42 0.32 0.29 0.25 0.37 0.42 0.71 0.95 1.27 1.58 1.78 1.36 0.83 0.66 0.43 0.53 0.27 0.47 0.70 0.97 0.89 0.93 0.43 0.29 0.53 0.25 0.01 0.05 0.14 0.32 0.09 0.16 0.43
1.61 1.49 1.25 1.03 0.93 1.36 1.30 1.10 1.48 0.99 0.44 0.21 0.11 0.23 0.19 0.20 0.25 0.25 0.49 0.61 0.55 0.47 0.95 1.35 1.43 0.79 0.56 0.28 0.22 0.14 0.38 0.83 0.73 0.50 0.35 0.52 0.71 0.35 0.05 0.03 0.11 0.26 0.10 0.05 0.32
1.84 1.52 1.42 1.14 1.03 1.56 1.22 1.04 1.23 0.71 0.21 0.11 0.21 0.32 0.42 0.18 0.14 0.31 0.38 0.24 0.17 0.21 0.55 0.78 0.92 0.42 0.30 0.15 0.25 0.36 0.41 0.25 0.50 0.44 0.70 0.52 0.56 0.54 0.28 0.04 0.16 0.23 0.13 0.10 0.21
1.48 1.67 1.38 1.16 1.13 1.39 1.21 0.93 0.63 0.10 0.00 0.02 0.11 0.09 0.16 0.16 0.18 0.18 0.27 0.24 0.23 0.26 0.21 0.16 0.49 0.27 0.24 0.33 0.26 0.20 0.13 0.21 0.53 0.50 0.45 0.28 0.20 0.62 0.51 0.50 0.45 0.33 0.24 0.17 0.24
1.42 1.82 1.79 1.15 1.42 1.51 1.27 0.95 0.34 0.03 0.01 0.01 0.01 0.02 0.11 0.20 0.06 0.04 0.06 0.07 0.08 0.08 0.01 0.02 0.30 0.25 0.23 0.35 0.17 0.05 0.17 0.14 0.17 0.13 0.17 0.11 0.34 0.66 0.58 0.66 0.57 0.44 0.59 0.62 0.73
1.74 1.70 1.84 1.27 1.58 1.23 0.76 0.46 0.16 0.04 0.01 0.00 0.00 0.01 0.01 0.02 0.01 0.01 0.01 0.02 0.02 0.01 0.01 0.00 0.13 0.16 0.09 0.01 0.02 0.06 0.02 0.06 0.22 0.07 0.12 0.13 0.25 0.39 0.44 0.51 0.61 0.61 0.75 0.84 0.93
1.53 1.84 1.97 0.94 0.76 0.57 0.30 0.08 0.09 0.06 0.03 0.00 0.00 0.00 0.01 0.01 0.01 0.01 0.00 0.00 0.00 0.00 0.01 0.01 0.15 0.21 0.22 0.19 0.11 0.17 0.05 0.09 0.18 0.37 0.26 0.14 0.05 0.04 0.12 0.20 0.31 0.39 0.45 0.50 0.52
1.25 1.75 2.30 1.30 0.36 0.09 0.14 0.12 0.06 0.03 0.01 0.01 0.02 0.02 0.01 0.01 0.00 0.00 0.00 0.00 0.00 0.00 0.02 0.11 0.17 0.12 0.13 0.31 0.41 0.32 0.07 0.09 0.38 0.60 0.11 0.05 0.02 0.01 0.03 0.03 0.06 0.07 0.07 0.06 0.03
0.74 0.47 0.57 0.70 0.23 0.03 0.04 0.07 0.04 0.01 0.01 0.03 0.04 0.04 0.02 0.02 0.01 0.00 0.00 0.00 0.00 0.02 0.13 0.33 0.25 0.11 0.12 0.22 0.58 0.38 0.14 0.10 0.39 0.19 0.26 0.09 0.04 0.04 0.04 0.05 0.05 0.04 0.03 0.03 0.03
0.81 0.29 0.09 0.03 0.02 0.01 0.01 0.04 0.04 0.02 0.03 0.04 0.01 0.01 0.03 0.03 0.01 0.00 0.00 0.00 0.01 0.03 0.13 0.31 0.38 0.33 0.34 0.25 0.35 0.27 0.07 0.11 0.12 0.04 0.05 0.02 0.04 0.05 0.05 0.03 0.08 0.06 0.02 0.01 0.00
0.86 0.29 0.04 0.02 0.01 0.00 0.00 0.02 0.02 0.02 0.03 0.00 0.01 0.02 0.03 0.01 0.01 0.01 0.01 0.01 0.01 0.07 0.26 0.41 0.47 0.64 0.48 0.18 0.19 0.26 0.08 0.06 0.09 0.07 0.03 0.04 0.05 0.07 0.25 0.45 0.39 0.10 0.04 0.02 0.02

GFSSW_prec_precacc_105.txt.gz
Total_Precipitation_Accumulation
0.33 0.38 0.37 0.36 0.38 0.42 0.44 0.51 0.69 0.77 0.80 0.88 1.07 0.60 0.48 0.42 0.47 0.41 0.14 0.04 0.08 0.21 0.41 0.13 0.06 0.08 0.16 0.34 0.56 0.70 0.92 0.44 0.10 0.04 0.04 0.00 0.00 0.02 0.01 0.00 0.01 0.01 0.05 0.04 0.11
0.42 0.48 0.52 0.48 0.42 0.40 0.43 0.51 0.56 0.64 0.69 0.75 1.61 0.90 0.71 0.70 0.34 0.15 0.05 0.05 0.18 0.44 0.36 0.21 0.10 0.14 0.19 0.32 0.76 1.09 0.91 0.30 0.07 0.07 0.07 0.02 0.00 0.01 0.01 0.02 0.06 0.14 0.12 0.06 0.19
0.44 0.52 0.62 0.57 0.55 0.53 0.57 0.51 0.51 0.50 0.47 0.57 1.12 1.31 0.86 0.82 0.50 0.09 0.12 0.16 0.46 0.75 0.47 0.23 0.29 0.34 0.17 0.32 0.62 0.78 0.46 0.05 0.04 0.17 0.25 0.15 0.02 0.02 0.02 0.05 0.01 0.07 0.12 0.12 0.30
0.51 0.69 0.73 0.61 0.55 0.51 0.52 0.50 0.45 0.45 0.49 0.48 0.93 1.21 0.77 0.95 0.48 0.19 0.08 0.18 0.49 1.03 0.82 0.36 0.31 0.37 0.20 0.16 0.30 0.45 0.12 0.10 0.15 0.19 0.31 0.21 0.12 0.11 0.09 0.02 0.01 0.05 0.16 0.24 0.23
0.70 0.85 0.80 0.59 0.62 0.51 0.41 0.37 0.37 0.43 0.39 0.54 1.09 1.00 0.74 0.72 0.29 0.26 0.20 0.17 0.55 1.29 0.84 0.51 0.32 0.35 0.20 0.06 0.23 0.31 0.19 0.19 0.27 0.27 0.20 0.22 0.36 0.14 0.05 0.03 0.04 0.11 0.24 0.22 0.28
0.74 0.80 0.72 0.62 0.69 0.55 0.34 0.41 0.36 0.43 0.38 0.49 1.04 1.04 0.65 0.46 0.10 0.19 0.29 0.30 0.46 1.02 0.86 0.85 0.38 0.41 0.19 0.12 0.17 0.10 0.35 0.43 0.54 0.43 0.50 0.39 0.32 0.30 0.08 0.07 0.18 0.26 0.32 0.23 0.21
0.70 0.75 0.68 0.56 0.68 0.55 0.46 0.40 0.49 0.53 0.46 0.70 1.18 0.87 0.68 0.35 0.09 0.21 0.30 0.44 0.65 0.88 0.71 0.87 0.43 0.84 0.42 0.18 0.06 0.18 0.53 0.72 0.68 0.60 0.55 0.63 0.52 0.36 0.15 0.13 0.20 0.29 0.42 0.54 0.32
0.75 0.69 0.59 0.64 0.58 0.51 0.36 0.37 0.39 0.40 0.49 0.90 1.08 0.96 0.40 0.19 0.07 0.16 0.24 0.54 0.75 0.93 0.92 1.22 0.87 0.92 0.63 0.21 0.18 0.29 0.53 0.89 0.57 0.75 0.71 0.89 0.58 0.16 0.23 0.23 0.21 0.22 0.33 0.58 0.50
0.64 0.73 0.75 0.60 0.49 0.54 0.59 0.59 0.55 0.36 0.65 1.37 1.01 0.86 0.35 0.19 0.12 0.16 0.15 0.47 0.92 1.26 1.48 1.95 1.89 1.08 0.85 0.47 0.55 0.41 0.37 0.50 0.62 0.65 0.93 0.89 0.55 0.34 0.20 0.20 0.14 0.19 0.17 0.26 0.67
0.56 0.63 0.62 0.52 0.50 0.77 1.18 1.05 1.26 1.14 1.13 1.41 0.99 1.02 0.38 0.08 0.13 0.18 0.21 0.65 1.35 1.88 2.36 2.73 2.90 1.36 0.99 0.69 0.76 0.20 0.15 0.25 0.49 0.46 0.88 0.76 0.65 0.56 0.29 0.13 0.13 0.11 0.10 0.09 0.20
0.55 0.56 0.55 0.55 0.73 1.27 1.87 1.67 1.35 1.88 1.59 1.24 0.80 0.47 0.29 0.16 0.26 0.34 0.47 1.19 2.04 2.56 2.22 2.22 2.21 1.07 0.58 0.22 0.27 0.22 0.15 0.19 0.25 0.28 0.61 0.68 0.39 0.51 0.53 0.27 0.19 0.16 0.06 0.04 0.07
0.49 0.62 0.64 0.67 1.13 1.67 1.62 1.95 1.33 1.53 1.92 0.94 0.41 0.33 0.15 0.26 0.44 0.49 1.03 2.41 2.05 2.42 1.83 1.58 1.11 0.45 0.34 0.40 0.37 0.28 0.21 0.28 0.35 0.58 0.57 0.66 0.50 0.33 0.55 0.38 0.29 0.27 0.14 0.07 0.05
0.58 0.67 0.75 0.84 1.16 1.85 1.35 1.83 1.34 0.87 1.51 1.43 0.74 0.49 0.28 0.54 0.71 0.76 1.61 2.47 1.71 1.73 1.52 0.91 0.59 0.45 0.36 0.44 0.60 0.33 0.28 0.24 0.54 0.50 0.56 0.63 0.61 0.25 0.22 0.24 0.25 0.27 0.38 0.16 0.10
0.69 0.70 0.89 1.13 1.50 1.25 1.94 1.32 1.31 0.91 1.22 1.67 1.28 0.68 0.57 0.83 1.12 0.85 1.31 1.90 1.91 1.66 1.68 1.11 0.57 0.48 0.37 0.63 0.58 0.35 0.24 0.33 0.51 0.69 0.56 0.39 0.45 0.14 0.09 0.16 0.21 0.14 0.33 0.33 0.18
0.69 0.78 0.94 1.45 1.42 1.27 1.64 1.48 1.27 1.06 1.73 1.71 1.26 0.65 0.57 0.80 0.99 1.01 1.09 1.56 1.33 1.61 1.64 1.16 0.65 0.65 0.54 0.62 0.26 0.31 0.27 0.33 0.44 0.60 0.54 0.27 0.42 0.10 0.09 0.08 0.08 0.10 0.12 0.39 0.44
1.10 1.23 1.35 1.27 1.09 0.99 0.99 1.45 1.52 1.21 1.81 1.43 0.96 0.80 0.84 0.60 0.53 0.65 1.11 1.36 1.43 1.40 1.34 0.86 0.60 0.77 0.48 0.32 0.22 0.66 0.62 0.58 0.38 0.49 0.74 0.42 0.29 0.13 0.10 0.11 0.16 0.28 0.15 0.32 0.66
1.54 1.82 1.85 1.48 1.06 0.72 1.17 1.49 1.59 1.17 0.84 0.54 0.42 0.32 0.29 0.25 0.37 0.42 0.71 0.95 1.27 1.58 1.78 1.36 0.83 0.66 0.43 0.53 0.27 0.47 0.70 0.97 0.89 0.93 0.43 0.29 0.53 0.25 0.01 0.05 0.14 0.34 0.10 0.17 0.53
1.61 1.49 1.25 1.03 0.93 1.36 1.30 1.10 1.48 1.00 0.44 0.21 0.11 0.23 0.19 0.20 0.25 0.25 0.49 0.61 0.55 0.47 0.95 1.35 1.43 0.79 0.56 0.28 0.22 0.14 0.38 0.84 0.73 0.50 0.35 0.52 0.71 0.35 0.05 0.03 0.12 0.27 0.12 0.09 0.37
1.84 1.52 1.42 1.14 1.03 1.56 1.22 1.04 1.23 0.71 0.21 0.11 0.21 0.32 0.42 0.18 0.14 0.31 0.38 0.24 0.17 0.21 0.55 0.78 0.92 0.42 0.30 0.15 0.25 0.36 0.41 0.25 0.50 0.45 0.70 0.52 0.56 0.54 0.28 0.05 0.19 0.25 0.22 0.18 0.25
1.48 1.67 1.38 1.16 1.13 1.39 1.21 0.93 0.63 0.10 0.00 0.02 0.11 0.09 0.16 0.16 0.18 0.18 0.27 0.24 0.23 0.26 0.21 0.16 0.49 0.27 0.24 0.33 0.26 0.20 0.13 0.21 0.53 0.50 0.45 0.28 0.20 0.62 0.51 0.50 0.46 0.36 0.32 0.27 0.38
1.42 1.82 1.79 1.15 1.42 1.51 1.27 0.95 0.34 0.03 0.01 0.01 0.01 0.02 0.11 0.20 0.06 0.04 0.06 0.07 0.08 0.08 0.01 0.02 0.30 0.25 0.23 0.35 0.17 0.05 0.17 0.14 0.17 0.13 0.17 0.11 0.34 0.66 0.59 0.67 0.58 0.47 0.65 0.74 0.84
1.74 1.70 1.84 1.27 1.58 1.23 0.76 0.46 0.16 0.04 0.01 0.00 0.00 0.01 0.01 0.02 0.01 0.01 0.01 0.02 0.02 0.01 0.01 0.00 0.13 0.16 0.09 0.01 0.02 0.06 0.02 0.06 0.22 0.07 0.12 0.13 0.25 0.39 0.44 0.51 0.61 0.62 0.78 0.88 0.99
1.53 1.84 1.97 0.94 0.76 0.57 0.30 0.08 0.09 0.06 0.03 0.00 0.00 0.00 0.01 0.01 0.01 0.01 0.00 0.00 0.00 0.00 0.01 0.01 0.15 0.21 0.22 0.19 0.11 0.17 0.05 0.09 0.18 0.37 0.26 0.14 0.05 0.04 0.12 0.20 0.31 0.39 0.45 0.51 0.54
1.25 1.75 2.30 1.30 0.36 0.09 0.14 0.12 0.06 0.03 0.01 0.01 0.02 0.02 0.01 0.01 0.00 0.00 0.00 0.00 0.00 0.00 0.02 0.11 0.17 0.12 0.13 0.31 0.41 0.32 0.07 0.09 0.38 0.60 0.11 0.05 0.02 0.01 0.03 0.03 0.06 0.07 0.07 0.06 0.03
0.74 0.47 0.57 0.70 0.23 0.03 0.04 0.07 0.04 0.01 0.01 0.03 0.04 0.04 0.02 0.02 0.01 0.00 0.00 0.00 0.00 0.02 0.13 0.33 0.25 0.11 0.12 0.22 0.58 0.38 0.14 0.10 0.39 0.19 0.26 0.09 0.04 0.04 0.04 0.05 0.05 0.04 0.03 0.03 0.03
0.81 0.29 0.09 0.03 0.02 0.01 0.01 0.04 0.04 0.02 0.03 0.04 0.01 0.01 0.03 0.03 0.01 0.00 0.00 0.00 0.01 0.03 0.13 0.31 0.38 0.33 0.34 0.25 0.35 0.27 0.07 0.11 0.12 0.04 0.05 0.02 0.04 0.05 0.05 0.03 0.08 0.06 0.02 0.01 0.00
0.86 0.29 0.04 0.02 0.01 0.00 0.00 0.02 0.02 0.02 0.03 0.00 0.01 0.02 0.03 0.01 0.01 0.01 0.01 0.01 0.01 0.07 0.26 0.41 0.47 0.64 0.48 0.18 0.19 0.26 0.08 0.06 0.09 0.07 0.03 0.04 0.05 0.07 0.25 0.45 0.39 0.10 0.04 0.02 0.02

GFSSW_prec_precacc_108.txt.gz
Total_Precipitation_Accumulation
0.33 0.40 0.43 0.42 0.39 0.43 0.47 0.54 0.69 0.77 0.80 0.90 1.26 0.66 0.48 0.42 0.47 0.41 0.14 0.04 0.08 0.21 0.41 0.13 0.06 0.08 0.16 0.34 0.56 0.70 0.92 0.44 0.10 0.04 0.04 0.00 0.00 0.02 0.01 0.00 0.01 0.01 0.05 0.04 0.11
0.42 0.50 0.58 0.57 0.49 0.41 0.44 0.53 0.56 0.64 0.70 0.76 1.81 1.23 0.72 0.70 0.34 0.15 0.05 0.05 0.18 0.44 0.36 0.21 0.10 0.14 0.19 0.32 0.76 1.09 0.91 0.30 0.07 0.07 0.07 0.02 0.00 0.01 0.01 0.02 0.06 0.14 0.12 0.06 0.19
0.45 0.55 0.66 0.64 0.64 0.60 0.58 0.51 0.51 0.50 0.47 0.59 1.22 1.71 1.01 0.82 0.50 0.09 0.12 0.16 0.46 0.75 0.47 0.23 0.29 0.34 0.17 0.32 0.62 0.78 0.46 0.05 0.04 0.17 0.25 0.15 0.02 0.02 0.02 0.05 0.01 0.07 0.12 0.12 0.30
0.51 0.71 0.75 0.67 0.64 0.62 0.55 0.50 0.45 0.45 0.49 0.51 1.15 1.39 0.93 0.96 0.48 0.19 0.08 0.18 0.49 1.03 0.82 0.36 0.31 0.37 0.20 0.16 0.30 0.45 0.12 0.10 0.15 0.19 0.31 0.21 0.12 0.11 0.09 0.02 0.01 0.05 0.16 0.24 0.23
0.70 0.87 0.81 0.63 0.66 0.57 0.45 0.37 0.37 0.43 0.39 0.61 1.34 1.22 0.90 0.75 0.29 0.26 0.20 0.17 0.55 1.29 0.84 0.51 0.32 0.35 0.20 0.06 0.23 0.31 0.19 0.19 0.27 0.27 0.20 0.22 0.36 0.14 0.05 0.03 0.04 0.11 0.24 0.22 0.28
0.74 0.81 0.73 0.63 0.70 0.67 0.42 0.42 0.36 0.43 0.38 0.52 1.37 1.32 0.82 0.54 0.10 0.19 0.29 0.30 0.46 1.02 0.86 0.85 0.38 0.41 0.19 0.12 0.17 0.10 0.35 0.43 0.54 0.43 0.50 0.39 0.32 0.30 0.08 0.07 0.18 0.26 0.32 0.23 0.21
0.70 0.75 0.69 0.57 0.71 0.67 0.49 0.40 0.49 0.54 0.50 0.78 1.48 1.10 0.84 0.45 0.09 0.21 0.30 0.44 0.65 0.88 0.71 0.87 0.43 0.84 0.42 0.18 0.06 0.18 0.53 0.72 0.68 0.60 0.55 0.63 0.52 0.36 0.15 0.13 0.20 0.29 0.42 0.54 0.32
0.75 0.69 0.60 0.65 0.60 0.52 0.36 0.37 0.39 0.42 0.52 0.99 1.36 1.13 0.55 0.25 0.07 0.16 0.24 0.54 0.75 0.93 0.92 1.22 0.87 0.92 0.63 0.21 0.18 0.29 0.53 0.89 0.57 0.75 0.71 0.89 0.58 0.16 0.23 0.23 0.21 0.22 0.33 0.58 0.50
0.66 0.79 0.80 0.62 0.49 0.54 0.59 0.59 0.56 0.39 0.77 1.50 1.24 0.94 0.47 0.21 0.12 0.16 0.15 0.47 0.92 1.26 1.48 1.95 1.89 1.08 0.85 0.47 0.55 0.41 0.37 0.50 0.62 0.65 0.93 0.89 0.55 0.34 0.20 0.20 0.14 0.19 0.17 0.26 0.67
0.57 0.66 0.64 0.52 0.51 0.79 1.19 1.09 1.36 1.24 1.25 1.58 1.15 1.07 0.45 0.09 0.13 0.18 0.21 0.65 1.35 1.88 2.36 2.73 2.90 1.36 0.99 0.69 0.76 0.20 0.15 0.25 0.49 0.46 0.88 0.76 0.65 0.56 0.29 0.13 0.13 0.11 0.10 0.09 0.20
0.55 0.57 0.55 0.56 0.75 1.31 1.93 1.80 1.42 2.05 1.72 1.44 0.86 0.49 0.32 0.17 0.26 0.34 0.47 1.19 2.04 2.56 2.22 2.22 2.21 1.07 0.58 0.22 0.27 0.22 0.15 0.19 0.25 0.28 0.61 0.68 0.39 0.51 0.53 0.27 0.19 0.16 0.06 0.04 0.07
0.49 0.63 0.64 0.68 1.16 1.68 1.64 1.97 1.41 1.69 2.16 1.02 0.41 0.34 0.16 0.26 0.44 0.49 1.03 2.41 2.05 2.42 1.83 1.58 1.11 0.45 0.34 0.40 0.37 0.28 0.21 0.28 0.35 0.58 0.57 0.66 0.50 0.33 0.55 0.38 0.29 0.27 0.14 0.07 0.05
0.58 0.67 0.75 0.84 1.16 1.86 1.37 1.89 1.37 0.87 1.62 1.56 0.76 0.50 0.28 0.54 0.71 0.76 1.61 2.47 1.71 1.73 1.52 0.91 0.59 0.45 0.36 0.44 0.60 0.33 0.28 0.24 0.54 0.50 0.56 0.63 0.61 0.25 0.22 0.24 0.25 0.27 0.38 0.16 0.10
0.69 0.71 0.89 1.13 1.50 1.29 2.04 1.36 1.34 0.91 1.24 1.73 1.28 0.68 0.57 0.83 1.12 0.85 1.31 1.90 1.91 1.66 1.68 1.11 0.57 0.48 0.37 0.63 0.58 0.35 0.24 0.33 0.51 0.69 0.56 0.39 0.46 0.14 0.09 0.16 0.21 0.14 0.33 0.33 0.18
0.69 0.78 0.94 1.45 1.43 1.29 1.65 1.48 1.27 1.06 1.74 1.75 1.26 0.65 0.57 0.80 0.99 1.01 1.09 1.56 1.33 1.61 1.64 1.16 0.65 0.65 0.54 0.62 0.26 0.31 0.27 0.33 0.44 0.60 0.54 0.27 0.43 0.10 0.09 0.08 0.08 0.10 0.12 0.39 0.44
1.10 1.23 1.35 1.27 1.09 0.99 0.99 1.45 1.52 1.21 1.83 1.44 0.96 0.80 0.84 0.60 0.53 0.65 1.11 1.36 1.43 1.40 1.34 0.86 0.60 0.77 0.48 0.32 0.22 0.66 0.62 0.58 0.38 0.49 0.75 0.42 0.29 0.13 0.10 0.11 0.16 0.28 0.16 0.32 0.66
1.54 1.82 1.85 1.48 1.06 0.72 1.17 1.49 1.59 1.17 0.85 0.54 0.42 0.32 0.29 0.25 0.37 0.42 0.71 0.95 1.27 1.58 1.78 1.36 0.83 0.66 0.43 0.53 0.27 0.47 0.70 0.97 0.89 0.93 0.43 0.29 0.54 0.25 0.01 0.05 0.14 0.35 0.11 0.17 0.53
1.61 1.49 1.25 1.03 0.93 1.36 1.30 1.10 1.48 1.01 0.45 0.21 0.11 0.23 0.19 0.20 0.25 0.25 0.49 0.61 0.55 0.47 0.95 1.35 1.43 0.79 0.56 0.28 0.22 0.14 0.38 0.84 0.73 0.50 0.35 0.52 0.71 0.35 0.05 0.03 0.12 0.28 0.12 0.10 0.37
1.84 1.52 1.42 1.14 1.03 1.56 1.22 1.04 1.23 0.71 0.21 0.11 0.21 0.32 0.42 0.18 0.14 0.31 0.38 0.24 0.17 0.21 0.55 0.78 0.92 0.42 0.30 0.15 0.25 0.36 0.41 0.25 0.51 0.45 0.70 0.52 0.56 0.54 0.28 0.05 0.19 0.26 0.22 0.19 0.26
1.48 1.67 1.38 1.16 1.13 1.39 1.21 0.93 0.63 0.10 0.00 0.02 0.11 0.09 0.16 0.16 0.18 0.18 0.27 0.24 0.23 0.26 0.21 0.16 0.49 0.27 0.24 0.33 0.26 0.20 0.13 0.21 0.54 0.50 0.45 0.28 0.20 0.62 0.51 0.50 0.46 0.36 0.33 0.29 0.42
1.42 1.82 1.79 1.15 1.42 1.51 1.27 0.95 0.34 0.03 0.01 0.01 0.01 0.02 0.11 0.20 0.06 0.04 0.06 0.07 0.08 0.08 0.01 0.02 0.30 0.25 0.23 0.35 0.17 0.05 0.17 0.14 0.17 0.13 0.17 0.11 0.34 0.66 0.59 0.67 0.58 0.47 0.66 0.74 0.86
1.74 1.70 1.84 1.27 1.58 1.23 0.76 0.46 0.16 0.04 0.01 0.00 0.00 0.01 0.01 0.02 0.01 0.01 0.01 0.02 0.02 0.01 0.01 0.00 0.13 0.16 0.09 0.01 0.02 0.06 0.02 0.06 0.22 0.07 0.12 0.13 0.25 0.39 0.44 0.51 0.61 0.62 0.78 0.88 0.99
1.53 1.84 1.97 0.94 0.76 0.57 0.30 0.08 0.09 0.06 0.03 0.00 0.00 0.00 0.01 0.01 0.01 0.01 0.00 0.00 0.00 0.00 0.01 0.01 0.15 0.21 0.22 0.19 0.11 0.17 0.05 0.09 0.18 0.37 0.26 0.14 0.05 0.04 0.12 0.20 0.31 0.39 0.45 0.51 0.54
1.25 1.75 2.30 1.30 0.36 0.09 0.14 0.12 0.06 0.03 0.01 0.01 0.02 0.02 0.01 0.01 0.00 0.00 0.00 0.00 0.00 0.00 0.02 0.11 0.17 0.12 0.13 0.31 0.41 0.32 0.07 0.09 0.38 0.60 0.11 0.05 0.02 0.01 0.03 0.03 0.06 0.07 0.07 0.06 0.03
0.74 0.47 0.57 0.70 0.23 0.03 0.04 0.07 0.04 0.01 0.01 0.03 0.04 0.04 0.02 0.02 0.01 0.00 0.00 0.00 0.00 0.02 0.13 0.33 0.25 0.11 0.12 0.22 0.58 0.38 0.14 0.10 0.39 0.19 0.26 0.09 0.04 0.04 0.04 0.05 0.05 0.04 0.03 0.03 0.03
0.81 0.29 0.09 0.03 0.02 0.01 0.01 0.04 0.04 0.02 0.03 0.04 0.01 0.01 0.03 0.03 0.01 0.00 0.00 0.00 0.01 0.03 0.13 0.31 0.38 0.33 0.34 0.25 0.35 0.27 0.07 0.11 0.12 0.04 0.05 0.02 0.04 0.05 0.05 0.03 0.08 0.06 0.02 0.01 0.00
0.86 0.29 0.04 0.02 0.01 0.00 0.00 0.02 0.02 0.02 0.03 0.00 0.01 0.02 0.03 0.01 0.01 0.01 0.01 0.01 0.01 0.07 0.26 0.41 0.47 0.64 0.48 0.18 0.19 0.26 0.08 0.06 0.09 0.07 0.03 0.04 0.05 0.07 0.25 0.45 0.39 0.10 0.04 0.02 0.02

GFSSW_prec_precacc_111.txt.gz
Total_Precipitation_Accumulation
0.38 0.45 0.48 0.46 0.40 0.44 0.49 0.56 0.70 0.77 0.84 0.93 1.54 0.71 0.48 0.42 0.47 0.41 0.14 0.04 0.08 0.21 0.41 0.13 0.06 0.08 0.16 0.34 0.56 0.70 0.92 0.44 0.10 0.04 0.04 0.00 0.00 0.02 0.01 0.00 0.01 0.01 0.05 0.04 0.11
0.47 0.56 0.60 0.60 0.53 0.42 0.44 0.54 0.57 0.64 0.71 0.80 1.97 1.40 0.73 0.70 0.34 0.15 0.05 0.05 0.18 0.44 0.36 0.21 0.10 0.14 0.19 0.32 0.76 1.09 0.91 0.30 0.07 0.07 0.07 0.02 0.00 0.01 0.01 0.02 0.06 0.14 0.12 0.06 0.19
0.47 0.57 0.67 0.67 0.71 0.65 0.59 0.51 0.51 0.50 0.47 0.62 1.42 2.02 1.09 0.82 0.50 0.09 0.12 0.16 0.46 0.75 0.47 0.23 0.29 0.34 0.17 0.32 0.62 0.78 0.46 0.05 0.04 0.17 0.25 0.15 0.02 0.02 0.02 0.05 0.01 0.07 0.12 0.12 0.30
0.51 0.71 0.75 0.69 0.71 0.67 0.60 0.50 0.45 0.45 0.49 0.56 1.30 1.57 1.07 0.96 0.48 0.19 0.08 0.18 0.49 1.03 0.82 0.36 0.31 0.37 0.20 0.16 0.30 0.45 0.12 0.10 0.15 0.19 0.31 0.21 0.12 0.11 0.09 0.02 0.01 0.05 0.16 0.24 0.23
0.70 0.87 0.81 0.63 0.67 0.59 0.48 0.37 0.37 0.43 0.39 0.68 1.43 1.33 1.01 0.79 0.29 0.26 0.20 0.17 0.55 1.29 0.84 0.51 0.32 0.35 0.20 0.06 0.23 0.31 0.19 0.19 0.27 0.27 0.20 0.22 0.36 0.14 0.05 0.03 0.04 0.11 0.24 0.22 0.28
0.75 0.81 0.73 0.63 0.70 0.68 0.44 0.42 0.36 0.43 0.40 0.60 1.41 1.39 0.93 0.62 0.11 0.19 0.29 0.30 0.46 1.02 0.86 0.85 0.38 0.41 0.19 0.12 0.17 0.10 0.35 0.43 0.54 0.43 0.50 0.39 0.32 0.30 0.08 0.07 0.18 0.26 0.32 0.23 0.21
0.70 0.75 0.69 0.57 0.71 0.71 0.51 0.40 0.49 0.54 0.57 0.93 1.53 1.18 0.93 0.54 0.09 0.21 0.30 0.44 0.65 0.88 0.71 0.87 0.43 0.84 0.42 0.18 0.06 0.18 0.53 0.72 0.68 0.60 0.55 0.63 0.52 0.36 0.15 0.13 0.20 0.29 0.42 0.54 0.32
0.75 0.69 0.60 0.65 0.60 0.54 0.36 0.37 0.39 0.44 0.72 1.18 1.44 1.26 0.66 0.27 0.07 0.16 0.24 0.54 0.75 0.93 0.92 1.22 0.87 0.92 0.63 0.21 0.18 0.29 0.53 0.89 0.57 0.75 0.71 0.89 0.58 0.16 0.23 0.23 0.21 0.22 0.33 0.58 0.50
0.66 0.79 0.80 0.62 0.49 0.54 0.59 0.59 0.56 0.44 1.12 1.66 1.35 1.09 0.59 0.23 0.12 0.16 0.15 0.47 0.92 1.26 1.48 1.95 1.89 1.08 0.85 0.47 0.55 0.41 0.37 0.50 0.62 0.65 0.93 0.89 0.55 0.34 0.20 0.20 0.14 0.19 0.17 0.26 0.67
0.57 0.66 0.64 0.52 0.51 0.79 1.19 1.12 1.43 1.43 1.81 1.66 1.38 1.26 0.60 0.13 0.13 0.18 0.21 0.65 1.35 1.88 2.36 2.73 2.90 1.36 0.99 0.69 0.76 0.20 0.15 0.25 0.49 0.46 0.88 0.76 0.65 0.56 0.29 0.13 0.13 0.11 0.10 0.09 0.20
0.55 0.57 0.56 0.58 0.75 1.33 1.97 1.88 1.51 2.36 1.93 1.64 1.05 0.56 0.40 0.18 0.26 0.34 0.47 1.19 2.04 2.56 2.22 2.22 2.21 1.07 0.58 0.22 0.27 0.22 0.15 0.19 0.25 0.28 0.61 0.68 0.39 0.51 0.53 0.27 0.19 0.16 0.06 0.04 0.07
0.49 0.63 0.65 0.72 1.17 1.69 1.66 1.99 1.47 1.85 2.47 1.19 0.50 0.39 0.17 0.26 0.44 0.49 1.03 2.41 2.05 2.42 1.83 1.58 1.11 0.45 0.34 0.40 0.37 0.28 0.21 0.28 0.35 0.58 0.57 0.66 0.50 0.33 0.55 0.38 0.29 0.27 0.14 0.07 0.05
0.58 0.67 0.75 0.85 1.17 1.87 1.38 1.90 1.38 0.88 1.67 1.62 0.80 0.51 0.28 0.54 0.71 0.76 1.61 2.47 1.71 1.73 1.52 0.91 0.59 0.45 0.36 0.44 0.60 0.33 0.28 0.24 0.54 0.50 0.56 0.63 0.61 0.25 0.22 0.24 0.25 0.27 0.38 0.16 0.10
0.69 0.71 0.89 1.13 1.51 1.33 2.05 1.37 1.34 0.91 1.25 1.74 1.28 0.68 0.57 0.83 1.12 0.85 1.31 1.90 1.91 1.66 1.68 1.11 0.57 0.48 0.37 0.63 0.58 0.35 0.24 0.33 0.51 0.69 0.56 0.39 0.46 0.14 0.09 0.16 0.21 0.14 0.33 0.33 0.18
0.69 0.78 0.94 1.45 1.43 1.30 1.65 1.48 1.27 1.06 1.75 1.75 1.26 0.65 0.57 0.80 0.99 1.01 1.09 1.56 1.33 1.61 1.64 1.16 0.65 0.65 0.54 0.62 0.26 0.31 0.27 0.33 0.44 0.60 0.54 0.27 0.43 0.10 0.09 0.08 0.08 0.10 0.12 0.39 0.44
1.10 1.23 1.35 1.27 1.09 0.99 0.99 1.45 1.52 1.21 1.84 1.44 0.96 0.80 0.84 0.60 0.53 0.65 1.11 1.36 1.43 1.40 1.34 0.86 0.60 0.77 0.48 0.32 0.22 0.66 0.62 0.58 0.38 0.49 0.75 0.42 0.29 0.13 0.10 0.11 0.16 0.28 0.16 0.32 0.66
1.54 1.82 1.85 1.48 1.06 0.72 1.17 1.49 1.59 1.18 0.85 0.54 0.42 0.32 0.29 0.25 0.37 0.42 0.71 0.95 1.27 1.58 1.78 1.36 0.83 0.66 0.43 0.53 0.27 0.47 0.70 0.97 0.89 0.93 0.43 0.29 0.54 0.25 0.01 0.05 0.14 0.35 0.11 0.17 0.53
1.61 1.49 1.25 1.03 0.93 1.36 1.30 1.10 1.48 1.01 0.45 0.21 0.11 0.23 0.19 0.20 0.25 0.25 0.49 0.61 0.55 0.47 0.95 1.35 1.43 0.79 0.56 0.28 0.22 0.14 0.38 0.84 0.73 0.50 0.35 0.52 0.71 0.35 0.05 0.03 0.12 0.28 0.12 0.10 0.37
1.84 1.52 1.42 1.14 1.03 1.56 1.22 1.04 1.24 0.71 0.21 0.11 0.21 0.32 0.42 0.18 0.14 0.31 0.38 0.24 0.17 0.21 0.55 0.78 0.92 0.42 0.30 0.15 0.25 0.36 0.41 0.25 0.51 0.45 0.71 0.52 0.56 0.54 0.28 0.05 0.19 0.26 0.22 0.19 0.27
1.48 1.67 1.38 1.16 1.13 1.39 1.21 0.93 0.63 0.10 0.00 0.02 0.11 0.09 0.16 0.16 0.18 0.18 0.27 0.24 0.23 0.26 0.21 0.16 0.49 0.27 0.24 0.33 0.26 0.20 0.13 0.21 0.54 0.50 0.45 0.28 0.20 0.62 0.51 0.50 0.46 0.36 0.33 0.29 0.42
1.42 1.82 1.79 1.15 1.42 1.51 1.27 0.95 0.34 0.03 0.01 0.01 0.01 0.02 0.11 0.20 0.06 0.04 0.06 0.07 0.08 0.08 0.01 0.02 0.30 0.25 0.23 0.35 0.17 0.05 0.17 0.14 0.17 0.13 0.17 0.11 0.34 0.66 0.59 0.67 0.58 0.47 0.66 0.74 0.86
1.74 1.70 1.84 1.27 1.58 1.23 0.76 0.46 0.16 0.04 0.01 0.00 0.00 0.01 0.01 0.02 0.01 0.01 0.01 0.02 0.02 0.01 0.01 0.00 0.13 0.16 0.09 0.01 0.02 0.06 0.02 0.06 0.22 0.07 0.12 0.13 0.25 0.39 0.44 0.51 0.61 0.62 0.78 0.88 0.99
1.53 1.84 1.97 0.94 0.76 0.57 0.30 0.08 0.09 0.06 0.03 0.00 0.00 0.00 0.01 0.01 0.01 0.01 0.00 0.00 0.00 0.00 0.01 0.01 0.15 0.21 0.22 0.19 0.11 0.17 0.05 0.09 0.18 0.37 0.26 0.14 0.05 0.04 0.12 0.20 0.31 0.39 0.45 0.51 0.54
1.25 1.75 2.30 1.30 0.36 0.09 0.14 0.12 0.06 0.03 0.01 0.01 0.02 0.02 0.01 0.01 0.00 0.00 0.00 0.00 0.00 0.00 0.02 0.11 0.17 0.12 0.13 0.31 0.41 0.32 0.07 0.09 0.38 0.60 0.11 0.05 0.02 0.01 0.03 0.03 0.06 0.07 0.07 0.06 0.03
0.74 0.47 0.57 0.70 0.23 0.03 0.04 0.07 0.04 0.01 0.01 0.03 0.04 0.04 0.02 0.02 0.01 0.00 0.00 0.00 0.00 0.02 0.13 0.33 0.25 0.11 0.12 0.22 0.58 0.38 0.14 0.10 0.39 0.19 0.26 0.09 0.04 0.04 0.04 0.05 0.05 0.04 0.03 0.03 0.03
0.81 0.29 0.09 0.03 0.02 0.01 0.01 0.04 0.04 0.02 0.03 0.04 0.01 0.01 0.03 0.03 0.01 0.00 0.00 0.00 0.01 0.03 0.13 0.31 0.38 0.33 0.34 0.25 0.35 0.27 0.07 0.11 0.12 0.04 0.05 0.02 0.04 0.05 0.05 0.03 0.08 0.06 0.02 0.01 0.00
0.86 0.29 0.04 0.02 0.01 0.00 0.00 0.02 0.02 0.02 0.03 0.00 0.01 0.02 0.03 0.01 0.01 0.01 0.01 0.01 0.01 0.07 0.26 0.41 0.47 0.64 0.48 0.18 0.19 0.26 0.08 0.06 0.09 0.07 0.03 0.04 0.05 0.07 0.25 0.45 0.39 0.10 0.04 0.02 0.02

GFSSW_prec_precacc_114.txt.gz
Total_Precipitation_Accumulation
0.45 0.51 0.53 0.56 0.45 0.44 0.49 0.56 0.70 0.77 0.84 0.94 1.91 0.91 0.48 0.42 0.47 0.41 0.14 0.04 0.08 0.21 0.41 0.13 0.06 0.08 0.16 0.34 0.56 0.70 0.92 0.44 0.10 0.04 0.04 0.00 0.00 0.02 0.01 0.00 0.01 0.01 0.05 0.04 0.11
0.55 0.59 0.66 0.72 0.62 0.42 0.44 0.54 0.57 0.64 0.71 0.83 2.12 1.86 0.74 0.70 0.34 0.15 0.05 0.05 0.18 0.44 0.36 0.21 0.10 0.14 0.19 0.32 0.76 1.09 0.91 0.30 0.07 0.07 0.07 0.02 0.00 0.01 0.01 0.02 0.06 0.14 0.12 0.06 0.19
0.48 0.58 0.69 0.77 0.81 0.65 0.59 0.51 0.51 0.50 0.47 0.67 1.67 2.30 1.14 0.82 0.50 0.09 0.12 0.16 0.46 0.75 0.47 0.23 0.29 0.34 0.17 0.32 0.62 0.78 0.46 0.05 0.04 0.17 0.25 0.15 0.02 0.02 0.02 0.05 0.01 0.07 0.12 0.12 0.30
0.51 0.71 0.76 0.74 0.74 0.67 0.60 0.50 0.45 0.45 0.49 0.65 1.74 1.77 1.15 0.96 0.48 0.19 0.08 0.18 0.49 1.03 0.82 0.36 0.31 0.37 0.20 0.16 0.30 0.45 0.12 0.10 0.15 0.19 0.31 0.21 0.12 0.11 0.09 0.02 0.01 0.05 0.16 0.24 0.23
0.71 0.87 0.82 0.66 0.68 0.60 0.48 0.37 0.37 0.43 0.40 0.81 1.63 1.56 1.13 0.81 0.29 0.26 0.20 0.17 0.55 1.29 0.84 0.51 0.32 0.35 0.20 0.06 0.23 0.31 0.19 0.19 0.27 0.27 0.20 0.22 0.36 0.14 0.05 0.03 0.04 0.11 0.24 0.22 0.28
0.75 0.81 0.73 0.63 0.70 0.68 0.45 0.42 0.36 0.43 0.43 0.75 1.52 1.45 1.01 0.66 0.11 0.19 0.29 0.30 0.46 1.02 0.86 0.85 0.38 0.41 0.19 0.12 0.17 0.10 0.35 0.43 0.54 0.43 0.50 0.39 0.32 0.30 0.08 0.07 0.18 0.26 0.32 0.23 0.21
0.70 0.76 0.70 0.57 0.72 0.72 0.51 0.40 0.49 0.54 0.68 1.00 1.54 1.19 0.99 0.60 0.09 0.21 0.30 0.44 0.65 0.88 0.71 0.87 0.43 0.84 0.42 0.18 0.06 0.18 0.53 0.72 0.68 0.60 0.55 0.63 0.52 0.36 0.15 0.13 0.20 0.29 0.42 0.54 0.32
0.77 0.71 0.61 0.66 0.60 0.54 0.36 0.37 0.39 0.50 1.17 1.30 1.44 1.27 0.72 0.28 0.07 0.16 0.24 0.54 0.75 0.93 0.92 1.22 0.87 0.92 0.63 0.21 0.18 0.29 0.53 0.89 0.57 0.75 0.71 0.89 0.58 0.16 0.23 0.23 0.21 0.22 0.33 0.58 0.50
0.68 0.80 0.82 0.63 0.49 0.54 0.59 0.59 0.57 0.67 1.34 1.70 1.35 1.11 0.65 0.23 0.12 0.16 0.15 0.47 0.92 1.26 1.48 1.95 1.89 1.08 0.85 0.47 0.55 0.41 0.37 0.50 0.62 0.65 0.93 0.89 0.55 0.34 0.20 0.20 0.14 0.19 0.17 0.26 0.67
0.58 0.68 0.66 0.52 0.51 0.79 1.20 1.14 1.50 1.68 1.93 1.67 1.40 1.32 0.64 0.13 0.13 0.18 0.21 0.65 1.35 1.88 2.36 2.73 2.90 1.36 0.99 0.69 0.76 0.20 0.15 0.25 0.49 0.46 0.88 0.76 0.65 0.56 0.29 0.13 0.13 0.11 0.10 0.09 0.20
0.56 0.59 0.57 0.59 0.75 1.34 2.00 1.89 1.55 2.46 1.99 1.73 1.13 0.59 0.44 0.18 0.26 0.34 0.47 1.19 2.04 2.56 2.22 2.22 2.21 1.07 0.58 0.22 0.27 0.22 0.15 0.19 0.25 0.28 0.61 0.68 0.39 0.51 0.53 0.27 0.19 0.16 0.06 0.04 0.07
0.50 0.63 0.68 0.74 1.17 1.69 1.66 2.01 1.51 1.90 2.66 1.32 0.57 0.44 0.21 0.27 0.44 0.49 1.03 2.41 2.05 2.42 1.83 1.58 1.11 0.45 0.34 0.40 0.37 0.28 0.21 0.28 0.35 0.58 0.57 0.66 0.50 0.33 0.55 0.38 0.29 0.27 0.14 0.07 0.05
0.58 0.67 0.75 0.86 1.17 1.89 1.40 1.92 1.40 0.88 1.77 1.80 0.89 0.57 0.30 0.54 0.71 0.76 1.61 2.47 1.71 1.73 1.52 0.91 0.59 0.45 0.36 0.44 0.60 0.33 0.28 0.24 0.54 0.50 0.56 0.63 0.61 0.25 0.22 0.24 0.25 0.27 0.38 0.16 0.10
0.69 0.71 0.89 1.13 1.52 1.37 2.09 1.39 1.35 0.91 1.26 1.83 1.32 0.69 0.57 0.83 1.12 0.85 1.31 1.90 1.91 1.66 1.68 1.11 0.57 0.48 0.37 0.63 0.58 0.35 0.24 0.33 0.51 0.69 0.56 0.39 0.46 0.14 0.09 0.16 0.21 0.14 0.33 0.33 0.18
0.69 0.78 0.94 1.45 1.43 1.31 1.65 1.48 1.27 1.06 1.76 1.77 1.27 0.65 0.57 0.80 0.99 1.01 1.09 1.56 1.33 1.61 1.64 1.16 0.65 0.65 0.54 0.62 0.26 0.31 0.27 0.33 0.44 0.60 0.54 0.27 0.43 0.10 0.09 0.08 0.08 0.10 0.12 0.39 0.44
1.10 1.23 1.35 1.27 1.09 0.99 0.99 1.45 1.52 1.21 1.85 1.45 0.96 0.80 0.84 0.60 0.53 0.65 1.11 1.36 1.43 1.40 1.34 0.86 0.60 0.77 0.48 0.32 0.22 0.66 0.62 0.58 0.38 0.49 0.75 0.42 0.29 0.13 0.10 0.11 0.16 0.28 0.16 0.32 0.66
1.54 1.82 1.85 1.48 1.06 0.72 1.17 1.49 1.59 1.18 0.86 0.54 0.42 0.32 0.29 0.25 0.37 0.42 0.71 0.95 1.27 1.58 1.78 1.36 0.83 0.66 0.43 0.53 0.27 0.47 0.70 0.97 0.89 0.93 0.43 0.29 0.54 0.25 0.01 0.05 0.14 0.35 0.11 0.17 0.53
1.61 1.49 1.25 1.03 0.93 1.36 1.30 1.10 1.48 1.01 0.45 0.21 0.11 0.23 0.19 0.20 0.25 0.25 0.49 0.61 0.55 0.47 0.95 1.35 1.43 0.79 0.56 0.28 0.22 0.14 0.38 0.84 0.73 0.50 0.35 0.52 0.71 0.35 0.05 0.03 0.12 0.28 0.12 0.10 0.38
1.84 1.52 1.42 1.14 1.03 1.56 1.22 1.04 1.24 0.71 0.21 0.11 0.21 0.32 0.42 0.18 0.14 0.31 0.38 0.24 0.17 0.21 0.55 0.78 0.92 0.42 0.30 0.15 0.25 0.36 0.41 0.25 0.51 0.45 0.71 0.52 0.56 0.54 0.28 0.05 0.19 0.26 0.22 0.19 0.27
1.48 1.67 1.38 1.16 1.13 1.39 1.21 0.93 0.63 0.10 0.00 0.02 0.11 0.09 0.16 0.16 0.18 0.18 0.27 0.24 0.23 0.26 0.21 0.16 0.49 0.27 0.24 0.33 0.26 0.20 0.13 0.21 0.54 0.50 0.45 0.28 0.20 0.62 0.51 0.50 0.46 0.36 0.33 0.29 0.42
1.42 1.82 1.79 1.15 1.42 1.51 1.27 0.95 0.34 0.03 0.01 0.01 0.01 0.02 0.11 0.20 0.06 0.04 0.06 0.07 0.08 0.08 0.01 0.02 0.30 0.25 0.23 0.35 0.17 0.05 0.17 0.14 0.17 0.13 0.17 0.11 0.34 0.66 0.59 0.67 0.58 0.47 0.66 0.74 0.86
1.74 1.70 1.84 1.27 1.58 1.23 0.76 0.46 0.16 0.04 0.01 0.00 0.00 0.01 0.01 0.02 0.01 0.01 0.01 0.02 0.02 0.01 0.01 0.00 0.13 0.16 0.09 0.01 0.02 0.06 0.02 0.06 0.22 0.07 0.12 0.13 0.25 0.39 0.44 0.51 0.61 0.62 0.78 0.88 0.99
1.53 1.84 1.97 0.94 0.76 0.57 0.30 0.08 0.09 0.06 0.03 0.00 0.00 0.00 0.01 0.01 0.01 0.01 0.00 0.00 0.00 0.00 0.01 0.01 0.15 0.21 0.22 0.19 0.11 0.17 0.05 0.09 0.18 0.37 0.26 0.14 0.05 0.04 0.12 0.20 0.31 0.39 0.45 0.51 0.54
1.25 1.75 2.30 1.30 0.36 0.09 0.14 0.12 0.06 0.03 0.01 0.01 0.02 0.02 0.01 0.01 0.00 0.00 0.00 0.00 0.00 0.00 0.02 0.11 0.17 0.12 0.13 0.31 0.41 0.32 0.07 0.09 0.38 0.60 0.11 0.05 0.02 0.01 0.03 0.03 0.06 0.07 0.07 0.06 0.03
0.74 0.47 0.57 0.70 0.23 0.03 0.04 0.07 0.04 0.01 0.01 0.03 0.04 0.04 0.02 0.02 0.01 0.00 0.00 0.00 0.00 0.02 0.13 0.33 0.25 0.11 0.12 0.22 0.58 0.38 0.14 0.10 0.39 0.19 0.26 0.09 0.04 0.04 0.04 0.05 0.05 0.04 0.03 0.03 0.03
0.81 0.29 0.09 0.03 0.02 0.01 0.01 0.04 0.04 0.02 0.03 0.04 0.01 0.01 0.03 0.03 0.01 0.00 0.00 0.00 0.01 0.03 0.13 0.31 0.38 0.33 0.34 0.25 0.35 0.27 0.07 0.11 0.12 0.04 0.05 0.02 0.04 0.05 0.05 0.03 0.08 0.06 0.02 0.01 0.00
0.86 0.29 0.04 0.02 0.01 0.00 0.00 0.02 0.02 0.02 0.03 0.00 0.01 0.02 0.03 0.01 0.01 0.01 0.01 0.01 0.01 0.07 0.26 0.41 0.47 0.64 0.48 0.18 0.19 0.26 0.08 0.06 0.09 0.07 0.03 0.04 0.05 0.07 0.25 0.45 0.39 0.10 0.04 0.02 0.02

GFSSW_prec_precacc_117.txt.gz
Total_Precipitation_Accumulation
0.55 0.63 0.76 0.70 0.57 0.48 0.50 0.56 0.70 0.77 0.84 0.95 2.24 0.98 0.48 0.42 0.47 0.41 0.14 0.04 0.08 0.21 0.41 0.13 0.06 0.08 0.16 0.34 0.56 0.70 0.92 0.44 0.10 0.04 0.04 0.00 0.00 0.02 0.01 0.00 0.01 0.01 0.05 0.04 0.11
0.69 0.71 0.89 0.85 0.83 0.49 0.44 0.54 0.57 0.64 0.71 0.83 2.26 2.08 0.74 0.70 0.34 0.15 0.05 0.05 0.18 0.44 0.36 0.21 0.10 0.14 0.19 0.32 0.76 1.09 0.91 0.30 0.07 0.07 0.07 0.02 0.00 0.01 0.01 0.02 0.06 0.14 0.12 0.06 0.19
0.51 0.59 0.71 0.81 0.92 0.69 0.59 0.51 0.51 0.50 0.47 0.67 1.73 2.46 1.16 0.82 0.50 0.09 0.12 0.16 0.46 0.75 0.47 0.23 0.29 0.34 0.17 0.32 0.62 0.78 0.46 0.05 0.04 0.17 0.25 0.15 0.02 0.02 0.02 0.05 0.01 0.07 0.12 0.12 0.30
0.53 0.75 0.80 0.80 0.77 0.68 0.60 0.50 0.45 0.45 0.50 0.66 1.77 1.87 1.20 0.96 0.48 0.19 0.08 0.18 0.49 1.03 0.82 0.36 0.31 0.37 0.20 0.16 0.30 0.45 0.12 0.10 0.15 0.19 0.31 0.21 0.12 0.11 0.09 0.02 0.01 0.05 0.16 0.24 0.23
0.71 0.90 0.89 0.73 0.69 0.60 0.48 0.37 0.37 0.43 0.41 0.82 1.65 1.72 1.21 0.82 0.29 0.26 0.20 0.17 0.55 1.29 0.84 0.51 0.32 0.35 0.20 0.06 0.23 0.31 0.19 0.19 0.27 0.27 0.20 0.22 0.36 0.14 0.05 0.03 0.04 0.11 0.24 0.22 0.28
0.75 0.81 0.73 0.64 0.70 0.68 0.45 0.42 0.36 0.44 0.47 0.78 1.57 1.54 1.10 0.66 0.11 0.19 0.29 0.30 0.46 1.02 0.86 0.85 0.38 0.41 0.19 0.12 0.17 0.10 0.35 0.43 0.54 0.43 0.50 0.39 0.32 0.30 0.08 0.07 0.18 0.26 0.32 0.23 0.21
0.70 0.76 0.70 0.57 0.73 0.72 0.51 0.41 0.49 0.57 0.74 1.05 1.64 1.23 1.11 0.62 0.09 0.21 0.30 0.44 0.65 0.88 0.71 0.87 0.43 0.84 0.42 0.18 0.06 0.18 0.53 0.72 0.68 0.60 0.55 0.63 0.52 0.36 0.15 0.13 0.20 0.29 0.42 0.54 0.32
0.77 0.71 0.61 0.66 0.61 0.55 0.37 0.39 0.40 0.54 1.33 1.34 1.49 1.29 0.77 0.28 0.07 0.16 0.24 0.54 0.75 0.93 0.92 1.22 0.87 0.92 0.63 0.21 0.18 0.29 0.53 0.89 0.57 0.75 0.71 0.89 0.58 0.16 0.23 0.23 0.21 0.22 0.33 0.58 0.50
0.69 0.81 0.82 0.63 0.49 0.54 0.62 0.61 0.62 0.81 1.47 1.71 1.35 1.13 0.68 0.24 0.12 0.16 0.15 0.47 0.92 1.26 1.48 1.95 1.89 1.08 0.85 0.47 0.55 0.41 0.37 0.50 0.62 0.65 0.93 0.89 0.55 0.34 0.20 0.20 0.14 0.19 0.17 0.26 0.67
0.61 0.72 0.69 0.52 0.52 0.82 1.23 1.17 1.60 1.78 1.97 1.68 1.40 1.33 0.68 0.15 0.13 0.18 0.21 0.65 1.35 1.88 2.36 2.73 2.90 1.36 0.99 0.69 0.76 0.20 0.15 0.25 0.49 0.46 0.88 0.76 0.65 0.56 0.29 0.13 0.13 0.11 0.10 0.09 0.20
0.59 0.61 0.58 0.59 0.77 1.36 2.02 1.91 1.57 2.51 2.02 1.74 1.13 0.59 0.45 0.19 0.26 0.34 0.47 1.19 2.04 2.56 2.22 2.22 2.21 1.07 0.58 0.22 0.27 0.22 0.15 0.19 0.25 0.28 0.61 0.68 0.39 0.51 0.53 0.27 0.19 0.16 0.06 0.04 0.07
0.50 0.64 0.68 0.75 1.17 1.69 1.67 2.01 1.51 1.92 2.70 1.32 0.57 0.44 0.21 0.27 0.44 0.49 1.03 2.41 2.05 2.42 1.83 1.58 1.11 0.45 0.34 0.40 0.37 0.28 0.21 0.28 0.35 0.58 0.57 0.66 0.50 0.33 0.55 0.38 0.29 0.27 0.14 0.07 0.05
0.58 0.67 0.75 0.86 1.17 1.89 1.40 1.93 1.41 0.88 1.79 1.82 0.90 0.57 0.30 0.54 0.71 0.76 1.61 2.47 1.71 1.73 1.52 0.91 0.59 0.45 0.36 0.44 0.60 0.33 0.28 0.24 0.54 0.50 0.56 0.63 0.61 0.25 0.22 0.24 0.25 0.27 0.38 0.16 0.10
0.69 0.71 0.89 1.13 1.52 1.39 2.11 1.40 1.36 0.91 1.27 1.87 1.35 0.70 0.57 0.83 1.12 0.85 1.31 1.90 1.91 1.66 1.68 1.11 0.57 0.48 0.37 0.63 0.58 0.35 0.24 0.33 0.51 0.69 0.56 0.39 0.46 0.14 0.09 0.16 0.21 0.14 0.33 0.33 0.18
0.69 0.78 0.94 1.45 1.44 1.31 1.66 1.48 1.27 1.06 1.79 1.81 1.27 0.65 0.57 0.80 0.99 1.01 1.09 1.56 1.33 1.61 1.64 1.16 0.65 0.65 0.54 0.62 0.26 0.31 0.27 0.33 0.44 0.60 0.54 0.27 0.43 0.10 0.09 0.08 0.08 0.10 0.12 0.39 0.44
1.10 1.23 1.35 1.27 1.09 0.99 0.99 1.45 1.52 1.21 1.86 1.45 0.96 0.80 0.84 0.60 0.53 0.65 1.11 1.36 1.43 1.40 1.34 0.86 0.60 0.77 0.48 0.32 0.22 0.66 0.62 0.58 0.38 0.49 0.75 0.42 0.29 0.13 0.10 0.11 0.16 0.28 0.16 0.32 0.66
1.54 1.82 1.85 1.48 1.06 0.72 1.17 1.49 1.59 1.18 0.86 0.54 0.42 0.32 0.29 0.25 0.37 0.42 0.71 0.95 1.27 1.58 1.78 1.36 0.83 0.66 0.43 0.53 0.27 0.47 0.70 0.97 0.89 0.93 0.43 0.29 0.54 0.25 0.01 0.05 0.14 0.35 0.11 0.17 0.53
1.61 1.49 1.25 1.03 0.93 1.36 1.30 1.10 1.48 1.01 0.45 0.21 0.11 0.23 0.19 0.20 0.25 0.25 0.49 0.61 0.55 0.47 0.95 1.35 1.43 0.79 0.56 0.28 0.22 0.14 0.38 0.84 0.73 0.50 0.35 0.52 0.71 0.35 0.05 0.03 0.12 0.28 0.12 0.10 0.38
1.84 1.52 1.42 1.14 1.03 1.56 1.22 1.04 1.24 0.71 0.21 0.11 0.21 0.32 0.42 0.18 0.14 0.31 0.38 0.24 0.17 0.21 0.55 0.78 0.92 0.42 0.30 0.15 0.25 0.36 0.41 0.25 0.51 0.45 0.71 0.52 0.56 0.54 0.28 0.05 0.19 0.26 0.22 0.19 0.27
1.48 1.67 1.38 1.16 1.13 1.39 1.21 0.93 0.63 0.10 0.00 0.02 0.11 0.09 0.16 0.16 0.18 0.18 0.27 0.24 0.23 0.26 0.21 0.16 0.49 0.27 0.24 0.33 0.26 0.20 0.13 0.21 0.54 0.50 0.45 0.28 0.20 0.62 0.51 0.50 0.46 0.36 0.33 0.29 0.42
1.42 1.82 1.79 1.15 1.42 1.51 1.27 0.95 0.34 0.03 0.01 0.01 0.01 0.02 0.11 0.20 0.06 0.04 0.06 0.07 0.08 0.08 0.01 0.02 0.30 0.25 0.23 0.35 0.17 0.05 0.17 0.14 0.17 0.13 0.17 0.11 0.34 0.66 0.59 0.67 0.58 0.47 0.66 0.74 0.86
1.74 1.70 1.84 1.27 1.58 1.23 0.76 0.46 0.16 0.04 0.01 0.00 0.00 0.01 0.01 0.02 0.01 0.01 0.01 0.02 0.02 0.01 0.01 0.00 0.13 0.16 0.09 0.01 0.02 0.06 0.02 0.06 0.22 0.07 0.12 0.13 0.25 0.39 0.44 0.51 0.61 0.62 0.78 0.88 0.99
1.53 1.84 1.97 0.94 0.76 0.57 0.30 0.08 0.09 0.06 0.03 0.00 0.00 0.00 0.01 0.01 0.01 0.01 0.00 0.00 0.00 0.00 0.01 0.01 0.15 0.21 0.22 0.19 0.11 0.17 0.05 0.09 0.18 0.37 0.26 0.14 0.05 0.04 0.12 0.20 0.31 0.39 0.45 0.51 0.54
1.25 1.75 2.30 1.30 0.36 0.09 0.14 0.12 0.06 0.03 0.01 0.01 0.02 0.02 0.01 0.01 0.00 0.00 0.00 0.00 0.00 0.00 0.02 0.11 0.17 0.12 0.13 0.31 0.41 0.32 0.07 0.09 0.38 0.60 0.11 0.05 0.02 0.01 0.03 0.03 0.06 0.07 0.07 0.06 0.03
0.74 0.47 0.57 0.70 0.23 0.03 0.04 0.07 0.04 0.01 0.01 0.03 0.04 0.04 0.02 0.02 0.01 0.00 0.00 0.00 0.00 0.02 0.13 0.33 0.25 0.11 0.12 0.22 0.58 0.38 0.14 0.10 0.39 0.19 0.26 0.09 0.04 0.04 0.04 0.05 0.05 0.04 0.03 0.03 0.03
0.81 0.29 0.09 0.03 0.02 0.01 0.01 0.04 0.04 0.02 0.03 0.04 0.01 0.01 0.03 0.03 0.01 0.00 0.00 0.00 0.01 0.03 0.13 0.31 0.38 0.33 0.34 0.25 0.35 0.27 0.07 0.11 0.12 0.04 0.05 0.02 0.04 0.05 0.05 0.03 0.08 0.06 0.02 0.01 0.00
0.86 0.29 0.04 0.02 0.01 0.00 0.00 0.02 0.02 0.02 0.03 0.00 0.01 0.02 0.03 0.01 0.01 0.01 0.01 0.01 0.01 0.07 0.26 0.41 0.47 0.64 0.48 0.18 0.19 0.26 0.08 0.06 0.09 0.07 0.03 0.04 0.05 0.07 0.25 0.45 0.39 0.10 0.04 0.02 0.02

GFSSW_prec_precacc_120.txt.gz
Total_Precipitation_Accumulation
0.64 1.00 1.04 0.86 0.69 0.59 0.59 0.57 0.70 0.77 0.86 0.99 2.68 0.98 0.48 0.42 0.47 0.41 0.14 0.04 0.08 0.21 0.41 0.13 0.06 0.08 0.16 0.34 0.56 0.70 0.92 0.44 0.10 0.04 0.04 0.00 0.00 0.02 0.01 0.00 0.01 0.01 0.05 0.04 0.11
0.75 0.81 1.35 1.11 1.08 0.59 0.45 0.54 0.57 0.64 0.72 0.87 2.61 2.20 0.74 0.70 0.34 0.15 0.05 0.05 0.18 0.44 0.36 0.21 0.10 0.14 0.19 0.32 0.76 1.09 0.91 0.30 0.07 0.07 0.07 0.02 0.00 0.01 0.01 0.02 0.06 0.14 0.12 0.06 0.19
0.56 0.65 0.84 1.08 1.21 0.82 0.59 0.51 0.51 0.50 0.49 0.77 2.01 2.60 1.16 0.82 0.50 0.09 0.12 0.16 0.46 0.75 0.47 0.23 0.29 0.34 0.17 0.32 0.62 0.78 0.46 0.05 0.04 0.17 0.25 0.15 0.02 0.02 0.02 0.05 0.01 0.07 0.12 0.12 0.30
0.56 0.88 0.97 0.94 0.88 0.74 0.60 0.50 0.45 0.47 0.53 0.79 1.94 1.92 1.20 0.96 0.48 0.19 0.08 0.18 0.49 1.03 0.82 0.36 0.31 0.37 0.20 0.16 0.30 0.45 0.12 0.10 0.15 0.19 0.31 0.21 0.12 0.11 0.09 0.02 0.01 0.05 0.16 0.24 0.23
0.73 0.96 0.99 0.79 0.71 0.60 0.48 0.37 0.37 0.46 0.45 0.86 1.68 1.73 1.21 0.82 0.29 0.26 0.20 0.17 0.55 1.29 0.84 0.51 0.32 0.35 0.20 0.06 0.23 0.31 0.19 0.19 0.27 0.27 0.20 0.22 0.36 0.14 0.05 0.03 0.04 0.11 0.24 0.22 0.28
0.75 0.81 0.73 0.64 0.70 0.68 0.45 0.42 0.36 0.49 0.51 0.78 1.58 1.55 1.10 0.66 0.11 0.19 0.29 0.30 0.46 1.02 0.86 0.85 0.38 0.41 0.19 0.12 0.17 0.10 0.35 0.43 0.54 0.43 0.50 0.39 0.32 0.30 0.08 0.07 0.18 0.26 0.32 0.23 0.21
0.70 0.76 0.70 0.58 0.73 0.72 0.51 0.41 0.55 0.65 0.76 1.06 1.64 1.24 1.13 0.62 0.09 0.21 0.30 0.44 0.65 0.88 0.71 0.87 0.43 0.84 0.42 0.18 0.06 0.18 0.53 0.72 0.68 0.60 0.55 0.63 0.52 0.36 0.15 0.13 0.20 0.29 0.42 0.54 0.32
0.78 0.71 0.62 0.66 0.61 0.55 0.37 0.42 0.48 0.64 1.37 1.35 1.49 1.29 0.78 0.28 0.07 0.16 0.24 0.54 0.75 0.93 0.92 1.22 0.87 0.92 0.63 0.21 0.18 0.29 0.53 0.89 0.57 0.75 0.71 0.89 0.58 0.16 0.23 0.23 0.21 0.22 0.33 0.58 0.50
0.69 0.81 0.82 0.63 0.49 0.57 0.67 0.68 0.74 0.90 1.50 1.71 1.36 1.14 0.69 0.24 0.12 0.16 0.15 0.47 0.92 1.26 1.48 1.95 1.89 1.08 0.85 0.47 0.55 0.41 0.37 0.50 0.62 0.65 0.93 0.89 0.55 0.34 0.20 0.20 0.14 0.19 0.17 0.26 0.67
0.63 0.72 0.69 0.53 0.54 0.87 1.29 1.25 1.64 1.79 1.97 1.68 1.40 1.34 0.68 0.15 0.13 0.18 0.21 0.65 1.35 1.88 2.36 2.73 2.90 1.36 0.99 0.69 0.76 0.20 0.15 0.25 0.49 0.46 0.88 0.76 0.65 0.56 0.29 0.13 0.13 0.11 0.10 0.09 0.20
0.59 0.61 0.58 0.60 0.79 1.39 2.05 1.94 1.60 2.53 2.02 1.74 1.14 0.60 0.45 0.19 0.26 0.34 0.47 1.19 2.04 2.56 2.22 2.22 2.21 1.07 0.58 0.22 0.27 0.22 0.15 0.19 0.25 0.28 0.61 0.68 0.39 0.51 0.53 0.27 0.19 0.16 0.06 0.04 0.07
0.51 0.65 0.68 0.75 1.18 1.70 1.68 2.01 1.51 1.92 2.70 1.33 0.57 0.44 0.21 0.27 0.44 0.49 1.03 2.41 2.05 2.42 1.83 1.58 1.11 0.45 0.34 0.40 0.37 0.28 0.21 0.28 0.35 0.58 0.57 0.66 0.50 0.33 0.55 0.38 0.29 0.27 0.14 0.07 0.05
0.58 0.67 0.75 0.86 1.18 1.90 1.40 1.93 1.41 0.88 1.79 1.82 0.90 0.57 0.30 0.54 0.71 0.76 1.61 2.47 1.71 1.73 1.52 0.91 0.59 0.45 0.36 0.44 0.60 0.33 0.28 0.24 0.54 0.50 0.56 0.63 0.61 0.25 0.22 0.24 0.25 0.27 0.38 0.16 0.10
0.69 0.71 0.89 1.13 1.54 1.41 2.13 1.40 1.36 0.91 1.27 1.88 1.35 0.70 0.57 0.83 1.12 0.85 1.31 1.90 1.91 1.66 1.68 1.11 0.57 0.48 0.37 0.63 0.58 0.35 0.24 0.33 0.51 0.69 0.56 0.39 0.46 0.14 0.09 0.16 0.21 0.14 0.33 0.33 0.18
0.69 0.78 0.94 1.46 1.47 1.33 1.66 1.48 1.27 1.06 1.81 1.83 1.27 0.65 0.57 0.80 0.99 1.01 1.09 1.56 1.33 1.61 1.64 1.16 0.65 0.65 0.54 0.62 0.26 0.31 0.27 0.33 0.44 0.60 0.54 0.27 0.43 0.10 0.09 0.08 0.08 0.10 0.12 0.39 0.44
1.10 1.23 1.35 1.27 1.09 0.99 0.99 1.45 1.52 1.21 1.87 1.45 0.96 0.80 0.84 0.60 0.53 0.65 1.11 1.36 1.43 1.40 1.34 0.86 0.60 0.77 0.48 0.32 0.22 0.66 0.62 0.58 0.38 0.49 0.75 0.42 0.29 0.13 0.10 0.11 0.16 0.28 0.16 0.32 0.66
1.54 1.82 1.85 1.48 1.06 0.72 1.17 1.49 1.59 1.18 0.86 0.54 0.42 0.32 0.29 0.25 0.37 0.42 0.71 0.95 1.27 1.58 1.78 1.36 0.83 0.66 0.43 0.53 0.27 0.47 0.70 0.97 0.89 0.93 0.43 0.29 0.54 0.25 0.01 0.05 0.14 0.35 0.11 0.17 0.53
1.61 1.49 1.25 1.03 0.93 1.36 1.30 1.10 1.48 1.01 0.45 0.21 0.11 0.23 0.19 0.20 0.25 0.25 0.49 0.61 0.55 0.47 0.95 1.35 1.43 0.79 0.56 0.28 0.22 0.14 0.38 0.84 0.73 0.50 0.35 0.52 0.71 0.35 0.05 0.03 0.12 0.28 0.12 0.10 0.38
1.84 1.52 1.42 1.14 1.03 1.56 1.22 1.04 1.24 0.71 0.21 0.11 0.21 0.32 0.42 0.18 0.14 0.31 0.38 0.24 0.17 0.21 0.55 0.78 0.92 0.42 0.30 0.15 0.25 0.36 0.41 0.25 0.51 0.45 0.71 0.52 0.56 0.54 0.28 0.05 0.19 0.26 0.22 0.19 0.27
1.48 1.67 1.38 1.16 1.13 1.39 1.21 0.93 0.63 0.10 0.00 0.02 0.11 0.09 0.16 0.16 0.18 0.18 0.27 0.24 0.23 0.26 0.21 0.16 0.49 0.27 0.24 0.33 0.26 0.20 0.13 0.21 0.54 0.50 0.45 0.28 0.20 0.62 0.51 0.50 0.46 0.36 0.33 0.29 0.42
1.42 1.82 1.79 1.15 1.42 1.51 1.27 0.95 0.34 0.03 0.01 0.01 0.01 0.02 0.11 0.20 0.06 0.04 0.06 0.07 0.08 0.08 0.01 0.02 0.30 0.25 0.23 0.35 0.17 0.05 0.17 0.14 0.17 0.13 0.17 0.11 0.34 0.66 0.59 0.67 0.58 0.47 0.66 0.74 0.86
1.74 1.70 1.84 1.27 1.58 1.23 0.76 0.46 0.16 0.04 0.01 0.00 0.00 0.01 0.01 0.02 0.01 0.01 0.01 0.02 0.02 0.01 0.01 0.00 0.13 0.16 0.09 0.01 0.02 0.06 0.02 0.06 0.22 0.07 0.12 0.13 0.25 0.39 0.44 0.51 0.61 0.62 0.78 0.88 0.99
1.53 1.84 1.97 0.94 0.76 0.57 0.30 0.08 0.09 0.06 0.03 0.00 0.00 0.00 0.01 0.01 0.01 0.01 0.00 0.00 0.00 0.00 0.01 0.01 0.15 0.21 0.22 0.19 0.11 0.17 0.05 0.09 0.18 0.37 0.26 0.14 0.05 0.04 0.12 0.20 0.31 0.39 0.45 0.51 0.54
1.25 1.75 2.30 1.30 0.36 0.09 0.14 0.12 0.06 0.03 0.01 0.01 0.02 0.02 0.01 0.01 0.00 0.00 0.00 0.00 0.00 0.00 0.02 0.11 0.17 0.12 0.13 0.31 0.41 0.32 0.07 0.09 0.38 0.60 0.11 0.05 0.02 0.01 0.03 0.03 0.06 0.07 0.07 0.06 0.03
0.74 0.47 0.57 0.70 0.23 0.03 0.04 0.07 0.04 0.01 0.01 0.03 0.04 0.04 0.02 0.02 0.01 0.00 0.00 0.00 0.00 0.02 0.13 0.33 0.25 0.11 0.12 0.22 0.58 0.38 0.14 0.10 0.39 0.19 0.26 0.09 0.04 0.04 0.04 0.05 0.05 0.04 0.03 0.03 0.03
0.81 0.29 0.09 0.03 0.02 0.01 0.01 0.04 0.04 0.02 0.03 0.04 0.01 0.01 0.03 0.03 0.01 0.00 0.00 0.00 0.01 0.03 0.13 0.31 0.38 0.33 0.34 0.25 0.35 0.27 0.07 0.11 0.12 0.04 0.05 0.02 0.04 0.05 0.05 0.03 0.08 0.06 0.02 0.01 0.00
0.86 0.29 0.04 0.02 0.01 0.00 0.00 0.02 0.02 0.02 0.03 0.00 0.01 0.02 0.03 0.01 0.01 0.01 0.01 0.01 0.01 0.07 0.26 0.41 0.47 0.64 0.48 0.18 0.19 0.26 0.08 0.06 0.09 0.07 0.03 0.04 0.05 0.07 0.25 0.45 0.39 0.10 0.04 0.02 0.02

GFSSW_prec_precacc_123.txt.gz
Total_Precipitation_Accumulation
0.74 1.37 1.30 1.06 0.83 0.67 0.65 0.59 0.70 0.78 0.88 1.18 2.94 0.98 0.48 0.42 0.47 0.41 0.14 0.04 0.08 0.21 0.41 0.13 0.06 0.08 0.16 0.34 0.56 0.70 0.92 0.44 0.10 0.04 0.04 0.00 0.00 0.02 0.01 0.00 0.01 0.01 0.05 0.04 0.11
0.85 1.31 2.28 1.31 1.33 0.69 0.45 0.54 0.57 0.64 0.75 1.14 3.03 2.21 0.74 0.70 0.34 0.15 0.05 0.05 0.18 0.44 0.36 0.21 0.10 0.14 0.19 0.32 0.76 1.09 0.91 0.30 0.07 0.07 0.07 0.02 0.00 0.01 0.01 0.02 0.06 0.14 0.12 0.06 0.19
0.62 0.79 1.14 1.32 1.37 0.91 0.59 0.51 0.51 0.50 0.56 1.03 2.23 2.61 1.16 0.82 0.50 0.09 0.12 0.16 0.46 0.75 0.47 0.23 0.29 0.34 0.17 0.32 0.62 0.78 0.46 0.05 0.04 0.17 0.25 0.15 0.02 0.02 0.02 0.05 0.01 0.07 0.12 0.12 0.30
0.65 0.99 1.10 1.11 1.01 0.80 0.60 0.50 0.45 0.48 0.61 0.94 2.02 1.92 1.20 0.96 0.48 0.19 0.08 0.18 0.49 1.03 0.82 0.36 0.31 0.37 0.20 0.16 0.30 0.45 0.12 0.10 0.15 0.19 0.31 0.21 0.12 0.11 0.09 0.02 0.01 0.05 0.16 0.24 0.23
0.77 1.05 1.05 0.84 0.73 0.62 0.48 0.37 0.38 0.49 0.54 1.04 1.80 1.73 1.21 0.82 0.29 0.26 0.20 0.17 0.55 1.29 0.84 0.51 0.32 0.35 0.20 0.06 0.23 0.31 0.19 0.19 0.27 0.27 0.20 0.22 0.36 0.14 0.05 0.03 0.04 0.11 0.24 0.22 0.28
0.75 0.82 0.73 0.64 0.70 0.68 0.45 0.42 0.38 0.53 0.54 0.88 1.66 1.55 1.10 0.66 0.11 0.19 0.29 0.30 0.46 1.02 0.86 0.85 0.38 0.41 0.19 0.12 0.17 0.10 0.35 0.43 0.54 0.43 0.50 0.39 0.32 0.30 0.08 0.07 0.18 0.26 0.32 0.23 0.21
0.70 0.77 0.70 0.58 0.73 0.72 0.52 0.45 0.62 0.69 0.79 1.07 1.65 1.24 1.14 0.62 0.09 0.21 0.30 0.44 0.65 0.88 0.71 0.87 0.43 0.84 0.42 0.18 0.06 0.18 0.53 0.72 0.68 0.60 0.55 0.63 0.52 0.36 0.15 0.13 0.20 0.29 0.42 0.54 0.32
0.78 0.71 0.62 0.66 0.61 0.56 0.44 0.56 0.59 0.65 1.38 1.35 1.49 1.29 0.78 0.28 0.07 0.16 0.24 0.54 0.75 0.93 0.92 1.22 0.87 0.92 0.63 0.21 0.18 0.29 0.53 0.89 0.57 0.75 0.71 0.89 0.58 0.16 0.23 0.23 0.21 0.22 0.33 0.58 0.50
0.69 0.81 0.82 0.64 0.52 0.62 0.77 0.78 0.79 0.90 1.51 1.72 1.36 1.14 0.69 0.24 0.12 0.16 0.15 0.47 0.92 1.26 1.48 1.95 1.89 1.08 0.85 0.47 0.55 0.41 0.37 0.50 0.62 0.65 0.93 0.89 0.55 0.34 0.20 0.20 0.14 0.19 0.17 0.26 0.67
0.63 0.73 0.70 0.55 0.56 0.88 1.32 1.29 1.65 1.80 1.98 1.68 1.40 1.34 0.68 0.15 0.13 0.18 0.21 0.65 1.35 1.88 2.36 2.73 2.90 1.36 0.99 0.69 0.76 0.20 0.15 0.25 0.49 0.46 0.88 0.76 0.65 0.56 0.29 0.13 0.13 0.11 0.10 0.09 0.20
0.59 0.61 0.58 0.60 0.79 1.41 2.06 1.94 1.61 2.54 2.02 1.74 1.14 0.60 0.45 0.19 0.26 0.34 0.47 1.19 2.04 2.56 2.22 2.22 2.21 1.07 0.58 0.22 0.27 0.22 0.15 0.19 0.25 0.28 0.61 0.68 0.39 0.51 0.53 0.27 0.19 0.16 0.06 0.04 0.07
0.51 0.65 0.69 0.75 1.18 1.71 1.69 2.01 1.51 1.92 2.71 1.33 0.57 0.44 0.21 0.27 0.44 0.49 1.03 2.41 2.05 2.42 1.83 1.58 1.11 0.45 0.34 0.40 0.37 0.28 0.21 0.28 0.35 0.58 0.57 0.66 0.50 0.33 0.55 0.38 0.29 0.27 0.14 0.07 0.05
0.58 0.68 0.75 0.86 1.18 1.90 1.40 1.93 1.41 0.88 1.80 1.84 0.90 0.57 0.30 0.54 0.71 0.76 1.61 2.47 1.71 1.73 1.52 0.91 0.59 0.45 0.36 0.44 0.60 0.33 0.28 0.24 0.54 0.50 0.56 0.63 0.61 0.25 0.22 0.24 0.25 0.27 0.38 0.16 0.10
0.69 0.71 0.89 1.13 1.54 1.41 2.13 1.40 1.36 0.91 1.27 1.90 1.35 0.70 0.57 0.83 1.12 0.85 1.31 1.90 1.91 1.66 1.68 1.11 0.57 0.48 0.37 0.63 0.58 0.35 0.24 0.33 0.51 0.69 0.56 0.39 0.46 0.14 0.09 0.16 0.21 0.14 0.33 0.33 0.18
0.69 0.78 0.94 1.46 1.47 1.33 1.66 1.48 1.27 1.06 1.82 1.83 1.27 0.65 0.57 0.80 0.99 1.01 1.09 1.56 1.33 1.61 1.64 1.16 0.65 0.65 0.54 0.62 0.26 0.31 0.27 0.33 0.44 0.60 0.54 0.27 0.43 0.10 0.09 0.08 0.08 0.10 0.12 0.39 0.44
1.10 1.23 1.35 1.27 1.09 0.99 0.99 1.45 1.52 1.21 1.87 1.45 0.96 0.80 0.84 0.60 0.53 0.65 1.11 1.36 1.43 1.40 1.34 0.86 0.60 0.77 0.48 0.32 0.22 0.66 0.62 0.58 0.38 0.49 0.75 0.42 0.29 0.13 0.10 0.11 0.16 0.28 0.16 0.32 0.66
1.54 1.82 1.85 1.48 1.06 0.72 1.17 1.49 1.59 1.18 0.86 0.54 0.42 0.32 0.29 0.25 0.37 0.42 0.71 0.95 1.27 1.58 1.78 1.36 0.83 0.66 0.43 0.53 0.27 0.47 0.70 0.97 0.89 0.93 0.43 0.29 0.54 0.25 0.01 0.05 0.14 0.35 0.11 0.17 0.53
1.61 1.49 1.25 1.03 0.93 1.36 1.30 1.10 1.48 1.01 0.45 0.21 0.11 0.23 0.19 0.20 0.25 0.25 0.49 0.61 0.55 0.47 0.95 1.35 1.43 0.79 0.56 0.28 0.22 0.14 0.38 0.84 0.73 0.50 0.35 0.52 0.71 0.35 0.05 0.03 0.12 0.28 0.12 0.10 0.38
1.84 1.52 1.42 1.14 1.03 1.56 1.22 1.04 1.24 0.71 0.21 0.11 0.21 0.32 0.42 0.18 0.14 0.31 0.38 0.24 0.17 0.21 0.55 0.78 0.92 0.42 0.30 0.15 0.25 0.36 0.41 0.25 0.51 0.45 0.71 0.52 0.56 0.54 0.28 0.05 0.19 0.26 0.22 0.19 0.27
1.48 1.67 1.38 1.16 1.13 1.39 1.21 0.93 0.63 0.10 0.00 0.02 0.11 0.09 0.16 0.16 0.18 0.18 0.27 0.24 0.23 0.26 0.21 0.16 0.49 0.27 0.24 0.33 0.26 0.20 0.13 0.21 0.54 0.50 0.45 0.28 0.20 0.62 0.51 0.50 0.46 0.36 0.33 0.29 0.42
1.42 1.82 1.79 1.15 1.42 1.51 1.27 0.95 0.34 0.03 0.01 0.01 0.01 0.02 0.11 0.20 0.06 0.04 0.06 0.07 0.08 0.08 0.01 0.02 0.30 0.25 0.23 0.35 0.17 0.05 0.17 0.14 0.17 0.13 0.17 0.11 0.34 0.66 0.59 0.67 0.58 0.47 0.66 0.74 0.86
1.74 1.70 1.84 1.27 1.58 1.23 0.76 0.46 0.16 0.04 0.01 0.00 0.00 0.01 0.01 0.02 0.01 0.01 0.01 0.02 0.02 0.01 0.01 0.00 0.13 0.16 0.09 0.01 0.02 0.06 0.02 0.06 0.22 0.07 0.12 0.13 0.25 0.39 0.44 0.51 0.61 0.62 0.78 0.88 0.99
1.53 1.84 1.97 0.94 0.76 0.57 0.30 0.08 0.09 0.06 0.03 0.00 0.00 0.00 0.01 0.01 0.01 0.01 0.00 0.00 0.00 0.00 0.01 0.01 0.15 0.21 0.22 0.19 0.11 0.17 0.05 0.09 0.18 0.37 0.26 0.14 0.05 0.04 0.12 0.20 0.31 0.39 0.45 0.51 0.54
1.25 1.75 2.30 1.30 0.36 0.09 0.14 0.12 0.06 0.03 0.01 0.01 0.02 0.02 0.01 0.01 0.00 0.00 0.00 0.00 0.00 0.00 0.02 0.11 0.17 0.12 0.13 0.31 0.41 0.32 0.07 0.09 0.38 0.60 0.11 0.05 0.02 0.01 0.03 0.03 0.06 0.07 0.07 0.06 0.03
0.74 0.47 0.57 0.70 0.23 0.03 0.04 0.07 0.04 0.01 0.01 0.03 0.04 0.04 0.02 0.02 0.01 0.00 0.00 0.00 0.00 0.02 0.13 0.33 0.25 0.11 0.12 0.22 0.58 0.38 0.14 0.10 0.39 0.19 0.26 0.09 0.04 0.04 0.04 0.05 0.05 0.04 0.03 0.03 0.03
0.81 0.29 0.09 0.03 0.02 0.01 0.01 0.04 0.04 0.02 0.03 0.04 0.01 0.01 0.03 0.03 0.01 0.00 0.00 0.00 0.01 0.03 0.13 0.31 0.38 0.33 0.34 0.25 0.35 0.27 0.07 0.11 0.12 0.04 0.05 0.02 0.04 0.05 0.05 0.03 0.08 0.06 0.02 0.01 0.00
0.86 0.29 0.04 0.02 0.01 0.00 0.00 0.02 0.02 0.02 0.03 0.00 0.01 0.02 0.03 0.01 0.01 0.01 0.01 0.01 0.01 0.07 0.26 0.41 0.47 0.64 0.48 0.18 0.19 0.26 0.08 0.06 0.09 0.07 0.03 0.04 0.05 0.07 0.25 0.45 0.39 0.10 0.04 0.02 0.02

GFSSW_prec_precacc_126.txt.gz
Total_Precipitation_Accumulation
0.77 1.38 1.40 1.19 0.91 0.78 0.73 0.64 0.72 0.80 0.94 1.33 3.06 0.99 0.48 0.42 0.47 0.41 0.14 0.04 0.08 0.21 0.41 0.13 0.06 0.08 0.16 0.34 0.56 0.70 0.92 0.44 0.10 0.04 0.04 0.00 0.00 0.02 0.01 0.00 0.01 0.01 0.05 0.04 0.11
0.87 1.71 2.96 1.53 1.51 0.84 0.47 0.55 0.58 0.65 0.82 1.31 3.16 2.21 0.74 0.70 0.34 0.15 0.05 0.05 0.18 0.44 0.36 0.21 0.10 0.14 0.19 0.32 0.76 1.09 0.91 0.30 0.07 0.07 0.07 0.02 0.00 0.01 0.01 0.02 0.06 0.14 0.12 0.06 0.19
0.78 1.31 1.65 1.63 1.49 0.97 0.59 0.51 0.51 0.53 0.67 1.38 2.38 2.61 1.16 0.82 0.50 0.09 0.12 0.16 0.46 0.75 0.47 0.23 0.29 0.34 0.17 0.32 0.62 0.78 0.46 0.05 0.04 0.17 0.25 0.15 0.02 0.02 0.02 0.05 0.01 0.07 0.12 0.12 0.30
0.87 1.22 1.26 1.23 1.02 0.82 0.60 0.50 0.46 0.54 0.71 1.18 2.10 1.92 1.20 0.96 0.48 0.19 0.08 0.18 0.49 1.03 0.82 0.36 0.31 0.37 0.20 0.16 0.30 0.45 0.12 0.10 0.15 0.19 0.31 0.21 0.12 0.11 0.09 0.02 0.01 0.05 0.16 0.24 0.23
0.81 1.10 1.13 0.88 0.74 0.63 0.48 0.39 0.39 0.54 0.68 1.22 1.85 1.73 1.21 0.82 0.29 0.26 0.20 0.17 0.55 1.29 0.84 0.51 0.32 0.35 0.20 0.06 0.23 0.31 0.19 0.19 0.27 0.27 0.20 0.22 0.36 0.14 0.05 0.03 0.04 0.11 0.24 0.22 0.28
0.76 0.82 0.74 0.65 0.71 0.69 0.46 0.48 0.44 0.55 0.61 1.06 1.70 1.55 1.10 0.66 0.11 0.19 0.29 0.30 0.46 1.02 0.86 0.85 0.38 0.41 0.19 0.12 0.17 0.10 0.35 0.43 0.54 0.43 0.50 0.39 0.32 0.30 0.08 0.07 0.18 0.26 0.32 0.23 0.21
0.71 0.77 0.70 0.59 0.74 0.74 0.62 0.57 0.71 0.71 0.82 1.26 1.71 1.24 1.14 0.62 0.09 0.21 0.30 0.44 0.65 0.88 0.71 0.87 0.43 0.84 0.42 0.18 0.06 0.18 0.53 0.72 0.68 0.60 0.55 0.63 0.52 0.36 0.15 0.13 0.20 0.29 0.42 0.54 0.32
0.78 0.72 0.62 0.68 0.66 0.65 0.57 0.61 0.60 0.68 1.39 1.42 1.51 1.29 0.78 0.28 0.07 0.16 0.24 0.54 0.75 0.93 0.92 1.22 0.87 0.92 0.63 0.21 0.18 0.29 0.53 0.89 0.57 0.75 0.71 0.89 0.58 0.16 0.23 0.23 0.21 0.22 0.33 0.58 0.50
0.70 0.84 0.85 0.72 0.64 0.74 0.83 0.79 0.80 0.92 1.52 1.72 1.37 1.14 0.69 0.24 0.12 0.16 0.15 0.47 0.92 1.26 1.48 1.95 1.89 1.08 0.85 0.47 0.55 0.41 0.37 0.50 0.62 0.65 0.93 0.89 0.55 0.34 0.20 0.20 0.14 0.19 0.17 0.26 0.67
0.65 0.74 0.70 0.56 0.59 0.94 1.35 1.30 1.68 1.84 1.99 1.69 1.41 1.34 0.68 0.15 0.13 0.18 0.21 0.65 1.35 1.88 2.36 2.73 2.90 1.36 0.99 0.69 0.76 0.20 0.15 0.25 0.49 0.46 0.88 0.76 0.65 0.56 0.29 0.13 0.13 0.11 0.10 0.09 0.20
0.60 0.62 0.58 0.60 0.79 1.42 2.07 1.95 1.63 2.58 2.03 1.76 1.15 0.60 0.45 0.19 0.26 0.34 0.47 1.19 2.04 2.56 2.22 2.22 2.21 1.07 0.58 0.22 0.27 0.22 0.15 0.19 0.25 0.28 0.61 0.68 0.39 0.51 0.53 0.27 0.19 0.16 0.06 0.04 0.07
0.51 0.65 0.69 0.75 1.18 1.72 1.70 2.03 1.51 1.93 2.71 1.33 0.57 0.44 0.21 0.27 0.44 0.49 1.03 2.41 2.05 2.42 1.83 1.58 1.11 0.45 0.34 0.40 0.37 0.28 0.21 0.28 0.35 0.58 0.57 0.66 0.50 0.33 0.55 0.38 0.29 0.27 0.14 0.07 0.05
0.58 0.68 0.75 0.86 1.18 1.90 1.41 1.93 1.41 0.88 1.80 1.84 0.90 0.57 0.30 0.54 0.71 0.76 1.61 2.47 1.71 1.73 1.52 0.91 0.59 0.45 0.36 0.44 0.60 0.33 0.28 0.24 0.54 0.50 0.56 0.63 0.61 0.25 0.22 0.24 0.25 0.27 0.38 0.16 0.10
0.69 0.71 0.89 1.13 1.54 1.42 2.13 1.40 1.36 0.91 1.27 1.90 1.35 0.70 0.57 0.83 1.12 0.85 1.31 1.90 1.91 1.66 1.68 1.11 0.57 0.48 0.37 0.63 0.58 0.35 0.24 0.33 0.51 0.69 0.56 0.39 0.46 0.14 0.09 0.16 0.21 0.14 0.33 0.33 0.18
0.69 0.78 0.94 1.46 1.47 1.33 1.66 1.48 1.27 1.06 1.83 1.84 1.27 0.65 0.57 0.80 0.99 1.01 1.09 1.56 1.33 1.61 1.64 1.16 0.65 0.65 0.54 0.62 0.26 0.31 0.27 0.33 0.44 0.60 0.54 0.27 0.43 0.10 0.09 0.08 0.08 0.10 0.12 0.39 0.44
1.10 1.23 1.35 1.27 1.09 0.99 0.99 1.45 1.52 1.21 1.88 1.45 0.96 0.80 0.84 0.60 0.53 0.65 1.11 1.36 1.43 1.40 1.34 0.86 0.60 0.77 0.48 0.32 0.22 0.66 0.62 0.58 0.38 0.49 0.75 0.42 0.29 0.13 0.10 0.11 0.16 0.28 0.16 0.32 0.66
1.54 1.82 1.85 1.48 1.06 0.72 1.17 1.49 1.59 1.18 0.86 0.54 0.42 0.32 0.29 0.25 0.37 0.42 0.71 0.95 1.27 1.58 1.78 1.36 0.83 0.66 0.43 0.53 0.27 0.47 0.70 0.97 0.89 0.93 0.43 0.29 0.54 0.25 0.01 0.05 0.14 0.35 0.11 0.17 0.53
1.61 1.49 1.25 1.03 0.93 1.36 1.30 1.10 1.48 1.01 0.45 0.21 0.11 0.23 0.19 0.20 0.25 0.25 0.49 0.61 0.55 0.47 0.95 1.35 1.43 0.79 0.56 0.28 0.22 0.14 0.38 0.84 0.73 0.50 0.35 0.52 0.71 0.35 0.05 0.03 0.12 0.28 0.12 0.10 0.38
1.84 1.52 1.42 1.14 1.03 1.56 1.22 1.04 1.24 0.71 0.21 0.11 0.21 0.32 0.42 0.18 0.14 0.31 0.38 0.24 0.17 0.21 0.55 0.78 0.92 0.42 0.30 0.15 0.25 0.36 0.41 0.25 0.51 0.45 0.71 0.52 0.56 0.54 0.28 0.05 0.19 0.26 0.22 0.19 0.27
1.48 1.67 1.38 1.16 1.13 1.39 1.21 0.93 0.63 0.10 0.00 0.02 0.11 0.09 0.16 0.16 0.18 0.18 0.27 0.24 0.23 0.26 0.21 0.16 0.49 0.27 0.24 0.33 0.26 0.20 0.13 0.21 0.54 0.50 0.45 0.28 0.20 0.62 0.51 0.50 0.46 0.36 0.33 0.29 0.42
1.42 1.82 1.79 1.15 1.42 1.51 1.27 0.95 0.34 0.03 0.01 0.01 0.01 0.02 0.11 0.20 0.06 0.04 0.06 0.07 0.08 0.08 0.01 0.02 0.30 0.25 0.23 0.35 0.17 0.05 0.17 0.14 0.17 0.13 0.17 0.11 0.34 0.66 0.59 0.67 0.58 0.47 0.66 0.74 0.86
1.74 1.70 1.84 1.27 1.58 1.23 0.76 0.46 0.16 0.04 0.01 0.00 0.00 0.01 0.01 0.02 0.01 0.01 0.01 0.02 0.02 0.01 0.01 0.00 0.13 0.16 0.09 0.01 0.02 0.06 0.02 0.06 0.22 0.07 0.12 0.13 0.25 0.39 0.44 0.51 0.61 0.62 0.78 0.88 0.99
1.53 1.84 1.97 0.94 0.76 0.57 0.30 0.08 0.09 0.06 0.03 0.00 0.00 0.00 0.01 0.01 0.01 0.01 0.00 0.00 0.00 0.00 0.01 0.01 0.15 0.21 0.22 0.19 0.11 0.17 0.05 0.09 0.18 0.37 0.26 0.14 0.05 0.04 0.12 0.20 0.31 0.39 0.45 0.51 0.54
1.25 1.75 2.30 1.30 0.36 0.09 0.14 0.12 0.06 0.03 0.01 0.01 0.02 0.02 0.01 0.01 0.00 0.00 0.00 0.00 0.00 0.00 0.02 0.11 0.17 0.12 0.13 0.31 0.41 0.32 0.07 0.09 0.38 0.60 0.11 0.05 0.02 0.01 0.03 0.03 0.06 0.07 0.07 0.06 0.03
0.74 0.47 0.57 0.70 0.23 0.03 0.04 0.07 0.04 0.01 0.01 0.03 0.04 0.04 0.02 0.02 0.01 0.00 0.00 0.00 0.00 0.02 0.13 0.33 0.25 0.11 0.12 0.22 0.58 0.38 0.14 0.10 0.39 0.19 0.26 0.09 0.04 0.04 0.04 0.05 0.05 0.04 0.03 0.03 0.03
0.81 0.29 0.09 0.03 0.02 0.01 0.01 0.04 0.04 0.02 0.03 0.04 0.01 0.01 0.03 0.03 0.01 0.00 0.00 0.00 0.01 0.03 0.13 0.31 0.38 0.33 0.34 0.25 0.35 0.27 0.07 0.11 0.12 0.04 0.05 0.02 0.04 0.05 0.05 0.03 0.08 0.06 0.02 0.01 0.00
0.86 0.29 0.04 0.02 0.01 0.00 0.00 0.02 0.02 0.02 0.03 0.00 0.01 0.02 0.03 0.01 0.01 0.01 0.01 0.01 0.01 0.07 0.26 0.41 0.47 0.64 0.48 0.18 0.19 0.26 0.08 0.06 0.09 0.07 0.03 0.04 0.05 0.07 0.25 0.45 0.39 0.10 0.04 0.02 0.02

GFSSW_prec_precacc_129.txt.gz
Total_Precipitation_Accumulation
0.80 1.38 1.40 1.24 0.95 0.80 0.83 0.69 0.73 0.81 0.95 1.38 3.30 1.13 0.48 0.42 0.47 0.41 0.14 0.04 0.08 0.21 0.41 0.13 0.06 0.08 0.16 0.34 0.56 0.70 0.92 0.44 0.10 0.04 0.04 0.00 0.00 0.02 0.01 0.00 0.01 0.01 0.05 0.04 0.11
1.14 2.02 3.02 1.69 1.68 0.96 0.62 0.61 0.59 0.67 0.86 1.44 3.29 2.30 0.74 0.70 0.34 0.15 0.05 0.05 0.18 0.44 0.36 0.21 0.10 0.14 0.19 0.32 0.76 1.09 0.91 0.30 0.07 0.07 0.07 0.02 0.00 0.01 0.01 0.02 0.06 0.14 0.12 0.06 0.19
1.09 2.12 2.09 1.82 1.65 1.07 0.60 0.53 0.51 0.56 0.74 1.68 2.46 2.63 1.16 0.82 0.50 0.09 0.12 0.16 0.46 0.75 0.47 0.23 0.29 0.34 0.17 0.32 0.62 0.78 0.46 0.05 0.04 0.17 0.25 0.15 0.02 0.02 0.02 0.05 0.01 0.07 0.12 0.12 0.30
0.93 1.43 1.54 1.31 1.13 0.85 0.64 0.56 0.51 0.62 0.75 1.50 2.20 1.92 1.20 0.96 0.48 0.19 0.08 0.18 0.49 1.03 0.82 0.36 0.31 0.37 0.20 0.16 0.30 0.45 0.12 0.10 0.15 0.19 0.31 0.21 0.12 0.11 0.09 0.02 0.01 0.05 0.16 0.24 0.23
0.81 1.15 1.17 0.88 0.76 0.66 0.51 0.42 0.43 0.59 0.68 1.34 1.93 1.73 1.21 0.82 0.29 0.26 0.20 0.17 0.55 1.29 0.84 0.51 0.32 0.35 0.20 0.06 0.23 0.31 0.19 0.19 0.27 0.27 0.20 0.22 0.36 0.14 0.05 0.03 0.04 0.11 0.24 0.22 0.28
0.76 0.82 0.77 0.68 0.72 0.74 0.52 0.55 0.50 0.56 0.61 1.11 1.74 1.55 1.10 0.66 0.11 0.19 0.29 0.30 0.46 1.02 0.86 0.85 0.38 0.41 0.19 0.12 0.17 0.10 0.35 0.43 0.54 0.43 0.50 0.39 0.32 0.30 0.08 0.07 0.18 0.26 0.32 0.23 0.21
0.72 0.77 0.75 0.64 0.80 0.79 0.74 0.67 0.74 0.71 0.85 1.39 1.75 1.24 1.14 0.62 0.09 0.21 0.30 0.44 0.65 0.88 0.71 0.87 0.43 0.84 0.42 0.18 0.06 0.18 0.53 0.72 0.68 0.60 0.55 0.63 0.52 0.36 0.15 0.13 0.20 0.29 0.42 0.54 0.32
0.79 0.73 0.65 0.73 0.71 0.72 0.62 0.64 0.64 0.72 1.45 1.63 1.56 1.29 0.78 0.28 0.07 0.16 0.24 0.54 0.75 0.93 0.92 1.22 0.87 0.92 0.63 0.21 0.18 0.29 0.53 0.89 0.57 0.75 0.71 0.89 0.58 0.16 0.23 0.23 0.21 0.22 0.33 0.58 0.50
0.71 0.84 0.88 0.75 0.65 0.75 0.84 0.79 0.80 0.92 1.56 1.84 1.42 1.14 0.69 0.24 0.12 0.16 0.15 0.47 0.92 1.26 1.48 1.95 1.89 1.08 0.85 0.47 0.55 0.41 0.37 0.50 0.62 0.65 0.93 0.89 0.55 0.34 0.20 0.20 0.14 0.19 0.17 0.26 0.67
0.65 0.74 0.71 0.56 0.59 0.94 1.35 1.31 1.69 1.84 2.01 1.75 1.44 1.34 0.68 0.15 0.13 0.18 0.21 0.65 1.35 1.88 2.36 2.73 2.90 1.36 0.99 0.69 0.76 0.20 0.15 0.25 0.49 0.46 0.88 0.76 0.65 0.56 0.29 0.13 0.13 0.11 0.10 0.09 0.20
0.60 0.62 0.58 0.60 0.79 1.42 2.07 1.95 1.63 2.58 2.03 1.82 1.18 0.60 0.45 0.19 0.26 0.34 0.47 1.19 2.04 2.56 2.22 2.22 2.21 1.07 0.58 0.22 0.27 0.22 0.15 0.19 0.25 0.28 0.61 0.68 0.39 0.51 0.53 0.27 0.19 0.16 0.06 0.04 0.07
0.51 0.65 0.69 0.75 1.18 1.73 1.72 2.03 1.51 1.93 2.72 1.33 0.57 0.44 0.21 0.27 0.44 0.49 1.03 2.41 2.05 2.42 1.83 1.58 1.11 0.45 0.34 0.40 0.37 0.28 0.21 0.28 0.35 0.58 0.57 0.66 0.50 0.33 0.55 0.38 0.29 0.27 0.14 0.07 0.05
0.58 0.68 0.75 0.86 1.19 1.91 1.41 1.93 1.41 0.88 1.80 1.84 0.90 0.57 0.30 0.54 0.71 0.76 1.61 2.47 1.71 1.73 1.52 0.91 0.59 0.45 0.36 0.44 0.60 0.33 0.28 0.24 0.54 0.50 0.56 0.63 0.61 0.25 0.22 0.24 0.25 0.27 0.38 0.16 0.10
0.69 0.71 0.89 1.13 1.55 1.42 2.13 1.40 1.36 0.91 1.27 1.90 1.35 0.70 0.57 0.83 1.12 0.85 1.31 1.90 1.91 1.66 1.68 1.11 0.57 0.48 0.37 0.63 0.58 0.35 0.24 0.33 0.51 0.69 0.56 0.39 0.46 0.14 0.09 0.16 0.21 0.14 0.33 0.33 0.18
0.69 0.78 0.94 1.46 1.47 1.33 1.66 1.48 1.27 1.06 1.83 1.84 1.27 0.65 0.57 0.80 0.99 1.01 1.09 1.56 1.33 1.61 1.64 1.16 0.65 0.65 0.54 0.62 0.26 0.31 0.27 0.33 0.44 0.60 0.54 0.27 0.43 0.10 0.09 0.08 0.08 0.10 0.12 0.39 0.44
1.10 1.23 1.35 1.27 1.09 0.99 0.99 1.45 1.52 1.21 1.88 1.45 0.96 0.80 0.84 0.60 0.53 0.65 1.11 1.36 1.43 1.40 1.34 0.86 0.60 0.77 0.48 0.32 0.22 0.66 0.62 0.58 0.38 0.49 0.75 0.42 0.29 0.13 0.10 0.11 0.16 0.28 0.16 0.32 0.66
1.54 1.82 1.85 1.48 1.06 0.72 1.17 1.49 1.59 1.18 0.86 0.54 0.42 0.32 0.29 0.25 0.37 0.42 0.71 0.95 1.27 1.58 1.78 1.36 0.83 0.66 0.43 0.53 0.27 0.47 0.70 0.97 0.89 0.93 0.43 0.29 0.54 0.25 0.01 0.05 0.14 0.35 0.11 0.17 0.53
1.61 1.49 1.25 1.03 0.93 1.36 1.30 1.10 1.48 1.01 0.45 0.21 0.11 0.23 0.19 0.20 0.25 0.25 0.49 0.61 0.55 0.47 0.95 1.35 1.43 0.79 0.56 0.28 0.22 0.14 0.38 0.84 0.73 0.50 0.35 0.52 0.71 0.35 0.05 0.03 0.12 0.28 0.12 0.10 0.38
1.84 1.52 1.42 1.14 1.03 1.56 1.22 1.04 1.24 0.71 0.21 0.11 0.21 0.32 0.42 0.18 0.14 0.31 0.38 0.24 0.17 0.21 0.55 0.78 0.92 0.42 0.30 0.15 0.25 0.36 0.41 0.25 0.51 0.45 0.71 0.52 0.56 0.54 0.28 0.05 0.19 0.26 0.22 0.19 0.27
1.48 1.67 1.38 1.16 1.13 1.39 1.21 0.93 0.63 0.10 0.00 0.02 0.11 0.09 0.16 0.16 0.18 0.18 0.27 0.24 0.23 0.26 0.21 0.16 0.49 0.27 0.24 0.33 0.26 0.20 0.13 0.21 0.54 0.50 0.45 0.28 0.20 0.62 0.51 0.50 0.46 0.36 0.33 0.29 0.42
1.42 1.82 1.79 1.15 1.42 1.51 1.27 0.95 0.34 0.03 0.01 0.01 0.01 0.02 0.11 0.20 0.06 0.04 0.06 0.07 0.08 0.08 0.01 0.02 0.30 0.25 0.23 0.35 0.17 0.05 0.17 0.14 0.17 0.13 0.17 0.11 0.34 0.66 0.59 0.67 0.58 0.47 0.66 0.74 0.86
1.74 1.70 1.84 1.27 1.58 1.23 0.76 0.46 0.16 0.04 0.01 0.00 0.00 0.01 0.01 0.02 0.01 0.01 0.01 0.02 0.02 0.01 0.01 0.00 0.13 0.16 0.09 0.01 0.02 0.06 0.02 0.06 0.22 0.07 0.12 0.13 0.25 0.39 0.44 0.51 0.61 0.62 0.78 0.88 0.99
1.53 1.84 1.97 0.94 0.76 0.57 0.30 0.08 0.09 0.06 0.03 0.00 0.00 0.00 0.01 0.01 0.01 0.01 0.00 0.00 0.00 0.00 0.01 0.01 0.15 0.21 0.22 0.19 0.11 0.17 0.05 0.09 0.18 0.37 0.26 0.14 0.05 0.04 0.12 0.20 0.31 0.39 0.45 0.51 0.54
1.25 1.75 2.30 1.30 0.36 0.09 0.14 0.12 0.06 0.03 0.01 0.01 0.02 0.02 0.01 0.01 0.00 0.00 0.00 0.00 0.00 0.00 0.02 0.11 0.17 0.12 0.13 0.31 0.41 0.32 0.07 0.09 0.38 0.60 0.11 0.05 0.02 0.01 0.03 0.03 0.06 0.07 0.07 0.06 0.03
0.74 0.47 0.57 0.70 0.23 0.03 0.04 0.07 0.04 0.01 0.01 0.03 0.04 0.04 0.02 0.02 0.01 0.00 0.00 0.00 0.00 0.02 0.13 0.33 0.25 0.11 0.12 0.22 0.58 0.38 0.14 0.10 0.39 0.19 0.26 0.09 0.04 0.04 0.04 0.05 0.05 0.04 0.03 0.03 0.03
0.81 0.29 0.09 0.03 0.02 0.01 0.01 0.04 0.04 0.02 0.03 0.04 0.01 0.01 0.03 0.03 0.01 0.00 0.00 0.00 0.01 0.03 0.13 0.31 0.38 0.33 0.34 0.25 0.35 0.27 0.07 0.11 0.12 0.04 0.05 0.02 0.04 0.05 0.05 0.03 0.08 0.06 0.02 0.01 0.00
0.86 0.29 0.04 0.02 0.01 0.00 0.00 0.02 0.02 0.02 0.03 0.00 0.01 0.02 0.03 0.01 0.01 0.01 0.01 0.01 0.01 0.07 0.26 0.41 0.47 0.64 0.48 0.18 0.19 0.26 0.08 0.06 0.09 0.07 0.03 0.04 0.05 0.07 0.25 0.45 0.39 0.10 0.04 0.02 0.02

GFSSW_prec_precacc_132.txt.gz
Total_Precipitation_Accumulation
0.94 1.43 1.40 1.24 1.02 0.89 0.85 0.69 0.74 0.81 0.95 1.38 3.50 1.31 0.48 0.42 0.47 0.41 0.14 0.04 0.08 0.21 0.41 0.13 0.06 0.08 0.16 0.34 0.56 0.70 0.92 0.44 0.10 0.04 0.04 0.00 0.00 0.02 0.01 0.00 0.01 0.01 0.05 0.04 0.11
1.34 2.07 3.03 1.73 1.84 1.06 0.63 0.63 0.61 0.67 0.86 1.47 3.52 2.50 0.74 0.70 0.34 0.15 0.05 0.05 0.18 0.44 0.36 0.21 0.10 0.14 0.19 0.32 0.76 1.09 0.91 0.30 0.07 0.07 0.07 0.02 0.00 0.01 0.01 0.02 0.06 0.14 0.12 0.06 0.19
1.63 2.39 2.20 1.95 1.83 1.15 0.63 0.61 0.56 0.56 0.79 1.76 2.54 2.77 1.16 0.82 0.50 0.09 0.12 0.16 0.46 0.75 0.47 0.23 0.29 0.34 0.17 0.32 0.62 0.78 0.46 0.05 0.04 0.17 0.25 0.15 0.02 0.02 0.02 0.05 0.01 0.07 0.12 0.12 0.30
1.02 1.58 1.65 1.39 1.18 0.89 0.67 0.62 0.60 0.68 0.93 1.58 2.24 2.04 1.20 0.96 0.48 0.19 0.08 0.18 0.49 1.03 0.82 0.36 0.31 0.37 0.20 0.16 0.30 0.45 0.12 0.10 0.15 0.19 0.31 0.21 0.12 0.11 0.09 0.02 0.01 0.05 0.16 0.24 0.23
0.82 1.16 1.19 0.93 0.79 0.81 0.63 0.47 0.50 0.61 0.78 1.47 1.96 1.76 1.21 0.82 0.29 0.26 0.20 0.17 0.55 1.29 0.84 0.51 0.32 0.35 0.20 0.06 0.23 0.31 0.19 0.19 0.27 0.27 0.20 0.22 0.36 0.14 0.05 0.03 0.04 0.11 0.24 0.22 0.28
0.77 0.84 0.81 0.74 0.83 0.93 0.62 0.62 0.54 0.57 0.64 1.30 1.78 1.56 1.10 0.66 0.11 0.19 0.29 0.30 0.46 1.02 0.86 0.85 0.38 0.41 0.19 0.12 0.17 0.10 0.35 0.43 0.54 0.43 0.50 0.39 0.32 0.30 0.08 0.07 0.18 0.26 0.32 0.23 0.21
0.76 0.82 0.88 0.82 0.97 0.93 0.83 0.74 0.74 0.72 0.86 1.51 1.78 1.24 1.14 0.62 0.09 0.21 0.30 0.44 0.65 0.88 0.71 0.87 0.43 0.84 0.42 0.18 0.06 0.18 0.53 0.72 0.68 0.60 0.55 0.63 0.52 0.36 0.15 0.13 0.20 0.29 0.42 0.54 0.32
0.84 0.75 0.66 0.81 0.92 0.83 0.67 0.65 0.64 0.72 1.46 1.64 1.59 1.29 0.78 0.28 0.07 0.16 0.24 0.54 0.75 0.93 0.92 1.22 0.87 0.92 0.63 0.21 0.18 0.29 0.53 0.89 0.57 0.75 0.71 0.89 0.58 0.16 0.23 0.23 0.21 0.22 0.33 0.58 0.50
0.72 0.86 0.88 0.75 0.69 0.79 0.86 0.79 0.80 0.92 1.56 1.84 1.42 1.14 0.69 0.24 0.12 0.16 0.15 0.47 0.92 1.26 1.48 1.95 1.89 1.08 0.85 0.47 0.55 0.41 0.37 0.50 0.62 0.65 0.93 0.89 0.55 0.34 0.20 0.20 0.14 0.19 0.17 0.26 0.67
0.65 0.74 0.72 0.56 0.59 0.94 1.35 1.31 1.69 1.84 2.03 1.77 1.44 1.34 0.68 0.15 0.13 0.18 0.21 0.65 1.35 1.88 2.36 2.73 2.90 1.36 0.99 0.69 0.76 0.20 0.15 0.25 0.49 0.46 0.88 0.76 0.65 0.56 0.29 0.13 0.13 0.11 0.10 0.09 0.20
0.60 0.62 0.59 0.60 0.79 1.42 2.07 1.95 1.63 2.59 2.04 1.86 1.19 0.60 0.45 0.19 0.26 0.34 0.47 1.19 2.04 2.56 2.22 2.22 2.21 1.07 0.58 0.22 0.27 0.22 0.15 0.19 0.25 0.28 0.61 0.68 0.39 0.51 0.53 0.27 0.19 0.16 0.06 0.04 0.07
0.51 0.65 0.69 0.75 1.18 1.73 1.72 2.03 1.51 1.93 2.73 1.34 0.57 0.44 0.21 0.27 0.44 0.49 1.03 2.41 2.05 2.42 1.83 1.58 1.11 0.45 0.34 0.40 0.37 0.28 0.21 0.28 0.35 0.58 0.57 0.66 0.50 0.33 0.55 0.38 0.29 0.27 0.14 0.07 0.05
0.58 0.68 0.75 0.86 1.19 1.91 1.41 1.93 1.41 0.88 1.80 1.84 0.90 0.57 0.30 0.54 0.71 0.76 1.61 2.47 1.71 1.73 1.52 0.91 0.59 0.45 0.36 0.44 0.60 0.33 0.28 0.24 0.54 0.50 0.56 0.63 0.61 0.25 0.22 0.24 0.25 0.27 0.38 0.16 0.10
0.69 0.71 0.89 1.13 1.55 1.42 2.13 1.40 1.36 0.91 1.27 1.90 1.35 0.70 0.57 0.83 1.12 0.85 1.31 1.90 1.91 1.66 1.68 1.11 0.57 0.48 0.37 0.63 0.58 0.35 0.24 0.33 0.51 0.69 0.56 0.39 0.46 0.14 0.09 0.16 0.21 0.14 0.33 0.33 0.18
0.69 0.78 0.94 1.46 1.47 1.33 1.66 1.48 1.27 1.06 1.83 1.84 1.27 0.65 0.57 0.80 0.99 1.01 1.09 1.56 1.33 1.61 1.64 1.16 0.65 0.65 0.54 0.62 0.26 0.31 0.27 0.33 0.44 0.60 0.54 0.27 0.43 0.10 0.09 0.08 0.08 0.10 0.12 0.39 0.44
1.10 1.23 1.35 1.27 1.09 0.99 0.99 1.45 1.52 1.21 1.88 1.45 0.96 0.80 0.84 0.60 0.53 0.65 1.11 1.36 1.43 1.40 1.34 0.86 0.60 0.77 0.48 0.32 0.22 0.66 0.62 0.58 0.38 0.49 0.75 0.42 0.29 0.13 0.10 0.11 0.16 0.28 0.16 0.32 0.66
1.54 1.82 1.85 1.48 1.06 0.72 1.17 1.49 1.59 1.18 0.86 0.54 0.42 0.32 0.29 0.25 0.37 0.42 0.71 0.95 1.27 1.58 1.78 1.36 0.83 0.66 0.43 0.53 0.27 0.47 0.70 0.97 0.89 0.93 0.43 0.29 0.54 0.25 0.01 0.05 0.14 0.35 0.11 0.17 0.53
1.61 1.49 1.25 1.03 0.93 1.36 1.30 1.10 1.48 1.01 0.45 0.21 0.11 0.23 0.19 0.20 0.25 0.25 0.49 0.61 0.55 0.47 0.95 1.35 1.43 0.79 0.56 0.28 0.22 0.14 0.38 0.84 0.73 0.50 0.35 0.52 0.71 0.35 0.05 0.03 0.12 0.28 0.12 0.10 0.38
1.84 1.52 1.42 1.14 1.03 1.56 1.22 1.04 1.24 0.71 0.21 0.11 0.21 0.32 0.42 0.18 0.14 0.31 0.38 0.24 0.17 0.21 0.55 0.78 0.92 0.42 0.30 0.15 0.25 0.36 0.41 0.25 0.51 0.45 0.71 0.52 0.56 0.54 0.28 0.05 0.19 0.26 0.22 0.19 0.27
1.48 1.67 1.38 1.16 1.13 1.39 1.21 0.93 0.63 0.10 0.00 0.02 0.11 0.09 0.16 0.16 0.18 0.18 0.27 0.24 0.23 0.26 0.21 0.16 0.49 0.27 0.24 0.33 0.26 0.20 0.13 0.21 0.54 0.50 0.45 0.28 0.20 0.62 0.51 0.50 0.46 0.36 0.33 0.29 0.42
1.42 1.82 1.79 1.15 1.42 1.51 1.27 0.95 0.34 0.03 0.01 0.01 0.01 0.02 0.11 0.20 0.06 0.04 0.06 0.07 0.08 0.08 0.01 0.02 0.30 0.25 0.23 0.35 0.17 0.05 0.17 0.14 0.17 0.13 0.17 0.11 0.34 0.66 0.59 0.67 0.58 0.47 0.66 0.74 0.86
1.74 1.70 1.84 1.27 1.58 1.23 0.76 0.46 0.16 0.04 0.01 0.00 0.00 0.01 0.01 0.02 0.01 0.01 0.01 0.02 0.02 0.01 0.01 0.00 0.13 0.16 0.09 0.01 0.02 0.06 0.02 0.06 0.22 0.07 0.12 0.13 0.25 0.39 0.44 0.51 0.61 0.62 0.78 0.88 0.99
1.53 1.84 1.97 0.94 0.76 0.57 0.30 0.08 0.09 0.06 0.03 0.00 0.00 0.00 0.01 0.01 0.01 0.01 0.00 0.00 0.00 0.00 0.01 0.01 0.15 0.21 0.22 0.19 0.11 0.17 0.05 0.09 0.18 0.37 0.26 0.14 0.05 0.04 0.12 0.20 0.31 0.39 0.45 0.51 0.54
1.25 1.75 2.30 1.30 0.36 0.09 0.14 0.12 0.06 0.03 0.01 0.01 0.02 0.02 0.01 0.01 0.00 0.00 0.00 0.00 0.00 0.00 0.02 0.11 0.17 0.12 0.13 0.31 0.41 0.32 0.07 0.09 0.38 0.60 0.11 0.05 0.02 0.01 0.03 0.03 0.06 0.07 0.07 0.06 0.03
0.74 0.47 0.57 0.70 0.23 0.03 0.04 0.07 0.04 0.01 0.01 0.03 0.04 0.04 0.02 0.02 0.01 0.00 0.00 0.00 0.00 0.02 0.13 0.33 0.25 0.11 0.12 0.22 0.58 0.38 0.14 0.10 0.39 0.19 0.26 0.09 0.04 0.04 0.04 0.05 0.05 0.04 0.03 0.03 0.03
0.81 0.29 0.09 0.03 0.02 0.01 0.01 0.04 0.04 0.02 0.03 0.04 0.01 0.01 0.03 0.03 0.01 0.00 0.00 0.00 0.01 0.03 0.13 0.31 0.38 0.33 0.34 0.25 0.35 0.27 0.07 0.11 0.12 0.04 0.05 0.02 0.04 0.05 0.05 0.03 0.08 0.06 0.02 0.01 0.00
0.86 0.29 0.04 0.02 0.01 0.00 0.00 0.02 0.02 0.02 0.03 0.00 0.01 0.02 0.03 0.01 0.01 0.01 0.01 0.01 0.01 0.07 0.26 0.41 0.47 0.64 0.48 0.18 0.19 0.26 0.08 0.06 0.09 0.07 0.03 0.04 0.05 0.07 0.25 0.45 0.39 0.10 0.04 0.02 0.02

GFSSW_prec_precacc_135.txt.gz
Total_Precipitation_Accumulation
0.99 1.48 1.42 1.24 1.04 1.05 0.91 0.77 0.85 0.82 0.95 1.43 3.69 1.60 0.48 0.42 0.47 0.41 0.14 0.04 0.08 0.21 0.41 0.13 0.06 0.08 0.16 0.34 0.56 0.70 0.92 0.44 0.10 0.04 0.04 0.00 0.00 0.02 0.01 0.00 0.01 0.01 0.05 0.04 0.11
1.40 2.09 3.04 1.73 1.92 1.11 0.65 0.72 0.72 0.72 0.88 1.51 3.70 2.91 0.74 0.70 0.34 0.15 0.05 0.05 0.18 0.44 0.36 0.21 0.10 0.14 0.19 0.32 0.76 1.09 0.91 0.30 0.07 0.07 0.07 0.02 0.00 0.01 0.01 0.02 0.06 0.14 0.12 0.06 0.19
1.69 2.48 2.23 1.99 1.92 1.25 0.68 0.66 0.61 0.62 0.84 1.80 2.65 3.02 1.17 0.82 0.50 0.09 0.12 0.16 0.46 0.75 0.47 0.23 0.29 0.34 0.17 0.32 0.62 0.78 0.46 0.05 0.04 0.17 0.25 0.15 0.02 0.02 0.02 0.05 0.01 0.07 0.12 0.12 0.30
1.02 1.60 1.71 1.51 1.26 1.00 0.73 0.66 0.68 0.76 0.97 1.58 2.25 2.15 1.21 0.96 0.48 0.19 0.08 0.18 0.49 1.03 0.82 0.36 0.31 0.37 0.20 0.16 0.30 0.45 0.12 0.10 0.15 0.19 0.31 0.21 0.12 0.11 0.09 0.02 0.01 0.05 0.16 0.24 0.23
0.85 1.17 1.22 1.00 0.84 0.95 0.79 0.59 0.57 0.73 0.80 1.47 1.96 1.82 1.21 0.82 0.29 0.26 0.20 0.17 0.55 1.29 0.84 0.51 0.32 0.35 0.20 0.06 0.23 0.31 0.19 0.19 0.27 0.27 0.20 0.22 0.36 0.14 0.05 0.03 0.04 0.11 0.24 0.22 0.28
0.88 0.95 0.93 0.88 0.94 1.18 0.81 0.70 0.59 0.61 0.66 1.30 1.78 1.58 1.10 0.66 0.11 0.19 0.29 0.30 0.46 1.02 0.86 0.85 0.38 0.41 0.19 0.12 0.17 0.10 0.35 0.43 0.54 0.43 0.50 0.39 0.32 0.30 0.08 0.07 0.18 0.26 0.32 0.23 0.21
0.84 1.04 1.09 1.02 1.26 1.15 0.91 0.77 0.76 0.73 0.87 1.52 1.78 1.25 1.14 0.62 0.09 0.21 0.30 0.44 0.65 0.88 0.71 0.87 0.43 0.84 0.42 0.18 0.06 0.18 0.53 0.72 0.68 0.60 0.55 0.63 0.52 0.36 0.15 0.13 0.20 0.29 0.42 0.54 0.32
0.85 0.81 0.84 1.03 1.07 0.91 0.74 0.66 0.64 0.72 1.46 1.65 1.59 1.29 0.78 0.28 0.07 0.16 0.24 0.54 0.75 0.93 0.92 1.22 0.87 0.92 0.63 0.21 0.18 0.29 0.53 0.89 0.57 0.75 0.71 0.89 0.58 0.16 0.23 0.23 0.21 0.22 0.33 0.58 0.50
0.72 0.87 0.91 0.82 0.75 0.82 0.86 0.79 0.80 0.92 1.56 1.84 1.43 1.14 0.69 0.24 0.12 0.16 0.15 0.47 0.92 1.26 1.48 1.95 1.89 1.08 0.85 0.47 0.55 0.41 0.37 0.50 0.62 0.65 0.93 0.89 0.55 0.34 0.20 0.20 0.14 0.19 0.17 0.26 0.67
0.65 0.74 0.72 0.56 0.60 0.95 1.36 1.31 1.69 1.84 2.03 1.77 1.45 1.34 0.68 0.15 0.13 0.18 0.21 0.65 1.35 1.88 2.36 2.73 2.90 1.36 0.99 0.69 0.76 0.20 0.15 0.25 0.49 0.46 0.88 0.76 0.65 0.56 0.29 0.13 0.13 0.11 0.10 0.09 0.20
0.60 0.62 0.59 0.60 0.79 1.42 2.07 1.95 1.63 2.59 2.04 1.88 1.20 0.60 0.45 0.19 0.26 0.34 0.47 1.19 2.04 2.56 2.22 2.22 2.21 1.07 0.58 0.22 0.27 0.22 0.15 0.19 0.25 0.28 0.61 0.68 0.39 0.51 0.53 0.27 0.19 0.16 0.06 0.04 0.07
0.51 0.65 0.69 0.75 1.18 1.73 1.72 2.03 1.51 1.93 2.73 1.34 0.57 0.44 0.21 0.27 0.44 0.49 1.03 2.41 2.05 2.42 1.83 1.58 1.11 0.45 0.34 0.40 0.37 0.28 0.21 0.28 0.35 0.58 0.57 0.66 0.50 0.33 0.55 0.38 0.29 0.27 0.14 0.07 0.05
0.58 0.68 0.75 0.86 1.19 1.91 1.41 1.93 1.41 0.88 1.80 1.84 0.90 0.57 0.30 0.54 0.71 0.76 1.61 2.47 1.71 1.73 1.52 0.91 0.59 0.45 0.36 0.44 0.60 0.33 0.28 0.24 0.54 0.50 0.56 0.63 0.61 0.25 0.22 0.24 0.25 0.27 0.38 0.16 0.10
0.69 0.71 0.89 1.13 1.55 1.42 2.13 1.40 1.36 0.91 1.27 1.90 1.35 0.70 0.57 0.83 1.12 0.85 1.31 1.90 1.91 1.66 1.68 1.11 0.57 0.48 0.37 0.63 0.58 0.35 0.24 0.33 0.51 0.69 0.56 0.39 0.46 0.14 0.09 0.16 0.21 0.14 0.33 0.33 0.18
0.69 0.78 0.94 1.46 1.47 1.33 1.66 1.48 1.27 1.06 1.83 1.84 1.27 0.65 0.57 0.80 0.99 1.01 1.09 1.56 1.33 1.61 1.64 1.16 0.65 0.65 0.54 0.62 0.26 0.31 0.27 0.33 0.44 0.60 0.54 0.27 0.43 0.10 0.09 0.08 0.08 0.10 0.12 0.39 0.44
1.10 1.23 1.35 1.27 1.09 0.99 0.99 1.45 1.52 1.21 1.88 1.45 0.96 0.80 0.84 0.60 0.53 0.65 1.11 1.36 1.43 1.40 1.34 0.86 0.60 0.77 0.48 0.32 0.22 0.66 0.62 0.58 0.38 0.49 0.75 0.42 0.29 0.13 0.10 0.11 0.16 0.28 0.16 0.32 0.66
1.54 1.82 1.85 1.48 1.06 0.72 1.17 1.49 1.59 1.18 0.86 0.54 0.42 0.32 0.29 0.25 0.37 0.42 0.71 0.95 1.27 1.58 1.78 1.36 0.83 0.66 0.43 0.53 0.27 0.47 0.70 0.97 0.89 0.93 0.43 0.29 0.54 0.25 0.01 0.05 0.14 0.35 0.11 0.17 0.53
1.61 1.49 1.25 1.03 0.93 1.36 1.30 1.10 1.48 1.01 0.45 0.21 0.11 0.23 0.19 0.20 0.25 0.25 0.49 0.61 0.55 0.47 0.95 1.35 1.43 0.79 0.56 0.28 0.22 0.14 0.38 0.84 0.73 0.50 0.35 0.52 0.71 0.35 0.05 0.03 0.12 0.28 0.12 0.10 0.38
1.84 1.52 1.42 1.14 1.03 1.56 1.22 1.04 1.24 0.71 0.21 0.11 0.21 0.32 0.42 0.18 0.14 0.31 0.38 0.24 0.17 0.21 0.55 0.78 0.92 0.42 0.30 0.15 0.25 0.36 0.41 0.25 0.51 0.45 0.71 0.52 0.56 0.54 0.28 0.05 0.19 0.26 0.22 0.19 0.27
1.48 1.67 1.38 1.16 1.13 1.39 1.21 0.93 0.63 0.10 0.00 0.02 0.11 0.09 0.16 0.16 0.18 0.18 0.27 0.24 0.23 0.26 0.21 0.16 0.49 0.27 0.24 0.33 0.26 0.20 0.13 0.21 0.54 0.50 0.45 0.28 0.20 0.62 0.51 0.50 0.46 0.36 0.33 0.29 0.42
1.42 1.82 1.79 1.15 1.42 1.51 1.27 0.95 0.34 0.03 0.01 0.01 0.01 0.02 0.11 0.20 0.06 0.04 0.06 0.07 0.08 0.08 0.01 0.02 0.30 0.25 0.23 0.35 0.17 0.05 0.17 0.14 0.17 0.13 0.17 0.11 0.34 0.66 0.59 0.67 0.58 0.47 0.66 0.74 0.86
1.74 1.70 1.84 1.27 1.58 1.23 0.76 0.46 0.16 0.04 0.01 0.00 0.00 0.01 0.01 0.02 0.01 0.01 0.01 0.02 0.02 0.01 0.01 0.00 0.13 0.16 0.09 0.01 0.02 0.06 0.02 0.06 0.22 0.07 0.12 0.13 0.25 0.39 0.44 0.51 0.61 0.62 0.78 0.88 0.99
1.53 1.84 1.97 0.94 0.76 0.57 0.30 0.08 0.09 0.06 0.03 0.00 0.00 0.00 0.01 0.01 0.01 0.01 0.00 0.00 0.00 0.00 0.01 0.01 0.15 0.21 0.22 0.19 0.11 0.17 0.05 0.09 0.18 0.37 0.26 0.14 0.05 0.04 0.12 0.20 0.31 0.39 0.45 0.51 0.54
1.25 1.75 2.30 1.30 0.36 0.09 0.14 0.12 0.06 0.03 0.01 0.01 0.02 0.02 0.01 0.01 0.00 0.00 0.00 0.00 0.00 0.00 0.02 0.11 0.17 0.12 0.13 0.31 0.41 0.32 0.07 0.09 0.38 0.60 0.11 0.05 0.02 0.01 0.03 0.03 0.06 0.07 0.07 0.06 0.03
0.74 0.47 0.57 0.70 0.23 0.03 0.04 0.07 0.04 0.01 0.01 0.03 0.04 0.04 0.02 0.02 0.01 0.00 0.00 0.00 0.00 0.02 0.13 0.33 0.25 0.11 0.12 0.22 0.58 0.38 0.14 0.10 0.39 0.19 0.26 0.09 0.04 0.04 0.04 0.05 0.05 0.04 0.03 0.03 0.03
0.81 0.29 0.09 0.03 0.02 0.01 0.01 0.04 0.04 0.02 0.03 0.04 0.01 0.01 0.03 0.03 0.01 0.00 0.00 0.00 0.01 0.03 0.13 0.31 0.38 0.33 0.34 0.25 0.35 0.27 0.07 0.11 0.12 0.04 0.05 0.02 0.04 0.05 0.05 0.03 0.08 0.06 0.02 0.01 0.00
0.86 0.29 0.04 0.02 0.01 0.00 0.00 0.02 0.02 0.02 0.03 0.00 0.01 0.02 0.03 0.01 0.01 0.01 0.01 0.01 0.01 0.07 0.26 0.41 0.47 0.64 0.48 0.18 0.19 0.26 0.08 0.06 0.09 0.07 0.03 0.04 0.05 0.07 0.25 0.45 0.39 0.10 0.04 0.02 0.02

GFSSW_prec_precacc_138.txt.gz
Total_Precipitation_Accumulation
1.04 1.48 1.49 1.29 1.08 1.07 0.92 0.83 1.16 1.19 0.96 1.51 3.78 1.83 0.49 0.42 0.47 0.41 0.14 0.04 0.08 0.21 0.41 0.13 0.06 0.08 0.16 0.34 0.56 0.70 0.92 0.44 0.10 0.04 0.04 0.00 0.00 0.02 0.01 0.00 0.01 0.01 0.05 0.04 0.11
1.45 2.11 3.04 1.73 1.95 1.14 0.67 0.83 1.08 1.04 0.94 1.59 3.93 3.35 0.77 0.70 0.34 0.15 0.05 0.05 0.18 0.44 0.36 0.21 0.10 0.14 0.19 0.32 0.76 1.09 0.91 0.30 0.07 0.07 0.07 0.02 0.00 0.01 0.01 0.02 0.06 0.14 0.12 0.06 0.19
1.73 2.52 2.26 1.99 1.98 1.35 0.77 0.76 0.92 0.83 0.91 1.88 2.94 3.36 1.19 0.82 0.50 0.09 0.12 0.16 0.46 0.75 0.47 0.23 0.29 0.34 0.17 0.32 0.62 0.78 0.46 0.05 0.04 0.17 0.25 0.15 0.02 0.02 0.02 0.05 0.01 0.07 0.12 0.12 0.30
1.04 1.62 1.76 1.52 1.27 1.09 0.82 0.76 0.86 0.90 1.02 1.62 2.43 2.44 1.22 0.96 0.48 0.19 0.08 0.18 0.49 1.03 0.82 0.36 0.31 0.37 0.20 0.16 0.30 0.45 0.12 0.10 0.15 0.19 0.31 0.21 0.12 0.11 0.09 0.02 0.01 0.05 0.16 0.24 0.23
0.90 1.24 1.25 1.02 0.85 1.01 0.87 0.70 0.68 0.80 0.81 1.49 2.06 1.97 1.22 0.82 0.29 0.26 0.20 0.17 0.55 1.29 0.84 0.51 0.32 0.35 0.20 0.06 0.23 0.31 0.19 0.19 0.27 0.27 0.20 0.22 0.36 0.14 0.05 0.03 0.04 0.11 0.24 0.22 0.28
0.94 1.01 1.01 0.97 1.06 1.34 0.93 0.76 0.63 0.63 0.66 1.30 1.79 1.63 1.10 0.66 0.11 0.19 0.29 0.30 0.46 1.02 0.86 0.85 0.38 0.41 0.19 0.12 0.17 0.10 0.35 0.43 0.54 0.43 0.50 0.39 0.32 0.30 0.08 0.07 0.18 0.26 0.32 0.23 0.21
0.96 1.16 1.31 1.42 1.58 1.31 0.97 0.79 0.78 0.74 0.87 1.52 1.79 1.27 1.14 0.62 0.09 0.21 0.30 0.44 0.65 0.88 0.71 0.87 0.43 0.84 0.42 0.18 0.06 0.18 0.53 0.72 0.68 0.60 0.55 0.63 0.52 0.36 0.15 0.13 0.20 0.29 0.42 0.54 0.32
0.92 0.91 1.04 1.28 1.24 1.01 0.80 0.67 0.64 0.73 1.46 1.65 1.59 1.30 0.78 0.28 0.07 0.16 0.24 0.54 0.75 0.93 0.92 1.22 0.87 0.92 0.63 0.21 0.18 0.29 0.53 0.89 0.57 0.75 0.71 0.89 0.58 0.16 0.23 0.23 0.21 0.22 0.33 0.58 0.50
0.72 0.92 0.96 0.88 0.81 0.86 0.89 0.79 0.80 0.92 1.56 1.84 1.43 1.14 0.69 0.24 0.12 0.16 0.15 0.47 0.92 1.26 1.48 1.95 1.89 1.08 0.85 0.47 0.55 0.41 0.37 0.50 0.62 0.65 0.93 0.89 0.55 0.34 0.20 0.20 0.14 0.19 0.17 0.26 0.67
0.65 0.74 0.72 0.56 0.60 0.95 1.36 1.31 1.69 1.84 2.03 1.77 1.45 1.34 0.68 0.15 0.13 0.18 0.21 0.65 1.35 1.88 2.36 2.73 2.90 1.36 0.99 0.69 0.76 0.20 0.15 0.25 0.49 0.46 0.88 0.76 0.65 0.56 0.29 0.13 0.13 0.11 0.10 0.09 0.20
0.60 0.62 0.59 0.60 0.79 1.42 2.07 1.95 1.63 2.59 2.04 1.88 1.20 0.60 0.45 0.19 0.26 0.34 0.47 1.19 2.04 2.56 2.22 2.22 2.21 1.07 0.58 0.22 0.27 0.22 0.15 0.19 0.25 0.28 0.61 0.68 0.39 0.51 0.53 0.27 0.19 0.16 0.06 0.04 0.07
0.51 0.65 0.69 0.75 1.18 1.73 1.72 2.03 1.51 1.93 2.73 1.34 0.57 0.44 0.21 0.27 0.44 0.49 1.03 2.41 2.05 2.42 1.83 1.58 1.11 0.45 0.34 0.40 0.37 0.28 0.21 0.28 0.35 0.58 0.57 0.66 0.50 0.33 0.55 0.38 0.29 0.27 0.14 0.07 0.05
0.58 0.68 0.75 0.86 1.19 1.91 1.41 1.93 1.41 0.88 1.80 1.84 0.90 0.57 0.30 0.54 0.71 0.76 1.61 2.47 1.71 1.73 1.52 0.91 0.59 0.45 0.36 0.44 0.60 0.33 0.28 0.24 0.54 0.50 0.56 0.63 0.61 0.25 0.22 0.24 0.25 0.27 0.38 0.16 0.10
0.69 0.71 0.89 1.13 1.55 1.42 2.13 1.40 1.36 0.91 1.27 1.90 1.35 0.70 0.57 0.83 1.12 0.85 1.31 1.90 1.91 1.66 1.68 1.11 0.57 0.48 0.37 0.63 0.58 0.35 0.24 0.33 0.51 0.69 0.56 0.39 0.46 0.14 0.09 0.16 0.21 0.14 0.33 0.33 0.18
0.69 0.78 0.94 1.46 1.47 1.33 1.66 1.48 1.27 1.06 1.83 1.84 1.27 0.65 0.57 0.80 0.99 1.01 1.09 1.56 1.33 1.61 1.64 1.16 0.65 0.65 0.54 0.62 0.26 0.31 0.27 0.33 0.44 0.60 0.54 0.27 0.43 0.10 0.09 0.08 0.08 0.10 0.12 0.39 0.44
1.10 1.23 1.35 1.27 1.09 0.99 0.99 1.45 1.52 1.21 1.88 1.45 0.96 0.80 0.84 0.60 0.53 0.65 1.11 1.36 1.43 1.40 1.34 0.86 0.60 0.77 0.48 0.32 0.22 0.66 0.62 0.58 0.38 0.49 0.75 0.42 0.29 0.13 0.10 0.11 0.16 0.28 0.16 0.32 0.66
1.54 1.82 1.85 1.48 1.06 0.72 1.17 1.49 1.59 1.18 0.86 0.54 0.42 0.32 0.29 0.25 0.37 0.42 0.71 0.95 1.27 1.58 1.78 1.36 0.83 0.66 0.43 0.53 0.27 0.47 0.70 0.97 0.89 0.93 0.43 0.29 0.54 0.25 0.01 0.05 0.14 0.35 0.11 0.17 0.53
1.61 1.49 1.25 1.03 0.93 1.36 1.30 1.10 1.48 1.01 0.45 0.21 0.11 0.23 0.19 0.20 0.25 0.25 0.49 0.61 0.55 0.47 0.95 1.35 1.43 0.79 0.56 0.28 0.22 0.14 0.38 0.84 0.73 0.50 0.35 0.52 0.71 0.35 0.05 0.03 0.12 0.28 0.12 0.10 0.38
1.84 1.52 1.42 1.14 1.03 1.56 1.22 1.04 1.24 0.71 0.21 0.11 0.21 0.32 0.42 0.18 0.14 0.31 0.38 0.24 0.17 0.21 0.55 0.78 0.92 0.42 0.30 0.15 0.25 0.36 0.41 0.25 0.51 0.45 0.71 0.52 0.56 0.54 0.28 0.05 0.19 0.26 0.22 0.19 0.27
1.48 1.67 1.38 1.16 1.13 1.39 1.21 0.93 0.63 0.10 0.00 0.02 0.11 0.09 0.16 0.16 0.18 0.18 0.27 0.24 0.23 0.26 0.21 0.16 0.49 0.27 0.24 0.33 0.26 0.20 0.13 0.21 0.54 0.50 0.45 0.28 0.20 0.62 0.51 0.50 0.46 0.36 0.33 0.29 0.42
1.42 1.82 1.79 1.15 1.42 1.51 1.27 0.95 0.34 0.03 0.01 0.01 0.01 0.02 0.11 0.20 0.06 0.04 0.06 0.07 0.08 0.08 0.01 0.02 0.30 0.25 0.23 0.35 0.17 0.05 0.17 0.14 0.17 0.13 0.17 0.11 0.34 0.66 0.59 0.67 0.58 0.47 0.66 0.74 0.86
1.74 1.70 1.84 1.27 1.58 1.23 0.76 0.46 0.16 0.04 0.01 0.00 0.00 0.01 0.01 0.02 0.01 0.01 0.01 0.02 0.02 0.01 0.01 0.00 0.13 0.16 0.09 0.01 0.02 0.06 0.02 0.06 0.22 0.07 0.12 0.13 0.25 0.39 0.44 0.51 0.61 0.62 0.78 0.88 0.99
1.53 1.84 1.97 0.94 0.76 0.57 0.30 0.08 0.09 0.06 0.03 0.00 0.00 0.00 0.01 0.01 0.01 0.01 0.00 0.00 0.00 0.00 0.01 0.01 0.15 0.21 0.22 0.19 0.11 0.17 0.05 0.09 0.18 0.37 0.26 0.14 0.05 0.04 0.12 0.20 0.31 0.39 0.45 0.51 0.54
1.25 1.75 2.30 1.30 0.36 0.09 0.14 0.12 0.06 0.03 0.01 0.01 0.02 0.02 0.01 0.01 0.00 0.00 0.00 0.00 0.00 0.00 0.02 0.11 0.17 0.12 0.13 0.31 0.41 0.32 0.07 0.09 0.38 0.60 0.11 0.05 0.02 0.01 0.03 0.03 0.06 0.07 0.07 0.06 0.03
0.74 0.47 0.57 0.70 0.23 0.03 0.04 0.07 0.04 0.01 0.01 0.03 0.04 0.04 0.02 0.02 0.01 0.00 0.00 0.00 0.00 0.02 0.13 0.33 0.25 0.11 0.12 0.22 0.58 0.38 0.14 0.10 0.39 0.19 0.26 0.09 0.04 0.04 0.04 0.05 0.05 0.04 0.03 0.03 0.03
0.81 0.29 0.09 0.03 0.02 0.01 0.01 0.04 0.04 0.02 0.03 0.04 0.01 0.01 0.03 0.03 0.01 0.00 0.00 0.00 0.01 0.03 0.13 0.31 0.38 0.33 0.34 0.25 0.35 0.27 0.07 0.11 0.12 0.04 0.05 0.02 0.04 0.05 0.05 0.03 0.08 0.06 0.02 0.01 0.00
0.86 0.29 0.04 0.02 0.01 0.00 0.00 0.02 0.02 0.02 0.03 0.00 0.01 0.02 0.03 0.01 0.01 0.01 0.01 0.01 0.01 0.07 0.26 0.41 0.47 0.64 0.48 0.18 0.19 0.26 0.08 0.06 0.09 0.07 0.03 0.04 0.05 0.07 0.25 0.45 0.39 0.10 0.04 0.02 0.02

GFSSW_prec_precacc_141.txt.gz
Total_Precipitation_Accumulation
1.04 1.48 1.52 1.30 1.10 1.12 1.00 0.87 1.24 1.37 1.13 1.61 3.97 2.17 0.56 0.42 0.47 0.41 0.14 0.04 0.08 0.21 0.41 0.13 0.06 0.08 0.16 0.34 0.56 0.70 0.92 0.44 0.10 0.04 0.04 0.00 0.00 0.02 0.01 0.00 0.01 0.01 0.05 0.04 0.11
1.45 2.11 3.04 1.73 1.99 1.24 0.75 0.90 1.19 1.35 1.14 1.69 4.20 3.54 0.79 0.70 0.34 0.15 0.05 0.05 0.18 0.44 0.36 0.21 0.10 0.14 0.19 0.32 0.76 1.09 0.91 0.30 0.07 0.07 0.07 0.02 0.00 0.01 0.01 0.02 0.06 0.14 0.12 0.06 0.19
1.75 2.53 2.26 2.00 2.01 1.39 0.85 0.86 0.99 1.05 1.03 2.02 3.38 3.44 1.20 0.82 0.50 0.09 0.12 0.16 0.46 0.75 0.47 0.23 0.29 0.34 0.17 0.32 0.62 0.78 0.46 0.05 0.04 0.17 0.25 0.15 0.02 0.02 0.02 0.05 0.01 0.07 0.12 0.12 0.30
1.08 1.65 1.77 1.55 1.32 1.14 0.94 0.83 0.98 1.14 1.10 1.76 2.79 2.49 1.24 0.96 0.48 0.19 0.08 0.18 0.49 1.03 0.82 0.36 0.31 0.37 0.20 0.16 0.30 0.45 0.12 0.10 0.15 0.19 0.31 0.21 0.12 0.11 0.09 0.02 0.01 0.05 0.16 0.24 0.23
0.95 1.28 1.27 1.06 0.94 1.10 0.97 0.81 0.90 1.03 0.84 1.58 2.14 2.03 1.25 0.82 0.29 0.26 0.20 0.17 0.55 1.29 0.84 0.51 0.32 0.35 0.20 0.06 0.23 0.31 0.19 0.19 0.27 0.27 0.20 0.22 0.36 0.14 0.05 0.03 0.04 0.11 0.24 0.22 0.28
0.99 1.02 1.13 1.08 1.20 1.45 1.06 0.89 0.83 0.72 0.67 1.33 1.90 1.74 1.12 0.66 0.11 0.19 0.29 0.30 0.46 1.02 0.86 0.85 0.38 0.41 0.19 0.12 0.17 0.10 0.35 0.43 0.54 0.43 0.50 0.39 0.32 0.30 0.08 0.07 0.18 0.26 0.32 0.23 0.21
1.09 1.37 1.60 1.58 1.67 1.34 1.02 0.86 0.83 0.76 0.88 1.52 1.82 1.33 1.15 0.62 0.09 0.21 0.30 0.44 0.65 0.88 0.71 0.87 0.43 0.84 0.42 0.18 0.06 0.18 0.53 0.72 0.68 0.60 0.55 0.63 0.52 0.36 0.15 0.13 0.20 0.29 0.42 0.54 0.32
0.95 1.02 1.19 1.35 1.29 1.06 0.83 0.68 0.66 0.73 1.46 1.65 1.59 1.34 0.79 0.28 0.07 0.16 0.24 0.54 0.75 0.93 0.92 1.22 0.87 0.92 0.63 0.21 0.18 0.29 0.53 0.89 0.57 0.75 0.71 0.89 0.58 0.16 0.23 0.23 0.21 0.22 0.33 0.58 0.50
0.72 0.93 0.98 0.88 0.81 0.86 0.89 0.80 0.80 0.92 1.56 1.84 1.43 1.14 0.69 0.24 0.12 0.16 0.15 0.47 0.92 1.26 1.48 1.95 1.89 1.08 0.85 0.47 0.55 0.41 0.37 0.50 0.62 0.65 0.93 0.89 0.55 0.34 0.20 0.20 0.14 0.19 0.17 0.26 0.67
0.65 0.74 0.72 0.56 0.60 0.95 1.36 1.31 1.69 1.84 2.03 1.77 1.45 1.34 0.68 0.15 0.13 0.18 0.21 0.65 1.35 1.88 2.36 2.73 2.90 1.36 0.99 0.69 0.76 0.20 0.15 0.25 0.49 0.46 0.88 0.76 0.65 0.56 0.29 0.13 0.13 0.11 0.10 0.09 0.20
0.60 0.62 0.59 0.60 0.79 1.42 2.07 1.95 1.63 2.59 2.04 1.88 1.20 0.60 0.45 0.19 0.26 0.34 0.47 1.19 2.04 2.56 2.22 2.22 2.21 1.07 0.58 0.22 0.27 0.22 0.15 0.19 0.25 0.28 0.61 0.68 0.39 0.51 0.53 0.27 0.19 0.16 0.06 0.04 0.07
0.51 0.65 0.69 0.75 1.18 1.73 1.72 2.03 1.51 1.93 2.73 1.34 0.57 0.44 0.21 0.27 0.44 0.49 1.03 2.41 2.05 2.42 1.83 1.58 1.11 0.45 0.34 0.40 0.37 0.28 0.21 0.28 0.35 0.58 0.57 0.66 0.50 0.33 0.55 0.38 0.29 0.27 0.14 0.07 0.05
0.58 0.68 0.75 0.86 1.19 1.91 1.41 1.93 1.41 0.88 1.80 1.84 0.90 0.57 0.30 0.54 0.71 0.76 1.61 2.47 1.71 1.73 1.52 0.91 0.59 0.45 0.36 0.44 0.60 0.33 0.28 0.24 0.54 0.50 0.56 0.63 0.61 0.25 0.22 0.24 0.25 0.27 0.38 0.16 0.10
0.69 0.71 0.89 1.13 1.55 1.42 2.13 1.40 1.36 0.91 1.27 1.90 1.35 0.70 0.57 0.83 1.12 0.85 1.31 1.90 1.91 1.66 1.68 1.11 0.57 0.48 0.37 0.63 0.58 0.35 0.24 0.33 0.51 0.69 0.56 0.39 0.46 0.14 0.09 0.16 0.21 0.14 0.33 0.33 0.18
0.69 0.78 0.94 1.46 1.47 1.33 1.66 1.48 1.27 1.06 1.83 1.84 1.27 0.65 0.57 0.80 0.99 1.01 1.09 1.56 1.33 1.61 1.64 1.16 0.65 0.65 0.54 0.62 0.26 0.31 0.27 0.33 0.44 0.60 0.54 0.27 0.43 0.10 0.09 0.08 0.08 0.10 0.12 0.39 0.44
1.10 1.23 1.35 1.27 1.09 0.99 0.99 1.45 1.52 1.21 1.88 1.45 0.96 0.80 0.84 0.60 0.53 0.65 1.11 1.36 1.43 1.40 1.34 0.86 0.60 0.77 0.48 0.32 0.22 0.66 0.62 0.58 0.38 0.49 0.75 0.42 0.29 0.13 0.10 0.11 0.16 0.28 0.16 0.32 0.66
1.54 1.82 1.85 1.48 1.06 0.72 1.17 1.49 1.59 1.18 0.86 0.54 0.42 0.32 0.29 0.25 0.37 0.42 0.71 0.95 1.27 1.58 1.78 1.36 0.83 0.66 0.43 0.53 0.27 0.47 0.70 0.97 0.89 0.93 0.43 0.29 0.54 0.25 0.01 0.05 0.14 0.35 0.11 0.17 0.53
1.61 1.49 1.25 1.03 0.93 1.36 1.30 1.10 1.48 1.01 0.45 0.21 0.11 0.23 0.19 0.20 0.25 0.25 0.49 0.61 0.55 0.47 0.95 1.35 1.43 0.79 0.56 0.28 0.22 0.14 0.38 0.84 0.73 0.50 0.35 0.52 0.71 0.35 0.05 0.03 0.12 0.28 0.12 0.10 0.38
1.84 1.52 1.42 1.14 1.03 1.56 1.22 1.04 1.24 0.71 0.21 0.11 0.21 0.32 0.42 0.18 0.14 0.31 0.38 0.24 0.17 0.21 0.55 0.78 0.92 0.42 0.30 0.15 0.25 0.36 0.41 0.25 0.51 0.45 0.71 0.52 0.56 0.54 0.28 0.05 0.19 0.26 0.22 0.19 0.27
1.48 1.67 1.38 1.16 1.13 1.39 1.21 0.93 0.63 0.10 0.00 0.02 0.11 0.09 0.16 0.16 0.18 0.18 0.27 0.24 0.23 0.26 0.21 0.16 0.49 0.27 0.24 0.33 0.26 0.20 0.13 0.21 0.54 0.50 0.45 0.28 0.20 0.62 0.51 0.50 0.46 0.36 0.33 0.29 0.42
1.42 1.82 1.79 1.15 1.42 1.51 1.27 0.95 0.34 0.03 0.01 0.01 0.01 0.02 0.11 0.20 0.06 0.04 0.06 0.07 0.08 0.08 0.01 0.02 0.30 0.25 0.23 0.35 0.17 0.05 0.17 0.14 0.17 0.13 0.17 0.11 0.34 0.66 0.59 0.67 0.58 0.47 0.66 0.74 0.86
1.74 1.70 1.84 1.27 1.58 1.23 0.76 0.46 0.16 0.04 0.01 0.00 0.00 0.01 0.01 0.02 0.01 0.01 0.01 0.02 0.02 0.01 0.01 0.00 0.13 0.16 0.09 0.01 0.02 0.06 0.02 0.06 0.22 0.07 0.12 0.13 0.25 0.39 0.44 0.51 0.61 0.62 0.78 0.88 0.99
1.53 1.84 1.97 0.94 0.76 0.57 0.30 0.08 0.09 0.06 0.03 0.00 0.00 0.00 0.01 0.01 0.01 0.01 0.00 0.00 0.00 0.00 0.01 0.01 0.15 0.21 0.22 0.19 0.11 0.17 0.05 0.09 0.18 0.37 0.26 0.14 0.05 0.04 0.12 0.20 0.31 0.39 0.45 0.51 0.54
1.25 1.75 2.30 1.30 0.36 0.09 0.14 0.12 0.06 0.03 0.01 0.01 0.02 0.02 0.01 0.01 0.00 0.00 0.00 0.00 0.00 0.00 0.02 0.11 0.17 0.12 0.13 0.31 0.41 0.32 0.07 0.09 0.38 0.60 0.11 0.05 0.02 0.01 0.03 0.03 0.06 0.07 0.07 0.06 0.03
0.74 0.47 0.57 0.70 0.23 0.03 0.04 0.07 0.04 0.01 0.01 0.03 0.04 0.04 0.02 0.02 0.01 0.00 0.00 0.00 0.00 0.02 0.13 0.33 0.25 0.11 0.12 0.22 0.58 0.38 0.14 0.10 0.39 0.19 0.26 0.09 0.04 0.04 0.04 0.05 0.05 0.04 0.03 0.03 0.03
0.81 0.29 0.09 0.03 0.02 0.01 0.01 0.04 0.04 0.02 0.03 0.04 0.01 0.01 0.03 0.03 0.01 0.00 0.00 0.00 0.01 0.03 0.13 0.31 0.38 0.33 0.34 0.25 0.35 0.27 0.07 0.11 0.12 0.04 0.05 0.02 0.04 0.05 0.05 0.03 0.08 0.06 0.02 0.01 0.00
0.86 0.29 0.04 0.02 0.01 0.00 0.00 0.02 0.02 0.02 0.03 0.00 0.01 0.02 0.03 0.01 0.01 0.01 0.01 0.01 0.01 0.07 0.26 0.41 0.47 0.64 0.48 0.18 0.19 0.26 0.08 0.06 0.09 0.07 0.03 0.04 0.05 0.07 0.25 0.45 0.39 0.10 0.04 0.02 0.02